<?xml version="1.0" encoding="UTF-8" standalone="no" ?>
<gpx xmlns="http://www.topografix.com/GPX/1/1" xmlns:xsi="http://www.w3.org/2001/XMLSchema-instance" xsi:schemaLocation="http://www.topografix.com/GPX/1/1 http://www.topografix.com/GPX/1/1/gpx.xsd" version="1.1" creator="VisuGPX - https://www.visugpx.com">
  <metadata>
    <name>Tour de Majorque - Day 4: Alcúdia - Palma</name>
  </metadata>
  <trk>
    <name><![CDATA[Mallorca - Day 4: Alcúdia - Palma]]></name>
    <extensions>
      <line xmlns="http://www.topografix.com/GPX/gpx_style/0/2">
        <color>0000FF</color>
        <width>4</width>
      </line>
    </extensions>
    <trkseg>
      <trkpt lat="39.85322" lon="3.12198">
        <ele>56.802063</ele>
        <time>2023-01-05T08:07:10.446Z</time>
      </trkpt>
      <trkpt lat="39.85321" lon="3.12186">
        <ele>56.802063</ele>
        <time>2023-01-05T08:07:25.431Z</time>
      </trkpt>
      <trkpt lat="39.85319" lon="3.12173">
        <ele>56.802063</ele>
        <time>2023-01-05T08:07:29.441Z</time>
      </trkpt>
      <trkpt lat="39.85317" lon="3.12161">
        <ele>56.802063</ele>
        <time>2023-01-05T08:07:33.434Z</time>
      </trkpt>
      <trkpt lat="39.85307" lon="3.12167">
        <ele>56.802063</ele>
        <time>2023-01-05T08:07:37.410Z</time>
      </trkpt>
      <trkpt lat="39.85297" lon="3.12173">
        <ele>56.802063</ele>
        <time>2023-01-05T08:07:42.429Z</time>
      </trkpt>
      <trkpt lat="39.85287" lon="3.12178">
        <ele>56.802063</ele>
        <time>2023-01-05T08:07:46.423Z</time>
      </trkpt>
      <trkpt lat="39.85277" lon="3.12179">
        <ele>56.802063</ele>
        <time>2023-01-05T08:07:49.414Z</time>
      </trkpt>
      <trkpt lat="39.85265" lon="3.1218">
        <ele>56.802063</ele>
        <time>2023-01-05T08:07:53.440Z</time>
      </trkpt>
      <trkpt lat="39.85255" lon="3.12187">
        <ele>56.728443</ele>
        <time>2023-01-05T08:07:56.413Z</time>
      </trkpt>
      <trkpt lat="39.85246" lon="3.12192">
        <ele>56.586794</ele>
        <time>2023-01-05T08:08:00.447Z</time>
      </trkpt>
      <trkpt lat="39.85238" lon="3.1218">
        <ele>56.42051</ele>
        <time>2023-01-05T08:08:04.415Z</time>
      </trkpt>
      <trkpt lat="39.85233" lon="3.1217">
        <ele>56.292029</ele>
        <time>2023-01-05T08:08:07.425Z</time>
      </trkpt>
      <trkpt lat="39.85229" lon="3.12157">
        <ele>56.138176</ele>
        <time>2023-01-05T08:08:10.424Z</time>
      </trkpt>
      <trkpt lat="39.85226" lon="3.12145">
        <ele>56.00598</ele>
        <time>2023-01-05T08:08:13.425Z</time>
      </trkpt>
      <trkpt lat="39.85222" lon="3.12131">
        <ele>55.845129</ele>
        <time>2023-01-05T08:08:17.437Z</time>
      </trkpt>
      <trkpt lat="39.85218" lon="3.12117">
        <ele>55.681696</ele>
        <time>2023-01-05T08:08:21.432Z</time>
      </trkpt>
      <trkpt lat="39.85213" lon="3.12105">
        <ele>55.532034</ele>
        <time>2023-01-05T08:08:25.423Z</time>
      </trkpt>
      <trkpt lat="39.85209" lon="3.12092">
        <ele>55.383902</ele>
        <time>2023-01-05T08:08:29.440Z</time>
      </trkpt>
      <trkpt lat="39.85205" lon="3.12078">
        <ele>55.224088</ele>
        <time>2023-01-05T08:08:33.418Z</time>
      </trkpt>
      <trkpt lat="39.85201" lon="3.12067">
        <ele>55.090436</ele>
        <time>2023-01-05T08:08:36.417Z</time>
      </trkpt>
      <trkpt lat="39.85197" lon="3.12055">
        <ele>54.950785</ele>
        <time>2023-01-05T08:08:39.425Z</time>
      </trkpt>
      <trkpt lat="39.85192" lon="3.12045">
        <ele>54.818075</ele>
        <time>2023-01-05T08:08:42.439Z</time>
      </trkpt>
      <trkpt lat="39.85185" lon="3.12037">
        <ele>54.682094</ele>
        <time>2023-01-05T08:08:45.425Z</time>
      </trkpt>
      <trkpt lat="39.85179" lon="3.12028">
        <ele>54.55254</ele>
        <time>2023-01-05T08:08:48.434Z</time>
      </trkpt>
      <trkpt lat="39.85173" lon="3.12018">
        <ele>54.422319</ele>
        <time>2023-01-05T08:08:52.434Z</time>
      </trkpt>
      <trkpt lat="39.85169" lon="3.12007">
        <ele>54.294165</ele>
        <time>2023-01-05T08:08:58.423Z</time>
      </trkpt>
      <trkpt lat="39.85163" lon="3.11996">
        <ele>54.213046</ele>
        <time>2023-01-05T08:09:03.441Z</time>
      </trkpt>
      <trkpt lat="39.85154" lon="3.11989">
        <ele>54.146806</ele>
        <time>2023-01-05T08:09:06.456Z</time>
      </trkpt>
      <trkpt lat="39.85147" lon="3.11978">
        <ele>54.074353</ele>
        <time>2023-01-05T08:09:09.428Z</time>
      </trkpt>
      <trkpt lat="39.85141" lon="3.11966">
        <ele>54.004521</ele>
        <time>2023-01-05T08:09:12.437Z</time>
      </trkpt>
      <trkpt lat="39.85132" lon="3.11954">
        <ele>53.923708</ele>
        <time>2023-01-05T08:09:15.423Z</time>
      </trkpt>
      <trkpt lat="39.85123" lon="3.11948">
        <ele>53.857708</ele>
        <time>2023-01-05T08:09:17.432Z</time>
      </trkpt>
      <trkpt lat="39.85112" lon="3.11945">
        <ele>53.786401</ele>
        <time>2023-01-05T08:09:19.437Z</time>
      </trkpt>
      <trkpt lat="39.851" lon="3.11947">
        <ele>53.709793</ele>
        <time>2023-01-05T08:09:21.429Z</time>
      </trkpt>
      <trkpt lat="39.85089" lon="3.11954">
        <ele>53.630993</ele>
        <time>2023-01-05T08:09:23.433Z</time>
      </trkpt>
      <trkpt lat="39.85079" lon="3.11963">
        <ele>53.552625</ele>
        <time>2023-01-05T08:09:25.440Z</time>
      </trkpt>
      <trkpt lat="39.85069" lon="3.11973">
        <ele>53.474033</ele>
        <time>2023-01-05T08:09:27.431Z</time>
      </trkpt>
      <trkpt lat="39.85058" lon="3.11983">
        <ele>53.38263</ele>
        <time>2023-01-05T08:09:29.436Z</time>
      </trkpt>
      <trkpt lat="39.85046" lon="3.11995">
        <ele>53.286945</ele>
        <time>2023-01-05T08:09:31.442Z</time>
      </trkpt>
      <trkpt lat="39.85034" lon="3.12005">
        <ele>53.197547</ele>
        <time>2023-01-05T08:09:33.428Z</time>
      </trkpt>
      <trkpt lat="39.85023" lon="3.12015">
        <ele>53.128584</ele>
        <time>2023-01-05T08:09:35.431Z</time>
      </trkpt>
      <trkpt lat="39.85011" lon="3.12025">
        <ele>53.265389</ele>
        <time>2023-01-05T08:09:37.449Z</time>
      </trkpt>
      <trkpt lat="39.85" lon="3.12035">
        <ele>53.400435</ele>
        <time>2023-01-05T08:09:39.446Z</time>
      </trkpt>
      <trkpt lat="39.84989" lon="3.12045">
        <ele>53.532927</ele>
        <time>2023-01-05T08:09:41.443Z</time>
      </trkpt>
      <trkpt lat="39.84979" lon="3.12054">
        <ele>53.654955</ele>
        <time>2023-01-05T08:09:43.424Z</time>
      </trkpt>
      <trkpt lat="39.84969" lon="3.12062">
        <ele>53.774863</ele>
        <time>2023-01-05T08:09:45.446Z</time>
      </trkpt>
      <trkpt lat="39.84959" lon="3.1207">
        <ele>53.893853</ele>
        <time>2023-01-05T08:09:47.427Z</time>
      </trkpt>
      <trkpt lat="39.8495" lon="3.12078">
        <ele>54.0078</ele>
        <time>2023-01-05T08:09:49.442Z</time>
      </trkpt>
      <trkpt lat="39.8494" lon="3.12086">
        <ele>54.122574</ele>
        <time>2023-01-05T08:09:51.444Z</time>
      </trkpt>
      <trkpt lat="39.84931" lon="3.12094">
        <ele>54.236522</ele>
        <time>2023-01-05T08:09:53.430Z</time>
      </trkpt>
      <trkpt lat="39.84921" lon="3.12101">
        <ele>54.346065</ele>
        <time>2023-01-05T08:09:55.442Z</time>
      </trkpt>
      <trkpt lat="39.84911" lon="3.12107">
        <ele>54.453636</ele>
        <time>2023-01-05T08:09:57.441Z</time>
      </trkpt>
      <trkpt lat="39.84902" lon="3.12112">
        <ele>54.556236</ele>
        <time>2023-01-05T08:09:59.421Z</time>
      </trkpt>
      <trkpt lat="39.84893" lon="3.12118">
        <ele>54.660623</ele>
        <time>2023-01-05T08:10:01.443Z</time>
      </trkpt>
      <trkpt lat="39.84883" lon="3.12123">
        <ele>54.769165</ele>
        <time>2023-01-05T08:10:03.428Z</time>
      </trkpt>
      <trkpt lat="39.84873" lon="3.12128">
        <ele>54.878484</ele>
        <time>2023-01-05T08:10:05.440Z</time>
      </trkpt>
      <trkpt lat="39.84863" lon="3.12134">
        <ele>54.854829</ele>
        <time>2023-01-05T08:10:07.434Z</time>
      </trkpt>
      <trkpt lat="39.84853" lon="3.12141">
        <ele>54.718543</ele>
        <time>2023-01-05T08:10:09.435Z</time>
      </trkpt>
      <trkpt lat="39.84843" lon="3.12148">
        <ele>54.5848</ele>
        <time>2023-01-05T08:10:11.428Z</time>
      </trkpt>
      <trkpt lat="39.84833" lon="3.12154">
        <ele>54.455916</ele>
        <time>2023-01-05T08:10:13.440Z</time>
      </trkpt>
      <trkpt lat="39.84824" lon="3.1216">
        <ele>54.330626</ele>
        <time>2023-01-05T08:10:15.440Z</time>
      </trkpt>
      <trkpt lat="39.84815" lon="3.12167">
        <ele>54.211699</ele>
        <time>2023-01-05T08:10:17.445Z</time>
      </trkpt>
      <trkpt lat="39.84807" lon="3.12172">
        <ele>54.101134</ele>
        <time>2023-01-05T08:10:19.449Z</time>
      </trkpt>
      <trkpt lat="39.84798" lon="3.12177">
        <ele>53.986935</ele>
        <time>2023-01-05T08:10:21.439Z</time>
      </trkpt>
      <trkpt lat="39.84789" lon="3.12182">
        <ele>53.867941</ele>
        <time>2023-01-05T08:10:23.444Z</time>
      </trkpt>
      <trkpt lat="39.8478" lon="3.12188">
        <ele>53.744127</ele>
        <time>2023-01-05T08:10:25.452Z</time>
      </trkpt>
      <trkpt lat="39.8477" lon="3.12196">
        <ele>53.608405</ele>
        <time>2023-01-05T08:10:27.450Z</time>
      </trkpt>
      <trkpt lat="39.8476" lon="3.12205">
        <ele>53.465123</ele>
        <time>2023-01-05T08:10:29.428Z</time>
      </trkpt>
      <trkpt lat="39.84752" lon="3.12216">
        <ele>53.328787</ele>
        <time>2023-01-05T08:10:31.451Z</time>
      </trkpt>
      <trkpt lat="39.84746" lon="3.12229">
        <ele>53.181116</ele>
        <time>2023-01-05T08:10:33.438Z</time>
      </trkpt>
      <trkpt lat="39.84741" lon="3.12246">
        <ele>53.01987</ele>
        <time>2023-01-05T08:10:35.436Z</time>
      </trkpt>
      <trkpt lat="39.84736" lon="3.12264">
        <ele>52.843216</ele>
        <time>2023-01-05T08:10:37.441Z</time>
      </trkpt>
      <trkpt lat="39.84729" lon="3.12281">
        <ele>52.441827</ele>
        <time>2023-01-05T08:10:39.428Z</time>
      </trkpt>
      <trkpt lat="39.84718" lon="3.12296">
        <ele>51.866107</ele>
        <time>2023-01-05T08:10:41.448Z</time>
      </trkpt>
      <trkpt lat="39.84707" lon="3.1231">
        <ele>51.27965</ele>
        <time>2023-01-05T08:10:43.431Z</time>
      </trkpt>
      <trkpt lat="39.84695" lon="3.12325">
        <ele>50.691787</ele>
        <time>2023-01-05T08:10:45.443Z</time>
      </trkpt>
      <trkpt lat="39.84685" lon="3.12341">
        <ele>50.108323</ele>
        <time>2023-01-05T08:10:47.459Z</time>
      </trkpt>
      <trkpt lat="39.84673" lon="3.12356">
        <ele>49.503638</ele>
        <time>2023-01-05T08:10:49.445Z</time>
      </trkpt>
      <trkpt lat="39.84661" lon="3.12373">
        <ele>48.876096</ele>
        <time>2023-01-05T08:10:51.442Z</time>
      </trkpt>
      <trkpt lat="39.8465" lon="3.12389">
        <ele>48.255151</ele>
        <time>2023-01-05T08:10:53.436Z</time>
      </trkpt>
      <trkpt lat="39.84638" lon="3.12405">
        <ele>47.646577</ele>
        <time>2023-01-05T08:10:55.441Z</time>
      </trkpt>
      <trkpt lat="39.84629" lon="3.1242">
        <ele>47.095606</ele>
        <time>2023-01-05T08:10:57.441Z</time>
      </trkpt>
      <trkpt lat="39.84621" lon="3.1243">
        <ele>46.691604</ele>
        <time>2023-01-05T08:10:59.446Z</time>
      </trkpt>
      <trkpt lat="39.84609" lon="3.12432">
        <ele>46.250449</ele>
        <time>2023-01-05T08:11:02.442Z</time>
      </trkpt>
      <trkpt lat="39.84599" lon="3.12432">
        <ele>46.271328</ele>
        <time>2023-01-05T08:11:04.440Z</time>
      </trkpt>
      <trkpt lat="39.84589" lon="3.12437">
        <ele>46.322329</ele>
        <time>2023-01-05T08:11:06.447Z</time>
      </trkpt>
      <trkpt lat="39.84582" lon="3.12444">
        <ele>46.369953</ele>
        <time>2023-01-05T08:11:08.452Z</time>
      </trkpt>
      <trkpt lat="39.84571" lon="3.12449">
        <ele>46.422253</ele>
        <time>2023-01-05T08:11:10.436Z</time>
      </trkpt>
      <trkpt lat="39.8456" lon="3.12445">
        <ele>46.479217</ele>
        <time>2023-01-05T08:11:12.436Z</time>
      </trkpt>
      <trkpt lat="39.8455" lon="3.12438">
        <ele>46.534294</ele>
        <time>2023-01-05T08:11:14.449Z</time>
      </trkpt>
      <trkpt lat="39.8454" lon="3.12433">
        <ele>46.587521</ele>
        <time>2023-01-05T08:11:16.442Z</time>
      </trkpt>
      <trkpt lat="39.84531" lon="3.12425">
        <ele>46.640998</ele>
        <time>2023-01-05T08:11:18.450Z</time>
      </trkpt>
      <trkpt lat="39.84522" lon="3.12416">
        <ele>46.697198</ele>
        <time>2023-01-05T08:11:21.449Z</time>
      </trkpt>
      <trkpt lat="39.8451" lon="3.12409">
        <ele>46.75826</ele>
        <time>2023-01-05T08:11:24.440Z</time>
      </trkpt>
      <trkpt lat="39.84499" lon="3.12401">
        <ele>46.819801</ele>
        <time>2023-01-05T08:11:27.449Z</time>
      </trkpt>
      <trkpt lat="39.84489" lon="3.12393">
        <ele>46.87903</ele>
        <time>2023-01-05T08:11:30.441Z</time>
      </trkpt>
      <trkpt lat="39.84479" lon="3.12387">
        <ele>46.930107</ele>
        <time>2023-01-05T08:11:33.432Z</time>
      </trkpt>
      <trkpt lat="39.84471" lon="3.12384">
        <ele>46.975452</ele>
        <time>2023-01-05T08:11:37.440Z</time>
      </trkpt>
      <trkpt lat="39.84459" lon="3.12381">
        <ele>47.033062</ele>
        <time>2023-01-05T08:11:40.450Z</time>
      </trkpt>
      <trkpt lat="39.84448" lon="3.12375">
        <ele>47.091363</ele>
        <time>2023-01-05T08:11:43.437Z</time>
      </trkpt>
      <trkpt lat="39.84436" lon="3.12369">
        <ele>47.208234</ele>
        <time>2023-01-05T08:11:46.440Z</time>
      </trkpt>
      <trkpt lat="39.84425" lon="3.12361">
        <ele>47.349626</ele>
        <time>2023-01-05T08:11:49.446Z</time>
      </trkpt>
      <trkpt lat="39.84416" lon="3.12357">
        <ele>47.446371</ele>
        <time>2023-01-05T08:11:51.444Z</time>
      </trkpt>
      <trkpt lat="39.84405" lon="3.1235">
        <ele>47.578911</ele>
        <time>2023-01-05T08:11:54.462Z</time>
      </trkpt>
      <trkpt lat="39.84395" lon="3.12343">
        <ele>47.704919</ele>
        <time>2023-01-05T08:11:57.441Z</time>
      </trkpt>
      <trkpt lat="39.84386" lon="3.12341">
        <ele>47.803487</ele>
        <time>2023-01-05T08:12:00.446Z</time>
      </trkpt>
      <trkpt lat="39.84375" lon="3.12344">
        <ele>47.921314</ele>
        <time>2023-01-05T08:12:03.434Z</time>
      </trkpt>
      <trkpt lat="39.84364" lon="3.1234">
        <ele>48.048813</ele>
        <time>2023-01-05T08:12:06.446Z</time>
      </trkpt>
      <trkpt lat="39.84352" lon="3.12334">
        <ele>48.180524</ele>
        <time>2023-01-05T08:12:09.417Z</time>
      </trkpt>
      <trkpt lat="39.8434" lon="3.12328">
        <ele>48.319899</ele>
        <time>2023-01-05T08:12:12.441Z</time>
      </trkpt>
      <trkpt lat="39.84331" lon="3.12321">
        <ele>48.439592</ele>
        <time>2023-01-05T08:12:15.451Z</time>
      </trkpt>
      <trkpt lat="39.84322" lon="3.12316">
        <ele>48.540893</ele>
        <time>2023-01-05T08:12:18.459Z</time>
      </trkpt>
      <trkpt lat="39.84313" lon="3.12309">
        <ele>48.653311</ele>
        <time>2023-01-05T08:12:21.452Z</time>
      </trkpt>
      <trkpt lat="39.84302" lon="3.12304">
        <ele>48.775892</ele>
        <time>2023-01-05T08:12:24.453Z</time>
      </trkpt>
      <trkpt lat="39.84291" lon="3.12298">
        <ele>48.906613</ele>
        <time>2023-01-05T08:12:27.443Z</time>
      </trkpt>
      <trkpt lat="39.84281" lon="3.12291">
        <ele>49.03373</ele>
        <time>2023-01-05T08:12:30.444Z</time>
      </trkpt>
      <trkpt lat="39.8427" lon="3.12284">
        <ele>49.146588</ele>
        <time>2023-01-05T08:12:33.436Z</time>
      </trkpt>
      <trkpt lat="39.84259" lon="3.12277">
        <ele>49.256322</ele>
        <time>2023-01-05T08:12:36.428Z</time>
      </trkpt>
      <trkpt lat="39.84249" lon="3.12267">
        <ele>49.366976</ele>
        <time>2023-01-05T08:12:39.437Z</time>
      </trkpt>
      <trkpt lat="39.84238" lon="3.1226">
        <ele>49.479117</ele>
        <time>2023-01-05T08:12:42.434Z</time>
      </trkpt>
      <trkpt lat="39.84227" lon="3.12253">
        <ele>49.593802</ele>
        <time>2023-01-05T08:12:45.437Z</time>
      </trkpt>
      <trkpt lat="39.84215" lon="3.12246">
        <ele>49.713245</ele>
        <time>2023-01-05T08:12:48.442Z</time>
      </trkpt>
      <trkpt lat="39.84203" lon="3.12238">
        <ele>49.831055</ele>
        <time>2023-01-05T08:12:51.465Z</time>
      </trkpt>
      <trkpt lat="39.84195" lon="3.12233">
        <ele>49.912858</ele>
        <time>2023-01-05T08:12:53.433Z</time>
      </trkpt>
      <trkpt lat="39.84182" lon="3.12226">
        <ele>50.037046</ele>
        <time>2023-01-05T08:12:56.424Z</time>
      </trkpt>
      <trkpt lat="39.8417" lon="3.12219">
        <ele>50.157798</ele>
        <time>2023-01-05T08:12:59.449Z</time>
      </trkpt>
      <trkpt lat="39.84159" lon="3.12212">
        <ele>50.269136</ele>
        <time>2023-01-05T08:13:02.451Z</time>
      </trkpt>
      <trkpt lat="39.84148" lon="3.12206">
        <ele>50.381933</ele>
        <time>2023-01-05T08:13:05.437Z</time>
      </trkpt>
      <trkpt lat="39.84137" lon="3.12199">
        <ele>50.49327</ele>
        <time>2023-01-05T08:13:08.446Z</time>
      </trkpt>
      <trkpt lat="39.84125" lon="3.12192">
        <ele>50.612084</ele>
        <time>2023-01-05T08:13:11.423Z</time>
      </trkpt>
      <trkpt lat="39.84114" lon="3.12184">
        <ele>50.632694</ele>
        <time>2023-01-05T08:13:14.444Z</time>
      </trkpt>
      <trkpt lat="39.84103" lon="3.12178">
        <ele>50.522231</ele>
        <time>2023-01-05T08:13:17.436Z</time>
      </trkpt>
      <trkpt lat="39.84092" lon="3.12171">
        <ele>50.403545</ele>
        <time>2023-01-05T08:13:20.439Z</time>
      </trkpt>
      <trkpt lat="39.8408" lon="3.12164">
        <ele>50.282752</ele>
        <time>2023-01-05T08:13:23.444Z</time>
      </trkpt>
      <trkpt lat="39.84072" lon="3.12159">
        <ele>50.198022</ele>
        <time>2023-01-05T08:13:25.452Z</time>
      </trkpt>
      <trkpt lat="39.84063" lon="3.12154">
        <ele>50.109032</ele>
        <time>2023-01-05T08:13:27.437Z</time>
      </trkpt>
      <trkpt lat="39.84055" lon="3.12149">
        <ele>50.020601</ele>
        <time>2023-01-05T08:13:29.432Z</time>
      </trkpt>
      <trkpt lat="39.84046" lon="3.12143">
        <ele>49.930719</ele>
        <time>2023-01-05T08:13:31.437Z</time>
      </trkpt>
      <trkpt lat="39.84037" lon="3.12138">
        <ele>49.836532</ele>
        <time>2023-01-05T08:13:34.459Z</time>
      </trkpt>
      <trkpt lat="39.84028" lon="3.12131">
        <ele>49.74384</ele>
        <time>2023-01-05T08:13:37.420Z</time>
      </trkpt>
      <trkpt lat="39.8402" lon="3.12126">
        <ele>49.65511</ele>
        <time>2023-01-05T08:13:40.481Z</time>
      </trkpt>
      <trkpt lat="39.8401" lon="3.12123">
        <ele>49.565417</ele>
        <time>2023-01-05T08:13:43.462Z</time>
      </trkpt>
      <trkpt lat="39.84003" lon="3.12116">
        <ele>49.478975</ele>
        <time>2023-01-05T08:13:47.443Z</time>
      </trkpt>
      <trkpt lat="39.83998" lon="3.12101">
        <ele>49.363532</ele>
        <time>2023-01-05T08:13:51.431Z</time>
      </trkpt>
      <trkpt lat="39.8399" lon="3.12092">
        <ele>49.262248</ele>
        <time>2023-01-05T08:13:54.444Z</time>
      </trkpt>
      <trkpt lat="39.83978" lon="3.1209">
        <ele>49.149034</ele>
        <time>2023-01-05T08:13:57.433Z</time>
      </trkpt>
      <trkpt lat="39.83965" lon="3.12093">
        <ele>49.026178</ele>
        <time>2023-01-05T08:14:00.434Z</time>
      </trkpt>
      <trkpt lat="39.83953" lon="3.1209">
        <ele>48.804857</ele>
        <time>2023-01-05T08:14:03.423Z</time>
      </trkpt>
      <trkpt lat="39.83942" lon="3.12082">
        <ele>48.551222</ele>
        <time>2023-01-05T08:14:06.436Z</time>
      </trkpt>
      <trkpt lat="39.83931" lon="3.12072">
        <ele>48.274963</ele>
        <time>2023-01-05T08:14:09.443Z</time>
      </trkpt>
      <trkpt lat="39.83924" lon="3.12066">
        <ele>48.088963</ele>
        <time>2023-01-05T08:14:11.448Z</time>
      </trkpt>
      <trkpt lat="39.83916" lon="3.12059">
        <ele>47.900211</ele>
        <time>2023-01-05T08:14:13.430Z</time>
      </trkpt>
      <trkpt lat="39.83909" lon="3.12052">
        <ele>47.710703</ele>
        <time>2023-01-05T08:14:15.443Z</time>
      </trkpt>
      <trkpt lat="39.839" lon="3.12048">
        <ele>47.51198</ele>
        <time>2023-01-05T08:14:17.438Z</time>
      </trkpt>
      <trkpt lat="39.83891" lon="3.12043">
        <ele>47.315083</ele>
        <time>2023-01-05T08:14:19.437Z</time>
      </trkpt>
      <trkpt lat="39.83882" lon="3.12037">
        <ele>47.109912</ele>
        <time>2023-01-05T08:14:21.439Z</time>
      </trkpt>
      <trkpt lat="39.83873" lon="3.12031">
        <ele>46.903087</ele>
        <time>2023-01-05T08:14:23.436Z</time>
      </trkpt>
      <trkpt lat="39.83864" lon="3.12026">
        <ele>46.691025</ele>
        <time>2023-01-05T08:14:25.453Z</time>
      </trkpt>
      <trkpt lat="39.83854" lon="3.12021">
        <ele>46.478903</ele>
        <time>2023-01-05T08:14:27.441Z</time>
      </trkpt>
      <trkpt lat="39.83845" lon="3.12014">
        <ele>46.259259</ele>
        <time>2023-01-05T08:14:29.439Z</time>
      </trkpt>
      <trkpt lat="39.83835" lon="3.12009">
        <ele>46.041461</ele>
        <time>2023-01-05T08:14:31.435Z</time>
      </trkpt>
      <trkpt lat="39.83826" lon="3.12004">
        <ele>45.831305</ele>
        <time>2023-01-05T08:14:33.425Z</time>
      </trkpt>
      <trkpt lat="39.83816" lon="3.11998">
        <ele>45.615264</ele>
        <time>2023-01-05T08:14:35.463Z</time>
      </trkpt>
      <trkpt lat="39.83807" lon="3.11993">
        <ele>45.398782</ele>
        <time>2023-01-05T08:14:37.450Z</time>
      </trkpt>
      <trkpt lat="39.83798" lon="3.11986">
        <ele>45.328498</ele>
        <time>2023-01-05T08:14:39.458Z</time>
      </trkpt>
      <trkpt lat="39.83789" lon="3.1198">
        <ele>45.431321</ele>
        <time>2023-01-05T08:14:41.446Z</time>
      </trkpt>
      <trkpt lat="39.8378" lon="3.11975">
        <ele>45.534395</ele>
        <time>2023-01-05T08:14:43.461Z</time>
      </trkpt>
      <trkpt lat="39.8377" lon="3.1197">
        <ele>45.639377</ele>
        <time>2023-01-05T08:14:45.442Z</time>
      </trkpt>
      <trkpt lat="39.83761" lon="3.11965">
        <ele>45.746202</ele>
        <time>2023-01-05T08:14:47.430Z</time>
      </trkpt>
      <trkpt lat="39.83752" lon="3.11959">
        <ele>45.845706</ele>
        <time>2023-01-05T08:14:49.435Z</time>
      </trkpt>
      <trkpt lat="39.83743" lon="3.11953">
        <ele>45.945415</ele>
        <time>2023-01-05T08:14:51.443Z</time>
      </trkpt>
      <trkpt lat="39.83735" lon="3.11949">
        <ele>46.042492</ele>
        <time>2023-01-05T08:14:53.434Z</time>
      </trkpt>
      <trkpt lat="39.83726" lon="3.11945">
        <ele>46.136585</ele>
        <time>2023-01-05T08:14:55.436Z</time>
      </trkpt>
      <trkpt lat="39.83718" lon="3.11939">
        <ele>46.232992</ele>
        <time>2023-01-05T08:14:57.425Z</time>
      </trkpt>
      <trkpt lat="39.83709" lon="3.11933">
        <ele>46.32977</ele>
        <time>2023-01-05T08:14:59.433Z</time>
      </trkpt>
      <trkpt lat="39.83701" lon="3.11927">
        <ele>46.429274</ele>
        <time>2023-01-05T08:15:01.447Z</time>
      </trkpt>
      <trkpt lat="39.83689" lon="3.11919">
        <ele>46.567064</ele>
        <time>2023-01-05T08:15:04.443Z</time>
      </trkpt>
      <trkpt lat="39.8368" lon="3.11914">
        <ele>46.664786</ele>
        <time>2023-01-05T08:15:06.438Z</time>
      </trkpt>
      <trkpt lat="39.83668" lon="3.11907">
        <ele>46.800205</ele>
        <time>2023-01-05T08:15:09.437Z</time>
      </trkpt>
      <trkpt lat="39.8366" lon="3.11903">
        <ele>46.895813</ele>
        <time>2023-01-05T08:15:11.429Z</time>
      </trkpt>
      <trkpt lat="39.83651" lon="3.11898">
        <ele>46.993838</ele>
        <time>2023-01-05T08:15:13.435Z</time>
      </trkpt>
      <trkpt lat="39.83641" lon="3.11893">
        <ele>47.097009</ele>
        <time>2023-01-05T08:15:15.459Z</time>
      </trkpt>
      <trkpt lat="39.83632" lon="3.11888">
        <ele>47.073452</ele>
        <time>2023-01-05T08:15:17.451Z</time>
      </trkpt>
      <trkpt lat="39.83623" lon="3.11882">
        <ele>46.99193</ele>
        <time>2023-01-05T08:15:19.447Z</time>
      </trkpt>
      <trkpt lat="39.83614" lon="3.11877">
        <ele>46.908573</ele>
        <time>2023-01-05T08:15:21.461Z</time>
      </trkpt>
      <trkpt lat="39.83605" lon="3.11871">
        <ele>46.829499</ele>
        <time>2023-01-05T08:15:23.439Z</time>
      </trkpt>
      <trkpt lat="39.83596" lon="3.11866">
        <ele>46.747952</ele>
        <time>2023-01-05T08:15:25.454Z</time>
      </trkpt>
      <trkpt lat="39.83587" lon="3.11859">
        <ele>46.665094</ele>
        <time>2023-01-05T08:15:27.441Z</time>
      </trkpt>
      <trkpt lat="39.83577" lon="3.11852">
        <ele>46.577689</ele>
        <time>2023-01-05T08:15:29.431Z</time>
      </trkpt>
      <trkpt lat="39.83568" lon="3.11846">
        <ele>46.490446</ele>
        <time>2023-01-05T08:15:31.435Z</time>
      </trkpt>
      <trkpt lat="39.83558" lon="3.1184">
        <ele>46.401317</ele>
        <time>2023-01-05T08:15:33.441Z</time>
      </trkpt>
      <trkpt lat="39.83549" lon="3.11833">
        <ele>46.321415</ele>
        <time>2023-01-05T08:15:35.443Z</time>
      </trkpt>
      <trkpt lat="39.8354" lon="3.11828">
        <ele>46.237904</ele>
        <time>2023-01-05T08:15:37.459Z</time>
      </trkpt>
      <trkpt lat="39.83531" lon="3.11822">
        <ele>46.154879</ele>
        <time>2023-01-05T08:15:39.439Z</time>
      </trkpt>
      <trkpt lat="39.83522" lon="3.11818">
        <ele>46.075427</ele>
        <time>2023-01-05T08:15:41.454Z</time>
      </trkpt>
      <trkpt lat="39.83513" lon="3.11814">
        <ele>45.999027</ele>
        <time>2023-01-05T08:15:43.432Z</time>
      </trkpt>
      <trkpt lat="39.83504" lon="3.11809">
        <ele>45.919453</ele>
        <time>2023-01-05T08:15:45.430Z</time>
      </trkpt>
      <trkpt lat="39.83494" lon="3.11806">
        <ele>45.836687</ele>
        <time>2023-01-05T08:15:47.432Z</time>
      </trkpt>
      <trkpt lat="39.83484" lon="3.11802">
        <ele>45.757643</ele>
        <time>2023-01-05T08:15:49.434Z</time>
      </trkpt>
      <trkpt lat="39.83475" lon="3.11799">
        <ele>45.67878</ele>
        <time>2023-01-05T08:15:51.437Z</time>
      </trkpt>
      <trkpt lat="39.83466" lon="3.11795">
        <ele>45.701579</ele>
        <time>2023-01-05T08:15:53.435Z</time>
      </trkpt>
      <trkpt lat="39.83456" lon="3.11793">
        <ele>45.737492</ele>
        <time>2023-01-05T08:15:55.448Z</time>
      </trkpt>
      <trkpt lat="39.83446" lon="3.11789">
        <ele>45.777065</ele>
        <time>2023-01-05T08:15:57.441Z</time>
      </trkpt>
      <trkpt lat="39.83437" lon="3.11786">
        <ele>45.813262</ele>
        <time>2023-01-05T08:15:59.448Z</time>
      </trkpt>
      <trkpt lat="39.83427" lon="3.11783">
        <ele>45.850163</ele>
        <time>2023-01-05T08:16:01.446Z</time>
      </trkpt>
      <trkpt lat="39.83417" lon="3.11779">
        <ele>45.886919</ele>
        <time>2023-01-05T08:16:03.433Z</time>
      </trkpt>
      <trkpt lat="39.83408" lon="3.11775">
        <ele>45.924537</ele>
        <time>2023-01-05T08:16:05.443Z</time>
      </trkpt>
      <trkpt lat="39.83399" lon="3.11771">
        <ele>45.959254</ele>
        <time>2023-01-05T08:16:07.443Z</time>
      </trkpt>
      <trkpt lat="39.8339" lon="3.11768">
        <ele>45.994626</ele>
        <time>2023-01-05T08:16:09.441Z</time>
      </trkpt>
      <trkpt lat="39.83381" lon="3.11765">
        <ele>46.028563</ele>
        <time>2023-01-05T08:16:11.429Z</time>
      </trkpt>
      <trkpt lat="39.83372" lon="3.11761">
        <ele>46.064287</ele>
        <time>2023-01-05T08:16:13.431Z</time>
      </trkpt>
      <trkpt lat="39.83364" lon="3.11754">
        <ele>46.101566</ele>
        <time>2023-01-05T08:16:15.427Z</time>
      </trkpt>
      <trkpt lat="39.83353" lon="3.11751">
        <ele>46.140994</ele>
        <time>2023-01-05T08:16:17.439Z</time>
      </trkpt>
      <trkpt lat="39.83344" lon="3.11747">
        <ele>46.178036</ele>
        <time>2023-01-05T08:16:19.437Z</time>
      </trkpt>
      <trkpt lat="39.83335" lon="3.11745">
        <ele>46.213285</ele>
        <time>2023-01-05T08:16:21.432Z</time>
      </trkpt>
      <trkpt lat="39.83325" lon="3.11742">
        <ele>46.24997</ele>
        <time>2023-01-05T08:16:23.429Z</time>
      </trkpt>
      <trkpt lat="39.83315" lon="3.1174">
        <ele>46.286187</ele>
        <time>2023-01-05T08:16:25.442Z</time>
      </trkpt>
      <trkpt lat="39.83306" lon="3.11737">
        <ele>46.32071</ele>
        <time>2023-01-05T08:16:27.441Z</time>
      </trkpt>
      <trkpt lat="39.83298" lon="3.11734">
        <ele>46.38386</ele>
        <time>2023-01-05T08:16:29.452Z</time>
      </trkpt>
      <trkpt lat="39.83289" lon="3.1173">
        <ele>46.490341</ele>
        <time>2023-01-05T08:16:31.464Z</time>
      </trkpt>
      <trkpt lat="39.83276" lon="3.11725">
        <ele>46.640586</ele>
        <time>2023-01-05T08:16:34.449Z</time>
      </trkpt>
      <trkpt lat="39.83267" lon="3.11723">
        <ele>46.744997</ele>
        <time>2023-01-05T08:16:36.458Z</time>
      </trkpt>
      <trkpt lat="39.83258" lon="3.1172">
        <ele>46.848842</ele>
        <time>2023-01-05T08:16:38.444Z</time>
      </trkpt>
      <trkpt lat="39.83249" lon="3.11717">
        <ele>46.958109</ele>
        <time>2023-01-05T08:16:40.443Z</time>
      </trkpt>
      <trkpt lat="39.8324" lon="3.11714">
        <ele>47.067793</ele>
        <time>2023-01-05T08:16:42.447Z</time>
      </trkpt>
      <trkpt lat="39.8323" lon="3.11711">
        <ele>47.181312</ele>
        <time>2023-01-05T08:16:44.434Z</time>
      </trkpt>
      <trkpt lat="39.83221" lon="3.11707">
        <ele>47.294301</ele>
        <time>2023-01-05T08:16:46.450Z</time>
      </trkpt>
      <trkpt lat="39.83211" lon="3.11704">
        <ele>47.409529</ele>
        <time>2023-01-05T08:16:48.467Z</time>
      </trkpt>
      <trkpt lat="39.83201" lon="3.11701">
        <ele>47.522127</ele>
        <time>2023-01-05T08:16:50.447Z</time>
      </trkpt>
      <trkpt lat="39.83193" lon="3.11697">
        <ele>47.628336</ele>
        <time>2023-01-05T08:16:52.443Z</time>
      </trkpt>
      <trkpt lat="39.83184" lon="3.11694">
        <ele>47.731548</ele>
        <time>2023-01-05T08:16:54.443Z</time>
      </trkpt>
      <trkpt lat="39.83171" lon="3.11689">
        <ele>47.882047</ele>
        <time>2023-01-05T08:16:57.435Z</time>
      </trkpt>
      <trkpt lat="39.8316" lon="3.11684">
        <ele>48.013875</ele>
        <time>2023-01-05T08:17:00.444Z</time>
      </trkpt>
      <trkpt lat="39.8315" lon="3.11681">
        <ele>48.139038</ele>
        <time>2023-01-05T08:17:03.440Z</time>
      </trkpt>
      <trkpt lat="39.8314" lon="3.11679">
        <ele>48.254634</ele>
        <time>2023-01-05T08:17:06.431Z</time>
      </trkpt>
      <trkpt lat="39.83128" lon="3.11675">
        <ele>48.389979</ele>
        <time>2023-01-05T08:17:09.441Z</time>
      </trkpt>
      <trkpt lat="39.83117" lon="3.11671">
        <ele>48.295078</ele>
        <time>2023-01-05T08:17:12.446Z</time>
      </trkpt>
      <trkpt lat="39.83104" lon="3.11668">
        <ele>48.184004</ele>
        <time>2023-01-05T08:17:15.444Z</time>
      </trkpt>
      <trkpt lat="39.83092" lon="3.11664">
        <ele>48.073167</ele>
        <time>2023-01-05T08:17:18.464Z</time>
      </trkpt>
      <trkpt lat="39.8308" lon="3.1166">
        <ele>47.966325</ele>
        <time>2023-01-05T08:17:21.460Z</time>
      </trkpt>
      <trkpt lat="39.83068" lon="3.11657">
        <ele>47.862169</ele>
        <time>2023-01-05T08:17:24.449Z</time>
      </trkpt>
      <trkpt lat="39.83057" lon="3.11653">
        <ele>47.761692</ele>
        <time>2023-01-05T08:17:27.448Z</time>
      </trkpt>
      <trkpt lat="39.83046" lon="3.1165">
        <ele>47.665739</ele>
        <time>2023-01-05T08:17:30.443Z</time>
      </trkpt>
      <trkpt lat="39.83035" lon="3.11647">
        <ele>47.572612</ele>
        <time>2023-01-05T08:17:33.438Z</time>
      </trkpt>
      <trkpt lat="39.83024" lon="3.11642">
        <ele>47.465152</ele>
        <time>2023-01-05T08:17:36.466Z</time>
      </trkpt>
      <trkpt lat="39.83011" lon="3.11639">
        <ele>47.356905</ele>
        <time>2023-01-05T08:17:39.451Z</time>
      </trkpt>
      <trkpt lat="39.82999" lon="3.11634">
        <ele>47.243002</ele>
        <time>2023-01-05T08:17:42.440Z</time>
      </trkpt>
      <trkpt lat="39.8299" lon="3.11632">
        <ele>47.163864</ele>
        <time>2023-01-05T08:17:44.455Z</time>
      </trkpt>
      <trkpt lat="39.82977" lon="3.11628">
        <ele>47.050499</ele>
        <time>2023-01-05T08:17:47.440Z</time>
      </trkpt>
      <trkpt lat="39.82964" lon="3.11623">
        <ele>46.934454</ele>
        <time>2023-01-05T08:17:50.451Z</time>
      </trkpt>
      <trkpt lat="39.82955" lon="3.1162">
        <ele>46.855</ele>
        <time>2023-01-05T08:17:52.445Z</time>
      </trkpt>
      <trkpt lat="39.82946" lon="3.11617">
        <ele>46.8789</ele>
        <time>2023-01-05T08:17:54.452Z</time>
      </trkpt>
      <trkpt lat="39.82938" lon="3.11613">
        <ele>46.936758</ele>
        <time>2023-01-05T08:17:56.455Z</time>
      </trkpt>
      <trkpt lat="39.82925" lon="3.11609">
        <ele>47.018389</ele>
        <time>2023-01-05T08:17:59.441Z</time>
      </trkpt>
      <trkpt lat="39.82916" lon="3.11607">
        <ele>47.076496</ele>
        <time>2023-01-05T08:18:01.445Z</time>
      </trkpt>
      <trkpt lat="39.82907" lon="3.11604">
        <ele>47.133988</ele>
        <time>2023-01-05T08:18:03.438Z</time>
      </trkpt>
      <trkpt lat="39.82895" lon="3.11601">
        <ele>47.213451</ele>
        <time>2023-01-05T08:18:06.442Z</time>
      </trkpt>
      <trkpt lat="39.82884" lon="3.11597">
        <ele>47.282622</ele>
        <time>2023-01-05T08:18:09.443Z</time>
      </trkpt>
      <trkpt lat="39.82873" lon="3.11593">
        <ele>47.352657</ele>
        <time>2023-01-05T08:18:12.450Z</time>
      </trkpt>
      <trkpt lat="39.82863" lon="3.1159">
        <ele>47.421348</ele>
        <time>2023-01-05T08:18:15.439Z</time>
      </trkpt>
      <trkpt lat="39.82853" lon="3.11587">
        <ele>47.487388</ele>
        <time>2023-01-05T08:18:18.442Z</time>
      </trkpt>
      <trkpt lat="39.82842" lon="3.11585">
        <ele>47.554705</ele>
        <time>2023-01-05T08:18:21.452Z</time>
      </trkpt>
      <trkpt lat="39.82833" lon="3.11581">
        <ele>47.618172</ele>
        <time>2023-01-05T08:18:24.448Z</time>
      </trkpt>
      <trkpt lat="39.82823" lon="3.1158">
        <ele>47.676991</ele>
        <time>2023-01-05T08:18:27.418Z</time>
      </trkpt>
      <trkpt lat="39.82813" lon="3.11577">
        <ele>47.744853</ele>
        <time>2023-01-05T08:18:31.437Z</time>
      </trkpt>
      <trkpt lat="39.82804" lon="3.11573">
        <ele>47.804198</ele>
        <time>2023-01-05T08:18:36.439Z</time>
      </trkpt>
      <trkpt lat="39.82792" lon="3.11574">
        <ele>47.877627</ele>
        <time>2023-01-05T08:19:05.443Z</time>
      </trkpt>
      <trkpt lat="39.82783" lon="3.11573">
        <ele>47.937702</ele>
        <time>2023-01-05T08:19:08.438Z</time>
      </trkpt>
      <trkpt lat="39.82773" lon="3.11571">
        <ele>47.986122</ele>
        <time>2023-01-05T08:19:11.436Z</time>
      </trkpt>
      <trkpt lat="39.82762" lon="3.11569">
        <ele>48.022608</ele>
        <time>2023-01-05T08:19:14.454Z</time>
      </trkpt>
      <trkpt lat="39.8275" lon="3.11567">
        <ele>48.063282</ele>
        <time>2023-01-05T08:19:17.432Z</time>
      </trkpt>
      <trkpt lat="39.82737" lon="3.11565">
        <ele>48.105173</ele>
        <time>2023-01-05T08:19:20.428Z</time>
      </trkpt>
      <trkpt lat="39.82724" lon="3.11563">
        <ele>48.149438</ele>
        <time>2023-01-05T08:19:23.437Z</time>
      </trkpt>
      <trkpt lat="39.82711" lon="3.1156">
        <ele>48.193226</ele>
        <time>2023-01-05T08:19:26.464Z</time>
      </trkpt>
      <trkpt lat="39.82698" lon="3.11558">
        <ele>48.237229</ele>
        <time>2023-01-05T08:19:29.445Z</time>
      </trkpt>
      <trkpt lat="39.82685" lon="3.11555">
        <ele>48.281017</ele>
        <time>2023-01-05T08:19:32.442Z</time>
      </trkpt>
      <trkpt lat="39.82675" lon="3.11554">
        <ele>48.312518</ele>
        <time>2023-01-05T08:19:34.461Z</time>
      </trkpt>
      <trkpt lat="39.82662" lon="3.11552">
        <ele>48.356923</ele>
        <time>2023-01-05T08:19:37.445Z</time>
      </trkpt>
      <trkpt lat="39.82653" lon="3.1155">
        <ele>48.388933</ele>
        <time>2023-01-05T08:19:39.443Z</time>
      </trkpt>
      <trkpt lat="39.82643" lon="3.11548">
        <ele>48.421231</ele>
        <time>2023-01-05T08:19:41.449Z</time>
      </trkpt>
      <trkpt lat="39.82634" lon="3.11546">
        <ele>48.452955</ele>
        <time>2023-01-05T08:19:43.437Z</time>
      </trkpt>
      <trkpt lat="39.82624" lon="3.11545">
        <ele>48.484095</ele>
        <time>2023-01-05T08:19:45.435Z</time>
      </trkpt>
      <trkpt lat="39.82615" lon="3.11543">
        <ele>48.514639</ele>
        <time>2023-01-05T08:19:47.441Z</time>
      </trkpt>
      <trkpt lat="39.82606" lon="3.11541">
        <ele>48.545574</ele>
        <time>2023-01-05T08:19:49.447Z</time>
      </trkpt>
      <trkpt lat="39.82597" lon="3.11539">
        <ele>48.579071</ele>
        <time>2023-01-05T08:19:51.441Z</time>
      </trkpt>
      <trkpt lat="39.82588" lon="3.11538">
        <ele>48.615435</ele>
        <time>2023-01-05T08:19:53.434Z</time>
      </trkpt>
      <trkpt lat="39.82579" lon="3.11536">
        <ele>48.651836</ele>
        <time>2023-01-05T08:19:55.442Z</time>
      </trkpt>
      <trkpt lat="39.82569" lon="3.11535">
        <ele>48.688363</ele>
        <time>2023-01-05T08:19:57.458Z</time>
      </trkpt>
      <trkpt lat="39.8256" lon="3.11532">
        <ele>48.726111</ele>
        <time>2023-01-05T08:19:59.442Z</time>
      </trkpt>
      <trkpt lat="39.82551" lon="3.11529">
        <ele>48.764133</ele>
        <time>2023-01-05T08:20:01.448Z</time>
      </trkpt>
      <trkpt lat="39.82542" lon="3.11527">
        <ele>48.800979</ele>
        <time>2023-01-05T08:20:03.436Z</time>
      </trkpt>
      <trkpt lat="39.82533" lon="3.11524">
        <ele>48.837047</ele>
        <time>2023-01-05T08:20:05.440Z</time>
      </trkpt>
      <trkpt lat="39.82524" lon="3.11522">
        <ele>48.873621</ele>
        <time>2023-01-05T08:20:07.439Z</time>
      </trkpt>
      <trkpt lat="39.82515" lon="3.1152">
        <ele>48.909804</ele>
        <time>2023-01-05T08:20:09.440Z</time>
      </trkpt>
      <trkpt lat="39.82506" lon="3.11519">
        <ele>48.946167</ele>
        <time>2023-01-05T08:20:11.438Z</time>
      </trkpt>
      <trkpt lat="39.82496" lon="3.11517">
        <ele>48.983829</ele>
        <time>2023-01-05T08:20:13.430Z</time>
      </trkpt>
      <trkpt lat="39.82487" lon="3.11515">
        <ele>49.021785</ele>
        <time>2023-01-05T08:20:15.454Z</time>
      </trkpt>
      <trkpt lat="39.82478" lon="3.11513">
        <ele>49.058704</ele>
        <time>2023-01-05T08:20:17.441Z</time>
      </trkpt>
      <trkpt lat="39.82464" lon="3.11513">
        <ele>49.112279</ele>
        <time>2023-01-05T08:20:20.423Z</time>
      </trkpt>
      <trkpt lat="39.82455" lon="3.11514">
        <ele>49.148078</ele>
        <time>2023-01-05T08:20:22.431Z</time>
      </trkpt>
      <trkpt lat="39.82446" lon="3.11513">
        <ele>49.18635</ele>
        <time>2023-01-05T08:20:24.457Z</time>
      </trkpt>
      <trkpt lat="39.82437" lon="3.11511">
        <ele>49.222635</ele>
        <time>2023-01-05T08:20:26.443Z</time>
      </trkpt>
      <trkpt lat="39.82428" lon="3.11509">
        <ele>49.258289</ele>
        <time>2023-01-05T08:20:28.450Z</time>
      </trkpt>
      <trkpt lat="39.82419" lon="3.11507">
        <ele>49.302541</ele>
        <time>2023-01-05T08:20:30.446Z</time>
      </trkpt>
      <trkpt lat="39.82409" lon="3.11505">
        <ele>49.362733</ele>
        <time>2023-01-05T08:20:32.447Z</time>
      </trkpt>
      <trkpt lat="39.824" lon="3.11503">
        <ele>49.419036</ele>
        <time>2023-01-05T08:20:34.453Z</time>
      </trkpt>
      <trkpt lat="39.82391" lon="3.11502">
        <ele>49.479457</ele>
        <time>2023-01-05T08:20:36.442Z</time>
      </trkpt>
      <trkpt lat="39.82381" lon="3.11501">
        <ele>49.538311</ele>
        <time>2023-01-05T08:20:38.468Z</time>
      </trkpt>
      <trkpt lat="39.82372" lon="3.11499">
        <ele>49.595437</ele>
        <time>2023-01-05T08:20:40.444Z</time>
      </trkpt>
      <trkpt lat="39.82359" lon="3.11496">
        <ele>49.679124</ele>
        <time>2023-01-05T08:20:43.439Z</time>
      </trkpt>
      <trkpt lat="39.8235" lon="3.11494">
        <ele>49.735786</ele>
        <time>2023-01-05T08:20:45.450Z</time>
      </trkpt>
      <trkpt lat="39.82341" lon="3.11492">
        <ele>49.795622</ele>
        <time>2023-01-05T08:20:47.442Z</time>
      </trkpt>
      <trkpt lat="39.82332" lon="3.11491">
        <ele>49.853792</ele>
        <time>2023-01-05T08:20:49.471Z</time>
      </trkpt>
      <trkpt lat="39.82318" lon="3.11488">
        <ele>49.939015</ele>
        <time>2023-01-05T08:20:52.492Z</time>
      </trkpt>
      <trkpt lat="39.82309" lon="3.11486">
        <ele>49.996504</ele>
        <time>2023-01-05T08:20:54.523Z</time>
      </trkpt>
      <trkpt lat="39.82296" lon="3.11485">
        <ele>50.079823</ele>
        <time>2023-01-05T08:20:57.437Z</time>
      </trkpt>
      <trkpt lat="39.82282" lon="3.11481">
        <ele>50.166529</ele>
        <time>2023-01-05T08:21:00.446Z</time>
      </trkpt>
      <trkpt lat="39.82273" lon="3.1148">
        <ele>50.226691</ele>
        <time>2023-01-05T08:21:02.445Z</time>
      </trkpt>
      <trkpt lat="39.82264" lon="3.11479">
        <ele>50.284028</ele>
        <time>2023-01-05T08:21:04.439Z</time>
      </trkpt>
      <trkpt lat="39.82255" lon="3.11477">
        <ele>50.340895</ele>
        <time>2023-01-05T08:21:06.445Z</time>
      </trkpt>
      <trkpt lat="39.82241" lon="3.11475">
        <ele>50.419514</ele>
        <time>2023-01-05T08:21:09.465Z</time>
      </trkpt>
      <trkpt lat="39.82232" lon="3.11473">
        <ele>50.455358</ele>
        <time>2023-01-05T08:21:11.424Z</time>
      </trkpt>
      <trkpt lat="39.82219" lon="3.11472">
        <ele>50.507316</ele>
        <time>2023-01-05T08:21:14.449Z</time>
      </trkpt>
      <trkpt lat="39.82209" lon="3.1147">
        <ele>50.542557</ele>
        <time>2023-01-05T08:21:16.444Z</time>
      </trkpt>
      <trkpt lat="39.822" lon="3.11468">
        <ele>50.57726</ele>
        <time>2023-01-05T08:21:18.446Z</time>
      </trkpt>
      <trkpt lat="39.82187" lon="3.11465">
        <ele>50.62894</ele>
        <time>2023-01-05T08:21:21.436Z</time>
      </trkpt>
      <trkpt lat="39.82178" lon="3.11464">
        <ele>50.664138</ele>
        <time>2023-01-05T08:21:23.421Z</time>
      </trkpt>
      <trkpt lat="39.82165" lon="3.11461">
        <ele>50.715631</ele>
        <time>2023-01-05T08:21:26.441Z</time>
      </trkpt>
      <trkpt lat="39.82156" lon="3.1146">
        <ele>50.751095</ele>
        <time>2023-01-05T08:21:28.442Z</time>
      </trkpt>
      <trkpt lat="39.82147" lon="3.11458">
        <ele>50.785764</ele>
        <time>2023-01-05T08:21:30.447Z</time>
      </trkpt>
      <trkpt lat="39.82137" lon="3.11456">
        <ele>50.821526</ele>
        <time>2023-01-05T08:21:32.463Z</time>
      </trkpt>
      <trkpt lat="39.82124" lon="3.11453">
        <ele>50.872829</ele>
        <time>2023-01-05T08:21:35.444Z</time>
      </trkpt>
      <trkpt lat="39.82115" lon="3.11452">
        <ele>50.909434</ele>
        <time>2023-01-05T08:21:37.437Z</time>
      </trkpt>
      <trkpt lat="39.82105" lon="3.1145">
        <ele>50.945658</ele>
        <time>2023-01-05T08:21:39.436Z</time>
      </trkpt>
      <trkpt lat="39.82096" lon="3.11449">
        <ele>50.983093</ele>
        <time>2023-01-05T08:21:41.443Z</time>
      </trkpt>
      <trkpt lat="39.82082" lon="3.11445">
        <ele>51.036288</ele>
        <time>2023-01-05T08:21:44.436Z</time>
      </trkpt>
      <trkpt lat="39.82073" lon="3.11444">
        <ele>51.072375</ele>
        <time>2023-01-05T08:21:46.433Z</time>
      </trkpt>
      <trkpt lat="39.82063" lon="3.11442">
        <ele>51.082402</ele>
        <time>2023-01-05T08:21:48.427Z</time>
      </trkpt>
      <trkpt lat="39.82051" lon="3.11438">
        <ele>51.015013</ele>
        <time>2023-01-05T08:21:51.443Z</time>
      </trkpt>
      <trkpt lat="39.82037" lon="3.11434">
        <ele>50.94433</ele>
        <time>2023-01-05T08:21:54.453Z</time>
      </trkpt>
      <trkpt lat="39.82028" lon="3.11432">
        <ele>50.893712</ele>
        <time>2023-01-05T08:21:56.447Z</time>
      </trkpt>
      <trkpt lat="39.82014" lon="3.11431">
        <ele>50.824269</ele>
        <time>2023-01-05T08:21:59.444Z</time>
      </trkpt>
      <trkpt lat="39.82005" lon="3.1143">
        <ele>50.77523</ele>
        <time>2023-01-05T08:22:01.442Z</time>
      </trkpt>
      <trkpt lat="39.81995" lon="3.11429">
        <ele>50.723264</ele>
        <time>2023-01-05T08:22:03.444Z</time>
      </trkpt>
      <trkpt lat="39.81985" lon="3.11427">
        <ele>50.673661</ele>
        <time>2023-01-05T08:22:05.444Z</time>
      </trkpt>
      <trkpt lat="39.81976" lon="3.11426">
        <ele>50.625888</ele>
        <time>2023-01-05T08:22:07.440Z</time>
      </trkpt>
      <trkpt lat="39.81967" lon="3.11424">
        <ele>50.578542</ele>
        <time>2023-01-05T08:22:09.439Z</time>
      </trkpt>
      <trkpt lat="39.81958" lon="3.11423">
        <ele>50.531045</ele>
        <time>2023-01-05T08:22:11.429Z</time>
      </trkpt>
      <trkpt lat="39.81948" lon="3.11421">
        <ele>50.480464</ele>
        <time>2023-01-05T08:22:13.426Z</time>
      </trkpt>
      <trkpt lat="39.81938" lon="3.1142">
        <ele>50.428807</ele>
        <time>2023-01-05T08:22:15.457Z</time>
      </trkpt>
      <trkpt lat="39.81929" lon="3.11418">
        <ele>50.380508</ele>
        <time>2023-01-05T08:22:17.444Z</time>
      </trkpt>
      <trkpt lat="39.8192" lon="3.11416">
        <ele>50.329654</ele>
        <time>2023-01-05T08:22:19.437Z</time>
      </trkpt>
      <trkpt lat="39.8191" lon="3.11413">
        <ele>50.280481</ele>
        <time>2023-01-05T08:22:21.446Z</time>
      </trkpt>
      <trkpt lat="39.81901" lon="3.1141">
        <ele>50.229707</ele>
        <time>2023-01-05T08:22:23.434Z</time>
      </trkpt>
      <trkpt lat="39.81892" lon="3.11408">
        <ele>50.181919</ele>
        <time>2023-01-05T08:22:25.443Z</time>
      </trkpt>
      <trkpt lat="39.81882" lon="3.11406">
        <ele>50.215654</ele>
        <time>2023-01-05T08:22:27.456Z</time>
      </trkpt>
      <trkpt lat="39.81872" lon="3.11405">
        <ele>50.288235</ele>
        <time>2023-01-05T08:22:29.453Z</time>
      </trkpt>
      <trkpt lat="39.81862" lon="3.11403">
        <ele>50.356742</ele>
        <time>2023-01-05T08:22:31.434Z</time>
      </trkpt>
      <trkpt lat="39.81853" lon="3.11402">
        <ele>50.426823</ele>
        <time>2023-01-05T08:22:33.427Z</time>
      </trkpt>
      <trkpt lat="39.81843" lon="3.11401">
        <ele>50.496608</ele>
        <time>2023-01-05T08:22:35.445Z</time>
      </trkpt>
      <trkpt lat="39.81834" lon="3.11399">
        <ele>50.563862</ele>
        <time>2023-01-05T08:22:37.441Z</time>
      </trkpt>
      <trkpt lat="39.81824" lon="3.11397">
        <ele>50.634434</ele>
        <time>2023-01-05T08:22:39.447Z</time>
      </trkpt>
      <trkpt lat="39.81815" lon="3.11396">
        <ele>50.703076</ele>
        <time>2023-01-05T08:22:41.435Z</time>
      </trkpt>
      <trkpt lat="39.81805" lon="3.11395">
        <ele>50.773332</ele>
        <time>2023-01-05T08:22:43.442Z</time>
      </trkpt>
      <trkpt lat="39.81796" lon="3.11393">
        <ele>50.83804</ele>
        <time>2023-01-05T08:22:45.431Z</time>
      </trkpt>
      <trkpt lat="39.81787" lon="3.11391">
        <ele>50.906904</ele>
        <time>2023-01-05T08:22:47.462Z</time>
      </trkpt>
      <trkpt lat="39.81773" lon="3.11389">
        <ele>51.004937</ele>
        <time>2023-01-05T08:22:50.446Z</time>
      </trkpt>
      <trkpt lat="39.81764" lon="3.11387">
        <ele>51.071776</ele>
        <time>2023-01-05T08:22:52.437Z</time>
      </trkpt>
      <trkpt lat="39.81751" lon="3.11385">
        <ele>51.169425</ele>
        <time>2023-01-05T08:22:55.443Z</time>
      </trkpt>
      <trkpt lat="39.81742" lon="3.11384">
        <ele>51.23508</ele>
        <time>2023-01-05T08:22:57.443Z</time>
      </trkpt>
      <trkpt lat="39.81733" lon="3.11382">
        <ele>51.299788</ele>
        <time>2023-01-05T08:22:59.439Z</time>
      </trkpt>
      <trkpt lat="39.81723" lon="3.1138">
        <ele>51.366713</ele>
        <time>2023-01-05T08:23:01.438Z</time>
      </trkpt>
      <trkpt lat="39.8171" lon="3.11379">
        <ele>51.463884</ele>
        <time>2023-01-05T08:23:04.442Z</time>
      </trkpt>
      <trkpt lat="39.81697" lon="3.11379">
        <ele>51.501379</ele>
        <time>2023-01-05T08:23:07.437Z</time>
      </trkpt>
      <trkpt lat="39.81688" lon="3.11377">
        <ele>51.527752</ele>
        <time>2023-01-05T08:23:09.417Z</time>
      </trkpt>
      <trkpt lat="39.81679" lon="3.11377">
        <ele>51.554236</ele>
        <time>2023-01-05T08:23:11.467Z</time>
      </trkpt>
      <trkpt lat="39.8167" lon="3.11377">
        <ele>51.580976</ele>
        <time>2023-01-05T08:23:13.443Z</time>
      </trkpt>
      <trkpt lat="39.81657" lon="3.11377">
        <ele>51.618778</ele>
        <time>2023-01-05T08:23:16.444Z</time>
      </trkpt>
      <trkpt lat="39.81647" lon="3.11378">
        <ele>51.645612</ele>
        <time>2023-01-05T08:23:18.459Z</time>
      </trkpt>
      <trkpt lat="39.81634" lon="3.1138">
        <ele>51.683877</ele>
        <time>2023-01-05T08:23:21.442Z</time>
      </trkpt>
      <trkpt lat="39.81621" lon="3.11383">
        <ele>51.722176</ele>
        <time>2023-01-05T08:23:24.457Z</time>
      </trkpt>
      <trkpt lat="39.81612" lon="3.11386">
        <ele>51.749973</ele>
        <time>2023-01-05T08:23:26.426Z</time>
      </trkpt>
      <trkpt lat="39.81603" lon="3.11388">
        <ele>51.777122</ele>
        <time>2023-01-05T08:23:28.455Z</time>
      </trkpt>
      <trkpt lat="39.81594" lon="3.1139">
        <ele>51.804771</ele>
        <time>2023-01-05T08:23:30.446Z</time>
      </trkpt>
      <trkpt lat="39.81584" lon="3.11391">
        <ele>51.832271</ele>
        <time>2023-01-05T08:23:32.451Z</time>
      </trkpt>
      <trkpt lat="39.81575" lon="3.11394">
        <ele>51.859167</ele>
        <time>2023-01-05T08:23:34.446Z</time>
      </trkpt>
      <trkpt lat="39.81566" lon="3.11398">
        <ele>51.88619</ele>
        <time>2023-01-05T08:23:36.457Z</time>
      </trkpt>
      <trkpt lat="39.81553" lon="3.11402">
        <ele>51.925125</ele>
        <time>2023-01-05T08:23:39.450Z</time>
      </trkpt>
      <trkpt lat="39.81542" lon="3.11406">
        <ele>51.960404</ele>
        <time>2023-01-05T08:23:42.448Z</time>
      </trkpt>
      <trkpt lat="39.8153" lon="3.11411">
        <ele>51.957619</ele>
        <time>2023-01-05T08:23:45.446Z</time>
      </trkpt>
      <trkpt lat="39.81518" lon="3.11412">
        <ele>51.869132</ele>
        <time>2023-01-05T08:23:48.463Z</time>
      </trkpt>
      <trkpt lat="39.81512" lon="3.11399">
        <ele>51.784151</ele>
        <time>2023-01-05T08:23:51.432Z</time>
      </trkpt>
      <trkpt lat="39.81511" lon="3.11383">
        <ele>51.690142</ele>
        <time>2023-01-05T08:23:54.455Z</time>
      </trkpt>
      <trkpt lat="39.81509" lon="3.11372">
        <ele>51.620569</ele>
        <time>2023-01-05T08:23:56.447Z</time>
      </trkpt>
      <trkpt lat="39.81507" lon="3.11359">
        <ele>51.545459</ele>
        <time>2023-01-05T08:23:58.429Z</time>
      </trkpt>
      <trkpt lat="39.81505" lon="3.11346">
        <ele>51.466046</ele>
        <time>2023-01-05T08:24:00.472Z</time>
      </trkpt>
      <trkpt lat="39.81503" lon="3.11332">
        <ele>51.382477</ele>
        <time>2023-01-05T08:24:02.436Z</time>
      </trkpt>
      <trkpt lat="39.81501" lon="3.11318">
        <ele>51.300922</ele>
        <time>2023-01-05T08:24:04.444Z</time>
      </trkpt>
      <trkpt lat="39.815" lon="3.11305">
        <ele>51.223233</ele>
        <time>2023-01-05T08:24:06.461Z</time>
      </trkpt>
      <trkpt lat="39.81498" lon="3.11291">
        <ele>51.143811</ele>
        <time>2023-01-05T08:24:08.444Z</time>
      </trkpt>
      <trkpt lat="39.81495" lon="3.11279">
        <ele>51.068206</ele>
        <time>2023-01-05T08:24:10.443Z</time>
      </trkpt>
      <trkpt lat="39.81494" lon="3.11266">
        <ele>50.993963</ele>
        <time>2023-01-05T08:24:12.443Z</time>
      </trkpt>
      <trkpt lat="39.81492" lon="3.11254">
        <ele>50.921093</ele>
        <time>2023-01-05T08:24:14.436Z</time>
      </trkpt>
      <trkpt lat="39.81491" lon="3.11241">
        <ele>50.842693</ele>
        <time>2023-01-05T08:24:16.459Z</time>
      </trkpt>
      <trkpt lat="39.81489" lon="3.11228">
        <ele>50.76571</ele>
        <time>2023-01-05T08:24:18.449Z</time>
      </trkpt>
      <trkpt lat="39.81487" lon="3.11215">
        <ele>50.688851</ele>
        <time>2023-01-05T08:24:20.459Z</time>
      </trkpt>
      <trkpt lat="39.81486" lon="3.11202">
        <ele>50.624282</ele>
        <time>2023-01-05T08:24:22.434Z</time>
      </trkpt>
      <trkpt lat="39.81484" lon="3.11189">
        <ele>50.693717</ele>
        <time>2023-01-05T08:24:24.453Z</time>
      </trkpt>
      <trkpt lat="39.81483" lon="3.11177">
        <ele>50.758968</ele>
        <time>2023-01-05T08:24:26.458Z</time>
      </trkpt>
      <trkpt lat="39.81481" lon="3.11164">
        <ele>50.826726</ele>
        <time>2023-01-05T08:24:28.463Z</time>
      </trkpt>
      <trkpt lat="39.8148" lon="3.11152">
        <ele>50.895726</ele>
        <time>2023-01-05T08:24:30.448Z</time>
      </trkpt>
      <trkpt lat="39.81479" lon="3.11139">
        <ele>50.963933</ele>
        <time>2023-01-05T08:24:32.446Z</time>
      </trkpt>
      <trkpt lat="39.81478" lon="3.11126">
        <ele>51.034261</ele>
        <time>2023-01-05T08:24:34.456Z</time>
      </trkpt>
      <trkpt lat="39.81476" lon="3.11114">
        <ele>51.100199</ele>
        <time>2023-01-05T08:24:36.447Z</time>
      </trkpt>
      <trkpt lat="39.81475" lon="3.111">
        <ele>51.170692</ele>
        <time>2023-01-05T08:24:38.443Z</time>
      </trkpt>
      <trkpt lat="39.81473" lon="3.11088">
        <ele>51.238965</ele>
        <time>2023-01-05T08:24:40.439Z</time>
      </trkpt>
      <trkpt lat="39.81471" lon="3.11076">
        <ele>51.305921</ele>
        <time>2023-01-05T08:24:42.444Z</time>
      </trkpt>
      <trkpt lat="39.8147" lon="3.11063">
        <ele>51.374604</ele>
        <time>2023-01-05T08:24:44.457Z</time>
      </trkpt>
      <trkpt lat="39.81468" lon="3.11051">
        <ele>51.441427</ele>
        <time>2023-01-05T08:24:46.456Z</time>
      </trkpt>
      <trkpt lat="39.81467" lon="3.11038">
        <ele>51.506631</ele>
        <time>2023-01-05T08:24:48.451Z</time>
      </trkpt>
      <trkpt lat="39.81465" lon="3.11026">
        <ele>51.571407</ele>
        <time>2023-01-05T08:24:50.447Z</time>
      </trkpt>
      <trkpt lat="39.81463" lon="3.11014">
        <ele>51.640887</ele>
        <time>2023-01-05T08:24:52.467Z</time>
      </trkpt>
      <trkpt lat="39.81462" lon="3.11002">
        <ele>51.706191</ele>
        <time>2023-01-05T08:24:54.455Z</time>
      </trkpt>
      <trkpt lat="39.81461" lon="3.10989">
        <ele>51.772277</ele>
        <time>2023-01-05T08:24:56.452Z</time>
      </trkpt>
      <trkpt lat="39.81459" lon="3.10977">
        <ele>51.83758</ele>
        <time>2023-01-05T08:24:58.453Z</time>
      </trkpt>
      <trkpt lat="39.81457" lon="3.10965">
        <ele>51.86347</ele>
        <time>2023-01-05T08:25:00.454Z</time>
      </trkpt>
      <trkpt lat="39.81456" lon="3.10953">
        <ele>51.854446</ele>
        <time>2023-01-05T08:25:02.443Z</time>
      </trkpt>
      <trkpt lat="39.81454" lon="3.1094">
        <ele>51.844812</ele>
        <time>2023-01-05T08:25:04.443Z</time>
      </trkpt>
      <trkpt lat="39.81452" lon="3.10929">
        <ele>51.835854</ele>
        <time>2023-01-05T08:25:06.459Z</time>
      </trkpt>
      <trkpt lat="39.81451" lon="3.10917">
        <ele>51.827042</ele>
        <time>2023-01-05T08:25:08.446Z</time>
      </trkpt>
      <trkpt lat="39.81449" lon="3.10904">
        <ele>51.817605</ele>
        <time>2023-01-05T08:25:10.455Z</time>
      </trkpt>
      <trkpt lat="39.81448" lon="3.10892">
        <ele>51.808521</ele>
        <time>2023-01-05T08:25:12.442Z</time>
      </trkpt>
      <trkpt lat="39.81447" lon="3.1088">
        <ele>51.799054</ele>
        <time>2023-01-05T08:25:14.443Z</time>
      </trkpt>
      <trkpt lat="39.81445" lon="3.10867">
        <ele>51.78962</ele>
        <time>2023-01-05T08:25:16.455Z</time>
      </trkpt>
      <trkpt lat="39.81443" lon="3.10855">
        <ele>51.780551</ele>
        <time>2023-01-05T08:25:18.462Z</time>
      </trkpt>
      <trkpt lat="39.81441" lon="3.10843">
        <ele>51.771335</ele>
        <time>2023-01-05T08:25:20.446Z</time>
      </trkpt>
      <trkpt lat="39.81439" lon="3.10825">
        <ele>51.758027</ele>
        <time>2023-01-05T08:25:23.444Z</time>
      </trkpt>
      <trkpt lat="39.81438" lon="3.10814">
        <ele>51.749113</ele>
        <time>2023-01-05T08:25:25.446Z</time>
      </trkpt>
      <trkpt lat="39.81437" lon="3.10797">
        <ele>51.736445</ele>
        <time>2023-01-05T08:25:28.461Z</time>
      </trkpt>
      <trkpt lat="39.81436" lon="3.10785">
        <ele>51.727422</ele>
        <time>2023-01-05T08:25:30.438Z</time>
      </trkpt>
      <trkpt lat="39.81436" lon="3.10772">
        <ele>51.718338</ele>
        <time>2023-01-05T08:25:32.468Z</time>
      </trkpt>
      <trkpt lat="39.81439" lon="3.1076">
        <ele>51.708888</ele>
        <time>2023-01-05T08:25:34.437Z</time>
      </trkpt>
      <trkpt lat="39.81441" lon="3.10748">
        <ele>51.699655</ele>
        <time>2023-01-05T08:25:36.432Z</time>
      </trkpt>
      <trkpt lat="39.81444" lon="3.10736">
        <ele>51.666201</ele>
        <time>2023-01-05T08:25:38.450Z</time>
      </trkpt>
      <trkpt lat="39.81447" lon="3.10724">
        <ele>51.599202</ele>
        <time>2023-01-05T08:25:40.455Z</time>
      </trkpt>
      <trkpt lat="39.81449" lon="3.10713">
        <ele>51.532058</ele>
        <time>2023-01-05T08:25:42.448Z</time>
      </trkpt>
      <trkpt lat="39.8145" lon="3.107">
        <ele>51.462299</ele>
        <time>2023-01-05T08:25:44.433Z</time>
      </trkpt>
      <trkpt lat="39.8145" lon="3.10687">
        <ele>51.388525</ele>
        <time>2023-01-05T08:25:46.455Z</time>
      </trkpt>
      <trkpt lat="39.81449" lon="3.10673">
        <ele>51.313089</ele>
        <time>2023-01-05T08:25:48.430Z</time>
      </trkpt>
      <trkpt lat="39.81449" lon="3.10659">
        <ele>51.235747</ele>
        <time>2023-01-05T08:25:50.444Z</time>
      </trkpt>
      <trkpt lat="39.81446" lon="3.10646">
        <ele>51.157863</ele>
        <time>2023-01-05T08:25:52.430Z</time>
      </trkpt>
      <trkpt lat="39.81442" lon="3.10633">
        <ele>51.079185</ele>
        <time>2023-01-05T08:25:54.447Z</time>
      </trkpt>
      <trkpt lat="39.81438" lon="3.1062">
        <ele>51.006192</ele>
        <time>2023-01-05T08:25:56.444Z</time>
      </trkpt>
      <trkpt lat="39.81434" lon="3.10609">
        <ele>50.933644</ele>
        <time>2023-01-05T08:25:58.436Z</time>
      </trkpt>
      <trkpt lat="39.81428" lon="3.10597">
        <ele>50.859002</ele>
        <time>2023-01-05T08:26:00.435Z</time>
      </trkpt>
      <trkpt lat="39.81421" lon="3.10588">
        <ele>50.786013</ele>
        <time>2023-01-05T08:26:02.437Z</time>
      </trkpt>
      <trkpt lat="39.81414" lon="3.10579">
        <ele>50.712419</ele>
        <time>2023-01-05T08:26:04.436Z</time>
      </trkpt>
      <trkpt lat="39.81406" lon="3.10571">
        <ele>50.642459</ele>
        <time>2023-01-05T08:26:06.438Z</time>
      </trkpt>
      <trkpt lat="39.81399" lon="3.10562">
        <ele>50.57102</ele>
        <time>2023-01-05T08:26:08.441Z</time>
      </trkpt>
      <trkpt lat="39.81392" lon="3.10554">
        <ele>50.500515</ele>
        <time>2023-01-05T08:26:10.440Z</time>
      </trkpt>
      <trkpt lat="39.81384" lon="3.10546">
        <ele>50.429265</ele>
        <time>2023-01-05T08:26:12.446Z</time>
      </trkpt>
      <trkpt lat="39.81377" lon="3.10537">
        <ele>50.39251</ele>
        <time>2023-01-05T08:26:14.443Z</time>
      </trkpt>
      <trkpt lat="39.8137" lon="3.10529">
        <ele>50.386188</ele>
        <time>2023-01-05T08:26:16.454Z</time>
      </trkpt>
      <trkpt lat="39.81363" lon="3.1052">
        <ele>50.379743</ele>
        <time>2023-01-05T08:26:18.450Z</time>
      </trkpt>
      <trkpt lat="39.81356" lon="3.10512">
        <ele>50.37367</ele>
        <time>2023-01-05T08:26:20.441Z</time>
      </trkpt>
      <trkpt lat="39.81349" lon="3.10504">
        <ele>50.367431</ele>
        <time>2023-01-05T08:26:22.446Z</time>
      </trkpt>
      <trkpt lat="39.81342" lon="3.10496">
        <ele>50.361388</ele>
        <time>2023-01-05T08:26:24.459Z</time>
      </trkpt>
      <trkpt lat="39.81337" lon="3.10485">
        <ele>50.355118</ele>
        <time>2023-01-05T08:26:26.432Z</time>
      </trkpt>
      <trkpt lat="39.81336" lon="3.10468">
        <ele>50.346128</ele>
        <time>2023-01-05T08:26:29.443Z</time>
      </trkpt>
      <trkpt lat="39.81335" lon="3.10456">
        <ele>50.340043</ele>
        <time>2023-01-05T08:26:31.437Z</time>
      </trkpt>
      <trkpt lat="39.81328" lon="3.10441">
        <ele>50.331399</ele>
        <time>2023-01-05T08:26:34.443Z</time>
      </trkpt>
      <trkpt lat="39.8132" lon="3.10434">
        <ele>50.325162</ele>
        <time>2023-01-05T08:26:36.444Z</time>
      </trkpt>
      <trkpt lat="39.81308" lon="3.10429">
        <ele>50.316567</ele>
        <time>2023-01-05T08:26:39.436Z</time>
      </trkpt>
      <trkpt lat="39.813" lon="3.10421">
        <ele>50.310044</ele>
        <time>2023-01-05T08:26:41.440Z</time>
      </trkpt>
      <trkpt lat="39.81295" lon="3.10411">
        <ele>50.303921</ele>
        <time>2023-01-05T08:26:43.436Z</time>
      </trkpt>
      <trkpt lat="39.8129" lon="3.10401">
        <ele>50.297795</ele>
        <time>2023-01-05T08:26:45.433Z</time>
      </trkpt>
      <trkpt lat="39.81287" lon="3.10389">
        <ele>50.291698</ele>
        <time>2023-01-05T08:26:47.442Z</time>
      </trkpt>
      <trkpt lat="39.81284" lon="3.10378">
        <ele>50.285698</ele>
        <time>2023-01-05T08:26:49.443Z</time>
      </trkpt>
      <trkpt lat="39.81281" lon="3.10366">
        <ele>50.279435</ele>
        <time>2023-01-05T08:26:51.441Z</time>
      </trkpt>
      <trkpt lat="39.81278" lon="3.10355">
        <ele>50.26844</ele>
        <time>2023-01-05T08:26:53.416Z</time>
      </trkpt>
      <trkpt lat="39.81274" lon="3.10344">
        <ele>50.253746</ele>
        <time>2023-01-05T08:26:55.445Z</time>
      </trkpt>
      <trkpt lat="39.81271" lon="3.10332">
        <ele>50.239339</ele>
        <time>2023-01-05T08:26:57.421Z</time>
      </trkpt>
      <trkpt lat="39.81267" lon="3.10321">
        <ele>50.224241</ele>
        <time>2023-01-05T08:26:59.453Z</time>
      </trkpt>
      <trkpt lat="39.81262" lon="3.1031">
        <ele>50.20961</ele>
        <time>2023-01-05T08:27:01.457Z</time>
      </trkpt>
      <trkpt lat="39.81258" lon="3.10298">
        <ele>50.194339</ele>
        <time>2023-01-05T08:27:03.441Z</time>
      </trkpt>
      <trkpt lat="39.81254" lon="3.10286">
        <ele>50.178763</ele>
        <time>2023-01-05T08:27:05.442Z</time>
      </trkpt>
      <trkpt lat="39.8125" lon="3.10275">
        <ele>50.16385</ele>
        <time>2023-01-05T08:27:07.458Z</time>
      </trkpt>
      <trkpt lat="39.81246" lon="3.10264">
        <ele>50.149434</ele>
        <time>2023-01-05T08:27:09.464Z</time>
      </trkpt>
      <trkpt lat="39.81242" lon="3.10251">
        <ele>50.133649</ele>
        <time>2023-01-05T08:27:11.439Z</time>
      </trkpt>
      <trkpt lat="39.81238" lon="3.10239">
        <ele>50.11812</ele>
        <time>2023-01-05T08:27:13.433Z</time>
      </trkpt>
      <trkpt lat="39.81234" lon="3.10228">
        <ele>50.102859</ele>
        <time>2023-01-05T08:27:15.438Z</time>
      </trkpt>
      <trkpt lat="39.81229" lon="3.10215">
        <ele>50.08703</ele>
        <time>2023-01-05T08:27:17.441Z</time>
      </trkpt>
      <trkpt lat="39.81225" lon="3.10203">
        <ele>50.071284</ele>
        <time>2023-01-05T08:27:19.446Z</time>
      </trkpt>
      <trkpt lat="39.81221" lon="3.10192">
        <ele>50.056334</ele>
        <time>2023-01-05T08:27:21.460Z</time>
      </trkpt>
      <trkpt lat="39.81216" lon="3.10181">
        <ele>50.041284</ele>
        <time>2023-01-05T08:27:23.448Z</time>
      </trkpt>
      <trkpt lat="39.81211" lon="3.10169">
        <ele>50.025648</ele>
        <time>2023-01-05T08:27:25.443Z</time>
      </trkpt>
      <trkpt lat="39.81205" lon="3.10158">
        <ele>50.009687</ele>
        <time>2023-01-05T08:27:27.446Z</time>
      </trkpt>
      <trkpt lat="39.81199" lon="3.10148">
        <ele>50</ele>
        <time>2023-01-05T08:27:29.437Z</time>
      </trkpt>
      <trkpt lat="39.81193" lon="3.10138">
        <ele>50</ele>
        <time>2023-01-05T08:27:31.447Z</time>
      </trkpt>
      <trkpt lat="39.81187" lon="3.10126">
        <ele>50</ele>
        <time>2023-01-05T08:27:33.438Z</time>
      </trkpt>
      <trkpt lat="39.81181" lon="3.10116">
        <ele>50</ele>
        <time>2023-01-05T08:27:35.442Z</time>
      </trkpt>
      <trkpt lat="39.81176" lon="3.10105">
        <ele>50</ele>
        <time>2023-01-05T08:27:37.438Z</time>
      </trkpt>
      <trkpt lat="39.8117" lon="3.10095">
        <ele>50</ele>
        <time>2023-01-05T08:27:39.440Z</time>
      </trkpt>
      <trkpt lat="39.81163" lon="3.10085">
        <ele>50</ele>
        <time>2023-01-05T08:27:41.442Z</time>
      </trkpt>
      <trkpt lat="39.81157" lon="3.10076">
        <ele>50</ele>
        <time>2023-01-05T08:27:43.434Z</time>
      </trkpt>
      <trkpt lat="39.81148" lon="3.10061">
        <ele>50</ele>
        <time>2023-01-05T08:27:46.454Z</time>
      </trkpt>
      <trkpt lat="39.81142" lon="3.10051">
        <ele>50</ele>
        <time>2023-01-05T08:27:48.441Z</time>
      </trkpt>
      <trkpt lat="39.81137" lon="3.10041">
        <ele>50</ele>
        <time>2023-01-05T08:27:50.444Z</time>
      </trkpt>
      <trkpt lat="39.81132" lon="3.1003">
        <ele>50</ele>
        <time>2023-01-05T08:27:52.461Z</time>
      </trkpt>
      <trkpt lat="39.81126" lon="3.10019">
        <ele>50</ele>
        <time>2023-01-05T08:27:54.447Z</time>
      </trkpt>
      <trkpt lat="39.81121" lon="3.10009">
        <ele>50</ele>
        <time>2023-01-05T08:27:56.446Z</time>
      </trkpt>
      <trkpt lat="39.81115" lon="3.09998">
        <ele>50</ele>
        <time>2023-01-05T08:27:58.449Z</time>
      </trkpt>
      <trkpt lat="39.81109" lon="3.09987">
        <ele>50</ele>
        <time>2023-01-05T08:28:00.427Z</time>
      </trkpt>
      <trkpt lat="39.81104" lon="3.09975">
        <ele>50</ele>
        <time>2023-01-05T08:28:02.447Z</time>
      </trkpt>
      <trkpt lat="39.81098" lon="3.09965">
        <ele>50</ele>
        <time>2023-01-05T08:28:04.449Z</time>
      </trkpt>
      <trkpt lat="39.81093" lon="3.09954">
        <ele>49.981151</ele>
        <time>2023-01-05T08:28:06.446Z</time>
      </trkpt>
      <trkpt lat="39.81088" lon="3.09942">
        <ele>49.954429</ele>
        <time>2023-01-05T08:28:08.442Z</time>
      </trkpt>
      <trkpt lat="39.81083" lon="3.0993">
        <ele>49.926462</ele>
        <time>2023-01-05T08:28:10.439Z</time>
      </trkpt>
      <trkpt lat="39.81079" lon="3.09918">
        <ele>49.899099</ele>
        <time>2023-01-05T08:28:12.446Z</time>
      </trkpt>
      <trkpt lat="39.81075" lon="3.09906">
        <ele>49.871729</ele>
        <time>2023-01-05T08:28:14.447Z</time>
      </trkpt>
      <trkpt lat="39.81071" lon="3.09893">
        <ele>49.844066</ele>
        <time>2023-01-05T08:28:16.444Z</time>
      </trkpt>
      <trkpt lat="39.81067" lon="3.09882">
        <ele>49.817743</ele>
        <time>2023-01-05T08:28:18.428Z</time>
      </trkpt>
      <trkpt lat="39.81063" lon="3.0987">
        <ele>49.790938</ele>
        <time>2023-01-05T08:28:20.448Z</time>
      </trkpt>
      <trkpt lat="39.81059" lon="3.09858">
        <ele>49.764321</ele>
        <time>2023-01-05T08:28:22.445Z</time>
      </trkpt>
      <trkpt lat="39.81055" lon="3.09846">
        <ele>49.737998</ele>
        <time>2023-01-05T08:28:24.441Z</time>
      </trkpt>
      <trkpt lat="39.81051" lon="3.09833">
        <ele>49.71007</ele>
        <time>2023-01-05T08:28:26.442Z</time>
      </trkpt>
      <trkpt lat="39.81048" lon="3.09821">
        <ele>49.683763</ele>
        <time>2023-01-05T08:28:28.444Z</time>
      </trkpt>
      <trkpt lat="39.81044" lon="3.0981">
        <ele>49.657922</ele>
        <time>2023-01-05T08:28:30.455Z</time>
      </trkpt>
      <trkpt lat="39.8104" lon="3.09798">
        <ele>49.631805</ele>
        <time>2023-01-05T08:28:32.462Z</time>
      </trkpt>
      <trkpt lat="39.81036" lon="3.09786">
        <ele>49.604624</ele>
        <time>2023-01-05T08:28:34.463Z</time>
      </trkpt>
      <trkpt lat="39.81032" lon="3.09774">
        <ele>49.578594</ele>
        <time>2023-01-05T08:28:36.456Z</time>
      </trkpt>
      <trkpt lat="39.81029" lon="3.09763">
        <ele>49.553234</ele>
        <time>2023-01-05T08:28:38.437Z</time>
      </trkpt>
      <trkpt lat="39.81025" lon="3.09751">
        <ele>49.527123</ele>
        <time>2023-01-05T08:28:40.449Z</time>
      </trkpt>
      <trkpt lat="39.81021" lon="3.09739">
        <ele>49.504591</ele>
        <time>2023-01-05T08:28:42.445Z</time>
      </trkpt>
      <trkpt lat="39.81017" lon="3.09728">
        <ele>49.484735</ele>
        <time>2023-01-05T08:28:44.439Z</time>
      </trkpt>
      <trkpt lat="39.81013" lon="3.09717">
        <ele>49.465115</ele>
        <time>2023-01-05T08:28:46.449Z</time>
      </trkpt>
      <trkpt lat="39.81009" lon="3.09706">
        <ele>49.445771</ele>
        <time>2023-01-05T08:28:48.444Z</time>
      </trkpt>
      <trkpt lat="39.81006" lon="3.09694">
        <ele>49.426056</ele>
        <time>2023-01-05T08:28:50.468Z</time>
      </trkpt>
      <trkpt lat="39.81002" lon="3.09683">
        <ele>49.406414</ele>
        <time>2023-01-05T08:28:52.443Z</time>
      </trkpt>
      <trkpt lat="39.80999" lon="3.09672">
        <ele>49.386611</ele>
        <time>2023-01-05T08:28:54.442Z</time>
      </trkpt>
      <trkpt lat="39.80995" lon="3.0966">
        <ele>49.366808</ele>
        <time>2023-01-05T08:28:56.455Z</time>
      </trkpt>
      <trkpt lat="39.80991" lon="3.09649">
        <ele>49.346559</ele>
        <time>2023-01-05T08:28:58.446Z</time>
      </trkpt>
      <trkpt lat="39.80987" lon="3.09638">
        <ele>49.326734</ele>
        <time>2023-01-05T08:29:00.446Z</time>
      </trkpt>
      <trkpt lat="39.80984" lon="3.09626">
        <ele>49.306783</ele>
        <time>2023-01-05T08:29:02.443Z</time>
      </trkpt>
      <trkpt lat="39.8098" lon="3.09615">
        <ele>49.287444</ele>
        <time>2023-01-05T08:29:04.449Z</time>
      </trkpt>
      <trkpt lat="39.80977" lon="3.09604">
        <ele>49.267729</ele>
        <time>2023-01-05T08:29:06.454Z</time>
      </trkpt>
      <trkpt lat="39.80974" lon="3.09592">
        <ele>49.24801</ele>
        <time>2023-01-05T08:29:08.442Z</time>
      </trkpt>
      <trkpt lat="39.8097" lon="3.09581">
        <ele>49.228734</ele>
        <time>2023-01-05T08:29:10.461Z</time>
      </trkpt>
      <trkpt lat="39.80967" lon="3.0957">
        <ele>49.209241</ele>
        <time>2023-01-05T08:29:12.450Z</time>
      </trkpt>
      <trkpt lat="39.80963" lon="3.09559">
        <ele>49.189976</ele>
        <time>2023-01-05T08:29:14.456Z</time>
      </trkpt>
      <trkpt lat="39.8096" lon="3.09548">
        <ele>49.170334</ele>
        <time>2023-01-05T08:29:16.453Z</time>
      </trkpt>
      <trkpt lat="39.80954" lon="3.09532">
        <ele>49.142601</ele>
        <time>2023-01-05T08:29:19.447Z</time>
      </trkpt>
      <trkpt lat="39.80949" lon="3.09516">
        <ele>49.123845</ele>
        <time>2023-01-05T08:29:22.463Z</time>
      </trkpt>
      <trkpt lat="39.80945" lon="3.09505">
        <ele>49.111385</ele>
        <time>2023-01-05T08:29:24.444Z</time>
      </trkpt>
      <trkpt lat="39.80942" lon="3.09494">
        <ele>49.098458</ele>
        <time>2023-01-05T08:29:26.444Z</time>
      </trkpt>
      <trkpt lat="39.80936" lon="3.09478">
        <ele>49.080174</ele>
        <time>2023-01-05T08:29:29.417Z</time>
      </trkpt>
      <trkpt lat="39.80933" lon="3.09467">
        <ele>49.067097</ele>
        <time>2023-01-05T08:29:31.437Z</time>
      </trkpt>
      <trkpt lat="39.80928" lon="3.09451">
        <ele>49.048579</ele>
        <time>2023-01-05T08:29:34.460Z</time>
      </trkpt>
      <trkpt lat="39.80924" lon="3.09439">
        <ele>49.035646</ele>
        <time>2023-01-05T08:29:36.456Z</time>
      </trkpt>
      <trkpt lat="39.8092" lon="3.09428">
        <ele>49.022418</ele>
        <time>2023-01-05T08:29:38.452Z</time>
      </trkpt>
      <trkpt lat="39.80917" lon="3.09417">
        <ele>49.009181</ele>
        <time>2023-01-05T08:29:40.454Z</time>
      </trkpt>
      <trkpt lat="39.80913" lon="3.09406">
        <ele>48.996528</ele>
        <time>2023-01-05T08:29:42.444Z</time>
      </trkpt>
      <trkpt lat="39.80909" lon="3.09394">
        <ele>48.98305</ele>
        <time>2023-01-05T08:29:44.446Z</time>
      </trkpt>
      <trkpt lat="39.80906" lon="3.09383">
        <ele>48.970019</ele>
        <time>2023-01-05T08:29:46.444Z</time>
      </trkpt>
      <trkpt lat="39.80902" lon="3.09371">
        <ele>48.957092</ele>
        <time>2023-01-05T08:29:48.452Z</time>
      </trkpt>
      <trkpt lat="39.80898" lon="3.0936">
        <ele>48.944049</ele>
        <time>2023-01-05T08:29:50.451Z</time>
      </trkpt>
      <trkpt lat="39.80895" lon="3.09349">
        <ele>48.930972</ele>
        <time>2023-01-05T08:29:52.444Z</time>
      </trkpt>
      <trkpt lat="39.80891" lon="3.09337">
        <ele>48.917343</ele>
        <time>2023-01-05T08:29:54.442Z</time>
      </trkpt>
      <trkpt lat="39.80887" lon="3.09325">
        <ele>48.903757</ele>
        <time>2023-01-05T08:29:56.450Z</time>
      </trkpt>
      <trkpt lat="39.80883" lon="3.09314">
        <ele>48.891147</ele>
        <time>2023-01-05T08:29:58.449Z</time>
      </trkpt>
      <trkpt lat="39.80879" lon="3.09302">
        <ele>48.882239</ele>
        <time>2023-01-05T08:30:00.441Z</time>
      </trkpt>
      <trkpt lat="39.80876" lon="3.09291">
        <ele>48.873694</ele>
        <time>2023-01-05T08:30:02.456Z</time>
      </trkpt>
      <trkpt lat="39.80872" lon="3.09279">
        <ele>48.86505</ele>
        <time>2023-01-05T08:30:04.443Z</time>
      </trkpt>
      <trkpt lat="39.80869" lon="3.09268">
        <ele>48.856502</ele>
        <time>2023-01-05T08:30:06.452Z</time>
      </trkpt>
      <trkpt lat="39.80865" lon="3.09258">
        <ele>48.848271</ele>
        <time>2023-01-05T08:30:08.438Z</time>
      </trkpt>
      <trkpt lat="39.80861" lon="3.09247">
        <ele>48.839687</ele>
        <time>2023-01-05T08:30:10.444Z</time>
      </trkpt>
      <trkpt lat="39.80857" lon="3.09235">
        <ele>48.830847</ele>
        <time>2023-01-05T08:30:12.448Z</time>
      </trkpt>
      <trkpt lat="39.80854" lon="3.09224">
        <ele>48.822302</ele>
        <time>2023-01-05T08:30:14.442Z</time>
      </trkpt>
      <trkpt lat="39.8085" lon="3.09213">
        <ele>48.813772</ele>
        <time>2023-01-05T08:30:16.428Z</time>
      </trkpt>
      <trkpt lat="39.80846" lon="3.09201">
        <ele>48.805152</ele>
        <time>2023-01-05T08:30:18.451Z</time>
      </trkpt>
      <trkpt lat="39.80843" lon="3.0919">
        <ele>48.796769</ele>
        <time>2023-01-05T08:30:20.453Z</time>
      </trkpt>
      <trkpt lat="39.80839" lon="3.09179">
        <ele>48.78812</ele>
        <time>2023-01-05T08:30:22.457Z</time>
      </trkpt>
      <trkpt lat="39.80835" lon="3.09168">
        <ele>48.779636</ele>
        <time>2023-01-05T08:30:24.467Z</time>
      </trkpt>
      <trkpt lat="39.80832" lon="3.09157">
        <ele>48.771253</ele>
        <time>2023-01-05T08:30:26.463Z</time>
      </trkpt>
      <trkpt lat="39.80829" lon="3.09145">
        <ele>48.762412</ele>
        <time>2023-01-05T08:30:28.443Z</time>
      </trkpt>
      <trkpt lat="39.80825" lon="3.09134">
        <ele>48.753768</ele>
        <time>2023-01-05T08:30:30.465Z</time>
      </trkpt>
      <trkpt lat="39.80822" lon="3.09123">
        <ele>48.745249</ele>
        <time>2023-01-05T08:30:32.454Z</time>
      </trkpt>
      <trkpt lat="39.80818" lon="3.09112">
        <ele>48.73696</ele>
        <time>2023-01-05T08:30:34.446Z</time>
      </trkpt>
      <trkpt lat="39.80815" lon="3.091">
        <ele>48.729304</ele>
        <time>2023-01-05T08:30:36.437Z</time>
      </trkpt>
      <trkpt lat="39.80811" lon="3.09089">
        <ele>48.781436</ele>
        <time>2023-01-05T08:30:38.440Z</time>
      </trkpt>
      <trkpt lat="39.80807" lon="3.09077">
        <ele>48.833942</ele>
        <time>2023-01-05T08:30:40.440Z</time>
      </trkpt>
      <trkpt lat="39.80803" lon="3.09066">
        <ele>48.88599</ele>
        <time>2023-01-05T08:30:42.461Z</time>
      </trkpt>
      <trkpt lat="39.80799" lon="3.09055">
        <ele>48.938416</ele>
        <time>2023-01-05T08:30:44.458Z</time>
      </trkpt>
      <trkpt lat="39.80795" lon="3.09043">
        <ele>48.989048</ele>
        <time>2023-01-05T08:30:46.443Z</time>
      </trkpt>
      <trkpt lat="39.80791" lon="3.09032">
        <ele>49.041775</ele>
        <time>2023-01-05T08:30:48.448Z</time>
      </trkpt>
      <trkpt lat="39.80787" lon="3.0902">
        <ele>49.094361</ele>
        <time>2023-01-05T08:30:50.448Z</time>
      </trkpt>
      <trkpt lat="39.80783" lon="3.09008">
        <ele>49.148225</ele>
        <time>2023-01-05T08:30:52.456Z</time>
      </trkpt>
      <trkpt lat="39.80778" lon="3.08997">
        <ele>49.201227</ele>
        <time>2023-01-05T08:30:54.445Z</time>
      </trkpt>
      <trkpt lat="39.80773" lon="3.08987">
        <ele>49.254048</ele>
        <time>2023-01-05T08:30:56.433Z</time>
      </trkpt>
      <trkpt lat="39.80766" lon="3.08977">
        <ele>49.308079</ele>
        <time>2023-01-05T08:30:58.435Z</time>
      </trkpt>
      <trkpt lat="39.80759" lon="3.08967">
        <ele>49.365444</ele>
        <time>2023-01-05T08:31:00.448Z</time>
      </trkpt>
      <trkpt lat="39.80752" lon="3.08957">
        <ele>49.420786</ele>
        <time>2023-01-05T08:31:02.441Z</time>
      </trkpt>
      <trkpt lat="39.80744" lon="3.08948">
        <ele>49.476005</ele>
        <time>2023-01-05T08:31:04.446Z</time>
      </trkpt>
      <trkpt lat="39.80738" lon="3.08938">
        <ele>49.530757</ele>
        <time>2023-01-05T08:31:06.446Z</time>
      </trkpt>
      <trkpt lat="39.80731" lon="3.08928">
        <ele>49.586636</ele>
        <time>2023-01-05T08:31:08.450Z</time>
      </trkpt>
      <trkpt lat="39.80724" lon="3.08919">
        <ele>49.638851</ele>
        <time>2023-01-05T08:31:10.437Z</time>
      </trkpt>
      <trkpt lat="39.80718" lon="3.08909">
        <ele>49.692777</ele>
        <time>2023-01-05T08:31:12.451Z</time>
      </trkpt>
      <trkpt lat="39.80711" lon="3.08899">
        <ele>49.694697</ele>
        <time>2023-01-05T08:31:14.434Z</time>
      </trkpt>
      <trkpt lat="39.80703" lon="3.0889">
        <ele>49.687784</ele>
        <time>2023-01-05T08:31:16.433Z</time>
      </trkpt>
      <trkpt lat="39.80697" lon="3.0888">
        <ele>49.680904</ele>
        <time>2023-01-05T08:31:18.427Z</time>
      </trkpt>
      <trkpt lat="39.8069" lon="3.0887">
        <ele>49.67391</ele>
        <time>2023-01-05T08:31:20.442Z</time>
      </trkpt>
      <trkpt lat="39.80683" lon="3.0886">
        <ele>49.667139</ele>
        <time>2023-01-05T08:31:22.451Z</time>
      </trkpt>
      <trkpt lat="39.80677" lon="3.08851">
        <ele>49.660383</ele>
        <time>2023-01-05T08:31:24.444Z</time>
      </trkpt>
      <trkpt lat="39.8067" lon="3.08841">
        <ele>49.653717</ele>
        <time>2023-01-05T08:31:26.452Z</time>
      </trkpt>
      <trkpt lat="39.80664" lon="3.08831">
        <ele>49.646803</ele>
        <time>2023-01-05T08:31:28.443Z</time>
      </trkpt>
      <trkpt lat="39.80657" lon="3.08822">
        <ele>49.640032</ele>
        <time>2023-01-05T08:31:30.459Z</time>
      </trkpt>
      <trkpt lat="39.8065" lon="3.08812">
        <ele>49.633282</ele>
        <time>2023-01-05T08:31:32.448Z</time>
      </trkpt>
      <trkpt lat="39.80644" lon="3.08802">
        <ele>49.62661</ele>
        <time>2023-01-05T08:31:34.446Z</time>
      </trkpt>
      <trkpt lat="39.80637" lon="3.08793">
        <ele>49.620094</ele>
        <time>2023-01-05T08:31:36.437Z</time>
      </trkpt>
      <trkpt lat="39.80631" lon="3.08784">
        <ele>49.613292</ele>
        <time>2023-01-05T08:31:38.462Z</time>
      </trkpt>
      <trkpt lat="39.80624" lon="3.08774">
        <ele>49.606575</ele>
        <time>2023-01-05T08:31:40.455Z</time>
      </trkpt>
      <trkpt lat="39.80617" lon="3.08764">
        <ele>49.599564</ele>
        <time>2023-01-05T08:31:42.445Z</time>
      </trkpt>
      <trkpt lat="39.80611" lon="3.08755">
        <ele>49.592886</ele>
        <time>2023-01-05T08:31:44.462Z</time>
      </trkpt>
      <trkpt lat="39.80604" lon="3.08745">
        <ele>49.586091</ele>
        <time>2023-01-05T08:31:46.446Z</time>
      </trkpt>
      <trkpt lat="39.80597" lon="3.08736">
        <ele>49.579328</ele>
        <time>2023-01-05T08:31:48.463Z</time>
      </trkpt>
      <trkpt lat="39.80591" lon="3.08726">
        <ele>49.539965</ele>
        <time>2023-01-05T08:31:50.447Z</time>
      </trkpt>
      <trkpt lat="39.80584" lon="3.08716">
        <ele>49.491295</ele>
        <time>2023-01-05T08:31:52.460Z</time>
      </trkpt>
      <trkpt lat="39.80577" lon="3.08707">
        <ele>49.445698</ele>
        <time>2023-01-05T08:31:54.456Z</time>
      </trkpt>
      <trkpt lat="39.8057" lon="3.08697">
        <ele>49.395932</ele>
        <time>2023-01-05T08:31:56.449Z</time>
      </trkpt>
      <trkpt lat="39.80563" lon="3.08687">
        <ele>49.347454</ele>
        <time>2023-01-05T08:31:58.442Z</time>
      </trkpt>
      <trkpt lat="39.80556" lon="3.08677">
        <ele>49.299562</ele>
        <time>2023-01-05T08:32:00.428Z</time>
      </trkpt>
      <trkpt lat="39.8055" lon="3.08668">
        <ele>49.252793</ele>
        <time>2023-01-05T08:32:02.444Z</time>
      </trkpt>
      <trkpt lat="39.80543" lon="3.08658">
        <ele>49.207407</ele>
        <time>2023-01-05T08:32:04.453Z</time>
      </trkpt>
      <trkpt lat="39.80536" lon="3.08648">
        <ele>49.158737</ele>
        <time>2023-01-05T08:32:06.448Z</time>
      </trkpt>
      <trkpt lat="39.8053" lon="3.08639">
        <ele>49.111113</ele>
        <time>2023-01-05T08:32:08.440Z</time>
      </trkpt>
      <trkpt lat="39.80523" lon="3.08628">
        <ele>49.06307</ele>
        <time>2023-01-05T08:32:10.441Z</time>
      </trkpt>
      <trkpt lat="39.80517" lon="3.08618">
        <ele>49.013568</ele>
        <time>2023-01-05T08:32:12.450Z</time>
      </trkpt>
      <trkpt lat="39.80509" lon="3.08608">
        <ele>48.963011</ele>
        <time>2023-01-05T08:32:14.459Z</time>
      </trkpt>
      <trkpt lat="39.80502" lon="3.08598">
        <ele>48.914215</ele>
        <time>2023-01-05T08:32:16.462Z</time>
      </trkpt>
      <trkpt lat="39.80495" lon="3.08588">
        <ele>48.866005</ele>
        <time>2023-01-05T08:32:18.460Z</time>
      </trkpt>
      <trkpt lat="39.80489" lon="3.08578">
        <ele>48.818467</ele>
        <time>2023-01-05T08:32:20.445Z</time>
      </trkpt>
      <trkpt lat="39.80482" lon="3.08568">
        <ele>48.771542</ele>
        <time>2023-01-05T08:32:22.442Z</time>
      </trkpt>
      <trkpt lat="39.80476" lon="3.08558">
        <ele>48.73059</ele>
        <time>2023-01-05T08:32:24.459Z</time>
      </trkpt>
      <trkpt lat="39.80469" lon="3.08549">
        <ele>48.745164</ele>
        <time>2023-01-05T08:32:26.461Z</time>
      </trkpt>
      <trkpt lat="39.80463" lon="3.08539">
        <ele>48.759807</ele>
        <time>2023-01-05T08:32:28.447Z</time>
      </trkpt>
      <trkpt lat="39.80456" lon="3.0853">
        <ele>48.774709</ele>
        <time>2023-01-05T08:32:30.440Z</time>
      </trkpt>
      <trkpt lat="39.8045" lon="3.0852">
        <ele>48.789415</ele>
        <time>2023-01-05T08:32:32.449Z</time>
      </trkpt>
      <trkpt lat="39.80443" lon="3.08511">
        <ele>48.8037</ele>
        <time>2023-01-05T08:32:34.467Z</time>
      </trkpt>
      <trkpt lat="39.80437" lon="3.08502">
        <ele>48.818461</ele>
        <time>2023-01-05T08:32:36.436Z</time>
      </trkpt>
      <trkpt lat="39.8043" lon="3.08492">
        <ele>48.833579</ele>
        <time>2023-01-05T08:32:38.441Z</time>
      </trkpt>
      <trkpt lat="39.80423" lon="3.08483">
        <ele>48.848222</ele>
        <time>2023-01-05T08:32:40.448Z</time>
      </trkpt>
      <trkpt lat="39.80417" lon="3.08473">
        <ele>48.86334</ele>
        <time>2023-01-05T08:32:42.442Z</time>
      </trkpt>
      <trkpt lat="39.8041" lon="3.08464">
        <ele>48.877352</ele>
        <time>2023-01-05T08:32:44.444Z</time>
      </trkpt>
      <trkpt lat="39.80404" lon="3.08455">
        <ele>48.891248</ele>
        <time>2023-01-05T08:32:46.444Z</time>
      </trkpt>
      <trkpt lat="39.80395" lon="3.08444">
        <ele>48.910523</ele>
        <time>2023-01-05T08:32:49.453Z</time>
      </trkpt>
      <trkpt lat="39.80383" lon="3.08436">
        <ele>48.930229</ele>
        <time>2023-01-05T08:32:52.451Z</time>
      </trkpt>
      <trkpt lat="39.8037" lon="3.08432">
        <ele>48.950136</ele>
        <time>2023-01-05T08:32:55.435Z</time>
      </trkpt>
      <trkpt lat="39.80361" lon="3.08432">
        <ele>48.964465</ele>
        <time>2023-01-05T08:32:57.449Z</time>
      </trkpt>
      <trkpt lat="39.80352" lon="3.08432">
        <ele>48.978338</ele>
        <time>2023-01-05T08:32:59.437Z</time>
      </trkpt>
      <trkpt lat="39.80342" lon="3.08433">
        <ele>48.992512</ele>
        <time>2023-01-05T08:33:01.447Z</time>
      </trkpt>
      <trkpt lat="39.80333" lon="3.08433">
        <ele>48.998689</ele>
        <time>2023-01-05T08:33:03.452Z</time>
      </trkpt>
      <trkpt lat="39.80323" lon="3.08434">
        <ele>48.995876</ele>
        <time>2023-01-05T08:33:05.446Z</time>
      </trkpt>
      <trkpt lat="39.8031" lon="3.08434">
        <ele>48.991888</ele>
        <time>2023-01-05T08:33:08.453Z</time>
      </trkpt>
      <trkpt lat="39.80296" lon="3.08435">
        <ele>48.987922</ele>
        <time>2023-01-05T08:33:11.440Z</time>
      </trkpt>
      <trkpt lat="39.80287" lon="3.08436">
        <ele>48.985233</ele>
        <time>2023-01-05T08:33:13.441Z</time>
      </trkpt>
      <trkpt lat="39.80278" lon="3.08436">
        <ele>48.982485</ele>
        <time>2023-01-05T08:33:15.444Z</time>
      </trkpt>
      <trkpt lat="39.80269" lon="3.08436">
        <ele>48.979796</ele>
        <time>2023-01-05T08:33:17.422Z</time>
      </trkpt>
      <trkpt lat="39.8026" lon="3.08436">
        <ele>48.977079</ele>
        <time>2023-01-05T08:33:19.453Z</time>
      </trkpt>
      <trkpt lat="39.8025" lon="3.08436">
        <ele>48.974242</ele>
        <time>2023-01-05T08:33:21.443Z</time>
      </trkpt>
      <trkpt lat="39.80241" lon="3.08437">
        <ele>48.971462</ele>
        <time>2023-01-05T08:33:23.441Z</time>
      </trkpt>
      <trkpt lat="39.80232" lon="3.08438">
        <ele>48.968765</ele>
        <time>2023-01-05T08:33:25.440Z</time>
      </trkpt>
      <trkpt lat="39.80222" lon="3.08438">
        <ele>48.966046</ele>
        <time>2023-01-05T08:33:27.458Z</time>
      </trkpt>
      <trkpt lat="39.80209" lon="3.08438">
        <ele>48.962176</ele>
        <time>2023-01-05T08:33:30.444Z</time>
      </trkpt>
      <trkpt lat="39.80196" lon="3.08439">
        <ele>48.958215</ele>
        <time>2023-01-05T08:33:33.426Z</time>
      </trkpt>
      <trkpt lat="39.80187" lon="3.08439">
        <ele>48.955526</ele>
        <time>2023-01-05T08:33:35.441Z</time>
      </trkpt>
      <trkpt lat="39.80177" lon="3.0844">
        <ele>48.952631</ele>
        <time>2023-01-05T08:33:37.456Z</time>
      </trkpt>
      <trkpt lat="39.80167" lon="3.0844">
        <ele>48.94976</ele>
        <time>2023-01-05T08:33:39.440Z</time>
      </trkpt>
      <trkpt lat="39.80158" lon="3.08441">
        <ele>48.946952</ele>
        <time>2023-01-05T08:33:41.441Z</time>
      </trkpt>
      <trkpt lat="39.80148" lon="3.0844">
        <ele>49.001821</ele>
        <time>2023-01-05T08:33:43.448Z</time>
      </trkpt>
      <trkpt lat="39.80138" lon="3.08437">
        <ele>49.05743</ele>
        <time>2023-01-05T08:33:45.437Z</time>
      </trkpt>
      <trkpt lat="39.80129" lon="3.08432">
        <ele>49.114662</ele>
        <time>2023-01-05T08:33:47.444Z</time>
      </trkpt>
      <trkpt lat="39.80122" lon="3.08424">
        <ele>49.169329</ele>
        <time>2023-01-05T08:33:49.446Z</time>
      </trkpt>
      <trkpt lat="39.80116" lon="3.08414">
        <ele>49.226271</ele>
        <time>2023-01-05T08:33:51.451Z</time>
      </trkpt>
      <trkpt lat="39.80111" lon="3.08404">
        <ele>49.278254</ele>
        <time>2023-01-05T08:33:53.463Z</time>
      </trkpt>
      <trkpt lat="39.80107" lon="3.08393">
        <ele>49.331005</ele>
        <time>2023-01-05T08:33:55.442Z</time>
      </trkpt>
      <trkpt lat="39.801" lon="3.08377">
        <ele>49.410114</ele>
        <time>2023-01-05T08:33:58.445Z</time>
      </trkpt>
      <trkpt lat="39.80097" lon="3.08366">
        <ele>49.462522</ele>
        <time>2023-01-05T08:34:00.440Z</time>
      </trkpt>
      <trkpt lat="39.80093" lon="3.08355">
        <ele>49.513837</ele>
        <time>2023-01-05T08:34:02.455Z</time>
      </trkpt>
      <trkpt lat="39.80089" lon="3.08345">
        <ele>49.566332</ele>
        <time>2023-01-05T08:34:04.464Z</time>
      </trkpt>
      <trkpt lat="39.80084" lon="3.08334">
        <ele>49.619722</ele>
        <time>2023-01-05T08:34:06.460Z</time>
      </trkpt>
      <trkpt lat="39.80078" lon="3.08317">
        <ele>49.699107</ele>
        <time>2023-01-05T08:34:09.441Z</time>
      </trkpt>
      <trkpt lat="39.80074" lon="3.08306">
        <ele>49.75215</ele>
        <time>2023-01-05T08:34:11.451Z</time>
      </trkpt>
      <trkpt lat="39.80071" lon="3.08296">
        <ele>49.80416</ele>
        <time>2023-01-05T08:34:13.444Z</time>
      </trkpt>
      <trkpt lat="39.80067" lon="3.08285">
        <ele>49.855868</ele>
        <time>2023-01-05T08:34:15.445Z</time>
      </trkpt>
      <trkpt lat="39.80063" lon="3.08274">
        <ele>49.907575</ele>
        <time>2023-01-05T08:34:17.457Z</time>
      </trkpt>
      <trkpt lat="39.80059" lon="3.08263">
        <ele>49.960382</ele>
        <time>2023-01-05T08:34:19.450Z</time>
      </trkpt>
      <trkpt lat="39.80055" lon="3.08253">
        <ele>49.931967</ele>
        <time>2023-01-05T08:34:21.438Z</time>
      </trkpt>
      <trkpt lat="39.80051" lon="3.08242">
        <ele>49.88299</ele>
        <time>2023-01-05T08:34:23.440Z</time>
      </trkpt>
      <trkpt lat="39.80046" lon="3.08231">
        <ele>49.831658</ele>
        <time>2023-01-05T08:34:25.445Z</time>
      </trkpt>
      <trkpt lat="39.80042" lon="3.0822">
        <ele>49.780045</ele>
        <time>2023-01-05T08:34:27.445Z</time>
      </trkpt>
      <trkpt lat="39.80038" lon="3.08209">
        <ele>49.730693</ele>
        <time>2023-01-05T08:34:29.451Z</time>
      </trkpt>
      <trkpt lat="39.80035" lon="3.08198">
        <ele>49.679687</ele>
        <time>2023-01-05T08:34:31.448Z</time>
      </trkpt>
      <trkpt lat="39.80031" lon="3.08187">
        <ele>49.629889</ele>
        <time>2023-01-05T08:34:33.415Z</time>
      </trkpt>
      <trkpt lat="39.80027" lon="3.08176">
        <ele>49.580248</ele>
        <time>2023-01-05T08:34:35.449Z</time>
      </trkpt>
      <trkpt lat="39.80022" lon="3.08161">
        <ele>49.507983</ele>
        <time>2023-01-05T08:34:38.458Z</time>
      </trkpt>
      <trkpt lat="39.80016" lon="3.08145">
        <ele>49.435696</ele>
        <time>2023-01-05T08:34:41.444Z</time>
      </trkpt>
      <trkpt lat="39.80011" lon="3.08135">
        <ele>49.386341</ele>
        <time>2023-01-05T08:34:43.447Z</time>
      </trkpt>
      <trkpt lat="39.80008" lon="3.08124">
        <ele>49.33708</ele>
        <time>2023-01-05T08:34:45.442Z</time>
      </trkpt>
      <trkpt lat="39.80004" lon="3.08113">
        <ele>49.287664</ele>
        <time>2023-01-05T08:34:47.449Z</time>
      </trkpt>
      <trkpt lat="39.8" lon="3.08102">
        <ele>49.237184</ele>
        <time>2023-01-05T08:34:49.439Z</time>
      </trkpt>
      <trkpt lat="39.79996" lon="3.08092">
        <ele>49.187543</ele>
        <time>2023-01-05T08:34:51.443Z</time>
      </trkpt>
      <trkpt lat="39.79992" lon="3.08081">
        <ele>49.137063</ele>
        <time>2023-01-05T08:34:53.431Z</time>
      </trkpt>
      <trkpt lat="39.79988" lon="3.0807">
        <ele>49.087842</ele>
        <time>2023-01-05T08:34:55.443Z</time>
      </trkpt>
      <trkpt lat="39.79984" lon="3.08059">
        <ele>49.036607</ele>
        <time>2023-01-05T08:34:57.446Z</time>
      </trkpt>
      <trkpt lat="39.7998" lon="3.08048">
        <ele>48.983383</ele>
        <time>2023-01-05T08:34:59.455Z</time>
      </trkpt>
      <trkpt lat="39.79974" lon="3.08032">
        <ele>48.900168</ele>
        <time>2023-01-05T08:35:02.445Z</time>
      </trkpt>
      <trkpt lat="39.7997" lon="3.08021">
        <ele>48.842728</ele>
        <time>2023-01-05T08:35:04.452Z</time>
      </trkpt>
      <trkpt lat="39.79966" lon="3.0801">
        <ele>48.78443</ele>
        <time>2023-01-05T08:35:06.444Z</time>
      </trkpt>
      <trkpt lat="39.79961" lon="3.07998">
        <ele>48.724114</ele>
        <time>2023-01-05T08:35:08.460Z</time>
      </trkpt>
      <trkpt lat="39.79958" lon="3.07987">
        <ele>48.667356</ele>
        <time>2023-01-05T08:35:10.454Z</time>
      </trkpt>
      <trkpt lat="39.79954" lon="3.07976">
        <ele>48.608971</ele>
        <time>2023-01-05T08:35:12.457Z</time>
      </trkpt>
      <trkpt lat="39.79949" lon="3.07966">
        <ele>48.552685</ele>
        <time>2023-01-05T08:35:14.455Z</time>
      </trkpt>
      <trkpt lat="39.79945" lon="3.07955">
        <ele>48.495148</ele>
        <time>2023-01-05T08:35:16.459Z</time>
      </trkpt>
      <trkpt lat="39.79941" lon="3.07944">
        <ele>48.438182</ele>
        <time>2023-01-05T08:35:18.450Z</time>
      </trkpt>
      <trkpt lat="39.79937" lon="3.07933">
        <ele>48.381491</ele>
        <time>2023-01-05T08:35:20.454Z</time>
      </trkpt>
      <trkpt lat="39.79933" lon="3.07922">
        <ele>48.324732</ele>
        <time>2023-01-05T08:35:22.444Z</time>
      </trkpt>
      <trkpt lat="39.79929" lon="3.07911">
        <ele>48.26957</ele>
        <time>2023-01-05T08:35:24.444Z</time>
      </trkpt>
      <trkpt lat="39.79925" lon="3.07901">
        <ele>48.21456</ele>
        <time>2023-01-05T08:35:26.452Z</time>
      </trkpt>
      <trkpt lat="39.79921" lon="3.0789">
        <ele>48.1584</ele>
        <time>2023-01-05T08:35:28.446Z</time>
      </trkpt>
      <trkpt lat="39.79917" lon="3.07879">
        <ele>48.101977</ele>
        <time>2023-01-05T08:35:30.451Z</time>
      </trkpt>
      <trkpt lat="39.79912" lon="3.07864">
        <ele>48.021955</ele>
        <time>2023-01-05T08:35:33.438Z</time>
      </trkpt>
      <trkpt lat="39.79906" lon="3.07849">
        <ele>47.943312</ele>
        <time>2023-01-05T08:35:36.443Z</time>
      </trkpt>
      <trkpt lat="39.79901" lon="3.07834">
        <ele>47.89325</ele>
        <time>2023-01-05T08:35:39.444Z</time>
      </trkpt>
      <trkpt lat="39.79895" lon="3.07818">
        <ele>47.897646</ele>
        <time>2023-01-05T08:35:42.462Z</time>
      </trkpt>
      <trkpt lat="39.79889" lon="3.07804">
        <ele>47.901678</ele>
        <time>2023-01-05T08:35:45.435Z</time>
      </trkpt>
      <trkpt lat="39.79884" lon="3.07789">
        <ele>47.905785</ele>
        <time>2023-01-05T08:35:48.462Z</time>
      </trkpt>
      <trkpt lat="39.79878" lon="3.07773">
        <ele>47.910324</ele>
        <time>2023-01-05T08:35:51.442Z</time>
      </trkpt>
      <trkpt lat="39.79875" lon="3.07762">
        <ele>47.913335</ele>
        <time>2023-01-05T08:35:53.439Z</time>
      </trkpt>
      <trkpt lat="39.79871" lon="3.07751">
        <ele>47.916468</ele>
        <time>2023-01-05T08:35:55.461Z</time>
      </trkpt>
      <trkpt lat="39.79867" lon="3.07739">
        <ele>47.919762</ele>
        <time>2023-01-05T08:35:57.438Z</time>
      </trkpt>
      <trkpt lat="39.79863" lon="3.07728">
        <ele>47.922803</ele>
        <time>2023-01-05T08:35:59.445Z</time>
      </trkpt>
      <trkpt lat="39.79859" lon="3.07717">
        <ele>47.925886</ele>
        <time>2023-01-05T08:36:01.444Z</time>
      </trkpt>
      <trkpt lat="39.79855" lon="3.07706">
        <ele>47.929008</ele>
        <time>2023-01-05T08:36:03.442Z</time>
      </trkpt>
      <trkpt lat="39.7985" lon="3.07695">
        <ele>47.932212</ele>
        <time>2023-01-05T08:36:05.444Z</time>
      </trkpt>
      <trkpt lat="39.79846" lon="3.07683">
        <ele>47.935464</ele>
        <time>2023-01-05T08:36:07.463Z</time>
      </trkpt>
      <trkpt lat="39.79842" lon="3.07672">
        <ele>47.938608</ele>
        <time>2023-01-05T08:36:09.442Z</time>
      </trkpt>
      <trkpt lat="39.79838" lon="3.0766">
        <ele>47.941805</ele>
        <time>2023-01-05T08:36:11.427Z</time>
      </trkpt>
      <trkpt lat="39.79833" lon="3.0765">
        <ele>47.944889</ele>
        <time>2023-01-05T08:36:13.434Z</time>
      </trkpt>
      <trkpt lat="39.79829" lon="3.07638">
        <ele>47.948018</ele>
        <time>2023-01-05T08:36:15.456Z</time>
      </trkpt>
      <trkpt lat="39.79825" lon="3.07627">
        <ele>47.951247</ele>
        <time>2023-01-05T08:36:17.441Z</time>
      </trkpt>
      <trkpt lat="39.79821" lon="3.07617">
        <ele>47.96579</ele>
        <time>2023-01-05T08:36:19.452Z</time>
      </trkpt>
      <trkpt lat="39.79817" lon="3.07605">
        <ele>47.980383</ele>
        <time>2023-01-05T08:36:21.445Z</time>
      </trkpt>
      <trkpt lat="39.79813" lon="3.07595">
        <ele>47.994465</ele>
        <time>2023-01-05T08:36:23.440Z</time>
      </trkpt>
      <trkpt lat="39.79809" lon="3.07584">
        <ele>48.009505</ele>
        <time>2023-01-05T08:36:25.443Z</time>
      </trkpt>
      <trkpt lat="39.79805" lon="3.07572">
        <ele>48.024513</ele>
        <time>2023-01-05T08:36:27.444Z</time>
      </trkpt>
      <trkpt lat="39.798" lon="3.07561">
        <ele>48.040127</ele>
        <time>2023-01-05T08:36:29.454Z</time>
      </trkpt>
      <trkpt lat="39.79796" lon="3.0755">
        <ele>48.054813</ele>
        <time>2023-01-05T08:36:31.445Z</time>
      </trkpt>
      <trkpt lat="39.79792" lon="3.07538">
        <ele>48.070037</ele>
        <time>2023-01-05T08:36:33.457Z</time>
      </trkpt>
      <trkpt lat="39.79788" lon="3.07527">
        <ele>48.084762</ele>
        <time>2023-01-05T08:36:35.449Z</time>
      </trkpt>
      <trkpt lat="39.79783" lon="3.07516">
        <ele>48.099946</ele>
        <time>2023-01-05T08:36:37.442Z</time>
      </trkpt>
      <trkpt lat="39.79779" lon="3.07504">
        <ele>48.115104</ele>
        <time>2023-01-05T08:36:39.442Z</time>
      </trkpt>
      <trkpt lat="39.79775" lon="3.07493">
        <ele>48.129897</ele>
        <time>2023-01-05T08:36:41.457Z</time>
      </trkpt>
      <trkpt lat="39.79771" lon="3.07482">
        <ele>48.144817</ele>
        <time>2023-01-05T08:36:43.433Z</time>
      </trkpt>
      <trkpt lat="39.79767" lon="3.0747">
        <ele>48.160083</ele>
        <time>2023-01-05T08:36:45.439Z</time>
      </trkpt>
      <trkpt lat="39.79763" lon="3.07459">
        <ele>48.174549</ele>
        <time>2023-01-05T08:36:47.458Z</time>
      </trkpt>
      <trkpt lat="39.7976" lon="3.07448">
        <ele>48.189142</ele>
        <time>2023-01-05T08:36:49.453Z</time>
      </trkpt>
      <trkpt lat="39.79755" lon="3.07437">
        <ele>48.204005</ele>
        <time>2023-01-05T08:36:51.461Z</time>
      </trkpt>
      <trkpt lat="39.79751" lon="3.07426">
        <ele>48.21873</ele>
        <time>2023-01-05T08:36:53.451Z</time>
      </trkpt>
      <trkpt lat="39.79747" lon="3.07415">
        <ele>48.246305</ele>
        <time>2023-01-05T08:36:55.462Z</time>
      </trkpt>
      <trkpt lat="39.79743" lon="3.07404">
        <ele>48.342481</ele>
        <time>2023-01-05T08:36:57.461Z</time>
      </trkpt>
      <trkpt lat="39.79739" lon="3.07392">
        <ele>48.445044</ele>
        <time>2023-01-05T08:36:59.463Z</time>
      </trkpt>
      <trkpt lat="39.79736" lon="3.07381">
        <ele>48.543037</ele>
        <time>2023-01-05T08:37:01.441Z</time>
      </trkpt>
      <trkpt lat="39.79732" lon="3.07371">
        <ele>48.639558</ele>
        <time>2023-01-05T08:37:03.443Z</time>
      </trkpt>
      <trkpt lat="39.79728" lon="3.0736">
        <ele>48.738265</ele>
        <time>2023-01-05T08:37:05.442Z</time>
      </trkpt>
      <trkpt lat="39.79723" lon="3.07349">
        <ele>48.839129</ele>
        <time>2023-01-05T08:37:07.443Z</time>
      </trkpt>
      <trkpt lat="39.79717" lon="3.07333">
        <ele>48.983934</ele>
        <time>2023-01-05T08:37:10.466Z</time>
      </trkpt>
      <trkpt lat="39.79713" lon="3.07322">
        <ele>49.082867</ele>
        <time>2023-01-05T08:37:12.456Z</time>
      </trkpt>
      <trkpt lat="39.79709" lon="3.07311">
        <ele>49.181113</ele>
        <time>2023-01-05T08:37:14.456Z</time>
      </trkpt>
      <trkpt lat="39.79705" lon="3.073">
        <ele>49.282515</ele>
        <time>2023-01-05T08:37:16.470Z</time>
      </trkpt>
      <trkpt lat="39.797" lon="3.07284">
        <ele>49.425514</ele>
        <time>2023-01-05T08:37:19.451Z</time>
      </trkpt>
      <trkpt lat="39.79695" lon="3.07273">
        <ele>49.521073</ele>
        <time>2023-01-05T08:37:21.423Z</time>
      </trkpt>
      <trkpt lat="39.7969" lon="3.07263">
        <ele>49.616753</ele>
        <time>2023-01-05T08:37:23.434Z</time>
      </trkpt>
      <trkpt lat="39.79681" lon="3.07251">
        <ele>49.756892</ele>
        <time>2023-01-05T08:37:26.436Z</time>
      </trkpt>
      <trkpt lat="39.7967" lon="3.07245">
        <ele>49.885416</ele>
        <time>2023-01-05T08:37:29.435Z</time>
      </trkpt>
      <trkpt lat="39.7966" lon="3.07246">
        <ele>49.991652</ele>
        <time>2023-01-05T08:37:32.445Z</time>
      </trkpt>
      <trkpt lat="39.79643" lon="3.07256">
        <ele>50.134434</ele>
        <time>2023-01-05T08:38:03.453Z</time>
      </trkpt>
      <trkpt lat="39.79635" lon="3.07263">
        <ele>50.133442</ele>
        <time>2023-01-05T08:38:06.449Z</time>
      </trkpt>
      <trkpt lat="39.79626" lon="3.07269">
        <ele>50.132416</ele>
        <time>2023-01-05T08:38:09.431Z</time>
      </trkpt>
      <trkpt lat="39.79616" lon="3.07275">
        <ele>50.131333</ele>
        <time>2023-01-05T08:38:12.442Z</time>
      </trkpt>
      <trkpt lat="39.79606" lon="3.07281">
        <ele>50.130142</ele>
        <time>2023-01-05T08:38:15.449Z</time>
      </trkpt>
      <trkpt lat="39.79595" lon="3.07287">
        <ele>50.128881</ele>
        <time>2023-01-05T08:38:18.446Z</time>
      </trkpt>
      <trkpt lat="39.79584" lon="3.07294">
        <ele>50.127592</ele>
        <time>2023-01-05T08:38:21.441Z</time>
      </trkpt>
      <trkpt lat="39.79573" lon="3.073">
        <ele>50.126378</ele>
        <time>2023-01-05T08:38:24.443Z</time>
      </trkpt>
      <trkpt lat="39.7956" lon="3.07302">
        <ele>50.125056</ele>
        <time>2023-01-05T08:38:27.440Z</time>
      </trkpt>
      <trkpt lat="39.79551" lon="3.07303">
        <ele>50.124076</ele>
        <time>2023-01-05T08:38:29.446Z</time>
      </trkpt>
      <trkpt lat="39.79541" lon="3.073">
        <ele>50.122963</ele>
        <time>2023-01-05T08:38:31.443Z</time>
      </trkpt>
      <trkpt lat="39.79532" lon="3.07291">
        <ele>50.121845</ele>
        <time>2023-01-05T08:38:33.445Z</time>
      </trkpt>
      <trkpt lat="39.79527" lon="3.0728">
        <ele>50.120825</ele>
        <time>2023-01-05T08:38:35.440Z</time>
      </trkpt>
      <trkpt lat="39.79525" lon="3.07268">
        <ele>50.119818</ele>
        <time>2023-01-05T08:38:37.429Z</time>
      </trkpt>
      <trkpt lat="39.79525" lon="3.07255">
        <ele>50.11878</ele>
        <time>2023-01-05T08:38:39.425Z</time>
      </trkpt>
      <trkpt lat="39.79529" lon="3.07242">
        <ele>50.11767</ele>
        <time>2023-01-05T08:38:41.431Z</time>
      </trkpt>
      <trkpt lat="39.79536" lon="3.07232">
        <ele>50.116644</ele>
        <time>2023-01-05T08:38:43.437Z</time>
      </trkpt>
      <trkpt lat="39.79542" lon="3.07222">
        <ele>50.087291</ele>
        <time>2023-01-05T08:38:45.449Z</time>
      </trkpt>
      <trkpt lat="39.79549" lon="3.07213">
        <ele>50.040523</ele>
        <time>2023-01-05T08:38:47.439Z</time>
      </trkpt>
      <trkpt lat="39.79555" lon="3.07203">
        <ele>49.996454</ele>
        <time>2023-01-05T08:38:49.446Z</time>
      </trkpt>
      <trkpt lat="39.79561" lon="3.07194">
        <ele>49.951808</ele>
        <time>2023-01-05T08:38:51.445Z</time>
      </trkpt>
      <trkpt lat="39.79567" lon="3.07185">
        <ele>49.906827</ele>
        <time>2023-01-05T08:38:53.444Z</time>
      </trkpt>
      <trkpt lat="39.79573" lon="3.07175">
        <ele>49.862732</ele>
        <time>2023-01-05T08:38:55.450Z</time>
      </trkpt>
      <trkpt lat="39.7958" lon="3.07165">
        <ele>49.81582</ele>
        <time>2023-01-05T08:38:57.448Z</time>
      </trkpt>
      <trkpt lat="39.79586" lon="3.07155">
        <ele>49.767178</ele>
        <time>2023-01-05T08:38:59.459Z</time>
      </trkpt>
      <trkpt lat="39.79593" lon="3.07145">
        <ele>49.719874</ele>
        <time>2023-01-05T08:39:01.440Z</time>
      </trkpt>
      <trkpt lat="39.79599" lon="3.07135">
        <ele>49.672406</ele>
        <time>2023-01-05T08:39:03.435Z</time>
      </trkpt>
      <trkpt lat="39.79604" lon="3.07124">
        <ele>49.626194</ele>
        <time>2023-01-05T08:39:05.430Z</time>
      </trkpt>
      <trkpt lat="39.79608" lon="3.07112">
        <ele>49.579541</ele>
        <time>2023-01-05T08:39:07.451Z</time>
      </trkpt>
      <trkpt lat="39.79611" lon="3.07099">
        <ele>49.531916</ele>
        <time>2023-01-05T08:39:09.445Z</time>
      </trkpt>
      <trkpt lat="39.79613" lon="3.07087">
        <ele>49.486127</ele>
        <time>2023-01-05T08:39:11.452Z</time>
      </trkpt>
      <trkpt lat="39.79615" lon="3.07075">
        <ele>49.441529</ele>
        <time>2023-01-05T08:39:13.440Z</time>
      </trkpt>
      <trkpt lat="39.79617" lon="3.07063">
        <ele>49.397148</ele>
        <time>2023-01-05T08:39:15.443Z</time>
      </trkpt>
      <trkpt lat="39.79619" lon="3.0705">
        <ele>49.350752</ele>
        <time>2023-01-05T08:39:17.445Z</time>
      </trkpt>
      <trkpt lat="39.79621" lon="3.07038">
        <ele>49.306121</ele>
        <time>2023-01-05T08:39:19.442Z</time>
      </trkpt>
      <trkpt lat="39.79623" lon="3.07026">
        <ele>49.263472</ele>
        <time>2023-01-05T08:39:21.461Z</time>
      </trkpt>
      <trkpt lat="39.79626" lon="3.07013">
        <ele>49.227272</ele>
        <time>2023-01-05T08:39:23.436Z</time>
      </trkpt>
      <trkpt lat="39.79627" lon="3.07001">
        <ele>49.192583</ele>
        <time>2023-01-05T08:39:25.446Z</time>
      </trkpt>
      <trkpt lat="39.7963" lon="3.06989">
        <ele>49.15749</ele>
        <time>2023-01-05T08:39:27.445Z</time>
      </trkpt>
      <trkpt lat="39.79632" lon="3.06976">
        <ele>49.122801</ele>
        <time>2023-01-05T08:39:29.447Z</time>
      </trkpt>
      <trkpt lat="39.79634" lon="3.06965">
        <ele>49.088932</ele>
        <time>2023-01-05T08:39:31.445Z</time>
      </trkpt>
      <trkpt lat="39.79636" lon="3.06952">
        <ele>49.054197</ele>
        <time>2023-01-05T08:39:33.434Z</time>
      </trkpt>
      <trkpt lat="39.79639" lon="3.06935">
        <ele>49.003256</ele>
        <time>2023-01-05T08:39:36.440Z</time>
      </trkpt>
      <trkpt lat="39.79641" lon="3.06923">
        <ele>48.968688</ele>
        <time>2023-01-05T08:39:38.445Z</time>
      </trkpt>
      <trkpt lat="39.79644" lon="3.06911">
        <ele>48.935304</ele>
        <time>2023-01-05T08:39:40.443Z</time>
      </trkpt>
      <trkpt lat="39.79645" lon="3.06899">
        <ele>48.900815</ele>
        <time>2023-01-05T08:39:42.449Z</time>
      </trkpt>
      <trkpt lat="39.79646" lon="3.06887">
        <ele>48.866493</ele>
        <time>2023-01-05T08:39:44.439Z</time>
      </trkpt>
      <trkpt lat="39.79646" lon="3.06874">
        <ele>48.831036</ele>
        <time>2023-01-05T08:39:46.448Z</time>
      </trkpt>
      <trkpt lat="39.79644" lon="3.06861">
        <ele>48.795113</ele>
        <time>2023-01-05T08:39:48.440Z</time>
      </trkpt>
      <trkpt lat="39.79641" lon="3.06848">
        <ele>48.756317</ele>
        <time>2023-01-05T08:39:50.440Z</time>
      </trkpt>
      <trkpt lat="39.79638" lon="3.06835">
        <ele>48.719825</ele>
        <time>2023-01-05T08:39:52.434Z</time>
      </trkpt>
      <trkpt lat="39.79634" lon="3.06823">
        <ele>48.681846</ele>
        <time>2023-01-05T08:39:54.441Z</time>
      </trkpt>
      <trkpt lat="39.7963" lon="3.0681">
        <ele>48.644248</ele>
        <time>2023-01-05T08:39:56.444Z</time>
      </trkpt>
      <trkpt lat="39.79627" lon="3.06798">
        <ele>48.606618</ele>
        <time>2023-01-05T08:39:58.455Z</time>
      </trkpt>
      <trkpt lat="39.79624" lon="3.06786">
        <ele>48.565868</ele>
        <time>2023-01-05T08:40:00.453Z</time>
      </trkpt>
      <trkpt lat="39.79621" lon="3.06775">
        <ele>48.526209</ele>
        <time>2023-01-05T08:40:02.455Z</time>
      </trkpt>
      <trkpt lat="39.79617" lon="3.06763">
        <ele>48.485945</ele>
        <time>2023-01-05T08:40:04.445Z</time>
      </trkpt>
      <trkpt lat="39.79614" lon="3.06751">
        <ele>48.44583</ele>
        <time>2023-01-05T08:40:06.455Z</time>
      </trkpt>
      <trkpt lat="39.7961" lon="3.0674">
        <ele>48.405715</ele>
        <time>2023-01-05T08:40:08.442Z</time>
      </trkpt>
      <trkpt lat="39.79607" lon="3.06728">
        <ele>48.3656</ele>
        <time>2023-01-05T08:40:10.429Z</time>
      </trkpt>
      <trkpt lat="39.79604" lon="3.06717">
        <ele>48.325906</ele>
        <time>2023-01-05T08:40:12.459Z</time>
      </trkpt>
      <trkpt lat="39.79601" lon="3.06706">
        <ele>48.287454</ele>
        <time>2023-01-05T08:40:14.442Z</time>
      </trkpt>
      <trkpt lat="39.79597" lon="3.06693">
        <ele>48.245061</ele>
        <time>2023-01-05T08:40:16.456Z</time>
      </trkpt>
      <trkpt lat="39.79594" lon="3.06682">
        <ele>48.2051</ele>
        <time>2023-01-05T08:40:18.446Z</time>
      </trkpt>
      <trkpt lat="39.79591" lon="3.0667">
        <ele>48.165129</ele>
        <time>2023-01-05T08:40:20.438Z</time>
      </trkpt>
      <trkpt lat="39.79587" lon="3.06659">
        <ele>48.124411</ele>
        <time>2023-01-05T08:40:22.454Z</time>
      </trkpt>
      <trkpt lat="39.79583" lon="3.06642">
        <ele>48.067462</ele>
        <time>2023-01-05T08:40:25.453Z</time>
      </trkpt>
      <trkpt lat="39.79579" lon="3.0663">
        <ele>48.026287</ele>
        <time>2023-01-05T08:40:27.442Z</time>
      </trkpt>
      <trkpt lat="39.79576" lon="3.06618">
        <ele>47.98572</ele>
        <time>2023-01-05T08:40:29.434Z</time>
      </trkpt>
      <trkpt lat="39.79573" lon="3.06607">
        <ele>47.945153</ele>
        <time>2023-01-05T08:40:31.448Z</time>
      </trkpt>
      <trkpt lat="39.79569" lon="3.06595">
        <ele>47.904586</ele>
        <time>2023-01-05T08:40:33.438Z</time>
      </trkpt>
      <trkpt lat="39.79566" lon="3.06583">
        <ele>47.86447</ele>
        <time>2023-01-05T08:40:35.442Z</time>
      </trkpt>
      <trkpt lat="39.79563" lon="3.06572">
        <ele>47.859066</ele>
        <time>2023-01-05T08:40:37.440Z</time>
      </trkpt>
      <trkpt lat="39.7956" lon="3.0656">
        <ele>47.857461</ele>
        <time>2023-01-05T08:40:39.441Z</time>
      </trkpt>
      <trkpt lat="39.79557" lon="3.06549">
        <ele>47.855767</ele>
        <time>2023-01-05T08:40:41.453Z</time>
      </trkpt>
      <trkpt lat="39.79553" lon="3.06537">
        <ele>47.854122</ele>
        <time>2023-01-05T08:40:43.436Z</time>
      </trkpt>
      <trkpt lat="39.79549" lon="3.06526">
        <ele>47.852414</ele>
        <time>2023-01-05T08:40:45.448Z</time>
      </trkpt>
      <trkpt lat="39.79546" lon="3.06514">
        <ele>47.850693</ele>
        <time>2023-01-05T08:40:47.460Z</time>
      </trkpt>
      <trkpt lat="39.79542" lon="3.06502">
        <ele>47.849011</ele>
        <time>2023-01-05T08:40:49.432Z</time>
      </trkpt>
      <trkpt lat="39.79539" lon="3.0649">
        <ele>47.847297</ele>
        <time>2023-01-05T08:40:51.428Z</time>
      </trkpt>
      <trkpt lat="39.79536" lon="3.06478">
        <ele>47.845594</ele>
        <time>2023-01-05T08:40:53.434Z</time>
      </trkpt>
      <trkpt lat="39.79532" lon="3.06467">
        <ele>47.843956</ele>
        <time>2023-01-05T08:40:55.441Z</time>
      </trkpt>
      <trkpt lat="39.79529" lon="3.06455">
        <ele>47.84233</ele>
        <time>2023-01-05T08:40:57.445Z</time>
      </trkpt>
      <trkpt lat="39.79525" lon="3.06439">
        <ele>47.83995</ele>
        <time>2023-01-05T08:41:00.450Z</time>
      </trkpt>
      <trkpt lat="39.79521" lon="3.06427">
        <ele>47.838287</ele>
        <time>2023-01-05T08:41:02.439Z</time>
      </trkpt>
      <trkpt lat="39.79518" lon="3.06416">
        <ele>47.836629</ele>
        <time>2023-01-05T08:41:04.446Z</time>
      </trkpt>
      <trkpt lat="39.79514" lon="3.06404">
        <ele>47.834934</ele>
        <time>2023-01-05T08:41:06.454Z</time>
      </trkpt>
      <trkpt lat="39.79511" lon="3.06392">
        <ele>47.83329</ele>
        <time>2023-01-05T08:41:08.450Z</time>
      </trkpt>
      <trkpt lat="39.79508" lon="3.06381">
        <ele>47.831588</ele>
        <time>2023-01-05T08:41:10.448Z</time>
      </trkpt>
      <trkpt lat="39.79504" lon="3.06369">
        <ele>47.829938</ele>
        <time>2023-01-05T08:41:12.452Z</time>
      </trkpt>
      <trkpt lat="39.79501" lon="3.06358">
        <ele>47.86933</ele>
        <time>2023-01-05T08:41:14.454Z</time>
      </trkpt>
      <trkpt lat="39.79498" lon="3.06345">
        <ele>47.95925</ele>
        <time>2023-01-05T08:41:16.448Z</time>
      </trkpt>
      <trkpt lat="39.79494" lon="3.06333">
        <ele>48.050142</ele>
        <time>2023-01-05T08:41:18.455Z</time>
      </trkpt>
      <trkpt lat="39.79491" lon="3.06321">
        <ele>48.139074</ele>
        <time>2023-01-05T08:41:20.447Z</time>
      </trkpt>
      <trkpt lat="39.79488" lon="3.0631">
        <ele>48.224751</ele>
        <time>2023-01-05T08:41:22.458Z</time>
      </trkpt>
      <trkpt lat="39.79484" lon="3.06298">
        <ele>48.310751</ele>
        <time>2023-01-05T08:41:24.457Z</time>
      </trkpt>
      <trkpt lat="39.79481" lon="3.06287">
        <ele>48.39773</ele>
        <time>2023-01-05T08:41:26.444Z</time>
      </trkpt>
      <trkpt lat="39.79477" lon="3.06275">
        <ele>48.483729</ele>
        <time>2023-01-05T08:41:28.464Z</time>
      </trkpt>
      <trkpt lat="39.79474" lon="3.06264">
        <ele>48.56813</ele>
        <time>2023-01-05T08:41:30.438Z</time>
      </trkpt>
      <trkpt lat="39.79471" lon="3.06252">
        <ele>48.654992</ele>
        <time>2023-01-05T08:41:32.451Z</time>
      </trkpt>
      <trkpt lat="39.79468" lon="3.0624">
        <ele>48.743603</ele>
        <time>2023-01-05T08:41:34.449Z</time>
      </trkpt>
      <trkpt lat="39.79464" lon="3.06229">
        <ele>48.829933</ele>
        <time>2023-01-05T08:41:36.444Z</time>
      </trkpt>
      <trkpt lat="39.79461" lon="3.06217">
        <ele>48.914641</ele>
        <time>2023-01-05T08:41:38.442Z</time>
      </trkpt>
      <trkpt lat="39.79458" lon="3.06206">
        <ele>48.998361</ele>
        <time>2023-01-05T08:41:40.442Z</time>
      </trkpt>
      <trkpt lat="39.79455" lon="3.06195">
        <ele>49.082414</ele>
        <time>2023-01-05T08:41:42.442Z</time>
      </trkpt>
      <trkpt lat="39.79452" lon="3.06184">
        <ele>49.164241</ele>
        <time>2023-01-05T08:41:44.437Z</time>
      </trkpt>
      <trkpt lat="39.79448" lon="3.06172">
        <ele>49.25122</ele>
        <time>2023-01-05T08:41:46.449Z</time>
      </trkpt>
      <trkpt lat="39.79445" lon="3.06161">
        <ele>49.337889</ele>
        <time>2023-01-05T08:41:48.442Z</time>
      </trkpt>
      <trkpt lat="39.79441" lon="3.06149">
        <ele>49.422914</ele>
        <time>2023-01-05T08:41:50.444Z</time>
      </trkpt>
      <trkpt lat="39.79438" lon="3.06137">
        <ele>49.463349</ele>
        <time>2023-01-05T08:41:52.456Z</time>
      </trkpt>
      <trkpt lat="39.79435" lon="3.06125">
        <ele>49.464091</ele>
        <time>2023-01-05T08:41:54.440Z</time>
      </trkpt>
      <trkpt lat="39.79431" lon="3.06113">
        <ele>49.464857</ele>
        <time>2023-01-05T08:41:56.437Z</time>
      </trkpt>
      <trkpt lat="39.79428" lon="3.06101">
        <ele>49.46558</ele>
        <time>2023-01-05T08:41:58.451Z</time>
      </trkpt>
      <trkpt lat="39.79425" lon="3.0609">
        <ele>49.46633</ele>
        <time>2023-01-05T08:42:00.447Z</time>
      </trkpt>
      <trkpt lat="39.79422" lon="3.06078">
        <ele>49.467074</ele>
        <time>2023-01-05T08:42:02.444Z</time>
      </trkpt>
      <trkpt lat="39.79418" lon="3.06066">
        <ele>49.467816</ele>
        <time>2023-01-05T08:42:04.453Z</time>
      </trkpt>
      <trkpt lat="39.79415" lon="3.06054">
        <ele>49.46856</ele>
        <time>2023-01-05T08:42:06.444Z</time>
      </trkpt>
      <trkpt lat="39.79412" lon="3.06042">
        <ele>49.469315</ele>
        <time>2023-01-05T08:42:08.449Z</time>
      </trkpt>
      <trkpt lat="39.79408" lon="3.06031">
        <ele>49.470049</ele>
        <time>2023-01-05T08:42:10.448Z</time>
      </trkpt>
      <trkpt lat="39.79405" lon="3.06019">
        <ele>49.470801</ele>
        <time>2023-01-05T08:42:12.437Z</time>
      </trkpt>
      <trkpt lat="39.79402" lon="3.06008">
        <ele>49.471499</ele>
        <time>2023-01-05T08:42:14.441Z</time>
      </trkpt>
      <trkpt lat="39.79399" lon="3.05996">
        <ele>49.472243</ele>
        <time>2023-01-05T08:42:16.459Z</time>
      </trkpt>
      <trkpt lat="39.79396" lon="3.05984">
        <ele>49.472977</ele>
        <time>2023-01-05T08:42:18.440Z</time>
      </trkpt>
      <trkpt lat="39.79392" lon="3.05972">
        <ele>49.473744</ele>
        <time>2023-01-05T08:42:20.460Z</time>
      </trkpt>
      <trkpt lat="39.79389" lon="3.0596">
        <ele>49.474511</ele>
        <time>2023-01-05T08:42:22.446Z</time>
      </trkpt>
      <trkpt lat="39.79385" lon="3.05948">
        <ele>49.47528</ele>
        <time>2023-01-05T08:42:24.456Z</time>
      </trkpt>
      <trkpt lat="39.79382" lon="3.05936">
        <ele>49.476047</ele>
        <time>2023-01-05T08:42:26.452Z</time>
      </trkpt>
      <trkpt lat="39.79378" lon="3.05923">
        <ele>49.476888</ele>
        <time>2023-01-05T08:42:28.442Z</time>
      </trkpt>
      <trkpt lat="39.79375" lon="3.05911">
        <ele>49.478998</ele>
        <time>2023-01-05T08:42:30.447Z</time>
      </trkpt>
      <trkpt lat="39.79371" lon="3.059">
        <ele>49.48098</ele>
        <time>2023-01-05T08:42:32.443Z</time>
      </trkpt>
      <trkpt lat="39.79368" lon="3.05887">
        <ele>49.483136</ele>
        <time>2023-01-05T08:42:34.444Z</time>
      </trkpt>
      <trkpt lat="39.79365" lon="3.05876">
        <ele>49.485126</ele>
        <time>2023-01-05T08:42:36.440Z</time>
      </trkpt>
      <trkpt lat="39.79361" lon="3.05864">
        <ele>49.487236</ele>
        <time>2023-01-05T08:42:38.453Z</time>
      </trkpt>
      <trkpt lat="39.79358" lon="3.05852">
        <ele>49.489218</ele>
        <time>2023-01-05T08:42:40.448Z</time>
      </trkpt>
      <trkpt lat="39.79355" lon="3.05841">
        <ele>49.491236</ele>
        <time>2023-01-05T08:42:42.445Z</time>
      </trkpt>
      <trkpt lat="39.79351" lon="3.05829">
        <ele>49.493179</ele>
        <time>2023-01-05T08:42:44.447Z</time>
      </trkpt>
      <trkpt lat="39.79348" lon="3.05818">
        <ele>49.495122</ele>
        <time>2023-01-05T08:42:46.450Z</time>
      </trkpt>
      <trkpt lat="39.79345" lon="3.05807">
        <ele>49.497088</ele>
        <time>2023-01-05T08:42:48.452Z</time>
      </trkpt>
      <trkpt lat="39.7934" lon="3.05796">
        <ele>49.499139</ele>
        <time>2023-01-05T08:42:50.434Z</time>
      </trkpt>
      <trkpt lat="39.79335" lon="3.05786">
        <ele>49.501112</ele>
        <time>2023-01-05T08:42:52.441Z</time>
      </trkpt>
      <trkpt lat="39.79329" lon="3.05776">
        <ele>49.503099</ele>
        <time>2023-01-05T08:42:54.441Z</time>
      </trkpt>
      <trkpt lat="39.79324" lon="3.05766">
        <ele>49.505072</ele>
        <time>2023-01-05T08:42:56.447Z</time>
      </trkpt>
      <trkpt lat="39.79318" lon="3.05757">
        <ele>49.507007</ele>
        <time>2023-01-05T08:42:58.455Z</time>
      </trkpt>
      <trkpt lat="39.79313" lon="3.05747">
        <ele>49.509019</ele>
        <time>2023-01-05T08:43:00.458Z</time>
      </trkpt>
      <trkpt lat="39.79307" lon="3.05736">
        <ele>49.511108</ele>
        <time>2023-01-05T08:43:02.445Z</time>
      </trkpt>
      <trkpt lat="39.79301" lon="3.05726">
        <ele>49.513287</ele>
        <time>2023-01-05T08:43:04.445Z</time>
      </trkpt>
      <trkpt lat="39.79295" lon="3.05716">
        <ele>49.527337</ele>
        <time>2023-01-05T08:43:06.452Z</time>
      </trkpt>
      <trkpt lat="39.79289" lon="3.05706">
        <ele>49.586015</ele>
        <time>2023-01-05T08:43:08.444Z</time>
      </trkpt>
      <trkpt lat="39.79283" lon="3.05696">
        <ele>49.645747</ele>
        <time>2023-01-05T08:43:10.451Z</time>
      </trkpt>
      <trkpt lat="39.79278" lon="3.05686">
        <ele>49.703987</ele>
        <time>2023-01-05T08:43:12.453Z</time>
      </trkpt>
      <trkpt lat="39.79272" lon="3.05676">
        <ele>49.763714</ele>
        <time>2023-01-05T08:43:14.450Z</time>
      </trkpt>
      <trkpt lat="39.79266" lon="3.05666">
        <ele>49.822701</ele>
        <time>2023-01-05T08:43:16.450Z</time>
      </trkpt>
      <trkpt lat="39.7926" lon="3.05656">
        <ele>49.880956</ele>
        <time>2023-01-05T08:43:18.443Z</time>
      </trkpt>
      <trkpt lat="39.79254" lon="3.05646">
        <ele>49.937372</ele>
        <time>2023-01-05T08:43:20.461Z</time>
      </trkpt>
      <trkpt lat="39.79248" lon="3.05637">
        <ele>49.994503</ele>
        <time>2023-01-05T08:43:22.447Z</time>
      </trkpt>
      <trkpt lat="39.79242" lon="3.05626">
        <ele>50.055361</ele>
        <time>2023-01-05T08:43:24.443Z</time>
      </trkpt>
      <trkpt lat="39.79236" lon="3.05616">
        <ele>50.113986</ele>
        <time>2023-01-05T08:43:26.450Z</time>
      </trkpt>
      <trkpt lat="39.79231" lon="3.05607">
        <ele>50.170402</ele>
        <time>2023-01-05T08:43:28.442Z</time>
      </trkpt>
      <trkpt lat="39.79225" lon="3.05597">
        <ele>50.228643</ele>
        <time>2023-01-05T08:43:30.417Z</time>
      </trkpt>
      <trkpt lat="39.7922" lon="3.05586">
        <ele>50.287671</ele>
        <time>2023-01-05T08:43:32.445Z</time>
      </trkpt>
      <trkpt lat="39.79214" lon="3.05576">
        <ele>50.345618</ele>
        <time>2023-01-05T08:43:34.447Z</time>
      </trkpt>
      <trkpt lat="39.79208" lon="3.05566">
        <ele>50.406829</ele>
        <time>2023-01-05T08:43:36.441Z</time>
      </trkpt>
      <trkpt lat="39.79202" lon="3.05556">
        <ele>50.465443</ele>
        <time>2023-01-05T08:43:38.451Z</time>
      </trkpt>
      <trkpt lat="39.79197" lon="3.05545">
        <ele>50.523882</ele>
        <time>2023-01-05T08:43:40.440Z</time>
      </trkpt>
      <trkpt lat="39.79191" lon="3.05536">
        <ele>50.582125</ele>
        <time>2023-01-05T08:43:42.442Z</time>
      </trkpt>
      <trkpt lat="39.79186" lon="3.05525">
        <ele>50.617511</ele>
        <time>2023-01-05T08:43:44.443Z</time>
      </trkpt>
      <trkpt lat="39.7918" lon="3.05515">
        <ele>50.631283</ele>
        <time>2023-01-05T08:43:46.439Z</time>
      </trkpt>
      <trkpt lat="39.79174" lon="3.05505">
        <ele>50.645773</ele>
        <time>2023-01-05T08:43:48.437Z</time>
      </trkpt>
      <trkpt lat="39.79169" lon="3.05496">
        <ele>50.659176</ele>
        <time>2023-01-05T08:43:50.451Z</time>
      </trkpt>
      <trkpt lat="39.79163" lon="3.05487">
        <ele>50.672493</ele>
        <time>2023-01-05T08:43:52.446Z</time>
      </trkpt>
      <trkpt lat="39.79158" lon="3.05477">
        <ele>50.685897</ele>
        <time>2023-01-05T08:43:54.451Z</time>
      </trkpt>
      <trkpt lat="39.79152" lon="3.05467">
        <ele>50.69993</ele>
        <time>2023-01-05T08:43:56.438Z</time>
      </trkpt>
      <trkpt lat="39.79146" lon="3.05457">
        <ele>50.713872</ele>
        <time>2023-01-05T08:43:58.459Z</time>
      </trkpt>
      <trkpt lat="39.7914" lon="3.05448">
        <ele>50.728386</ele>
        <time>2023-01-05T08:44:00.442Z</time>
      </trkpt>
      <trkpt lat="39.79134" lon="3.05439">
        <ele>50.74183</ele>
        <time>2023-01-05T08:44:02.454Z</time>
      </trkpt>
      <trkpt lat="39.79126" lon="3.05427">
        <ele>50.75973</ele>
        <time>2023-01-05T08:44:05.440Z</time>
      </trkpt>
      <trkpt lat="39.79118" lon="3.05414">
        <ele>50.778911</ele>
        <time>2023-01-05T08:44:08.435Z</time>
      </trkpt>
      <trkpt lat="39.79109" lon="3.054">
        <ele>50.798906</ele>
        <time>2023-01-05T08:44:11.423Z</time>
      </trkpt>
      <trkpt lat="39.791" lon="3.05388">
        <ele>50.818037</ele>
        <time>2023-01-05T08:44:14.439Z</time>
      </trkpt>
      <trkpt lat="39.79092" lon="3.05375">
        <ele>50.83693</ele>
        <time>2023-01-05T08:44:17.453Z</time>
      </trkpt>
      <trkpt lat="39.79084" lon="3.05362">
        <ele>50.856571</ele>
        <time>2023-01-05T08:44:20.446Z</time>
      </trkpt>
      <trkpt lat="39.79075" lon="3.05348">
        <ele>50.87602</ele>
        <time>2023-01-05T08:44:23.440Z</time>
      </trkpt>
      <trkpt lat="39.79069" lon="3.05339">
        <ele>50.885299</ele>
        <time>2023-01-05T08:44:25.439Z</time>
      </trkpt>
      <trkpt lat="39.79063" lon="3.0533">
        <ele>50.894615</ele>
        <time>2023-01-05T08:44:27.448Z</time>
      </trkpt>
      <trkpt lat="39.79057" lon="3.0532">
        <ele>50.903813</ele>
        <time>2023-01-05T08:44:29.447Z</time>
      </trkpt>
      <trkpt lat="39.79051" lon="3.05311">
        <ele>50.913078</ele>
        <time>2023-01-05T08:44:31.443Z</time>
      </trkpt>
      <trkpt lat="39.79046" lon="3.05302">
        <ele>50.922032</ele>
        <time>2023-01-05T08:44:33.437Z</time>
      </trkpt>
      <trkpt lat="39.79037" lon="3.05288">
        <ele>50.93523</ele>
        <time>2023-01-05T08:44:36.435Z</time>
      </trkpt>
      <trkpt lat="39.79032" lon="3.05279">
        <ele>50.944305</ele>
        <time>2023-01-05T08:44:38.449Z</time>
      </trkpt>
      <trkpt lat="39.79023" lon="3.05266">
        <ele>50.957437</ele>
        <time>2023-01-05T08:44:41.424Z</time>
      </trkpt>
      <trkpt lat="39.79015" lon="3.05253">
        <ele>50.969962</ele>
        <time>2023-01-05T08:44:44.452Z</time>
      </trkpt>
      <trkpt lat="39.79008" lon="3.05239">
        <ele>50.982788</ele>
        <time>2023-01-05T08:44:47.451Z</time>
      </trkpt>
      <trkpt lat="39.78999" lon="3.05226">
        <ele>50.996037</ele>
        <time>2023-01-05T08:44:50.448Z</time>
      </trkpt>
      <trkpt lat="39.78991" lon="3.05213">
        <ele>51.008869</ele>
        <time>2023-01-05T08:44:53.434Z</time>
      </trkpt>
      <trkpt lat="39.78983" lon="3.052">
        <ele>51.02176</ele>
        <time>2023-01-05T08:44:56.456Z</time>
      </trkpt>
      <trkpt lat="39.78975" lon="3.05185">
        <ele>51.035251</ele>
        <time>2023-01-05T08:44:59.442Z</time>
      </trkpt>
      <trkpt lat="39.78969" lon="3.05176">
        <ele>51.044149</ele>
        <time>2023-01-05T08:45:01.441Z</time>
      </trkpt>
      <trkpt lat="39.78961" lon="3.05163">
        <ele>51.067874</ele>
        <time>2023-01-05T08:45:04.443Z</time>
      </trkpt>
      <trkpt lat="39.78955" lon="3.05153">
        <ele>51.104303</ele>
        <time>2023-01-05T08:45:06.444Z</time>
      </trkpt>
      <trkpt lat="39.78949" lon="3.05145">
        <ele>51.140094</ele>
        <time>2023-01-05T08:45:08.442Z</time>
      </trkpt>
      <trkpt lat="39.78941" lon="3.05131">
        <ele>51.193166</ele>
        <time>2023-01-05T08:45:11.442Z</time>
      </trkpt>
      <trkpt lat="39.78935" lon="3.05121">
        <ele>51.22912</ele>
        <time>2023-01-05T08:45:13.443Z</time>
      </trkpt>
      <trkpt lat="39.78927" lon="3.05108">
        <ele>51.281957</ele>
        <time>2023-01-05T08:45:16.450Z</time>
      </trkpt>
      <trkpt lat="39.78921" lon="3.05099">
        <ele>51.317425</ele>
        <time>2023-01-05T08:45:18.444Z</time>
      </trkpt>
      <trkpt lat="39.78915" lon="3.0509">
        <ele>51.353648</ele>
        <time>2023-01-05T08:45:20.446Z</time>
      </trkpt>
      <trkpt lat="39.7891" lon="3.0508">
        <ele>51.389593</ele>
        <time>2023-01-05T08:45:22.445Z</time>
      </trkpt>
      <trkpt lat="39.78902" lon="3.05067">
        <ele>51.441223</ele>
        <time>2023-01-05T08:45:25.436Z</time>
      </trkpt>
      <trkpt lat="39.78894" lon="3.05053">
        <ele>51.493571</ele>
        <time>2023-01-05T08:45:28.454Z</time>
      </trkpt>
      <trkpt lat="39.78886" lon="3.0504">
        <ele>51.544241</ele>
        <time>2023-01-05T08:45:31.433Z</time>
      </trkpt>
      <trkpt lat="39.78877" lon="3.05028">
        <ele>51.594979</ele>
        <time>2023-01-05T08:45:34.443Z</time>
      </trkpt>
      <trkpt lat="39.78866" lon="3.0502">
        <ele>51.644454</ele>
        <time>2023-01-05T08:45:37.442Z</time>
      </trkpt>
      <trkpt lat="39.78854" lon="3.05016">
        <ele>51.694754</ele>
        <time>2023-01-05T08:45:40.433Z</time>
      </trkpt>
      <trkpt lat="39.78842" lon="3.05017">
        <ele>51.742269</ele>
        <time>2023-01-05T08:45:43.436Z</time>
      </trkpt>
      <trkpt lat="39.7883" lon="3.05022">
        <ele>51.743178</ele>
        <time>2023-01-05T08:45:46.449Z</time>
      </trkpt>
      <trkpt lat="39.7882" lon="3.0503">
        <ele>51.697662</ele>
        <time>2023-01-05T08:45:49.454Z</time>
      </trkpt>
      <trkpt lat="39.78811" lon="3.05042">
        <ele>51.648272</ele>
        <time>2023-01-05T08:45:52.453Z</time>
      </trkpt>
      <trkpt lat="39.78802" lon="3.05051">
        <ele>51.601846</ele>
        <time>2023-01-05T08:45:55.446Z</time>
      </trkpt>
      <trkpt lat="39.78793" lon="3.05059">
        <ele>51.561909</ele>
        <time>2023-01-05T08:45:58.421Z</time>
      </trkpt>
      <trkpt lat="39.78785" lon="3.05069">
        <ele>51.518569</ele>
        <time>2023-01-05T08:46:01.445Z</time>
      </trkpt>
      <trkpt lat="39.78775" lon="3.05078">
        <ele>51.473113</ele>
        <time>2023-01-05T08:46:04.445Z</time>
      </trkpt>
      <trkpt lat="39.78765" lon="3.05088">
        <ele>51.424924</ele>
        <time>2023-01-05T08:46:07.445Z</time>
      </trkpt>
      <trkpt lat="39.78756" lon="3.05095">
        <ele>51.383714</ele>
        <time>2023-01-05T08:46:10.441Z</time>
      </trkpt>
      <trkpt lat="39.78748" lon="3.05101">
        <ele>51.347388</ele>
        <time>2023-01-05T08:46:13.450Z</time>
      </trkpt>
      <trkpt lat="39.7874" lon="3.05107">
        <ele>51.311409</ele>
        <time>2023-01-05T08:46:16.452Z</time>
      </trkpt>
      <trkpt lat="39.78731" lon="3.05111">
        <ele>51.274619</ele>
        <time>2023-01-05T08:46:19.447Z</time>
      </trkpt>
      <trkpt lat="39.78721" lon="3.05116">
        <ele>51.232915</ele>
        <time>2023-01-05T08:46:22.448Z</time>
      </trkpt>
      <trkpt lat="39.78709" lon="3.05117">
        <ele>51.186712</ele>
        <time>2023-01-05T08:46:25.442Z</time>
      </trkpt>
      <trkpt lat="39.78697" lon="3.05113">
        <ele>51.13828</ele>
        <time>2023-01-05T08:46:28.450Z</time>
      </trkpt>
      <trkpt lat="39.78685" lon="3.05104">
        <ele>51.088811</ele>
        <time>2023-01-05T08:46:31.455Z</time>
      </trkpt>
      <trkpt lat="39.78677" lon="3.05093">
        <ele>51.128643</ele>
        <time>2023-01-05T08:46:34.442Z</time>
      </trkpt>
      <trkpt lat="39.78669" lon="3.0508">
        <ele>51.208432</ele>
        <time>2023-01-05T08:46:37.426Z</time>
      </trkpt>
      <trkpt lat="39.78662" lon="3.05068">
        <ele>51.287413</ele>
        <time>2023-01-05T08:46:40.441Z</time>
      </trkpt>
      <trkpt lat="39.78654" lon="3.05055">
        <ele>51.367586</ele>
        <time>2023-01-05T08:46:43.446Z</time>
      </trkpt>
      <trkpt lat="39.78646" lon="3.05042">
        <ele>51.452902</ele>
        <time>2023-01-05T08:46:46.439Z</time>
      </trkpt>
      <trkpt lat="39.78639" lon="3.05029">
        <ele>51.533075</ele>
        <time>2023-01-05T08:46:49.444Z</time>
      </trkpt>
      <trkpt lat="39.78631" lon="3.05017">
        <ele>51.612498</ele>
        <time>2023-01-05T08:46:52.437Z</time>
      </trkpt>
      <trkpt lat="39.78624" lon="3.05003">
        <ele>51.698633</ele>
        <time>2023-01-05T08:46:55.445Z</time>
      </trkpt>
      <trkpt lat="39.78615" lon="3.0499">
        <ele>51.784054</ele>
        <time>2023-01-05T08:46:58.449Z</time>
      </trkpt>
      <trkpt lat="39.7861" lon="3.0498">
        <ele>51.84398</ele>
        <time>2023-01-05T08:47:00.447Z</time>
      </trkpt>
      <trkpt lat="39.78601" lon="3.04967">
        <ele>51.93049</ele>
        <time>2023-01-05T08:47:03.436Z</time>
      </trkpt>
      <trkpt lat="39.78593" lon="3.04953">
        <ele>52.01819</ele>
        <time>2023-01-05T08:47:06.441Z</time>
      </trkpt>
      <trkpt lat="39.78585" lon="3.04939">
        <ele>52.10194</ele>
        <time>2023-01-05T08:47:09.449Z</time>
      </trkpt>
      <trkpt lat="39.7858" lon="3.0493">
        <ele>52.160676</ele>
        <time>2023-01-05T08:47:11.442Z</time>
      </trkpt>
      <trkpt lat="39.78572" lon="3.04916">
        <ele>52.249608</ele>
        <time>2023-01-05T08:47:14.450Z</time>
      </trkpt>
      <trkpt lat="39.78566" lon="3.04907">
        <ele>52.322905</ele>
        <time>2023-01-05T08:47:16.454Z</time>
      </trkpt>
      <trkpt lat="39.7856" lon="3.04898">
        <ele>52.395221</ele>
        <time>2023-01-05T08:47:18.441Z</time>
      </trkpt>
      <trkpt lat="39.78552" lon="3.04884">
        <ele>52.502794</ele>
        <time>2023-01-05T08:47:21.442Z</time>
      </trkpt>
      <trkpt lat="39.78546" lon="3.04875">
        <ele>52.575685</ele>
        <time>2023-01-05T08:47:23.429Z</time>
      </trkpt>
      <trkpt lat="39.7854" lon="3.04866">
        <ele>52.649703</ele>
        <time>2023-01-05T08:47:25.443Z</time>
      </trkpt>
      <trkpt lat="39.78533" lon="3.04857">
        <ele>52.726031</ele>
        <time>2023-01-05T08:47:27.432Z</time>
      </trkpt>
      <trkpt lat="39.78527" lon="3.04847">
        <ele>52.803771</ele>
        <time>2023-01-05T08:47:29.442Z</time>
      </trkpt>
      <trkpt lat="39.78521" lon="3.04838">
        <ele>52.877714</ele>
        <time>2023-01-05T08:47:31.436Z</time>
      </trkpt>
      <trkpt lat="39.78515" lon="3.04829">
        <ele>52.955032</ele>
        <time>2023-01-05T08:47:33.434Z</time>
      </trkpt>
      <trkpt lat="39.78508" lon="3.0482">
        <ele>53.031134</ele>
        <time>2023-01-05T08:47:35.441Z</time>
      </trkpt>
      <trkpt lat="39.78502" lon="3.04811">
        <ele>53.10669</ele>
        <time>2023-01-05T08:47:37.445Z</time>
      </trkpt>
      <trkpt lat="39.78496" lon="3.04801">
        <ele>53.184476</ele>
        <time>2023-01-05T08:47:39.441Z</time>
      </trkpt>
      <trkpt lat="39.78489" lon="3.04792">
        <ele>53.259873</ele>
        <time>2023-01-05T08:47:41.447Z</time>
      </trkpt>
      <trkpt lat="39.78483" lon="3.04783">
        <ele>53.334349</ele>
        <time>2023-01-05T08:47:43.442Z</time>
      </trkpt>
      <trkpt lat="39.78475" lon="3.0477">
        <ele>53.441451</ele>
        <time>2023-01-05T08:47:46.463Z</time>
      </trkpt>
      <trkpt lat="39.78469" lon="3.0476">
        <ele>53.516745</ele>
        <time>2023-01-05T08:47:48.446Z</time>
      </trkpt>
      <trkpt lat="39.78462" lon="3.04752">
        <ele>53.589955</ele>
        <time>2023-01-05T08:47:50.440Z</time>
      </trkpt>
      <trkpt lat="39.78456" lon="3.04742">
        <ele>53.665217</ele>
        <time>2023-01-05T08:47:52.459Z</time>
      </trkpt>
      <trkpt lat="39.78451" lon="3.04733">
        <ele>53.690235</ele>
        <time>2023-01-05T08:47:54.455Z</time>
      </trkpt>
      <trkpt lat="39.78445" lon="3.04724">
        <ele>53.694338</ele>
        <time>2023-01-05T08:47:56.444Z</time>
      </trkpt>
      <trkpt lat="39.78438" lon="3.04714">
        <ele>53.698519</ele>
        <time>2023-01-05T08:47:58.460Z</time>
      </trkpt>
      <trkpt lat="39.78432" lon="3.04705">
        <ele>53.702677</ele>
        <time>2023-01-05T08:48:00.442Z</time>
      </trkpt>
      <trkpt lat="39.78423" lon="3.04692">
        <ele>53.708707</ele>
        <time>2023-01-05T08:48:03.429Z</time>
      </trkpt>
      <trkpt lat="39.78415" lon="3.04679">
        <ele>53.714653</ele>
        <time>2023-01-05T08:48:06.445Z</time>
      </trkpt>
      <trkpt lat="39.78408" lon="3.0467">
        <ele>53.718837</ele>
        <time>2023-01-05T08:48:08.437Z</time>
      </trkpt>
      <trkpt lat="39.78402" lon="3.0466">
        <ele>53.72305</ele>
        <time>2023-01-05T08:48:10.457Z</time>
      </trkpt>
      <trkpt lat="39.78396" lon="3.04651">
        <ele>53.727153</ele>
        <time>2023-01-05T08:48:12.455Z</time>
      </trkpt>
      <trkpt lat="39.78387" lon="3.04638">
        <ele>53.733106</ele>
        <time>2023-01-05T08:48:15.437Z</time>
      </trkpt>
      <trkpt lat="39.78381" lon="3.04629">
        <ele>53.737354</ele>
        <time>2023-01-05T08:48:17.467Z</time>
      </trkpt>
      <trkpt lat="39.78374" lon="3.0462">
        <ele>53.741645</ele>
        <time>2023-01-05T08:48:19.455Z</time>
      </trkpt>
      <trkpt lat="39.78368" lon="3.04611">
        <ele>53.745763</ele>
        <time>2023-01-05T08:48:21.439Z</time>
      </trkpt>
      <trkpt lat="39.78359" lon="3.04598">
        <ele>53.751738</ele>
        <time>2023-01-05T08:48:24.440Z</time>
      </trkpt>
      <trkpt lat="39.7835" lon="3.04586">
        <ele>53.757495</ele>
        <time>2023-01-05T08:48:27.441Z</time>
      </trkpt>
      <trkpt lat="39.78342" lon="3.04574">
        <ele>53.762927</ele>
        <time>2023-01-05T08:48:30.448Z</time>
      </trkpt>
      <trkpt lat="39.78333" lon="3.04562">
        <ele>53.7813</ele>
        <time>2023-01-05T08:48:33.432Z</time>
      </trkpt>
      <trkpt lat="39.78325" lon="3.0455">
        <ele>53.842059</ele>
        <time>2023-01-05T08:48:36.458Z</time>
      </trkpt>
      <trkpt lat="39.78318" lon="3.04538">
        <ele>53.899646</ele>
        <time>2023-01-05T08:48:39.435Z</time>
      </trkpt>
      <trkpt lat="39.7831" lon="3.04527">
        <ele>53.959007</ele>
        <time>2023-01-05T08:48:42.452Z</time>
      </trkpt>
      <trkpt lat="39.78302" lon="3.04515">
        <ele>54.017733</ele>
        <time>2023-01-05T08:48:45.442Z</time>
      </trkpt>
      <trkpt lat="39.78294" lon="3.04503">
        <ele>54.078678</ele>
        <time>2023-01-05T08:48:48.439Z</time>
      </trkpt>
      <trkpt lat="39.78287" lon="3.04491">
        <ele>54.136232</ele>
        <time>2023-01-05T08:48:51.452Z</time>
      </trkpt>
      <trkpt lat="39.78279" lon="3.04478">
        <ele>54.197954</ele>
        <time>2023-01-05T08:48:54.446Z</time>
      </trkpt>
      <trkpt lat="39.78272" lon="3.04467">
        <ele>54.255461</ele>
        <time>2023-01-05T08:48:57.455Z</time>
      </trkpt>
      <trkpt lat="39.78265" lon="3.04454">
        <ele>54.314462</ele>
        <time>2023-01-05T08:49:00.455Z</time>
      </trkpt>
      <trkpt lat="39.78257" lon="3.04442">
        <ele>54.372251</ele>
        <time>2023-01-05T08:49:03.441Z</time>
      </trkpt>
      <trkpt lat="39.78251" lon="3.0443">
        <ele>54.429451</ele>
        <time>2023-01-05T08:49:06.440Z</time>
      </trkpt>
      <trkpt lat="39.78244" lon="3.04418">
        <ele>54.487952</ele>
        <time>2023-01-05T08:49:09.424Z</time>
      </trkpt>
      <trkpt lat="39.78237" lon="3.04405">
        <ele>54.546356</ele>
        <time>2023-01-05T08:49:12.454Z</time>
      </trkpt>
      <trkpt lat="39.7823" lon="3.04393">
        <ele>54.606593</ele>
        <time>2023-01-05T08:49:15.448Z</time>
      </trkpt>
      <trkpt lat="39.78223" lon="3.0438">
        <ele>54.662992</ele>
        <time>2023-01-05T08:49:18.458Z</time>
      </trkpt>
      <trkpt lat="39.78216" lon="3.04367">
        <ele>54.689635</ele>
        <time>2023-01-05T08:49:21.432Z</time>
      </trkpt>
      <trkpt lat="39.78209" lon="3.04356">
        <ele>54.715213</ele>
        <time>2023-01-05T08:49:24.440Z</time>
      </trkpt>
      <trkpt lat="39.78203" lon="3.04344">
        <ele>54.74106</ele>
        <time>2023-01-05T08:49:27.434Z</time>
      </trkpt>
      <trkpt lat="39.78196" lon="3.04331">
        <ele>54.768404</ele>
        <time>2023-01-05T08:49:30.435Z</time>
      </trkpt>
      <trkpt lat="39.78189" lon="3.04318">
        <ele>54.795341</ele>
        <time>2023-01-05T08:49:33.426Z</time>
      </trkpt>
      <trkpt lat="39.78182" lon="3.04306">
        <ele>54.822813</ele>
        <time>2023-01-05T08:49:36.437Z</time>
      </trkpt>
      <trkpt lat="39.78175" lon="3.04293">
        <ele>54.851253</ele>
        <time>2023-01-05T08:49:39.455Z</time>
      </trkpt>
      <trkpt lat="39.78168" lon="3.04281">
        <ele>54.877621</ele>
        <time>2023-01-05T08:49:42.440Z</time>
      </trkpt>
      <trkpt lat="39.78161" lon="3.04269">
        <ele>54.903848</ele>
        <time>2023-01-05T08:49:45.450Z</time>
      </trkpt>
      <trkpt lat="39.78154" lon="3.04255">
        <ele>54.932435</ele>
        <time>2023-01-05T08:49:48.455Z</time>
      </trkpt>
      <trkpt lat="39.78146" lon="3.04243">
        <ele>54.960042</ele>
        <time>2023-01-05T08:49:51.436Z</time>
      </trkpt>
      <trkpt lat="39.78139" lon="3.0423">
        <ele>54.987244</ele>
        <time>2023-01-05T08:49:54.444Z</time>
      </trkpt>
      <trkpt lat="39.78132" lon="3.04218">
        <ele>55.014296</ele>
        <time>2023-01-05T08:49:57.440Z</time>
      </trkpt>
      <trkpt lat="39.78124" lon="3.04205">
        <ele>55.043152</ele>
        <time>2023-01-05T08:50:00.416Z</time>
      </trkpt>
      <trkpt lat="39.78117" lon="3.04192">
        <ele>55.072177</ele>
        <time>2023-01-05T08:50:03.436Z</time>
      </trkpt>
      <trkpt lat="39.7811" lon="3.04179">
        <ele>55.112911</ele>
        <time>2023-01-05T08:50:06.441Z</time>
      </trkpt>
      <trkpt lat="39.78103" lon="3.04166">
        <ele>55.153853</ele>
        <time>2023-01-05T08:50:09.439Z</time>
      </trkpt>
      <trkpt lat="39.78096" lon="3.04153">
        <ele>55.194378</ele>
        <time>2023-01-05T08:50:12.435Z</time>
      </trkpt>
      <trkpt lat="39.78089" lon="3.04141">
        <ele>55.234902</ele>
        <time>2023-01-05T08:50:15.445Z</time>
      </trkpt>
      <trkpt lat="39.78081" lon="3.04128">
        <ele>55.275833</ele>
        <time>2023-01-05T08:50:18.438Z</time>
      </trkpt>
      <trkpt lat="39.78074" lon="3.04114">
        <ele>55.319208</ele>
        <time>2023-01-05T08:50:21.447Z</time>
      </trkpt>
      <trkpt lat="39.78066" lon="3.04102">
        <ele>55.360333</ele>
        <time>2023-01-05T08:50:24.442Z</time>
      </trkpt>
      <trkpt lat="39.78059" lon="3.04088">
        <ele>55.402235</ele>
        <time>2023-01-05T08:50:27.444Z</time>
      </trkpt>
      <trkpt lat="39.78052" lon="3.04076">
        <ele>55.442972</ele>
        <time>2023-01-05T08:50:30.435Z</time>
      </trkpt>
      <trkpt lat="39.78044" lon="3.04063">
        <ele>55.484509</ele>
        <time>2023-01-05T08:50:33.426Z</time>
      </trkpt>
      <trkpt lat="39.78037" lon="3.0405">
        <ele>55.524837</ele>
        <time>2023-01-05T08:50:36.437Z</time>
      </trkpt>
      <trkpt lat="39.7803" lon="3.04037">
        <ele>55.566592</ele>
        <time>2023-01-05T08:50:39.437Z</time>
      </trkpt>
      <trkpt lat="39.78023" lon="3.04024">
        <ele>55.607745</ele>
        <time>2023-01-05T08:50:42.433Z</time>
      </trkpt>
      <trkpt lat="39.78016" lon="3.04012">
        <ele>55.646858</ele>
        <time>2023-01-05T08:50:45.439Z</time>
      </trkpt>
      <trkpt lat="39.78009" lon="3.03999">
        <ele>55.720095</ele>
        <time>2023-01-05T08:50:48.449Z</time>
      </trkpt>
      <trkpt lat="39.78002" lon="3.03986">
        <ele>55.849351</ele>
        <time>2023-01-05T08:50:51.443Z</time>
      </trkpt>
      <trkpt lat="39.77994" lon="3.03973">
        <ele>55.983702</ele>
        <time>2023-01-05T08:50:54.432Z</time>
      </trkpt>
      <trkpt lat="39.77987" lon="3.0396">
        <ele>56.109676</ele>
        <time>2023-01-05T08:50:57.445Z</time>
      </trkpt>
      <trkpt lat="39.77979" lon="3.03947">
        <ele>56.242056</ele>
        <time>2023-01-05T08:51:00.437Z</time>
      </trkpt>
      <trkpt lat="39.77972" lon="3.03934">
        <ele>56.376448</ele>
        <time>2023-01-05T08:51:03.433Z</time>
      </trkpt>
      <trkpt lat="39.77965" lon="3.03921">
        <ele>56.507563</ele>
        <time>2023-01-05T08:51:06.445Z</time>
      </trkpt>
      <trkpt lat="39.77958" lon="3.03908">
        <ele>56.631683</ele>
        <time>2023-01-05T08:51:09.442Z</time>
      </trkpt>
      <trkpt lat="39.7795" lon="3.03895">
        <ele>56.763428</ele>
        <time>2023-01-05T08:51:12.443Z</time>
      </trkpt>
      <trkpt lat="39.77943" lon="3.03882">
        <ele>56.891413</ele>
        <time>2023-01-05T08:51:15.433Z</time>
      </trkpt>
      <trkpt lat="39.77936" lon="3.0387">
        <ele>57.021883</ele>
        <time>2023-01-05T08:51:18.439Z</time>
      </trkpt>
      <trkpt lat="39.77928" lon="3.03857">
        <ele>57.150479</ele>
        <time>2023-01-05T08:51:21.435Z</time>
      </trkpt>
      <trkpt lat="39.77921" lon="3.03844">
        <ele>57.281594</ele>
        <time>2023-01-05T08:51:24.448Z</time>
      </trkpt>
      <trkpt lat="39.77913" lon="3.03831">
        <ele>57.412689</ele>
        <time>2023-01-05T08:51:27.438Z</time>
      </trkpt>
      <trkpt lat="39.77907" lon="3.03818">
        <ele>57.537537</ele>
        <time>2023-01-05T08:51:30.447Z</time>
      </trkpt>
      <trkpt lat="39.77899" lon="3.03806">
        <ele>57.685869</ele>
        <time>2023-01-05T08:51:33.432Z</time>
      </trkpt>
      <trkpt lat="39.77892" lon="3.03793">
        <ele>57.847816</ele>
        <time>2023-01-05T08:51:36.438Z</time>
      </trkpt>
      <trkpt lat="39.77885" lon="3.03781">
        <ele>58.002616</ele>
        <time>2023-01-05T08:51:39.444Z</time>
      </trkpt>
      <trkpt lat="39.77877" lon="3.03768">
        <ele>58.163719</ele>
        <time>2023-01-05T08:51:42.441Z</time>
      </trkpt>
      <trkpt lat="39.77869" lon="3.03757">
        <ele>58.316379</ele>
        <time>2023-01-05T08:51:45.434Z</time>
      </trkpt>
      <trkpt lat="39.77861" lon="3.03746">
        <ele>58.469291</ele>
        <time>2023-01-05T08:51:48.439Z</time>
      </trkpt>
      <trkpt lat="39.77854" lon="3.03734">
        <ele>58.619321</ele>
        <time>2023-01-05T08:51:51.451Z</time>
      </trkpt>
      <trkpt lat="39.77846" lon="3.03723">
        <ele>58.773465</ele>
        <time>2023-01-05T08:51:54.443Z</time>
      </trkpt>
      <trkpt lat="39.77837" lon="3.03712">
        <ele>58.934388</ele>
        <time>2023-01-05T08:51:57.440Z</time>
      </trkpt>
      <trkpt lat="39.77828" lon="3.03702">
        <ele>59.087786</ele>
        <time>2023-01-05T08:52:00.452Z</time>
      </trkpt>
      <trkpt lat="39.77819" lon="3.03691">
        <ele>59.245995</ele>
        <time>2023-01-05T08:52:03.432Z</time>
      </trkpt>
      <trkpt lat="39.7781" lon="3.03681">
        <ele>59.406522</ele>
        <time>2023-01-05T08:52:06.435Z</time>
      </trkpt>
      <trkpt lat="39.77801" lon="3.03671">
        <ele>59.566845</ele>
        <time>2023-01-05T08:52:09.431Z</time>
      </trkpt>
      <trkpt lat="39.77791" lon="3.03661">
        <ele>59.731914</ele>
        <time>2023-01-05T08:52:12.457Z</time>
      </trkpt>
      <trkpt lat="39.77781" lon="3.03651">
        <ele>59.891844</ele>
        <time>2023-01-05T08:52:15.424Z</time>
      </trkpt>
      <trkpt lat="39.77772" lon="3.03642">
        <ele>59.989791</ele>
        <time>2023-01-05T08:52:18.437Z</time>
      </trkpt>
      <trkpt lat="39.77762" lon="3.03632">
        <ele>60.078352</ele>
        <time>2023-01-05T08:52:21.440Z</time>
      </trkpt>
      <trkpt lat="39.77752" lon="3.03624">
        <ele>60.161978</ele>
        <time>2023-01-05T08:52:24.426Z</time>
      </trkpt>
      <trkpt lat="39.77743" lon="3.03616">
        <ele>60.238474</ele>
        <time>2023-01-05T08:52:27.426Z</time>
      </trkpt>
      <trkpt lat="39.77736" lon="3.03605">
        <ele>60.318381</ele>
        <time>2023-01-05T08:52:30.419Z</time>
      </trkpt>
      <trkpt lat="39.77726" lon="3.03597">
        <ele>60.397541</ele>
        <time>2023-01-05T08:52:33.433Z</time>
      </trkpt>
      <trkpt lat="39.77718" lon="3.03588">
        <ele>60.4755</ele>
        <time>2023-01-05T08:52:36.443Z</time>
      </trkpt>
      <trkpt lat="39.77709" lon="3.03579">
        <ele>60.557554</ele>
        <time>2023-01-05T08:52:39.443Z</time>
      </trkpt>
      <trkpt lat="39.777" lon="3.0357">
        <ele>60.636838</ele>
        <time>2023-01-05T08:52:42.441Z</time>
      </trkpt>
      <trkpt lat="39.77691" lon="3.03562">
        <ele>60.714849</ele>
        <time>2023-01-05T08:52:45.453Z</time>
      </trkpt>
      <trkpt lat="39.77681" lon="3.03552">
        <ele>60.800374</ele>
        <time>2023-01-05T08:52:48.451Z</time>
      </trkpt>
      <trkpt lat="39.77672" lon="3.03543">
        <ele>60.886342</ele>
        <time>2023-01-05T08:52:51.439Z</time>
      </trkpt>
      <trkpt lat="39.77662" lon="3.03533">
        <ele>60.971083</ele>
        <time>2023-01-05T08:52:54.433Z</time>
      </trkpt>
      <trkpt lat="39.77653" lon="3.03525">
        <ele>61.051198</ele>
        <time>2023-01-05T08:52:57.447Z</time>
      </trkpt>
      <trkpt lat="39.77643" lon="3.03516">
        <ele>61.134636</ele>
        <time>2023-01-05T08:53:00.461Z</time>
      </trkpt>
      <trkpt lat="39.77634" lon="3.03506">
        <ele>61.216872</ele>
        <time>2023-01-05T08:53:03.420Z</time>
      </trkpt>
      <trkpt lat="39.77625" lon="3.03497">
        <ele>61.301851</ele>
        <time>2023-01-05T08:53:06.440Z</time>
      </trkpt>
      <trkpt lat="39.77617" lon="3.03488">
        <ele>61.385764</ele>
        <time>2023-01-05T08:53:09.451Z</time>
      </trkpt>
      <trkpt lat="39.77608" lon="3.03479">
        <ele>61.467948</ele>
        <time>2023-01-05T08:53:12.440Z</time>
      </trkpt>
      <trkpt lat="39.77598" lon="3.0347">
        <ele>61.555147</ele>
        <time>2023-01-05T08:53:15.435Z</time>
      </trkpt>
      <trkpt lat="39.77589" lon="3.03461">
        <ele>61.643624</ele>
        <time>2023-01-05T08:53:18.432Z</time>
      </trkpt>
      <trkpt lat="39.7758" lon="3.03452">
        <ele>61.727187</ele>
        <time>2023-01-05T08:53:21.432Z</time>
      </trkpt>
      <trkpt lat="39.77571" lon="3.03443">
        <ele>61.810305</ele>
        <time>2023-01-05T08:53:24.449Z</time>
      </trkpt>
      <trkpt lat="39.77562" lon="3.03434">
        <ele>61.893057</ele>
        <time>2023-01-05T08:53:27.443Z</time>
      </trkpt>
      <trkpt lat="39.77554" lon="3.03425">
        <ele>61.973364</ele>
        <time>2023-01-05T08:53:30.439Z</time>
      </trkpt>
      <trkpt lat="39.77545" lon="3.03417">
        <ele>62.054769</ele>
        <time>2023-01-05T08:53:33.426Z</time>
      </trkpt>
      <trkpt lat="39.77536" lon="3.03408">
        <ele>62.13601</ele>
        <time>2023-01-05T08:53:36.440Z</time>
      </trkpt>
      <trkpt lat="39.77526" lon="3.034">
        <ele>62.222093</ele>
        <time>2023-01-05T08:53:39.459Z</time>
      </trkpt>
      <trkpt lat="39.77517" lon="3.0339">
        <ele>62.307526</ele>
        <time>2023-01-05T08:53:42.443Z</time>
      </trkpt>
      <trkpt lat="39.77509" lon="3.03381">
        <ele>62.389344</ele>
        <time>2023-01-05T08:53:45.439Z</time>
      </trkpt>
      <trkpt lat="39.775" lon="3.03372">
        <ele>62.472455</ele>
        <time>2023-01-05T08:53:48.443Z</time>
      </trkpt>
      <trkpt lat="39.77491" lon="3.03364">
        <ele>62.5611</ele>
        <time>2023-01-05T08:53:51.444Z</time>
      </trkpt>
      <trkpt lat="39.77483" lon="3.03355">
        <ele>62.673706</ele>
        <time>2023-01-05T08:53:54.437Z</time>
      </trkpt>
      <trkpt lat="39.77473" lon="3.03346">
        <ele>62.791187</ele>
        <time>2023-01-05T08:53:57.421Z</time>
      </trkpt>
      <trkpt lat="39.77464" lon="3.03337">
        <ele>62.909783</ele>
        <time>2023-01-05T08:54:00.446Z</time>
      </trkpt>
      <trkpt lat="39.77455" lon="3.03328">
        <ele>63.028545</ele>
        <time>2023-01-05T08:54:03.428Z</time>
      </trkpt>
      <trkpt lat="39.77446" lon="3.03319">
        <ele>63.143095</ele>
        <time>2023-01-05T08:54:06.435Z</time>
      </trkpt>
      <trkpt lat="39.77437" lon="3.03311">
        <ele>63.255687</ele>
        <time>2023-01-05T08:54:09.455Z</time>
      </trkpt>
      <trkpt lat="39.77428" lon="3.03302">
        <ele>63.367494</ele>
        <time>2023-01-05T08:54:12.433Z</time>
      </trkpt>
      <trkpt lat="39.77419" lon="3.03293">
        <ele>63.483215</ele>
        <time>2023-01-05T08:54:15.428Z</time>
      </trkpt>
      <trkpt lat="39.77411" lon="3.03285">
        <ele>63.591182</ele>
        <time>2023-01-05T08:54:18.446Z</time>
      </trkpt>
      <trkpt lat="39.77403" lon="3.03277">
        <ele>63.699113</ele>
        <time>2023-01-05T08:54:21.439Z</time>
      </trkpt>
      <trkpt lat="39.77395" lon="3.03268">
        <ele>63.804955</ele>
        <time>2023-01-05T08:54:24.440Z</time>
      </trkpt>
      <trkpt lat="39.77386" lon="3.0326">
        <ele>63.91339</ele>
        <time>2023-01-05T08:54:27.446Z</time>
      </trkpt>
      <trkpt lat="39.77378" lon="3.03251">
        <ele>64.020828</ele>
        <time>2023-01-05T08:54:30.428Z</time>
      </trkpt>
      <trkpt lat="39.7737" lon="3.03243">
        <ele>64.128584</ele>
        <time>2023-01-05T08:54:33.432Z</time>
      </trkpt>
      <trkpt lat="39.77362" lon="3.03234">
        <ele>64.232731</ele>
        <time>2023-01-05T08:54:36.432Z</time>
      </trkpt>
      <trkpt lat="39.77355" lon="3.03225">
        <ele>64.335465</ele>
        <time>2023-01-05T08:54:39.435Z</time>
      </trkpt>
      <trkpt lat="39.77347" lon="3.03217">
        <ele>64.496647</ele>
        <time>2023-01-05T08:54:42.461Z</time>
      </trkpt>
      <trkpt lat="39.77339" lon="3.03207">
        <ele>64.692437</ele>
        <time>2023-01-05T08:54:45.450Z</time>
      </trkpt>
      <trkpt lat="39.77329" lon="3.03201">
        <ele>64.884174</ele>
        <time>2023-01-05T08:54:48.432Z</time>
      </trkpt>
      <trkpt lat="39.77323" lon="3.03192">
        <ele>65.063337</ele>
        <time>2023-01-05T08:54:51.429Z</time>
      </trkpt>
      <trkpt lat="39.77316" lon="3.03183">
        <ele>65.231335</ele>
        <time>2023-01-05T08:54:54.444Z</time>
      </trkpt>
      <trkpt lat="39.77309" lon="3.03175">
        <ele>65.411418</ele>
        <time>2023-01-05T08:54:57.445Z</time>
      </trkpt>
      <trkpt lat="39.77301" lon="3.03166">
        <ele>65.597462</ele>
        <time>2023-01-05T08:55:00.435Z</time>
      </trkpt>
      <trkpt lat="39.77294" lon="3.03156">
        <ele>65.783507</ele>
        <time>2023-01-05T08:55:03.426Z</time>
      </trkpt>
      <trkpt lat="39.77287" lon="3.03148">
        <ele>65.956425</ele>
        <time>2023-01-05T08:55:06.433Z</time>
      </trkpt>
      <trkpt lat="39.77281" lon="3.03139">
        <ele>66.132769</ele>
        <time>2023-01-05T08:55:09.439Z</time>
      </trkpt>
      <trkpt lat="39.77274" lon="3.0313">
        <ele>66.307348</ele>
        <time>2023-01-05T08:55:12.437Z</time>
      </trkpt>
      <trkpt lat="39.77267" lon="3.03121">
        <ele>66.483543</ele>
        <time>2023-01-05T08:55:15.436Z</time>
      </trkpt>
      <trkpt lat="39.77261" lon="3.03112">
        <ele>66.660533</ele>
        <time>2023-01-05T08:55:18.441Z</time>
      </trkpt>
      <trkpt lat="39.77254" lon="3.03103">
        <ele>66.835624</ele>
        <time>2023-01-05T08:55:21.436Z</time>
      </trkpt>
      <trkpt lat="39.77248" lon="3.03094">
        <ele>67.002478</ele>
        <time>2023-01-05T08:55:24.433Z</time>
      </trkpt>
      <trkpt lat="39.77241" lon="3.03084">
        <ele>67.187725</ele>
        <time>2023-01-05T08:55:31.429Z</time>
      </trkpt>
      <trkpt lat="39.77234" lon="3.03074">
        <ele>67.385935</ele>
        <time>2023-01-05T08:55:37.435Z</time>
      </trkpt>
      <trkpt lat="39.77228" lon="3.03062">
        <ele>67.585727</ele>
        <time>2023-01-05T08:55:42.448Z</time>
      </trkpt>
      <trkpt lat="39.77225" lon="3.03051">
        <ele>67.746222</ele>
        <time>2023-01-05T08:55:48.433Z</time>
      </trkpt>
      <trkpt lat="39.7722" lon="3.03044">
        <ele>67.871867</ele>
        <time>2023-01-05T08:56:09.178Z</time>
      </trkpt>
      <trkpt lat="39.77166" lon="3.02971">
        <ele>69.167876</ele>
        <time>2023-01-05T08:59:47.458Z</time>
      </trkpt>
      <trkpt lat="39.7716" lon="3.02959">
        <ele>69.349138</ele>
        <time>2023-01-05T08:59:50.439Z</time>
      </trkpt>
      <trkpt lat="39.77154" lon="3.02948">
        <ele>69.521827</ele>
        <time>2023-01-05T08:59:53.425Z</time>
      </trkpt>
      <trkpt lat="39.77147" lon="3.02936">
        <ele>69.709449</ele>
        <time>2023-01-05T08:59:56.435Z</time>
      </trkpt>
      <trkpt lat="39.77141" lon="3.02925">
        <ele>69.884906</ele>
        <time>2023-01-05T08:59:59.444Z</time>
      </trkpt>
      <trkpt lat="39.77135" lon="3.02914">
        <ele>70.060364</ele>
        <time>2023-01-05T09:00:02.440Z</time>
      </trkpt>
      <trkpt lat="39.77129" lon="3.02903">
        <ele>70.236248</ele>
        <time>2023-01-05T09:00:05.439Z</time>
      </trkpt>
      <trkpt lat="39.77124" lon="3.02891">
        <ele>70.407718</ele>
        <time>2023-01-05T09:00:08.423Z</time>
      </trkpt>
      <trkpt lat="39.77118" lon="3.02878">
        <ele>70.599535</ele>
        <time>2023-01-05T09:00:11.433Z</time>
      </trkpt>
      <trkpt lat="39.77112" lon="3.02866">
        <ele>70.800685</ele>
        <time>2023-01-05T09:00:14.440Z</time>
      </trkpt>
      <trkpt lat="39.77107" lon="3.02853">
        <ele>71.012437</ele>
        <time>2023-01-05T09:00:17.470Z</time>
      </trkpt>
      <trkpt lat="39.77102" lon="3.02841">
        <ele>71.215499</ele>
        <time>2023-01-05T09:00:20.453Z</time>
      </trkpt>
      <trkpt lat="39.77097" lon="3.02828">
        <ele>71.434657</ele>
        <time>2023-01-05T09:00:23.422Z</time>
      </trkpt>
      <trkpt lat="39.77091" lon="3.02814">
        <ele>71.671363</ele>
        <time>2023-01-05T09:00:26.441Z</time>
      </trkpt>
      <trkpt lat="39.77085" lon="3.02801">
        <ele>71.88232</ele>
        <time>2023-01-05T09:00:29.453Z</time>
      </trkpt>
      <trkpt lat="39.77079" lon="3.0279">
        <ele>72.079229</ele>
        <time>2023-01-05T09:00:32.443Z</time>
      </trkpt>
      <trkpt lat="39.77073" lon="3.0278">
        <ele>72.273712</ele>
        <time>2023-01-05T09:00:35.456Z</time>
      </trkpt>
      <trkpt lat="39.77066" lon="3.02769">
        <ele>72.477625</ele>
        <time>2023-01-05T09:00:38.447Z</time>
      </trkpt>
      <trkpt lat="39.77056" lon="3.02762">
        <ele>72.690298</ele>
        <time>2023-01-05T09:00:42.451Z</time>
      </trkpt>
      <trkpt lat="39.77047" lon="3.02764">
        <ele>72.880587</ele>
        <time>2023-01-05T09:00:45.425Z</time>
      </trkpt>
      <trkpt lat="39.77037" lon="3.02762">
        <ele>73.067078</ele>
        <time>2023-01-05T09:00:48.437Z</time>
      </trkpt>
      <trkpt lat="39.7703" lon="3.02751">
        <ele>73.268578</ele>
        <time>2023-01-05T09:00:51.418Z</time>
      </trkpt>
      <trkpt lat="39.77024" lon="3.02741">
        <ele>73.471279</ele>
        <time>2023-01-05T09:00:54.420Z</time>
      </trkpt>
      <trkpt lat="39.77015" lon="3.02731">
        <ele>73.693582</ele>
        <time>2023-01-05T09:00:58.419Z</time>
      </trkpt>
      <trkpt lat="39.77007" lon="3.02722">
        <ele>73.883646</ele>
        <time>2023-01-05T09:01:01.421Z</time>
      </trkpt>
      <trkpt lat="39.77001" lon="3.02712">
        <ele>74.078251</ele>
        <time>2023-01-05T09:01:05.431Z</time>
      </trkpt>
      <trkpt lat="39.76995" lon="3.02701">
        <ele>74.292011</ele>
        <time>2023-01-05T09:01:09.428Z</time>
      </trkpt>
      <trkpt lat="39.76987" lon="3.02694">
        <ele>74.496767</ele>
        <time>2023-01-05T09:01:12.419Z</time>
      </trkpt>
      <trkpt lat="39.7698" lon="3.02685">
        <ele>74.695687</ele>
        <time>2023-01-05T09:01:15.444Z</time>
      </trkpt>
      <trkpt lat="39.76972" lon="3.02675">
        <ele>74.920904</ele>
        <time>2023-01-05T09:01:18.440Z</time>
      </trkpt>
      <trkpt lat="39.76965" lon="3.02665">
        <ele>75.133153</ele>
        <time>2023-01-05T09:01:21.430Z</time>
      </trkpt>
      <trkpt lat="39.76957" lon="3.02658">
        <ele>75.348947</ele>
        <time>2023-01-05T09:01:23.428Z</time>
      </trkpt>
      <trkpt lat="39.76949" lon="3.02647">
        <ele>75.599784</ele>
        <time>2023-01-05T09:01:26.441Z</time>
      </trkpt>
      <trkpt lat="39.76943" lon="3.02635">
        <ele>75.817628</ele>
        <time>2023-01-05T09:01:29.454Z</time>
      </trkpt>
      <trkpt lat="39.76938" lon="3.02624">
        <ele>76.026848</ele>
        <time>2023-01-05T09:01:32.440Z</time>
      </trkpt>
      <trkpt lat="39.76932" lon="3.0261">
        <ele>76.268767</ele>
        <time>2023-01-05T09:01:35.439Z</time>
      </trkpt>
      <trkpt lat="39.76926" lon="3.02598">
        <ele>76.519198</ele>
        <time>2023-01-05T09:01:38.458Z</time>
      </trkpt>
      <trkpt lat="39.7692" lon="3.02586">
        <ele>76.737043</ele>
        <time>2023-01-05T09:01:41.444Z</time>
      </trkpt>
      <trkpt lat="39.76913" lon="3.02573">
        <ele>76.989751</ele>
        <time>2023-01-05T09:01:44.446Z</time>
      </trkpt>
      <trkpt lat="39.76908" lon="3.02561">
        <ele>77.218444</ele>
        <time>2023-01-05T09:01:47.433Z</time>
      </trkpt>
      <trkpt lat="39.76903" lon="3.0255">
        <ele>77.419331</ele>
        <time>2023-01-05T09:01:50.440Z</time>
      </trkpt>
      <trkpt lat="39.76897" lon="3.02539">
        <ele>77.630676</ele>
        <time>2023-01-05T09:01:54.433Z</time>
      </trkpt>
      <trkpt lat="39.76893" lon="3.02526">
        <ele>77.854164</ele>
        <time>2023-01-05T09:01:58.441Z</time>
      </trkpt>
      <trkpt lat="39.76888" lon="3.02515">
        <ele>77.840327</ele>
        <time>2023-01-05T09:02:02.450Z</time>
      </trkpt>
      <trkpt lat="39.76885" lon="3.02503">
        <ele>77.826951</ele>
        <time>2023-01-05T09:02:05.434Z</time>
      </trkpt>
      <trkpt lat="39.7688" lon="3.0249">
        <ele>77.811258</ele>
        <time>2023-01-05T09:02:09.443Z</time>
      </trkpt>
      <trkpt lat="39.76874" lon="3.02476">
        <ele>77.793736</ele>
        <time>2023-01-05T09:02:13.419Z</time>
      </trkpt>
      <trkpt lat="39.7687" lon="3.02464">
        <ele>77.778899</ele>
        <time>2023-01-05T09:02:16.447Z</time>
      </trkpt>
      <trkpt lat="39.76865" lon="3.02452">
        <ele>77.763932</ele>
        <time>2023-01-05T09:02:19.437Z</time>
      </trkpt>
      <trkpt lat="39.76861" lon="3.02441">
        <ele>77.751227</ele>
        <time>2023-01-05T09:02:22.438Z</time>
      </trkpt>
      <trkpt lat="39.76853" lon="3.02432">
        <ele>77.736108</ele>
        <time>2023-01-05T09:02:26.441Z</time>
      </trkpt>
      <trkpt lat="39.76844" lon="3.0244">
        <ele>77.720353</ele>
        <time>2023-01-05T09:02:30.446Z</time>
      </trkpt>
      <trkpt lat="39.76833" lon="3.02447">
        <ele>77.703452</ele>
        <time>2023-01-05T09:02:34.441Z</time>
      </trkpt>
      <trkpt lat="39.76825" lon="3.02454">
        <ele>77.689007</ele>
        <time>2023-01-05T09:02:37.451Z</time>
      </trkpt>
      <trkpt lat="39.76814" lon="3.02461">
        <ele>77.671804</ele>
        <time>2023-01-05T09:02:40.442Z</time>
      </trkpt>
      <trkpt lat="39.76802" lon="3.0247">
        <ele>77.652576</ele>
        <time>2023-01-05T09:02:43.431Z</time>
      </trkpt>
      <trkpt lat="39.76793" lon="3.02479">
        <ele>77.637065</ele>
        <time>2023-01-05T09:02:46.440Z</time>
      </trkpt>
      <trkpt lat="39.76785" lon="3.02486">
        <ele>77.622444</ele>
        <time>2023-01-05T09:02:50.437Z</time>
      </trkpt>
      <trkpt lat="39.76777" lon="3.02491">
        <ele>77.609384</ele>
        <time>2023-01-05T09:02:53.430Z</time>
      </trkpt>
      <trkpt lat="39.76767" lon="3.02497">
        <ele>77.661648</ele>
        <time>2023-01-05T09:02:56.442Z</time>
      </trkpt>
      <trkpt lat="39.76759" lon="3.02504">
        <ele>77.870132</ele>
        <time>2023-01-05T09:02:59.441Z</time>
      </trkpt>
      <trkpt lat="39.7675" lon="3.02512">
        <ele>78.087977</ele>
        <time>2023-01-05T09:03:02.441Z</time>
      </trkpt>
      <trkpt lat="39.76741" lon="3.0252">
        <ele>78.307536</ele>
        <time>2023-01-05T09:03:05.430Z</time>
      </trkpt>
      <trkpt lat="39.76733" lon="3.02525">
        <ele>78.492326</ele>
        <time>2023-01-05T09:03:08.447Z</time>
      </trkpt>
      <trkpt lat="39.76727" lon="3.02515">
        <ele>78.681887</ele>
        <time>2023-01-05T09:03:11.422Z</time>
      </trkpt>
      <trkpt lat="39.76722" lon="3.02505">
        <ele>78.883673</ele>
        <time>2023-01-05T09:03:14.449Z</time>
      </trkpt>
      <trkpt lat="39.76716" lon="3.02495">
        <ele>79.07684</ele>
        <time>2023-01-05T09:03:17.443Z</time>
      </trkpt>
      <trkpt lat="39.76711" lon="3.02484">
        <ele>79.279443</ele>
        <time>2023-01-05T09:03:20.453Z</time>
      </trkpt>
      <trkpt lat="39.76705" lon="3.02472">
        <ele>79.502505</ele>
        <time>2023-01-05T09:03:23.421Z</time>
      </trkpt>
      <trkpt lat="39.76698" lon="3.0246">
        <ele>79.738832</ele>
        <time>2023-01-05T09:03:26.453Z</time>
      </trkpt>
      <trkpt lat="39.76691" lon="3.02448">
        <ele>79.972751</ele>
        <time>2023-01-05T09:03:30.446Z</time>
      </trkpt>
      <trkpt lat="39.76686" lon="3.02437">
        <ele>80.160464</ele>
        <time>2023-01-05T09:03:33.423Z</time>
      </trkpt>
      <trkpt lat="39.7668" lon="3.02426">
        <ele>80.380363</ele>
        <time>2023-01-05T09:03:37.444Z</time>
      </trkpt>
      <trkpt lat="39.76673" lon="3.02417">
        <ele>80.576261</ele>
        <time>2023-01-05T09:03:43.453Z</time>
      </trkpt>
      <trkpt lat="39.76666" lon="3.02405">
        <ele>80.806401</ele>
        <time>2023-01-05T09:03:48.446Z</time>
      </trkpt>
      <trkpt lat="39.76662" lon="3.02395">
        <ele>80.99578</ele>
        <time>2023-01-05T09:03:51.466Z</time>
      </trkpt>
      <trkpt lat="39.76655" lon="3.02383">
        <ele>81.228443</ele>
        <time>2023-01-05T09:03:55.434Z</time>
      </trkpt>
      <trkpt lat="39.76649" lon="3.02373">
        <ele>81.085004</ele>
        <time>2023-01-05T09:03:59.436Z</time>
      </trkpt>
      <trkpt lat="39.76638" lon="3.02374">
        <ele>80.856875</ele>
        <time>2023-01-05T09:04:04.427Z</time>
      </trkpt>
      <trkpt lat="39.76628" lon="3.0238">
        <ele>80.630425</ele>
        <time>2023-01-05T09:04:08.440Z</time>
      </trkpt>
      <trkpt lat="39.76619" lon="3.02386">
        <ele>80.433584</ele>
        <time>2023-01-05T09:04:11.430Z</time>
      </trkpt>
      <trkpt lat="39.7661" lon="3.02394">
        <ele>80.219214</ele>
        <time>2023-01-05T09:04:14.434Z</time>
      </trkpt>
      <trkpt lat="39.76602" lon="3.02401">
        <ele>80.013384</ele>
        <time>2023-01-05T09:04:17.438Z</time>
      </trkpt>
      <trkpt lat="39.76593" lon="3.02408">
        <ele>79.808014</ele>
        <time>2023-01-05T09:04:20.431Z</time>
      </trkpt>
      <trkpt lat="39.76585" lon="3.02414">
        <ele>79.614803</ele>
        <time>2023-01-05T09:04:23.442Z</time>
      </trkpt>
      <trkpt lat="39.76574" lon="3.02419">
        <ele>79.38982</ele>
        <time>2023-01-05T09:04:27.430Z</time>
      </trkpt>
      <trkpt lat="39.76565" lon="3.02411">
        <ele>79.159334</ele>
        <time>2023-01-05T09:04:32.436Z</time>
      </trkpt>
      <trkpt lat="39.76559" lon="3.024">
        <ele>78.961359</ele>
        <time>2023-01-05T09:04:35.429Z</time>
      </trkpt>
      <trkpt lat="39.76553" lon="3.02388">
        <ele>78.745253</ele>
        <time>2023-01-05T09:04:38.444Z</time>
      </trkpt>
      <trkpt lat="39.76548" lon="3.02376">
        <ele>78.523182</ele>
        <time>2023-01-05T09:04:41.445Z</time>
      </trkpt>
      <trkpt lat="39.76542" lon="3.02361">
        <ele>78.265201</ele>
        <time>2023-01-05T09:04:44.454Z</time>
      </trkpt>
      <trkpt lat="39.76536" lon="3.0235">
        <ele>78.056155</ele>
        <time>2023-01-05T09:04:47.438Z</time>
      </trkpt>
      <trkpt lat="39.7653" lon="3.0234">
        <ele>77.853775</ele>
        <time>2023-01-05T09:04:50.439Z</time>
      </trkpt>
      <trkpt lat="39.76524" lon="3.02325">
        <ele>77.611091</ele>
        <time>2023-01-05T09:04:53.430Z</time>
      </trkpt>
      <trkpt lat="39.76518" lon="3.0231">
        <ele>77.448454</ele>
        <time>2023-01-05T09:04:56.437Z</time>
      </trkpt>
      <trkpt lat="39.76513" lon="3.023">
        <ele>77.326079</ele>
        <time>2023-01-05T09:04:59.457Z</time>
      </trkpt>
      <trkpt lat="39.76506" lon="3.02288">
        <ele>77.188115</ele>
        <time>2023-01-05T09:05:03.431Z</time>
      </trkpt>
      <trkpt lat="39.76499" lon="3.02282">
        <ele>77.071478</ele>
        <time>2023-01-05T09:05:06.446Z</time>
      </trkpt>
      <trkpt lat="39.76488" lon="3.02277">
        <ele>76.931064</ele>
        <time>2023-01-05T09:05:09.434Z</time>
      </trkpt>
      <trkpt lat="39.76476" lon="3.02274">
        <ele>76.776291</ele>
        <time>2023-01-05T09:05:12.442Z</time>
      </trkpt>
      <trkpt lat="39.76464" lon="3.02273">
        <ele>76.618902</ele>
        <time>2023-01-05T09:05:15.447Z</time>
      </trkpt>
      <trkpt lat="39.76452" lon="3.02272">
        <ele>76.469235</ele>
        <time>2023-01-05T09:05:18.442Z</time>
      </trkpt>
      <trkpt lat="39.76441" lon="3.02271">
        <ele>76.332612</ele>
        <time>2023-01-05T09:05:21.446Z</time>
      </trkpt>
      <trkpt lat="39.76429" lon="3.02271">
        <ele>76.18446</ele>
        <time>2023-01-05T09:05:24.442Z</time>
      </trkpt>
      <trkpt lat="39.76417" lon="3.0227">
        <ele>76.031304</ele>
        <time>2023-01-05T09:05:27.428Z</time>
      </trkpt>
      <trkpt lat="39.76405" lon="3.02268">
        <ele>75.875932</ele>
        <time>2023-01-05T09:05:30.446Z</time>
      </trkpt>
      <trkpt lat="39.76392" lon="3.02267">
        <ele>75.714679</ele>
        <time>2023-01-05T09:05:33.420Z</time>
      </trkpt>
      <trkpt lat="39.7638" lon="3.02266">
        <ele>75.556507</ele>
        <time>2023-01-05T09:05:36.439Z</time>
      </trkpt>
      <trkpt lat="39.76368" lon="3.02265">
        <ele>75.40848</ele>
        <time>2023-01-05T09:05:39.452Z</time>
      </trkpt>
      <trkpt lat="39.76358" lon="3.02263">
        <ele>75.387381</ele>
        <time>2023-01-05T09:05:42.439Z</time>
      </trkpt>
      <trkpt lat="39.7635" lon="3.02258">
        <ele>75.436782</ele>
        <time>2023-01-05T09:05:45.424Z</time>
      </trkpt>
      <trkpt lat="39.76339" lon="3.02261">
        <ele>75.493485</ele>
        <time>2023-01-05T09:05:48.445Z</time>
      </trkpt>
      <trkpt lat="39.76328" lon="3.02263">
        <ele>75.555133</ele>
        <time>2023-01-05T09:05:51.444Z</time>
      </trkpt>
      <trkpt lat="39.76315" lon="3.02262">
        <ele>75.620043</ele>
        <time>2023-01-05T09:05:54.438Z</time>
      </trkpt>
      <trkpt lat="39.76302" lon="3.02262">
        <ele>75.687458</ele>
        <time>2023-01-05T09:05:57.459Z</time>
      </trkpt>
      <trkpt lat="39.76289" lon="3.02261">
        <ele>75.753996</ele>
        <time>2023-01-05T09:06:00.448Z</time>
      </trkpt>
      <trkpt lat="39.76277" lon="3.02259">
        <ele>75.816112</ele>
        <time>2023-01-05T09:06:03.439Z</time>
      </trkpt>
      <trkpt lat="39.76266" lon="3.02257">
        <ele>75.875703</ele>
        <time>2023-01-05T09:06:06.443Z</time>
      </trkpt>
      <trkpt lat="39.76256" lon="3.02255">
        <ele>75.929377</ele>
        <time>2023-01-05T09:06:09.441Z</time>
      </trkpt>
      <trkpt lat="39.76245" lon="3.02253">
        <ele>75.985177</ele>
        <time>2023-01-05T09:06:12.446Z</time>
      </trkpt>
      <trkpt lat="39.76233" lon="3.02251">
        <ele>76.047298</ele>
        <time>2023-01-05T09:06:15.457Z</time>
      </trkpt>
      <trkpt lat="39.76221" lon="3.02248">
        <ele>76.112298</ele>
        <time>2023-01-05T09:06:18.433Z</time>
      </trkpt>
      <trkpt lat="39.76208" lon="3.02246">
        <ele>76.178627</ele>
        <time>2023-01-05T09:06:21.437Z</time>
      </trkpt>
      <trkpt lat="39.76195" lon="3.02244">
        <ele>76.248434</ele>
        <time>2023-01-05T09:06:24.445Z</time>
      </trkpt>
      <trkpt lat="39.76186" lon="3.02244">
        <ele>76.298198</ele>
        <time>2023-01-05T09:06:26.436Z</time>
      </trkpt>
      <trkpt lat="39.76177" lon="3.02242">
        <ele>76.375188</ele>
        <time>2023-01-05T09:06:28.450Z</time>
      </trkpt>
      <trkpt lat="39.76167" lon="3.0224">
        <ele>76.45564</ele>
        <time>2023-01-05T09:06:30.441Z</time>
      </trkpt>
      <trkpt lat="39.76158" lon="3.02239">
        <ele>76.533159</ele>
        <time>2023-01-05T09:06:32.439Z</time>
      </trkpt>
      <trkpt lat="39.76148" lon="3.02237">
        <ele>76.610068</ele>
        <time>2023-01-05T09:06:34.443Z</time>
      </trkpt>
      <trkpt lat="39.76139" lon="3.02236">
        <ele>76.688878</ele>
        <time>2023-01-05T09:06:36.438Z</time>
      </trkpt>
      <trkpt lat="39.7613" lon="3.02233">
        <ele>76.765652</ele>
        <time>2023-01-05T09:06:38.443Z</time>
      </trkpt>
      <trkpt lat="39.76121" lon="3.02231">
        <ele>76.840505</ele>
        <time>2023-01-05T09:06:40.450Z</time>
      </trkpt>
      <trkpt lat="39.76112" lon="3.02227">
        <ele>76.91978</ele>
        <time>2023-01-05T09:06:42.450Z</time>
      </trkpt>
      <trkpt lat="39.76103" lon="3.02223">
        <ele>76.998072</ele>
        <time>2023-01-05T09:06:44.443Z</time>
      </trkpt>
      <trkpt lat="39.76094" lon="3.0222">
        <ele>77.076363</ele>
        <time>2023-01-05T09:06:46.440Z</time>
      </trkpt>
      <trkpt lat="39.76085" lon="3.02216">
        <ele>77.157611</ele>
        <time>2023-01-05T09:06:48.432Z</time>
      </trkpt>
      <trkpt lat="39.76076" lon="3.02211">
        <ele>77.238591</ele>
        <time>2023-01-05T09:06:50.439Z</time>
      </trkpt>
      <trkpt lat="39.76066" lon="3.02207">
        <ele>77.320053</ele>
        <time>2023-01-05T09:06:52.442Z</time>
      </trkpt>
      <trkpt lat="39.76057" lon="3.02203">
        <ele>77.402289</ele>
        <time>2023-01-05T09:06:54.445Z</time>
      </trkpt>
      <trkpt lat="39.76048" lon="3.02199">
        <ele>77.482381</ele>
        <time>2023-01-05T09:06:56.455Z</time>
      </trkpt>
      <trkpt lat="39.76038" lon="3.02194">
        <ele>77.56491</ele>
        <time>2023-01-05T09:06:58.439Z</time>
      </trkpt>
      <trkpt lat="39.76029" lon="3.02191">
        <ele>77.643805</ele>
        <time>2023-01-05T09:07:00.459Z</time>
      </trkpt>
      <trkpt lat="39.7602" lon="3.02187">
        <ele>77.726502</ele>
        <time>2023-01-05T09:07:02.451Z</time>
      </trkpt>
      <trkpt lat="39.76011" lon="3.02183">
        <ele>77.814604</ele>
        <time>2023-01-05T09:07:04.441Z</time>
      </trkpt>
      <trkpt lat="39.76002" lon="3.02179">
        <ele>77.916382</ele>
        <time>2023-01-05T09:07:06.454Z</time>
      </trkpt>
      <trkpt lat="39.75993" lon="3.02175">
        <ele>78.01909</ele>
        <time>2023-01-05T09:07:08.442Z</time>
      </trkpt>
      <trkpt lat="39.75984" lon="3.02171">
        <ele>78.116677</ele>
        <time>2023-01-05T09:07:10.440Z</time>
      </trkpt>
      <trkpt lat="39.75975" lon="3.02167">
        <ele>78.218358</ele>
        <time>2023-01-05T09:07:12.445Z</time>
      </trkpt>
      <trkpt lat="39.75967" lon="3.02163">
        <ele>78.319013</ele>
        <time>2023-01-05T09:07:14.439Z</time>
      </trkpt>
      <trkpt lat="39.75958" lon="3.02159">
        <ele>78.417459</ele>
        <time>2023-01-05T09:07:16.440Z</time>
      </trkpt>
      <trkpt lat="39.75945" lon="3.02153">
        <ele>78.565212</ele>
        <time>2023-01-05T09:07:19.443Z</time>
      </trkpt>
      <trkpt lat="39.75933" lon="3.02147">
        <ele>78.708454</ele>
        <time>2023-01-05T09:07:22.437Z</time>
      </trkpt>
      <trkpt lat="39.75924" lon="3.02143">
        <ele>78.806498</ele>
        <time>2023-01-05T09:07:24.456Z</time>
      </trkpt>
      <trkpt lat="39.75916" lon="3.02139">
        <ele>78.904943</ele>
        <time>2023-01-05T09:07:26.436Z</time>
      </trkpt>
      <trkpt lat="39.75908" lon="3.02134">
        <ele>79.001983</ele>
        <time>2023-01-05T09:07:28.452Z</time>
      </trkpt>
      <trkpt lat="39.75896" lon="3.02127">
        <ele>79.144433</ele>
        <time>2023-01-05T09:07:31.441Z</time>
      </trkpt>
      <trkpt lat="39.75888" lon="3.02122">
        <ele>79.241865</ele>
        <time>2023-01-05T09:07:33.437Z</time>
      </trkpt>
      <trkpt lat="39.75879" lon="3.02117">
        <ele>79.342867</ele>
        <time>2023-01-05T09:07:35.440Z</time>
      </trkpt>
      <trkpt lat="39.75867" lon="3.02109">
        <ele>79.485428</ele>
        <time>2023-01-05T09:07:38.439Z</time>
      </trkpt>
      <trkpt lat="39.75856" lon="3.02103">
        <ele>79.62353</ele>
        <time>2023-01-05T09:07:41.448Z</time>
      </trkpt>
      <trkpt lat="39.75845" lon="3.02096">
        <ele>79.745084</ele>
        <time>2023-01-05T09:07:44.439Z</time>
      </trkpt>
      <trkpt lat="39.75834" lon="3.02089">
        <ele>79.843312</ele>
        <time>2023-01-05T09:07:47.444Z</time>
      </trkpt>
      <trkpt lat="39.75824" lon="3.02082">
        <ele>79.94008</ele>
        <time>2023-01-05T09:07:50.447Z</time>
      </trkpt>
      <trkpt lat="39.75813" lon="3.02075">
        <ele>80.03993</ele>
        <time>2023-01-05T09:07:53.433Z</time>
      </trkpt>
      <trkpt lat="39.75802" lon="3.02069">
        <ele>80.135483</ele>
        <time>2023-01-05T09:07:56.445Z</time>
      </trkpt>
      <trkpt lat="39.75792" lon="3.02062">
        <ele>80.230299</ele>
        <time>2023-01-05T09:07:59.452Z</time>
      </trkpt>
      <trkpt lat="39.75781" lon="3.02056">
        <ele>80.326303</ele>
        <time>2023-01-05T09:08:02.442Z</time>
      </trkpt>
      <trkpt lat="39.7577" lon="3.0205">
        <ele>80.423815</ele>
        <time>2023-01-05T09:08:05.436Z</time>
      </trkpt>
      <trkpt lat="39.75759" lon="3.02043">
        <ele>80.522115</ele>
        <time>2023-01-05T09:08:08.438Z</time>
      </trkpt>
      <trkpt lat="39.75749" lon="3.02036">
        <ele>80.61553</ele>
        <time>2023-01-05T09:08:11.439Z</time>
      </trkpt>
      <trkpt lat="39.75738" lon="3.02029">
        <ele>80.714835</ele>
        <time>2023-01-05T09:08:14.431Z</time>
      </trkpt>
      <trkpt lat="39.75727" lon="3.02022">
        <ele>80.81435</ele>
        <time>2023-01-05T09:08:17.459Z</time>
      </trkpt>
      <trkpt lat="39.75716" lon="3.02016">
        <ele>80.908373</ele>
        <time>2023-01-05T09:08:20.435Z</time>
      </trkpt>
      <trkpt lat="39.75706" lon="3.0201">
        <ele>81.001918</ele>
        <time>2023-01-05T09:08:23.434Z</time>
      </trkpt>
      <trkpt lat="39.75695" lon="3.02003">
        <ele>81.098288</ele>
        <time>2023-01-05T09:08:26.445Z</time>
      </trkpt>
      <trkpt lat="39.75685" lon="3.01996">
        <ele>81.195318</ele>
        <time>2023-01-05T09:08:29.436Z</time>
      </trkpt>
      <trkpt lat="39.75674" lon="3.0199">
        <ele>81.324808</ele>
        <time>2023-01-05T09:08:32.439Z</time>
      </trkpt>
      <trkpt lat="39.75663" lon="3.01983">
        <ele>81.458463</ele>
        <time>2023-01-05T09:08:35.437Z</time>
      </trkpt>
      <trkpt lat="39.75652" lon="3.01976">
        <ele>81.597489</ele>
        <time>2023-01-05T09:08:38.439Z</time>
      </trkpt>
      <trkpt lat="39.75641" lon="3.01969">
        <ele>81.736151</ele>
        <time>2023-01-05T09:08:41.433Z</time>
      </trkpt>
      <trkpt lat="39.7563" lon="3.01962">
        <ele>81.870184</ele>
        <time>2023-01-05T09:08:44.439Z</time>
      </trkpt>
      <trkpt lat="39.75619" lon="3.01955">
        <ele>82.001469</ele>
        <time>2023-01-05T09:08:47.445Z</time>
      </trkpt>
      <trkpt lat="39.75609" lon="3.01949">
        <ele>82.13164</ele>
        <time>2023-01-05T09:08:50.456Z</time>
      </trkpt>
      <trkpt lat="39.75599" lon="3.01943">
        <ele>82.255062</ele>
        <time>2023-01-05T09:08:53.436Z</time>
      </trkpt>
      <trkpt lat="39.75589" lon="3.01936">
        <ele>82.38139</ele>
        <time>2023-01-05T09:08:56.445Z</time>
      </trkpt>
      <trkpt lat="39.75579" lon="3.01929">
        <ele>82.502816</ele>
        <time>2023-01-05T09:08:59.453Z</time>
      </trkpt>
      <trkpt lat="39.75569" lon="3.01924">
        <ele>82.621761</ele>
        <time>2023-01-05T09:09:02.452Z</time>
      </trkpt>
      <trkpt lat="39.7556" lon="3.01917">
        <ele>82.740153</ele>
        <time>2023-01-05T09:09:05.438Z</time>
      </trkpt>
      <trkpt lat="39.75549" lon="3.0191">
        <ele>82.870225</ele>
        <time>2023-01-05T09:09:08.457Z</time>
      </trkpt>
      <trkpt lat="39.75539" lon="3.01903">
        <ele>82.998978</ele>
        <time>2023-01-05T09:09:11.441Z</time>
      </trkpt>
      <trkpt lat="39.75528" lon="3.01897">
        <ele>83.12965</ele>
        <time>2023-01-05T09:09:14.443Z</time>
      </trkpt>
      <trkpt lat="39.75518" lon="3.0189">
        <ele>83.21952</ele>
        <time>2023-01-05T09:09:17.439Z</time>
      </trkpt>
      <trkpt lat="39.75508" lon="3.01884">
        <ele>83.268197</ele>
        <time>2023-01-05T09:09:20.455Z</time>
      </trkpt>
      <trkpt lat="39.75498" lon="3.01877">
        <ele>83.318915</ele>
        <time>2023-01-05T09:09:23.444Z</time>
      </trkpt>
      <trkpt lat="39.75488" lon="3.01871">
        <ele>83.367893</ele>
        <time>2023-01-05T09:09:26.445Z</time>
      </trkpt>
      <trkpt lat="39.75479" lon="3.01865">
        <ele>83.416277</ele>
        <time>2023-01-05T09:09:29.432Z</time>
      </trkpt>
      <trkpt lat="39.75469" lon="3.01858">
        <ele>83.466205</ele>
        <time>2023-01-05T09:09:32.457Z</time>
      </trkpt>
      <trkpt lat="39.75459" lon="3.01852">
        <ele>83.51614</ele>
        <time>2023-01-05T09:09:35.443Z</time>
      </trkpt>
      <trkpt lat="39.75449" lon="3.01845">
        <ele>83.566782</ele>
        <time>2023-01-05T09:09:38.461Z</time>
      </trkpt>
      <trkpt lat="39.75438" lon="3.01839">
        <ele>83.617633</ele>
        <time>2023-01-05T09:09:41.444Z</time>
      </trkpt>
      <trkpt lat="39.75428" lon="3.01833">
        <ele>83.667238</ele>
        <time>2023-01-05T09:09:44.457Z</time>
      </trkpt>
      <trkpt lat="39.75418" lon="3.01826">
        <ele>83.71875</ele>
        <time>2023-01-05T09:09:47.438Z</time>
      </trkpt>
      <trkpt lat="39.75408" lon="3.0182">
        <ele>83.768642</ele>
        <time>2023-01-05T09:09:50.439Z</time>
      </trkpt>
      <trkpt lat="39.75397" lon="3.01814">
        <ele>83.823592</ele>
        <time>2023-01-05T09:09:53.448Z</time>
      </trkpt>
      <trkpt lat="39.75386" lon="3.01806">
        <ele>83.87794</ele>
        <time>2023-01-05T09:09:56.445Z</time>
      </trkpt>
      <trkpt lat="39.75375" lon="3.01799">
        <ele>83.932808</ele>
        <time>2023-01-05T09:09:59.437Z</time>
      </trkpt>
      <trkpt lat="39.75365" lon="3.01794">
        <ele>83.982066</ele>
        <time>2023-01-05T09:10:02.431Z</time>
      </trkpt>
      <trkpt lat="39.75355" lon="3.01786">
        <ele>84.016898</ele>
        <time>2023-01-05T09:10:05.441Z</time>
      </trkpt>
      <trkpt lat="39.75345" lon="3.0178">
        <ele>84.041997</ele>
        <time>2023-01-05T09:10:08.423Z</time>
      </trkpt>
      <trkpt lat="39.75335" lon="3.01773">
        <ele>84.068287</ele>
        <time>2023-01-05T09:10:11.433Z</time>
      </trkpt>
      <trkpt lat="39.75324" lon="3.01765">
        <ele>84.095069</ele>
        <time>2023-01-05T09:10:14.437Z</time>
      </trkpt>
      <trkpt lat="39.75314" lon="3.01757">
        <ele>84.122692</ele>
        <time>2023-01-05T09:10:17.443Z</time>
      </trkpt>
      <trkpt lat="39.75304" lon="3.01748">
        <ele>84.149443</ele>
        <time>2023-01-05T09:10:20.450Z</time>
      </trkpt>
      <trkpt lat="39.75294" lon="3.01739">
        <ele>84.177692</ele>
        <time>2023-01-05T09:10:23.440Z</time>
      </trkpt>
      <trkpt lat="39.75284" lon="3.0173">
        <ele>84.203048</ele>
        <time>2023-01-05T09:10:26.446Z</time>
      </trkpt>
      <trkpt lat="39.75274" lon="3.01721">
        <ele>84.231003</ele>
        <time>2023-01-05T09:10:29.441Z</time>
      </trkpt>
      <trkpt lat="39.75265" lon="3.01712">
        <ele>84.257571</ele>
        <time>2023-01-05T09:10:32.446Z</time>
      </trkpt>
      <trkpt lat="39.75255" lon="3.01703">
        <ele>84.285171</ele>
        <time>2023-01-05T09:10:35.458Z</time>
      </trkpt>
      <trkpt lat="39.75244" lon="3.01694">
        <ele>84.312838</ele>
        <time>2023-01-05T09:10:38.457Z</time>
      </trkpt>
      <trkpt lat="39.75234" lon="3.01684">
        <ele>84.341545</ele>
        <time>2023-01-05T09:10:41.431Z</time>
      </trkpt>
      <trkpt lat="39.75224" lon="3.01675">
        <ele>84.369528</ele>
        <time>2023-01-05T09:10:44.433Z</time>
      </trkpt>
      <trkpt lat="39.75213" lon="3.01666">
        <ele>84.397669</ele>
        <time>2023-01-05T09:10:47.436Z</time>
      </trkpt>
      <trkpt lat="39.75203" lon="3.01657">
        <ele>84.427393</ele>
        <time>2023-01-05T09:10:50.437Z</time>
      </trkpt>
      <trkpt lat="39.75193" lon="3.01648">
        <ele>84.456984</ele>
        <time>2023-01-05T09:10:53.438Z</time>
      </trkpt>
      <trkpt lat="39.75182" lon="3.01638">
        <ele>84.487561</ele>
        <time>2023-01-05T09:10:56.453Z</time>
      </trkpt>
      <trkpt lat="39.75171" lon="3.01629">
        <ele>84.519447</ele>
        <time>2023-01-05T09:10:59.452Z</time>
      </trkpt>
      <trkpt lat="39.7516" lon="3.01619">
        <ele>84.551733</ele>
        <time>2023-01-05T09:11:02.442Z</time>
      </trkpt>
      <trkpt lat="39.7515" lon="3.0161">
        <ele>84.581914</ele>
        <time>2023-01-05T09:11:05.435Z</time>
      </trkpt>
      <trkpt lat="39.7514" lon="3.01601">
        <ele>84.611202</ele>
        <time>2023-01-05T09:11:08.432Z</time>
      </trkpt>
      <trkpt lat="39.7513" lon="3.01592">
        <ele>84.639563</ele>
        <time>2023-01-05T09:11:11.446Z</time>
      </trkpt>
      <trkpt lat="39.75121" lon="3.01584">
        <ele>84.666906</ele>
        <time>2023-01-05T09:11:14.431Z</time>
      </trkpt>
      <trkpt lat="39.75112" lon="3.01576">
        <ele>84.693041</ele>
        <time>2023-01-05T09:11:17.444Z</time>
      </trkpt>
      <trkpt lat="39.75103" lon="3.01568">
        <ele>84.718165</ele>
        <time>2023-01-05T09:11:20.441Z</time>
      </trkpt>
      <trkpt lat="39.75094" lon="3.01561">
        <ele>84.743613</ele>
        <time>2023-01-05T09:11:23.449Z</time>
      </trkpt>
      <trkpt lat="39.75084" lon="3.01555">
        <ele>84.769414</ele>
        <time>2023-01-05T09:11:26.459Z</time>
      </trkpt>
      <trkpt lat="39.75074" lon="3.01549">
        <ele>84.796285</ele>
        <time>2023-01-05T09:11:29.426Z</time>
      </trkpt>
      <trkpt lat="39.75063" lon="3.01545">
        <ele>84.823633</ele>
        <time>2023-01-05T09:11:32.435Z</time>
      </trkpt>
      <trkpt lat="39.75052" lon="3.0154">
        <ele>84.863289</ele>
        <time>2023-01-05T09:11:35.455Z</time>
      </trkpt>
      <trkpt lat="39.75041" lon="3.01534">
        <ele>84.915776</ele>
        <time>2023-01-05T09:11:38.435Z</time>
      </trkpt>
      <trkpt lat="39.7503" lon="3.01528">
        <ele>84.968506</ele>
        <time>2023-01-05T09:11:41.435Z</time>
      </trkpt>
      <trkpt lat="39.75019" lon="3.01522">
        <ele>85.021872</ele>
        <time>2023-01-05T09:11:44.448Z</time>
      </trkpt>
      <trkpt lat="39.75008" lon="3.01516">
        <ele>85.074167</ele>
        <time>2023-01-05T09:11:47.458Z</time>
      </trkpt>
      <trkpt lat="39.74997" lon="3.01509">
        <ele>85.128463</ele>
        <time>2023-01-05T09:11:50.443Z</time>
      </trkpt>
      <trkpt lat="39.74985" lon="3.01501">
        <ele>85.184419</ele>
        <time>2023-01-05T09:11:53.436Z</time>
      </trkpt>
      <trkpt lat="39.74975" lon="3.01493">
        <ele>85.23959</ele>
        <time>2023-01-05T09:11:56.440Z</time>
      </trkpt>
      <trkpt lat="39.74964" lon="3.01485">
        <ele>85.29282</ele>
        <time>2023-01-05T09:11:59.440Z</time>
      </trkpt>
      <trkpt lat="39.74953" lon="3.01477">
        <ele>85.348295</ele>
        <time>2023-01-05T09:12:02.443Z</time>
      </trkpt>
      <trkpt lat="39.74942" lon="3.0147">
        <ele>85.404225</ele>
        <time>2023-01-05T09:12:05.432Z</time>
      </trkpt>
      <trkpt lat="39.74931" lon="3.01461">
        <ele>85.460192</ele>
        <time>2023-01-05T09:12:08.450Z</time>
      </trkpt>
      <trkpt lat="39.74919" lon="3.01454">
        <ele>85.516122</ele>
        <time>2023-01-05T09:12:11.451Z</time>
      </trkpt>
      <trkpt lat="39.74908" lon="3.01445">
        <ele>85.572218</ele>
        <time>2023-01-05T09:12:14.448Z</time>
      </trkpt>
      <trkpt lat="39.74897" lon="3.01438">
        <ele>85.623402</ele>
        <time>2023-01-05T09:12:17.441Z</time>
      </trkpt>
      <trkpt lat="39.74886" lon="3.0143">
        <ele>85.538337</ele>
        <time>2023-01-05T09:12:20.438Z</time>
      </trkpt>
      <trkpt lat="39.74875" lon="3.01422">
        <ele>85.452053</ele>
        <time>2023-01-05T09:12:23.426Z</time>
      </trkpt>
      <trkpt lat="39.74864" lon="3.01414">
        <ele>85.365667</ele>
        <time>2023-01-05T09:12:26.439Z</time>
      </trkpt>
      <trkpt lat="39.74853" lon="3.01407">
        <ele>85.283682</ele>
        <time>2023-01-05T09:12:29.433Z</time>
      </trkpt>
      <trkpt lat="39.74842" lon="3.01399">
        <ele>85.200893</ele>
        <time>2023-01-05T09:12:32.433Z</time>
      </trkpt>
      <trkpt lat="39.74832" lon="3.01392">
        <ele>85.121579</ele>
        <time>2023-01-05T09:12:35.438Z</time>
      </trkpt>
      <trkpt lat="39.74821" lon="3.01386">
        <ele>85.041002</ele>
        <time>2023-01-05T09:12:38.432Z</time>
      </trkpt>
      <trkpt lat="39.74811" lon="3.01378">
        <ele>84.961793</ele>
        <time>2023-01-05T09:12:41.437Z</time>
      </trkpt>
      <trkpt lat="39.74801" lon="3.0137">
        <ele>84.882208</ele>
        <time>2023-01-05T09:12:44.448Z</time>
      </trkpt>
      <trkpt lat="39.7479" lon="3.01363">
        <ele>84.802295</ele>
        <time>2023-01-05T09:12:47.444Z</time>
      </trkpt>
      <trkpt lat="39.74781" lon="3.01356">
        <ele>84.729547</ele>
        <time>2023-01-05T09:12:50.437Z</time>
      </trkpt>
      <trkpt lat="39.74772" lon="3.01348">
        <ele>84.654791</ele>
        <time>2023-01-05T09:12:53.428Z</time>
      </trkpt>
      <trkpt lat="39.74763" lon="3.01338">
        <ele>84.578083</ele>
        <time>2023-01-05T09:12:56.425Z</time>
      </trkpt>
      <trkpt lat="39.74754" lon="3.01332">
        <ele>84.509552</ele>
        <time>2023-01-05T09:12:59.429Z</time>
      </trkpt>
      <trkpt lat="39.74746" lon="3.01322">
        <ele>84.433193</ele>
        <time>2023-01-05T09:13:03.440Z</time>
      </trkpt>
      <trkpt lat="39.74737" lon="3.01318">
        <ele>84.462897</ele>
        <time>2023-01-05T09:13:07.453Z</time>
      </trkpt>
      <trkpt lat="39.74729" lon="3.0131">
        <ele>84.541681</ele>
        <time>2023-01-05T09:13:13.441Z</time>
      </trkpt>
      <trkpt lat="39.74722" lon="3.013">
        <ele>84.630997</ele>
        <time>2023-01-05T09:13:18.436Z</time>
      </trkpt>
      <trkpt lat="39.74712" lon="3.01291">
        <ele>84.728569</ele>
        <time>2023-01-05T09:13:22.468Z</time>
      </trkpt>
      <trkpt lat="39.74705" lon="3.01284">
        <ele>84.809881</ele>
        <time>2023-01-05T09:13:25.450Z</time>
      </trkpt>
      <trkpt lat="39.74697" lon="3.01276">
        <ele>84.891953</ele>
        <time>2023-01-05T09:13:28.452Z</time>
      </trkpt>
      <trkpt lat="39.74691" lon="3.01266">
        <ele>84.972052</ele>
        <time>2023-01-05T09:13:31.440Z</time>
      </trkpt>
      <trkpt lat="39.74684" lon="3.01256">
        <ele>85.054663</ele>
        <time>2023-01-05T09:13:34.435Z</time>
      </trkpt>
      <trkpt lat="39.74678" lon="3.01245">
        <ele>85.142837</ele>
        <time>2023-01-05T09:13:37.436Z</time>
      </trkpt>
      <trkpt lat="39.74672" lon="3.01234">
        <ele>85.226632</ele>
        <time>2023-01-05T09:13:40.463Z</time>
      </trkpt>
      <trkpt lat="39.74667" lon="3.01223">
        <ele>85.31401</ele>
        <time>2023-01-05T09:13:43.434Z</time>
      </trkpt>
      <trkpt lat="39.7466" lon="3.01211">
        <ele>85.409322</ele>
        <time>2023-01-05T09:13:46.445Z</time>
      </trkpt>
      <trkpt lat="39.74653" lon="3.01199">
        <ele>85.502673</ele>
        <time>2023-01-05T09:13:49.442Z</time>
      </trkpt>
      <trkpt lat="39.74647" lon="3.01187">
        <ele>85.593032</ele>
        <time>2023-01-05T09:13:52.442Z</time>
      </trkpt>
      <trkpt lat="39.74641" lon="3.01175">
        <ele>85.68644</ele>
        <time>2023-01-05T09:13:55.445Z</time>
      </trkpt>
      <trkpt lat="39.74635" lon="3.01163">
        <ele>85.779917</ele>
        <time>2023-01-05T09:13:58.435Z</time>
      </trkpt>
      <trkpt lat="39.74628" lon="3.01152">
        <ele>85.869613</ele>
        <time>2023-01-05T09:14:01.429Z</time>
      </trkpt>
      <trkpt lat="39.74622" lon="3.01141">
        <ele>85.941688</ele>
        <time>2023-01-05T09:14:04.450Z</time>
      </trkpt>
      <trkpt lat="39.74616" lon="3.0113">
        <ele>86.00734</ele>
        <time>2023-01-05T09:14:07.450Z</time>
      </trkpt>
      <trkpt lat="39.7461" lon="3.01118">
        <ele>86.07529</ele>
        <time>2023-01-05T09:14:10.440Z</time>
      </trkpt>
      <trkpt lat="39.74603" lon="3.01105">
        <ele>86.146546</ele>
        <time>2023-01-05T09:14:13.437Z</time>
      </trkpt>
      <trkpt lat="39.74596" lon="3.01093">
        <ele>86.215142</ele>
        <time>2023-01-05T09:14:16.440Z</time>
      </trkpt>
      <trkpt lat="39.7459" lon="3.01081">
        <ele>86.286015</ele>
        <time>2023-01-05T09:14:19.454Z</time>
      </trkpt>
      <trkpt lat="39.74583" lon="3.01069">
        <ele>86.355011</ele>
        <time>2023-01-05T09:14:22.435Z</time>
      </trkpt>
      <trkpt lat="39.74576" lon="3.01057">
        <ele>86.425502</ele>
        <time>2023-01-05T09:14:25.445Z</time>
      </trkpt>
      <trkpt lat="39.7457" lon="3.01045">
        <ele>86.492625</ele>
        <time>2023-01-05T09:14:28.445Z</time>
      </trkpt>
      <trkpt lat="39.74563" lon="3.01034">
        <ele>86.557881</ele>
        <time>2023-01-05T09:14:31.437Z</time>
      </trkpt>
      <trkpt lat="39.74557" lon="3.01022">
        <ele>86.623533</ele>
        <time>2023-01-05T09:14:34.451Z</time>
      </trkpt>
      <trkpt lat="39.7455" lon="3.0101">
        <ele>86.692506</ele>
        <time>2023-01-05T09:14:37.439Z</time>
      </trkpt>
      <trkpt lat="39.74544" lon="3.00998">
        <ele>86.761285</ele>
        <time>2023-01-05T09:14:40.441Z</time>
      </trkpt>
      <trkpt lat="39.74538" lon="3.00986">
        <ele>86.82812</ele>
        <time>2023-01-05T09:14:43.440Z</time>
      </trkpt>
      <trkpt lat="39.74531" lon="3.00975">
        <ele>86.895223</ele>
        <time>2023-01-05T09:14:46.442Z</time>
      </trkpt>
      <trkpt lat="39.74525" lon="3.00963">
        <ele>86.964134</ele>
        <time>2023-01-05T09:14:49.419Z</time>
      </trkpt>
      <trkpt lat="39.74519" lon="3.00951">
        <ele>87.047105</ele>
        <time>2023-01-05T09:14:52.447Z</time>
      </trkpt>
      <trkpt lat="39.74513" lon="3.00939">
        <ele>87.146605</ele>
        <time>2023-01-05T09:14:55.425Z</time>
      </trkpt>
      <trkpt lat="39.74507" lon="3.00927">
        <ele>87.245607</ele>
        <time>2023-01-05T09:14:58.444Z</time>
      </trkpt>
      <trkpt lat="39.74502" lon="3.00914">
        <ele>87.344059</ele>
        <time>2023-01-05T09:15:01.433Z</time>
      </trkpt>
      <trkpt lat="39.74496" lon="3.00903">
        <ele>87.437828</ele>
        <time>2023-01-05T09:15:04.430Z</time>
      </trkpt>
      <trkpt lat="39.7449" lon="3.00891">
        <ele>87.536082</ele>
        <time>2023-01-05T09:15:07.437Z</time>
      </trkpt>
      <trkpt lat="39.74485" lon="3.0088">
        <ele>87.627464</ele>
        <time>2023-01-05T09:15:10.449Z</time>
      </trkpt>
      <trkpt lat="39.7448" lon="3.00867">
        <ele>87.727761</ele>
        <time>2023-01-05T09:15:13.423Z</time>
      </trkpt>
      <trkpt lat="39.74475" lon="3.00855">
        <ele>87.823942</ele>
        <time>2023-01-05T09:15:16.439Z</time>
      </trkpt>
      <trkpt lat="39.74469" lon="3.00843">
        <ele>87.920552</ele>
        <time>2023-01-05T09:15:19.439Z</time>
      </trkpt>
      <trkpt lat="39.74465" lon="3.00831">
        <ele>88.012632</ele>
        <time>2023-01-05T09:15:22.440Z</time>
      </trkpt>
      <trkpt lat="39.7446" lon="3.0082">
        <ele>88.104892</ele>
        <time>2023-01-05T09:15:25.455Z</time>
      </trkpt>
      <trkpt lat="39.74455" lon="3.00806">
        <ele>88.20829</ele>
        <time>2023-01-05T09:15:28.448Z</time>
      </trkpt>
      <trkpt lat="39.74449" lon="3.00794">
        <ele>88.309696</ele>
        <time>2023-01-05T09:15:31.448Z</time>
      </trkpt>
      <trkpt lat="39.74444" lon="3.00781">
        <ele>88.406073</ele>
        <time>2023-01-05T09:15:34.457Z</time>
      </trkpt>
      <trkpt lat="39.74439" lon="3.00769">
        <ele>88.505992</ele>
        <time>2023-01-05T09:15:37.434Z</time>
      </trkpt>
      <trkpt lat="39.74434" lon="3.00757">
        <ele>88.599118</ele>
        <time>2023-01-05T09:15:40.443Z</time>
      </trkpt>
      <trkpt lat="39.74429" lon="3.00745">
        <ele>88.660623</ele>
        <time>2023-01-05T09:15:43.430Z</time>
      </trkpt>
      <trkpt lat="39.74424" lon="3.00732">
        <ele>88.706933</ele>
        <time>2023-01-05T09:15:46.424Z</time>
      </trkpt>
      <trkpt lat="39.74418" lon="3.0072">
        <ele>88.753279</ele>
        <time>2023-01-05T09:15:49.437Z</time>
      </trkpt>
      <trkpt lat="39.74413" lon="3.00707">
        <ele>88.800744</ele>
        <time>2023-01-05T09:15:52.451Z</time>
      </trkpt>
      <trkpt lat="39.74407" lon="3.00694">
        <ele>88.849016</ele>
        <time>2023-01-05T09:15:55.437Z</time>
      </trkpt>
      <trkpt lat="39.74402" lon="3.00681">
        <ele>88.897568</ele>
        <time>2023-01-05T09:15:58.425Z</time>
      </trkpt>
      <trkpt lat="39.74397" lon="3.00667">
        <ele>88.946655</ele>
        <time>2023-01-05T09:16:01.445Z</time>
      </trkpt>
      <trkpt lat="39.74393" lon="3.00654">
        <ele>88.993744</ele>
        <time>2023-01-05T09:16:04.419Z</time>
      </trkpt>
      <trkpt lat="39.74389" lon="3.00641">
        <ele>89.039127</ele>
        <time>2023-01-05T09:16:07.434Z</time>
      </trkpt>
      <trkpt lat="39.74384" lon="3.00628">
        <ele>89.086216</ele>
        <time>2023-01-05T09:16:10.439Z</time>
      </trkpt>
      <trkpt lat="39.7438" lon="3.00614">
        <ele>89.134029</ele>
        <time>2023-01-05T09:16:13.425Z</time>
      </trkpt>
      <trkpt lat="39.74376" lon="3.00601">
        <ele>89.179212</ele>
        <time>2023-01-05T09:16:16.457Z</time>
      </trkpt>
      <trkpt lat="39.74372" lon="3.0059">
        <ele>89.218071</ele>
        <time>2023-01-05T09:16:19.439Z</time>
      </trkpt>
      <trkpt lat="39.74369" lon="3.00579">
        <ele>89.256507</ele>
        <time>2023-01-05T09:16:23.423Z</time>
      </trkpt>
      <trkpt lat="39.74365" lon="3.00568">
        <ele>89.296556</ele>
        <time>2023-01-05T09:16:30.441Z</time>
      </trkpt>
      <trkpt lat="39.74361" lon="3.00556">
        <ele>89.338497</ele>
        <time>2023-01-05T09:16:34.442Z</time>
      </trkpt>
      <trkpt lat="39.74357" lon="3.00542">
        <ele>89.389296</ele>
        <time>2023-01-05T09:16:38.454Z</time>
      </trkpt>
      <trkpt lat="39.74354" lon="3.00528">
        <ele>89.462823</ele>
        <time>2023-01-05T09:16:42.427Z</time>
      </trkpt>
      <trkpt lat="39.74351" lon="3.00516">
        <ele>89.526006</ele>
        <time>2023-01-05T09:16:46.438Z</time>
      </trkpt>
      <trkpt lat="39.74347" lon="3.00505">
        <ele>89.588483</ele>
        <time>2023-01-05T09:16:50.436Z</time>
      </trkpt>
      <trkpt lat="39.74342" lon="3.00494">
        <ele>89.658952</ele>
        <time>2023-01-05T09:16:56.428Z</time>
      </trkpt>
      <trkpt lat="39.74339" lon="3.00481">
        <ele>89.726804</ele>
        <time>2023-01-05T09:17:02.463Z</time>
      </trkpt>
      <trkpt lat="39.74337" lon="3.0047">
        <ele>89.78741</ele>
        <time>2023-01-05T09:17:09.434Z</time>
      </trkpt>
      <trkpt lat="39.74333" lon="3.00458">
        <ele>89.852174</ele>
        <time>2023-01-05T09:17:13.437Z</time>
      </trkpt>
      <trkpt lat="39.7433" lon="3.00445">
        <ele>89.927976</ele>
        <time>2023-01-05T09:17:17.440Z</time>
      </trkpt>
      <trkpt lat="39.74326" lon="3.00433">
        <ele>89.991061</ele>
        <time>2023-01-05T09:17:20.446Z</time>
      </trkpt>
      <trkpt lat="39.74322" lon="3.00419">
        <ele>90.07207</ele>
        <time>2023-01-05T09:17:24.435Z</time>
      </trkpt>
      <trkpt lat="39.74318" lon="3.00407">
        <ele>90.138358</ele>
        <time>2023-01-05T09:17:27.457Z</time>
      </trkpt>
      <trkpt lat="39.74315" lon="3.00393">
        <ele>90.214386</ele>
        <time>2023-01-05T09:17:31.432Z</time>
      </trkpt>
      <trkpt lat="39.74312" lon="3.00382">
        <ele>90.276991</ele>
        <time>2023-01-05T09:17:34.447Z</time>
      </trkpt>
      <trkpt lat="39.74309" lon="3.0037">
        <ele>90.343221</ele>
        <time>2023-01-05T09:17:37.439Z</time>
      </trkpt>
      <trkpt lat="39.74305" lon="3.00357">
        <ele>90.414311</ele>
        <time>2023-01-05T09:17:40.448Z</time>
      </trkpt>
      <trkpt lat="39.74302" lon="3.00344">
        <ele>90.485949</ele>
        <time>2023-01-05T09:17:43.430Z</time>
      </trkpt>
      <trkpt lat="39.74299" lon="3.00331">
        <ele>90.555834</ele>
        <time>2023-01-05T09:17:46.434Z</time>
      </trkpt>
      <trkpt lat="39.74296" lon="3.00318">
        <ele>90.650771</ele>
        <time>2023-01-05T09:17:49.433Z</time>
      </trkpt>
      <trkpt lat="39.74292" lon="3.00304">
        <ele>90.806305</ele>
        <time>2023-01-05T09:17:52.447Z</time>
      </trkpt>
      <trkpt lat="39.74289" lon="3.00291">
        <ele>90.955794</ele>
        <time>2023-01-05T09:17:55.447Z</time>
      </trkpt>
      <trkpt lat="39.74286" lon="3.00278">
        <ele>91.110692</ele>
        <time>2023-01-05T09:17:58.446Z</time>
      </trkpt>
      <trkpt lat="39.74282" lon="3.00265">
        <ele>91.261064</ele>
        <time>2023-01-05T09:18:01.434Z</time>
      </trkpt>
      <trkpt lat="39.74279" lon="3.00252">
        <ele>91.415564</ele>
        <time>2023-01-05T09:18:04.460Z</time>
      </trkpt>
      <trkpt lat="39.74276" lon="3.00238">
        <ele>91.566881</ele>
        <time>2023-01-05T09:18:07.437Z</time>
      </trkpt>
      <trkpt lat="39.74272" lon="3.00224">
        <ele>91.725698</ele>
        <time>2023-01-05T09:18:10.441Z</time>
      </trkpt>
      <trkpt lat="39.74268" lon="3.0021">
        <ele>91.891291</ele>
        <time>2023-01-05T09:18:13.432Z</time>
      </trkpt>
      <trkpt lat="39.74265" lon="3.00196">
        <ele>92.051789</ele>
        <time>2023-01-05T09:18:16.459Z</time>
      </trkpt>
      <trkpt lat="39.74261" lon="3.00182">
        <ele>92.210312</ele>
        <time>2023-01-05T09:18:19.434Z</time>
      </trkpt>
      <trkpt lat="39.74258" lon="3.00168">
        <ele>92.370897</ele>
        <time>2023-01-05T09:18:22.427Z</time>
      </trkpt>
      <trkpt lat="39.74254" lon="3.00154">
        <ele>92.537105</ele>
        <time>2023-01-05T09:18:25.435Z</time>
      </trkpt>
      <trkpt lat="39.7425" lon="3.0014">
        <ele>92.702858</ele>
        <time>2023-01-05T09:18:28.435Z</time>
      </trkpt>
      <trkpt lat="39.74247" lon="3.00125">
        <ele>92.874408</ele>
        <time>2023-01-05T09:18:31.445Z</time>
      </trkpt>
      <trkpt lat="39.74243" lon="3.00111">
        <ele>93.032931</ele>
        <time>2023-01-05T09:18:34.435Z</time>
      </trkpt>
      <trkpt lat="39.74239" lon="3.00097">
        <ele>93.173943</ele>
        <time>2023-01-05T09:18:37.428Z</time>
      </trkpt>
      <trkpt lat="39.74235" lon="3.00082">
        <ele>93.24389</ele>
        <time>2023-01-05T09:18:40.429Z</time>
      </trkpt>
      <trkpt lat="39.74232" lon="3.00067">
        <ele>93.316671</ele>
        <time>2023-01-05T09:18:43.442Z</time>
      </trkpt>
      <trkpt lat="39.74228" lon="3.00053">
        <ele>93.386845</ele>
        <time>2023-01-05T09:18:46.440Z</time>
      </trkpt>
      <trkpt lat="39.74224" lon="3.00038">
        <ele>93.459386</ele>
        <time>2023-01-05T09:18:49.434Z</time>
      </trkpt>
      <trkpt lat="39.7422" lon="3.00024">
        <ele>93.527841</ele>
        <time>2023-01-05T09:18:52.448Z</time>
      </trkpt>
      <trkpt lat="39.74217" lon="3.00009">
        <ele>93.599752</ele>
        <time>2023-01-05T09:18:55.437Z</time>
      </trkpt>
      <trkpt lat="39.74213" lon="2.99993">
        <ele>93.674447</ele>
        <time>2023-01-05T09:18:58.445Z</time>
      </trkpt>
      <trkpt lat="39.74209" lon="2.99978">
        <ele>93.749354</ele>
        <time>2023-01-05T09:19:01.436Z</time>
      </trkpt>
      <trkpt lat="39.74205" lon="2.99962">
        <ele>93.825761</ele>
        <time>2023-01-05T09:19:04.436Z</time>
      </trkpt>
      <trkpt lat="39.74201" lon="2.99947">
        <ele>93.899482</ele>
        <time>2023-01-05T09:19:07.433Z</time>
      </trkpt>
      <trkpt lat="39.74197" lon="2.99931">
        <ele>93.974633</ele>
        <time>2023-01-05T09:19:10.445Z</time>
      </trkpt>
      <trkpt lat="39.74193" lon="2.99916">
        <ele>94.04785</ele>
        <time>2023-01-05T09:19:13.438Z</time>
      </trkpt>
      <trkpt lat="39.74189" lon="2.99901">
        <ele>94.123144</ele>
        <time>2023-01-05T09:19:16.441Z</time>
      </trkpt>
      <trkpt lat="39.74185" lon="2.99886">
        <ele>94.196751</ele>
        <time>2023-01-05T09:19:19.445Z</time>
      </trkpt>
      <trkpt lat="39.74181" lon="2.9987">
        <ele>94.261107</ele>
        <time>2023-01-05T09:19:22.435Z</time>
      </trkpt>
      <trkpt lat="39.74177" lon="2.99856">
        <ele>94.311934</ele>
        <time>2023-01-05T09:19:25.432Z</time>
      </trkpt>
      <trkpt lat="39.74172" lon="2.99841">
        <ele>94.363066</ele>
        <time>2023-01-05T09:19:28.443Z</time>
      </trkpt>
      <trkpt lat="39.74168" lon="2.99827">
        <ele>94.413445</ele>
        <time>2023-01-05T09:19:31.437Z</time>
      </trkpt>
      <trkpt lat="39.74163" lon="2.99814">
        <ele>94.461417</ele>
        <time>2023-01-05T09:19:34.441Z</time>
      </trkpt>
      <trkpt lat="39.74158" lon="2.998">
        <ele>94.510944</ele>
        <time>2023-01-05T09:19:37.435Z</time>
      </trkpt>
      <trkpt lat="39.74151" lon="2.99787">
        <ele>94.562242</ele>
        <time>2023-01-05T09:19:40.449Z</time>
      </trkpt>
      <trkpt lat="39.74145" lon="2.99773">
        <ele>94.614042</ele>
        <time>2023-01-05T09:19:43.439Z</time>
      </trkpt>
      <trkpt lat="39.74138" lon="2.99759">
        <ele>94.66897</ele>
        <time>2023-01-05T09:19:46.435Z</time>
      </trkpt>
      <trkpt lat="39.74132" lon="2.99745">
        <ele>94.723396</ele>
        <time>2023-01-05T09:19:49.441Z</time>
      </trkpt>
      <trkpt lat="39.74126" lon="2.99731">
        <ele>94.776322</ele>
        <time>2023-01-05T09:19:52.450Z</time>
      </trkpt>
      <trkpt lat="39.74119" lon="2.99718">
        <ele>94.825997</ele>
        <time>2023-01-05T09:19:55.434Z</time>
      </trkpt>
      <trkpt lat="39.74113" lon="2.99704">
        <ele>94.878707</ele>
        <time>2023-01-05T09:19:58.420Z</time>
      </trkpt>
      <trkpt lat="39.74107" lon="2.99691">
        <ele>94.930042</ele>
        <time>2023-01-05T09:20:01.433Z</time>
      </trkpt>
      <trkpt lat="39.741" lon="2.99678">
        <ele>94.982122</ele>
        <time>2023-01-05T09:20:04.455Z</time>
      </trkpt>
      <trkpt lat="39.74093" lon="2.99663">
        <ele>95.059052</ele>
        <time>2023-01-05T09:20:07.443Z</time>
      </trkpt>
      <trkpt lat="39.74087" lon="2.99648">
        <ele>95.146886</ele>
        <time>2023-01-05T09:20:10.437Z</time>
      </trkpt>
      <trkpt lat="39.74082" lon="2.99639">
        <ele>95.206809</ele>
        <time>2023-01-05T09:20:12.439Z</time>
      </trkpt>
      <trkpt lat="39.74077" lon="2.99628">
        <ele>95.268237</ele>
        <time>2023-01-05T09:20:14.441Z</time>
      </trkpt>
      <trkpt lat="39.74071" lon="2.99615">
        <ele>95.347967</ele>
        <time>2023-01-05T09:20:17.436Z</time>
      </trkpt>
      <trkpt lat="39.74064" lon="2.99601">
        <ele>95.433183</ele>
        <time>2023-01-05T09:20:20.450Z</time>
      </trkpt>
      <trkpt lat="39.74057" lon="2.99586">
        <ele>95.520841</ele>
        <time>2023-01-05T09:20:23.431Z</time>
      </trkpt>
      <trkpt lat="39.74051" lon="2.99572">
        <ele>95.607016</ele>
        <time>2023-01-05T09:20:26.439Z</time>
      </trkpt>
      <trkpt lat="39.74045" lon="2.99558">
        <ele>95.687629</ele>
        <time>2023-01-05T09:20:29.437Z</time>
      </trkpt>
      <trkpt lat="39.74037" lon="2.99545">
        <ele>95.77137</ele>
        <time>2023-01-05T09:20:32.450Z</time>
      </trkpt>
      <trkpt lat="39.74031" lon="2.99531">
        <ele>95.8511</ele>
        <time>2023-01-05T09:20:35.448Z</time>
      </trkpt>
      <trkpt lat="39.74025" lon="2.99518">
        <ele>95.930389</ele>
        <time>2023-01-05T09:20:38.438Z</time>
      </trkpt>
      <trkpt lat="39.74019" lon="2.99505">
        <ele>96.011866</ele>
        <time>2023-01-05T09:20:41.449Z</time>
      </trkpt>
      <trkpt lat="39.74012" lon="2.99491">
        <ele>96.09169</ele>
        <time>2023-01-05T09:20:44.427Z</time>
      </trkpt>
      <trkpt lat="39.74006" lon="2.99479">
        <ele>96.170228</ele>
        <time>2023-01-05T09:20:47.433Z</time>
      </trkpt>
      <trkpt lat="39.74" lon="2.99466">
        <ele>96.201976</ele>
        <time>2023-01-05T09:20:50.442Z</time>
      </trkpt>
      <trkpt lat="39.73995" lon="2.99452">
        <ele>96.209469</ele>
        <time>2023-01-05T09:20:53.429Z</time>
      </trkpt>
      <trkpt lat="39.7399" lon="2.99439">
        <ele>96.216623</ele>
        <time>2023-01-05T09:20:56.451Z</time>
      </trkpt>
      <trkpt lat="39.73985" lon="2.99425">
        <ele>96.224268</ele>
        <time>2023-01-05T09:20:59.436Z</time>
      </trkpt>
      <trkpt lat="39.73979" lon="2.99412">
        <ele>96.231274</ele>
        <time>2023-01-05T09:21:02.423Z</time>
      </trkpt>
      <trkpt lat="39.73976" lon="2.994">
        <ele>96.237469</ele>
        <time>2023-01-05T09:21:05.425Z</time>
      </trkpt>
      <trkpt lat="39.73973" lon="2.99389">
        <ele>96.2432</ele>
        <time>2023-01-05T09:21:10.441Z</time>
      </trkpt>
      <trkpt lat="39.73966" lon="2.9938">
        <ele>96.249529</ele>
        <time>2023-01-05T09:21:26.430Z</time>
      </trkpt>
      <trkpt lat="39.73962" lon="2.99368">
        <ele>96.2557</ele>
        <time>2023-01-05T09:21:31.434Z</time>
      </trkpt>
      <trkpt lat="39.73958" lon="2.99354">
        <ele>96.262833</ele>
        <time>2023-01-05T09:21:36.436Z</time>
      </trkpt>
      <trkpt lat="39.73953" lon="2.99344">
        <ele>96.268708</ele>
        <time>2023-01-05T09:21:41.432Z</time>
      </trkpt>
      <trkpt lat="39.73947" lon="2.99332">
        <ele>96.275284</ele>
        <time>2023-01-05T09:21:50.449Z</time>
      </trkpt>
      <trkpt lat="39.73944" lon="2.99319">
        <ele>96.282204</ele>
        <time>2023-01-05T09:21:56.435Z</time>
      </trkpt>
      <trkpt lat="39.73939" lon="2.99305">
        <ele>96.289532</ele>
        <time>2023-01-05T09:22:00.445Z</time>
      </trkpt>
      <trkpt lat="39.73934" lon="2.99294">
        <ele>96.295695</ele>
        <time>2023-01-05T09:22:03.429Z</time>
      </trkpt>
      <trkpt lat="39.7393" lon="2.99283">
        <ele>96.301772</ele>
        <time>2023-01-05T09:22:06.440Z</time>
      </trkpt>
      <trkpt lat="39.73926" lon="2.9927">
        <ele>96.308423</ele>
        <time>2023-01-05T09:22:09.431Z</time>
      </trkpt>
      <trkpt lat="39.7392" lon="2.99258">
        <ele>96.39558</ele>
        <time>2023-01-05T09:22:12.450Z</time>
      </trkpt>
      <trkpt lat="39.73915" lon="2.99244">
        <ele>96.542116</ele>
        <time>2023-01-05T09:22:15.431Z</time>
      </trkpt>
      <trkpt lat="39.73911" lon="2.9923">
        <ele>96.684511</ele>
        <time>2023-01-05T09:22:18.437Z</time>
      </trkpt>
      <trkpt lat="39.73905" lon="2.99216">
        <ele>96.833602</ele>
        <time>2023-01-05T09:22:21.433Z</time>
      </trkpt>
      <trkpt lat="39.73899" lon="2.99201">
        <ele>96.991402</ele>
        <time>2023-01-05T09:22:24.456Z</time>
      </trkpt>
      <trkpt lat="39.73894" lon="2.99187">
        <ele>97.144695</ele>
        <time>2023-01-05T09:22:27.445Z</time>
      </trkpt>
      <trkpt lat="39.73888" lon="2.99172">
        <ele>97.303096</ele>
        <time>2023-01-05T09:22:30.427Z</time>
      </trkpt>
      <trkpt lat="39.73882" lon="2.99157">
        <ele>97.465142</ele>
        <time>2023-01-05T09:22:33.428Z</time>
      </trkpt>
      <trkpt lat="39.73876" lon="2.99142">
        <ele>97.620879</ele>
        <time>2023-01-05T09:22:36.441Z</time>
      </trkpt>
      <trkpt lat="39.73872" lon="2.99132">
        <ele>97.732472</ele>
        <time>2023-01-05T09:22:38.435Z</time>
      </trkpt>
      <trkpt lat="39.73866" lon="2.99117">
        <ele>97.892827</ele>
        <time>2023-01-05T09:22:41.440Z</time>
      </trkpt>
      <trkpt lat="39.7386" lon="2.99102">
        <ele>98.051474</ele>
        <time>2023-01-05T09:22:44.431Z</time>
      </trkpt>
      <trkpt lat="39.73854" lon="2.99087">
        <ele>98.212375</ele>
        <time>2023-01-05T09:22:47.437Z</time>
      </trkpt>
      <trkpt lat="39.73848" lon="2.99072">
        <ele>98.377784</ele>
        <time>2023-01-05T09:22:50.437Z</time>
      </trkpt>
      <trkpt lat="39.73842" lon="2.99056">
        <ele>98.537183</ele>
        <time>2023-01-05T09:22:53.428Z</time>
      </trkpt>
      <trkpt lat="39.73836" lon="2.99041">
        <ele>98.616294</ele>
        <time>2023-01-05T09:22:56.434Z</time>
      </trkpt>
      <trkpt lat="39.7383" lon="2.99026">
        <ele>98.695162</ele>
        <time>2023-01-05T09:22:59.435Z</time>
      </trkpt>
      <trkpt lat="39.73824" lon="2.9901">
        <ele>98.774326</ele>
        <time>2023-01-05T09:23:02.438Z</time>
      </trkpt>
      <trkpt lat="39.73821" lon="2.98999">
        <ele>98.830275</ele>
        <time>2023-01-05T09:23:04.451Z</time>
      </trkpt>
      <trkpt lat="39.73816" lon="2.98988">
        <ele>98.885906</ele>
        <time>2023-01-05T09:23:06.450Z</time>
      </trkpt>
      <trkpt lat="39.73812" lon="2.98977">
        <ele>98.94059</ele>
        <time>2023-01-05T09:23:08.437Z</time>
      </trkpt>
      <trkpt lat="39.73808" lon="2.98966">
        <ele>98.995011</ele>
        <time>2023-01-05T09:23:10.439Z</time>
      </trkpt>
      <trkpt lat="39.73804" lon="2.98956">
        <ele>99.049844</ele>
        <time>2023-01-05T09:23:12.438Z</time>
      </trkpt>
      <trkpt lat="39.738" lon="2.98945">
        <ele>99.106434</ele>
        <time>2023-01-05T09:23:14.449Z</time>
      </trkpt>
      <trkpt lat="39.73796" lon="2.98934">
        <ele>99.159773</ele>
        <time>2023-01-05T09:23:16.437Z</time>
      </trkpt>
      <trkpt lat="39.73792" lon="2.98924">
        <ele>99.214048</ele>
        <time>2023-01-05T09:23:18.437Z</time>
      </trkpt>
      <trkpt lat="39.73786" lon="2.98908">
        <ele>99.293694</ele>
        <time>2023-01-05T09:23:21.443Z</time>
      </trkpt>
      <trkpt lat="39.73781" lon="2.98897">
        <ele>99.351657</ele>
        <time>2023-01-05T09:23:23.426Z</time>
      </trkpt>
      <trkpt lat="39.73775" lon="2.98881">
        <ele>99.431443</ele>
        <time>2023-01-05T09:23:26.457Z</time>
      </trkpt>
      <trkpt lat="39.73769" lon="2.98866">
        <ele>99.508952</ele>
        <time>2023-01-05T09:23:29.439Z</time>
      </trkpt>
      <trkpt lat="39.73765" lon="2.98856">
        <ele>99.563368</ele>
        <time>2023-01-05T09:23:31.437Z</time>
      </trkpt>
      <trkpt lat="39.73759" lon="2.9884">
        <ele>99.710455</ele>
        <time>2023-01-05T09:23:34.447Z</time>
      </trkpt>
      <trkpt lat="39.73754" lon="2.98825">
        <ele>99.929316</ele>
        <time>2023-01-05T09:23:37.449Z</time>
      </trkpt>
      <trkpt lat="39.73748" lon="2.9881">
        <ele>100.145136</ele>
        <time>2023-01-05T09:23:40.451Z</time>
      </trkpt>
      <trkpt lat="39.73742" lon="2.98795">
        <ele>100.355662</ele>
        <time>2023-01-05T09:23:43.430Z</time>
      </trkpt>
      <trkpt lat="39.73736" lon="2.9878">
        <ele>100.573104</ele>
        <time>2023-01-05T09:23:46.451Z</time>
      </trkpt>
      <trkpt lat="39.73731" lon="2.98764">
        <ele>100.788685</ele>
        <time>2023-01-05T09:23:49.437Z</time>
      </trkpt>
      <trkpt lat="39.73725" lon="2.9875">
        <ele>100.999967</ele>
        <time>2023-01-05T09:23:52.440Z</time>
      </trkpt>
      <trkpt lat="39.73719" lon="2.98735">
        <ele>101.205563</ele>
        <time>2023-01-05T09:23:55.428Z</time>
      </trkpt>
      <trkpt lat="39.73715" lon="2.98722">
        <ele>101.397732</ele>
        <time>2023-01-05T09:23:58.436Z</time>
      </trkpt>
      <trkpt lat="39.7371" lon="2.98708">
        <ele>101.589723</ele>
        <time>2023-01-05T09:24:01.433Z</time>
      </trkpt>
      <trkpt lat="39.73704" lon="2.98695">
        <ele>101.777201</ele>
        <time>2023-01-05T09:24:04.436Z</time>
      </trkpt>
      <trkpt lat="39.73699" lon="2.98682">
        <ele>101.965197</ele>
        <time>2023-01-05T09:24:07.443Z</time>
      </trkpt>
      <trkpt lat="39.73695" lon="2.98669">
        <ele>102.151577</ele>
        <time>2023-01-05T09:24:10.432Z</time>
      </trkpt>
      <trkpt lat="39.7369" lon="2.98655">
        <ele>102.340056</ele>
        <time>2023-01-05T09:24:13.430Z</time>
      </trkpt>
      <trkpt lat="39.73685" lon="2.98642">
        <ele>102.522176</ele>
        <time>2023-01-05T09:24:16.438Z</time>
      </trkpt>
      <trkpt lat="39.7368" lon="2.98628">
        <ele>102.589334</ele>
        <time>2023-01-05T09:24:19.436Z</time>
      </trkpt>
      <trkpt lat="39.73675" lon="2.98616">
        <ele>102.590661</ele>
        <time>2023-01-05T09:24:22.452Z</time>
      </trkpt>
      <trkpt lat="39.7367" lon="2.98603">
        <ele>102.592039</ele>
        <time>2023-01-05T09:24:25.433Z</time>
      </trkpt>
      <trkpt lat="39.73664" lon="2.9859">
        <ele>102.593401</ele>
        <time>2023-01-05T09:24:28.447Z</time>
      </trkpt>
      <trkpt lat="39.7366" lon="2.98577">
        <ele>102.594671</ele>
        <time>2023-01-05T09:24:31.437Z</time>
      </trkpt>
      <trkpt lat="39.73655" lon="2.98564">
        <ele>102.595976</ele>
        <time>2023-01-05T09:24:34.443Z</time>
      </trkpt>
      <trkpt lat="39.7365" lon="2.98551">
        <ele>102.597322</ele>
        <time>2023-01-05T09:24:37.443Z</time>
      </trkpt>
      <trkpt lat="39.73645" lon="2.9854">
        <ele>102.598556</ele>
        <time>2023-01-05T09:24:40.449Z</time>
      </trkpt>
      <trkpt lat="39.7364" lon="2.98528">
        <ele>102.599742</ele>
        <time>2023-01-05T09:24:43.428Z</time>
      </trkpt>
      <trkpt lat="39.73635" lon="2.98516">
        <ele>102.600984</ele>
        <time>2023-01-05T09:24:46.455Z</time>
      </trkpt>
      <trkpt lat="39.73629" lon="2.98504">
        <ele>102.60238</ele>
        <time>2023-01-05T09:24:50.440Z</time>
      </trkpt>
      <trkpt lat="39.73624" lon="2.9849">
        <ele>102.603748</ele>
        <time>2023-01-05T09:24:54.439Z</time>
      </trkpt>
      <trkpt lat="39.7362" lon="2.98479">
        <ele>102.604867</ele>
        <time>2023-01-05T09:24:57.432Z</time>
      </trkpt>
      <trkpt lat="39.73616" lon="2.98468">
        <ele>102.606007</ele>
        <time>2023-01-05T09:25:00.437Z</time>
      </trkpt>
      <trkpt lat="39.73611" lon="2.98458">
        <ele>102.607096</ele>
        <time>2023-01-05T09:25:03.428Z</time>
      </trkpt>
      <trkpt lat="39.73608" lon="2.98447">
        <ele>102.60819</ele>
        <time>2023-01-05T09:25:06.439Z</time>
      </trkpt>
      <trkpt lat="39.73603" lon="2.98437">
        <ele>102.609297</ele>
        <time>2023-01-05T09:25:09.434Z</time>
      </trkpt>
      <trkpt lat="39.73599" lon="2.98426">
        <ele>102.584683</ele>
        <time>2023-01-05T09:25:12.452Z</time>
      </trkpt>
      <trkpt lat="39.73595" lon="2.98415">
        <ele>102.522704</ele>
        <time>2023-01-05T09:25:15.450Z</time>
      </trkpt>
      <trkpt lat="39.7359" lon="2.98402">
        <ele>102.446841</ele>
        <time>2023-01-05T09:25:19.437Z</time>
      </trkpt>
      <trkpt lat="39.73583" lon="2.98392">
        <ele>102.379098</ele>
        <time>2023-01-05T09:25:23.430Z</time>
      </trkpt>
      <trkpt lat="39.73574" lon="2.98383">
        <ele>102.302673</ele>
        <time>2023-01-05T09:25:27.434Z</time>
      </trkpt>
      <trkpt lat="39.73562" lon="2.98382">
        <ele>102.223669</ele>
        <time>2023-01-05T09:25:31.435Z</time>
      </trkpt>
      <trkpt lat="39.73552" lon="2.98384">
        <ele>102.151802</ele>
        <time>2023-01-05T09:25:35.439Z</time>
      </trkpt>
      <trkpt lat="39.73542" lon="2.98384">
        <ele>102.084813</ele>
        <time>2023-01-05T09:25:39.431Z</time>
      </trkpt>
      <trkpt lat="39.73531" lon="2.98384">
        <ele>102.013204</ele>
        <time>2023-01-05T09:25:43.450Z</time>
      </trkpt>
      <trkpt lat="39.73522" lon="2.98386">
        <ele>101.95004</ele>
        <time>2023-01-05T09:25:47.435Z</time>
      </trkpt>
      <trkpt lat="39.73511" lon="2.98387">
        <ele>101.879685</ele>
        <time>2023-01-05T09:25:51.446Z</time>
      </trkpt>
      <trkpt lat="39.73499" lon="2.98388">
        <ele>101.801349</ele>
        <time>2023-01-05T09:25:55.439Z</time>
      </trkpt>
      <trkpt lat="39.7349" lon="2.98389">
        <ele>101.739829</ele>
        <time>2023-01-05T09:25:58.456Z</time>
      </trkpt>
      <trkpt lat="39.73479" lon="2.98392">
        <ele>101.663953</ele>
        <time>2023-01-05T09:26:02.439Z</time>
      </trkpt>
      <trkpt lat="39.73468" lon="2.98392">
        <ele>101.592261</ele>
        <time>2023-01-05T09:26:06.443Z</time>
      </trkpt>
      <trkpt lat="39.7346" lon="2.98397">
        <ele>101.52998</ele>
        <time>2023-01-05T09:26:10.461Z</time>
      </trkpt>
      <trkpt lat="39.73451" lon="2.98395">
        <ele>101.468107</ele>
        <time>2023-01-05T09:26:14.451Z</time>
      </trkpt>
      <trkpt lat="39.73439" lon="2.98396">
        <ele>101.391775</ele>
        <time>2023-01-05T09:26:19.440Z</time>
      </trkpt>
      <trkpt lat="39.7343" lon="2.98398">
        <ele>101.321028</ele>
        <time>2023-01-05T09:26:23.446Z</time>
      </trkpt>
      <trkpt lat="39.73421" lon="2.98399">
        <ele>101.255073</ele>
        <time>2023-01-05T09:26:27.441Z</time>
      </trkpt>
      <trkpt lat="39.7341" lon="2.984">
        <ele>101.174267</ele>
        <time>2023-01-05T09:26:31.440Z</time>
      </trkpt>
      <trkpt lat="39.734" lon="2.98401">
        <ele>101.096552</ele>
        <time>2023-01-05T09:26:35.428Z</time>
      </trkpt>
      <trkpt lat="39.7339" lon="2.98404">
        <ele>101.023124</ele>
        <time>2023-01-05T09:26:39.435Z</time>
      </trkpt>
      <trkpt lat="39.7338" lon="2.98403">
        <ele>100.950007</ele>
        <time>2023-01-05T09:26:43.438Z</time>
      </trkpt>
      <trkpt lat="39.73368" lon="2.98406">
        <ele>100.863439</ele>
        <time>2023-01-05T09:26:47.434Z</time>
      </trkpt>
      <trkpt lat="39.73359" lon="2.98407">
        <ele>100.796887</ele>
        <time>2023-01-05T09:26:50.440Z</time>
      </trkpt>
      <trkpt lat="39.73349" lon="2.9841">
        <ele>100.715758</ele>
        <time>2023-01-05T09:26:54.441Z</time>
      </trkpt>
      <trkpt lat="39.73338" lon="2.98411">
        <ele>100.638561</ele>
        <time>2023-01-05T09:26:58.438Z</time>
      </trkpt>
      <trkpt lat="39.73328" lon="2.98412">
        <ele>100.560286</ele>
        <time>2023-01-05T09:27:02.439Z</time>
      </trkpt>
      <trkpt lat="39.73317" lon="2.98413">
        <ele>100.484777</ele>
        <time>2023-01-05T09:27:06.453Z</time>
      </trkpt>
      <trkpt lat="39.73306" lon="2.98414">
        <ele>100.403237</ele>
        <time>2023-01-05T09:27:11.416Z</time>
      </trkpt>
      <trkpt lat="39.73297" lon="2.98416">
        <ele>100.331969</ele>
        <time>2023-01-05T09:27:15.439Z</time>
      </trkpt>
      <trkpt lat="39.73286" lon="2.98417">
        <ele>100.251267</ele>
        <time>2023-01-05T09:27:19.452Z</time>
      </trkpt>
      <trkpt lat="39.73277" lon="2.98417">
        <ele>100.184831</ele>
        <time>2023-01-05T09:27:22.446Z</time>
      </trkpt>
      <trkpt lat="39.73267" lon="2.98418">
        <ele>100.110916</ele>
        <time>2023-01-05T09:27:25.431Z</time>
      </trkpt>
      <trkpt lat="39.73257" lon="2.9842">
        <ele>100.060564</ele>
        <time>2023-01-05T09:27:28.451Z</time>
      </trkpt>
      <trkpt lat="39.73247" lon="2.98422">
        <ele>100.027894</ele>
        <time>2023-01-05T09:27:31.431Z</time>
      </trkpt>
      <trkpt lat="39.73236" lon="2.98422">
        <ele>99.994196</ele>
        <time>2023-01-05T09:27:34.422Z</time>
      </trkpt>
      <trkpt lat="39.73225" lon="2.98423">
        <ele>99.960147</ele>
        <time>2023-01-05T09:27:37.434Z</time>
      </trkpt>
      <trkpt lat="39.73215" lon="2.98425">
        <ele>99.926118</ele>
        <time>2023-01-05T09:27:40.437Z</time>
      </trkpt>
      <trkpt lat="39.73202" lon="2.98427">
        <ele>99.884633</ele>
        <time>2023-01-05T09:27:43.421Z</time>
      </trkpt>
      <trkpt lat="39.73192" lon="2.98427">
        <ele>99.854745</ele>
        <time>2023-01-05T09:27:45.427Z</time>
      </trkpt>
      <trkpt lat="39.73183" lon="2.98429">
        <ele>99.824397</ele>
        <time>2023-01-05T09:27:47.429Z</time>
      </trkpt>
      <trkpt lat="39.73173" lon="2.9843">
        <ele>99.794365</ele>
        <time>2023-01-05T09:27:49.431Z</time>
      </trkpt>
      <trkpt lat="39.73164" lon="2.98431">
        <ele>99.764697</ele>
        <time>2023-01-05T09:27:51.436Z</time>
      </trkpt>
      <trkpt lat="39.73154" lon="2.98432">
        <ele>99.733664</ele>
        <time>2023-01-05T09:27:53.431Z</time>
      </trkpt>
      <trkpt lat="39.73144" lon="2.98434">
        <ele>99.701368</ele>
        <time>2023-01-05T09:27:55.438Z</time>
      </trkpt>
      <trkpt lat="39.73134" lon="2.98435">
        <ele>99.669779</ele>
        <time>2023-01-05T09:27:57.436Z</time>
      </trkpt>
      <trkpt lat="39.73124" lon="2.98436">
        <ele>99.637599</ele>
        <time>2023-01-05T09:27:59.435Z</time>
      </trkpt>
      <trkpt lat="39.73114" lon="2.98438">
        <ele>99.604066</ele>
        <time>2023-01-05T09:28:01.460Z</time>
      </trkpt>
      <trkpt lat="39.73103" lon="2.98439">
        <ele>99.570619</ele>
        <time>2023-01-05T09:28:03.430Z</time>
      </trkpt>
      <trkpt lat="39.73093" lon="2.98439">
        <ele>99.537204</ele>
        <time>2023-01-05T09:28:05.431Z</time>
      </trkpt>
      <trkpt lat="39.73082" lon="2.98441">
        <ele>99.473507</ele>
        <time>2023-01-05T09:28:07.440Z</time>
      </trkpt>
      <trkpt lat="39.73072" lon="2.98442">
        <ele>99.24071</ele>
        <time>2023-01-05T09:28:09.440Z</time>
      </trkpt>
      <trkpt lat="39.73061" lon="2.98443">
        <ele>99.000916</ele>
        <time>2023-01-05T09:28:11.423Z</time>
      </trkpt>
      <trkpt lat="39.73051" lon="2.98445">
        <ele>98.765901</ele>
        <time>2023-01-05T09:28:13.441Z</time>
      </trkpt>
      <trkpt lat="39.73039" lon="2.98445">
        <ele>98.518362</ele>
        <time>2023-01-05T09:28:15.441Z</time>
      </trkpt>
      <trkpt lat="39.73029" lon="2.98447">
        <ele>98.282998</ele>
        <time>2023-01-05T09:28:17.439Z</time>
      </trkpt>
      <trkpt lat="39.73018" lon="2.98448">
        <ele>98.048533</ele>
        <time>2023-01-05T09:28:19.446Z</time>
      </trkpt>
      <trkpt lat="39.73008" lon="2.98448">
        <ele>97.821158</ele>
        <time>2023-01-05T09:28:21.451Z</time>
      </trkpt>
      <trkpt lat="39.72998" lon="2.98448">
        <ele>97.584818</ele>
        <time>2023-01-05T09:28:23.433Z</time>
      </trkpt>
      <trkpt lat="39.72987" lon="2.98447">
        <ele>97.34841</ele>
        <time>2023-01-05T09:28:25.433Z</time>
      </trkpt>
      <trkpt lat="39.72976" lon="2.98445">
        <ele>97.103134</ele>
        <time>2023-01-05T09:28:27.433Z</time>
      </trkpt>
      <trkpt lat="39.72966" lon="2.98443">
        <ele>96.871089</ele>
        <time>2023-01-05T09:28:29.427Z</time>
      </trkpt>
      <trkpt lat="39.72955" lon="2.98441">
        <ele>96.626269</ele>
        <time>2023-01-05T09:28:31.433Z</time>
      </trkpt>
      <trkpt lat="39.72944" lon="2.98439">
        <ele>96.38587</ele>
        <time>2023-01-05T09:28:33.435Z</time>
      </trkpt>
      <trkpt lat="39.72933" lon="2.98439">
        <ele>96.138331</ele>
        <time>2023-01-05T09:28:35.443Z</time>
      </trkpt>
      <trkpt lat="39.72922" lon="2.98438">
        <ele>95.89285</ele>
        <time>2023-01-05T09:28:37.453Z</time>
      </trkpt>
      <trkpt lat="39.72911" lon="2.98435">
        <ele>95.637157</ele>
        <time>2023-01-05T09:28:39.449Z</time>
      </trkpt>
      <trkpt lat="39.729" lon="2.98433">
        <ele>95.47739</ele>
        <time>2023-01-05T09:28:41.435Z</time>
      </trkpt>
      <trkpt lat="39.72888" lon="2.98431">
        <ele>95.426573</ele>
        <time>2023-01-05T09:28:43.451Z</time>
      </trkpt>
      <trkpt lat="39.72877" lon="2.9843">
        <ele>95.375987</ele>
        <time>2023-01-05T09:28:45.427Z</time>
      </trkpt>
      <trkpt lat="39.72865" lon="2.98429">
        <ele>95.325247</ele>
        <time>2023-01-05T09:28:47.448Z</time>
      </trkpt>
      <trkpt lat="39.72854" lon="2.98427">
        <ele>95.275387</ele>
        <time>2023-01-05T09:28:49.437Z</time>
      </trkpt>
      <trkpt lat="39.72843" lon="2.98426">
        <ele>95.226443</ele>
        <time>2023-01-05T09:28:51.439Z</time>
      </trkpt>
      <trkpt lat="39.72832" lon="2.98423">
        <ele>95.177682</ele>
        <time>2023-01-05T09:28:53.451Z</time>
      </trkpt>
      <trkpt lat="39.72821" lon="2.98422">
        <ele>95.128332</ele>
        <time>2023-01-05T09:28:55.431Z</time>
      </trkpt>
      <trkpt lat="39.7281" lon="2.9842">
        <ele>95.078434</ele>
        <time>2023-01-05T09:28:57.455Z</time>
      </trkpt>
      <trkpt lat="39.728" lon="2.98419">
        <ele>95.031726</ele>
        <time>2023-01-05T09:28:59.432Z</time>
      </trkpt>
      <trkpt lat="39.72789" lon="2.98417">
        <ele>94.984277</ele>
        <time>2023-01-05T09:29:01.452Z</time>
      </trkpt>
      <trkpt lat="39.72778" lon="2.98415">
        <ele>94.933899</ele>
        <time>2023-01-05T09:29:03.432Z</time>
      </trkpt>
      <trkpt lat="39.72767" lon="2.98413">
        <ele>94.885716</ele>
        <time>2023-01-05T09:29:05.418Z</time>
      </trkpt>
      <trkpt lat="39.72756" lon="2.98412">
        <ele>94.838092</ele>
        <time>2023-01-05T09:29:07.434Z</time>
      </trkpt>
      <trkpt lat="39.72746" lon="2.98409">
        <ele>94.790916</ele>
        <time>2023-01-05T09:29:09.438Z</time>
      </trkpt>
      <trkpt lat="39.72735" lon="2.98407">
        <ele>94.742642</ele>
        <time>2023-01-05T09:29:11.423Z</time>
      </trkpt>
      <trkpt lat="39.72724" lon="2.98405">
        <ele>94.72022</ele>
        <time>2023-01-05T09:29:13.442Z</time>
      </trkpt>
      <trkpt lat="39.72714" lon="2.98404">
        <ele>94.803733</ele>
        <time>2023-01-05T09:29:15.427Z</time>
      </trkpt>
      <trkpt lat="39.72703" lon="2.98403">
        <ele>94.887051</ele>
        <time>2023-01-05T09:29:17.444Z</time>
      </trkpt>
      <trkpt lat="39.72693" lon="2.98402">
        <ele>94.96972</ele>
        <time>2023-01-05T09:29:19.428Z</time>
      </trkpt>
      <trkpt lat="39.72683" lon="2.984">
        <ele>95.051223</ele>
        <time>2023-01-05T09:29:21.430Z</time>
      </trkpt>
      <trkpt lat="39.72672" lon="2.98399">
        <ele>95.134736</ele>
        <time>2023-01-05T09:29:23.431Z</time>
      </trkpt>
      <trkpt lat="39.72662" lon="2.98397">
        <ele>95.216084</ele>
        <time>2023-01-05T09:29:25.432Z</time>
      </trkpt>
      <trkpt lat="39.72652" lon="2.98395">
        <ele>95.296887</ele>
        <time>2023-01-05T09:29:27.426Z</time>
      </trkpt>
      <trkpt lat="39.72642" lon="2.98394">
        <ele>95.375736</ele>
        <time>2023-01-05T09:29:29.421Z</time>
      </trkpt>
      <trkpt lat="39.72632" lon="2.98392">
        <ele>95.456628</ele>
        <time>2023-01-05T09:29:31.433Z</time>
      </trkpt>
      <trkpt lat="39.72621" lon="2.9839">
        <ele>95.540334</ele>
        <time>2023-01-05T09:29:33.425Z</time>
      </trkpt>
      <trkpt lat="39.72611" lon="2.98389">
        <ele>95.623908</ele>
        <time>2023-01-05T09:29:35.441Z</time>
      </trkpt>
      <trkpt lat="39.72601" lon="2.98388">
        <ele>95.705543</ele>
        <time>2023-01-05T09:29:37.437Z</time>
      </trkpt>
      <trkpt lat="39.7259" lon="2.98387">
        <ele>95.787607</ele>
        <time>2023-01-05T09:29:39.431Z</time>
      </trkpt>
      <trkpt lat="39.7258" lon="2.98384">
        <ele>95.873381</ele>
        <time>2023-01-05T09:29:41.431Z</time>
      </trkpt>
      <trkpt lat="39.7257" lon="2.98383">
        <ele>95.953084</ele>
        <time>2023-01-05T09:29:43.431Z</time>
      </trkpt>
      <trkpt lat="39.7256" lon="2.9838">
        <ele>96.029721</ele>
        <time>2023-01-05T09:29:45.442Z</time>
      </trkpt>
      <trkpt lat="39.7255" lon="2.98377">
        <ele>96.109301</ele>
        <time>2023-01-05T09:29:47.426Z</time>
      </trkpt>
      <trkpt lat="39.72541" lon="2.98374">
        <ele>96.163334</ele>
        <time>2023-01-05T09:29:49.426Z</time>
      </trkpt>
      <trkpt lat="39.72532" lon="2.98372">
        <ele>96.208527</ele>
        <time>2023-01-05T09:29:51.430Z</time>
      </trkpt>
      <trkpt lat="39.72523" lon="2.9837">
        <ele>96.254306</ele>
        <time>2023-01-05T09:29:53.420Z</time>
      </trkpt>
      <trkpt lat="39.72513" lon="2.98367">
        <ele>96.301672</ele>
        <time>2023-01-05T09:29:55.434Z</time>
      </trkpt>
      <trkpt lat="39.72504" lon="2.98364">
        <ele>96.346735</ele>
        <time>2023-01-05T09:29:57.440Z</time>
      </trkpt>
      <trkpt lat="39.72494" lon="2.98361">
        <ele>96.395602</ele>
        <time>2023-01-05T09:29:59.437Z</time>
      </trkpt>
      <trkpt lat="39.72485" lon="2.98359">
        <ele>96.440665</ele>
        <time>2023-01-05T09:30:01.413Z</time>
      </trkpt>
      <trkpt lat="39.72476" lon="2.98355">
        <ele>96.486712</ele>
        <time>2023-01-05T09:30:03.434Z</time>
      </trkpt>
      <trkpt lat="39.72463" lon="2.98351">
        <ele>96.552381</ele>
        <time>2023-01-05T09:30:06.452Z</time>
      </trkpt>
      <trkpt lat="39.72454" lon="2.98349">
        <ele>96.596577</ele>
        <time>2023-01-05T09:30:08.436Z</time>
      </trkpt>
      <trkpt lat="39.72445" lon="2.98346">
        <ele>96.641972</ele>
        <time>2023-01-05T09:30:10.455Z</time>
      </trkpt>
      <trkpt lat="39.72436" lon="2.98343">
        <ele>96.687509</ele>
        <time>2023-01-05T09:30:12.438Z</time>
      </trkpt>
      <trkpt lat="39.72426" lon="2.98341">
        <ele>96.733047</ele>
        <time>2023-01-05T09:30:14.434Z</time>
      </trkpt>
      <trkpt lat="39.72414" lon="2.98337">
        <ele>96.796187</ele>
        <time>2023-01-05T09:30:17.448Z</time>
      </trkpt>
      <trkpt lat="39.72401" lon="2.98333">
        <ele>96.859884</ele>
        <time>2023-01-05T09:30:20.433Z</time>
      </trkpt>
      <trkpt lat="39.72389" lon="2.98329">
        <ele>96.918783</ele>
        <time>2023-01-05T09:30:23.425Z</time>
      </trkpt>
      <trkpt lat="39.72377" lon="2.98326">
        <ele>96.980508</ele>
        <time>2023-01-05T09:30:26.443Z</time>
      </trkpt>
      <trkpt lat="39.72364" lon="2.98322">
        <ele>96.967336</ele>
        <time>2023-01-05T09:30:29.435Z</time>
      </trkpt>
      <trkpt lat="39.72351" lon="2.98318">
        <ele>96.920543</ele>
        <time>2023-01-05T09:30:32.439Z</time>
      </trkpt>
      <trkpt lat="39.72339" lon="2.98314">
        <ele>96.874101</ele>
        <time>2023-01-05T09:30:35.433Z</time>
      </trkpt>
      <trkpt lat="39.72327" lon="2.98311">
        <ele>96.829257</ele>
        <time>2023-01-05T09:30:38.437Z</time>
      </trkpt>
      <trkpt lat="39.72315" lon="2.98307">
        <ele>96.78555</ele>
        <time>2023-01-05T09:30:41.439Z</time>
      </trkpt>
      <trkpt lat="39.72303" lon="2.98303">
        <ele>96.740579</ele>
        <time>2023-01-05T09:30:44.444Z</time>
      </trkpt>
      <trkpt lat="39.7229" lon="2.98299">
        <ele>96.693145</ele>
        <time>2023-01-05T09:30:47.425Z</time>
      </trkpt>
      <trkpt lat="39.72277" lon="2.98296">
        <ele>96.646477</ele>
        <time>2023-01-05T09:30:50.423Z</time>
      </trkpt>
      <trkpt lat="39.72269" lon="2.98292">
        <ele>96.613479</ele>
        <time>2023-01-05T09:30:52.423Z</time>
      </trkpt>
      <trkpt lat="39.72257" lon="2.98285">
        <ele>96.567179</ele>
        <time>2023-01-05T09:30:55.436Z</time>
      </trkpt>
      <trkpt lat="39.72245" lon="2.98278">
        <ele>96.519759</ele>
        <time>2023-01-05T09:30:58.428Z</time>
      </trkpt>
      <trkpt lat="39.72233" lon="2.9827">
        <ele>96.472184</ele>
        <time>2023-01-05T09:31:01.435Z</time>
      </trkpt>
      <trkpt lat="39.72221" lon="2.98263">
        <ele>96.422892</ele>
        <time>2023-01-05T09:31:04.442Z</time>
      </trkpt>
      <trkpt lat="39.72213" lon="2.98257">
        <ele>96.390517</ele>
        <time>2023-01-05T09:31:06.443Z</time>
      </trkpt>
      <trkpt lat="39.72202" lon="2.9825">
        <ele>96.344191</ele>
        <time>2023-01-05T09:31:09.448Z</time>
      </trkpt>
      <trkpt lat="39.72194" lon="2.98245">
        <ele>96.294678</ele>
        <time>2023-01-05T09:31:11.426Z</time>
      </trkpt>
      <trkpt lat="39.72182" lon="2.98238">
        <ele>96.22504</ele>
        <time>2023-01-05T09:31:14.424Z</time>
      </trkpt>
      <trkpt lat="39.72172" lon="2.98231">
        <ele>96.161244</ele>
        <time>2023-01-05T09:31:17.411Z</time>
      </trkpt>
      <trkpt lat="39.72161" lon="2.98224">
        <ele>96.098815</ele>
        <time>2023-01-05T09:31:20.438Z</time>
      </trkpt>
      <trkpt lat="39.72151" lon="2.98218">
        <ele>96.035902</ele>
        <time>2023-01-05T09:31:23.433Z</time>
      </trkpt>
      <trkpt lat="39.7214" lon="2.98211">
        <ele>95.970819</ele>
        <time>2023-01-05T09:31:26.432Z</time>
      </trkpt>
      <trkpt lat="39.72129" lon="2.98204">
        <ele>95.90522</ele>
        <time>2023-01-05T09:31:29.454Z</time>
      </trkpt>
      <trkpt lat="39.72119" lon="2.98197">
        <ele>95.843917</ele>
        <time>2023-01-05T09:31:32.433Z</time>
      </trkpt>
      <trkpt lat="39.72108" lon="2.98192">
        <ele>95.78274</ele>
        <time>2023-01-05T09:31:35.434Z</time>
      </trkpt>
      <trkpt lat="39.72097" lon="2.98185">
        <ele>95.715656</ele>
        <time>2023-01-05T09:31:38.453Z</time>
      </trkpt>
      <trkpt lat="39.72087" lon="2.98179">
        <ele>95.656108</ele>
        <time>2023-01-05T09:31:41.452Z</time>
      </trkpt>
      <trkpt lat="39.72083" lon="2.98164">
        <ele>95.59141</ele>
        <time>2023-01-05T09:31:44.424Z</time>
      </trkpt>
      <trkpt lat="39.72081" lon="2.98151">
        <ele>95.533724</ele>
        <time>2023-01-05T09:31:47.435Z</time>
      </trkpt>
      <trkpt lat="39.72079" lon="2.98137">
        <ele>95.475128</ele>
        <time>2023-01-05T09:31:50.424Z</time>
      </trkpt>
      <trkpt lat="39.72077" lon="2.98123">
        <ele>95.415027</ele>
        <time>2023-01-05T09:31:53.439Z</time>
      </trkpt>
      <trkpt lat="39.72075" lon="2.98109">
        <ele>95.388253</ele>
        <time>2023-01-05T09:31:56.441Z</time>
      </trkpt>
      <trkpt lat="39.72072" lon="2.98094">
        <ele>95.421581</ele>
        <time>2023-01-05T09:31:59.438Z</time>
      </trkpt>
      <trkpt lat="39.7207" lon="2.98079">
        <ele>95.456224</ele>
        <time>2023-01-05T09:32:02.433Z</time>
      </trkpt>
      <trkpt lat="39.72067" lon="2.98063">
        <ele>95.490996</ele>
        <time>2023-01-05T09:32:05.443Z</time>
      </trkpt>
      <trkpt lat="39.72064" lon="2.98048">
        <ele>95.526119</ele>
        <time>2023-01-05T09:32:08.443Z</time>
      </trkpt>
      <trkpt lat="39.72061" lon="2.98032">
        <ele>95.562059</ele>
        <time>2023-01-05T09:32:11.438Z</time>
      </trkpt>
      <trkpt lat="39.72059" lon="2.98016">
        <ele>95.598157</ele>
        <time>2023-01-05T09:32:14.438Z</time>
      </trkpt>
      <trkpt lat="39.72056" lon="2.98">
        <ele>95.634221</ele>
        <time>2023-01-05T09:32:17.437Z</time>
      </trkpt>
      <trkpt lat="39.72053" lon="2.97984">
        <ele>95.67016</ele>
        <time>2023-01-05T09:32:20.439Z</time>
      </trkpt>
      <trkpt lat="39.72051" lon="2.97968">
        <ele>95.706224</ele>
        <time>2023-01-05T09:32:23.435Z</time>
      </trkpt>
      <trkpt lat="39.72048" lon="2.97952">
        <ele>95.742597</ele>
        <time>2023-01-05T09:32:26.445Z</time>
      </trkpt>
      <trkpt lat="39.72045" lon="2.97936">
        <ele>95.779307</ele>
        <time>2023-01-05T09:32:29.444Z</time>
      </trkpt>
      <trkpt lat="39.72042" lon="2.97919">
        <ele>95.816881</ele>
        <time>2023-01-05T09:32:32.448Z</time>
      </trkpt>
      <trkpt lat="39.7204" lon="2.97903">
        <ele>95.854671</ele>
        <time>2023-01-05T09:32:35.438Z</time>
      </trkpt>
      <trkpt lat="39.72037" lon="2.97886">
        <ele>95.892739</ele>
        <time>2023-01-05T09:32:38.415Z</time>
      </trkpt>
      <trkpt lat="39.72034" lon="2.9787">
        <ele>95.967705</ele>
        <time>2023-01-05T09:32:41.436Z</time>
      </trkpt>
      <trkpt lat="39.72031" lon="2.97853">
        <ele>96.044573</ele>
        <time>2023-01-05T09:32:44.437Z</time>
      </trkpt>
      <trkpt lat="39.72028" lon="2.97836">
        <ele>96.122843</ele>
        <time>2023-01-05T09:32:47.430Z</time>
      </trkpt>
      <trkpt lat="39.72025" lon="2.9782">
        <ele>96.199522</ele>
        <time>2023-01-05T09:32:50.441Z</time>
      </trkpt>
      <trkpt lat="39.72022" lon="2.97803">
        <ele>96.279692</ele>
        <time>2023-01-05T09:32:53.425Z</time>
      </trkpt>
      <trkpt lat="39.72019" lon="2.97786">
        <ele>96.357126</ele>
        <time>2023-01-05T09:32:56.428Z</time>
      </trkpt>
      <trkpt lat="39.72016" lon="2.97769">
        <ele>96.434076</ele>
        <time>2023-01-05T09:32:59.458Z</time>
      </trkpt>
      <trkpt lat="39.72012" lon="2.97753">
        <ele>96.512107</ele>
        <time>2023-01-05T09:33:02.433Z</time>
      </trkpt>
      <trkpt lat="39.72009" lon="2.97742">
        <ele>96.565376</ele>
        <time>2023-01-05T09:33:04.444Z</time>
      </trkpt>
      <trkpt lat="39.72007" lon="2.9773">
        <ele>96.619245</ele>
        <time>2023-01-05T09:33:06.436Z</time>
      </trkpt>
      <trkpt lat="39.72003" lon="2.97715">
        <ele>96.694173</ele>
        <time>2023-01-05T09:33:09.437Z</time>
      </trkpt>
      <trkpt lat="39.71999" lon="2.97698">
        <ele>96.772482</ele>
        <time>2023-01-05T09:33:12.441Z</time>
      </trkpt>
      <trkpt lat="39.71994" lon="2.97682">
        <ele>96.847597</ele>
        <time>2023-01-05T09:33:15.433Z</time>
      </trkpt>
      <trkpt lat="39.7199" lon="2.97667">
        <ele>96.924357</ele>
        <time>2023-01-05T09:33:18.415Z</time>
      </trkpt>
      <trkpt lat="39.71985" lon="2.97651">
        <ele>97.034406</ele>
        <time>2023-01-05T09:33:21.448Z</time>
      </trkpt>
      <trkpt lat="39.7198" lon="2.97636">
        <ele>97.166025</ele>
        <time>2023-01-05T09:33:24.413Z</time>
      </trkpt>
      <trkpt lat="39.71974" lon="2.97621">
        <ele>97.29932</ele>
        <time>2023-01-05T09:33:27.434Z</time>
      </trkpt>
      <trkpt lat="39.71968" lon="2.97606">
        <ele>97.433823</ele>
        <time>2023-01-05T09:33:30.432Z</time>
      </trkpt>
      <trkpt lat="39.71962" lon="2.97591">
        <ele>97.56389</ele>
        <time>2023-01-05T09:33:33.432Z</time>
      </trkpt>
      <trkpt lat="39.71956" lon="2.97577">
        <ele>97.689701</ele>
        <time>2023-01-05T09:33:36.446Z</time>
      </trkpt>
      <trkpt lat="39.7195" lon="2.97564">
        <ele>97.80947</ele>
        <time>2023-01-05T09:33:39.438Z</time>
      </trkpt>
      <trkpt lat="39.71945" lon="2.97551">
        <ele>97.929746</ele>
        <time>2023-01-05T09:33:42.434Z</time>
      </trkpt>
      <trkpt lat="39.71938" lon="2.97538">
        <ele>98.05176</ele>
        <time>2023-01-05T09:33:45.427Z</time>
      </trkpt>
      <trkpt lat="39.71931" lon="2.97525">
        <ele>98.174257</ele>
        <time>2023-01-05T09:33:48.429Z</time>
      </trkpt>
      <trkpt lat="39.71925" lon="2.97513">
        <ele>98.289208</ele>
        <time>2023-01-05T09:33:51.434Z</time>
      </trkpt>
      <trkpt lat="39.71919" lon="2.97501">
        <ele>98.408013</ele>
        <time>2023-01-05T09:33:54.431Z</time>
      </trkpt>
      <trkpt lat="39.71912" lon="2.97489">
        <ele>98.524669</ele>
        <time>2023-01-05T09:33:57.432Z</time>
      </trkpt>
      <trkpt lat="39.71905" lon="2.97477">
        <ele>98.638906</ele>
        <time>2023-01-05T09:34:00.417Z</time>
      </trkpt>
      <trkpt lat="39.71899" lon="2.97465">
        <ele>98.757054</ele>
        <time>2023-01-05T09:34:03.427Z</time>
      </trkpt>
      <trkpt lat="39.71892" lon="2.97453">
        <ele>98.914967</ele>
        <time>2023-01-05T09:34:06.434Z</time>
      </trkpt>
      <trkpt lat="39.71886" lon="2.97441">
        <ele>99.088997</ele>
        <time>2023-01-05T09:34:09.453Z</time>
      </trkpt>
      <trkpt lat="39.71879" lon="2.9743">
        <ele>99.268704</ele>
        <time>2023-01-05T09:34:12.447Z</time>
      </trkpt>
      <trkpt lat="39.71872" lon="2.97418">
        <ele>99.453279</ele>
        <time>2023-01-05T09:34:15.442Z</time>
      </trkpt>
      <trkpt lat="39.71866" lon="2.97406">
        <ele>99.625806</ele>
        <time>2023-01-05T09:34:18.436Z</time>
      </trkpt>
      <trkpt lat="39.7186" lon="2.97394">
        <ele>99.802686</ele>
        <time>2023-01-05T09:34:21.434Z</time>
      </trkpt>
      <trkpt lat="39.71853" lon="2.97382">
        <ele>99.987372</ele>
        <time>2023-01-05T09:34:24.451Z</time>
      </trkpt>
      <trkpt lat="39.71846" lon="2.97371">
        <ele>100.168035</ele>
        <time>2023-01-05T09:34:27.432Z</time>
      </trkpt>
      <trkpt lat="39.7184" lon="2.97359">
        <ele>100.347033</ele>
        <time>2023-01-05T09:34:30.438Z</time>
      </trkpt>
      <trkpt lat="39.71834" lon="2.97346">
        <ele>100.531908</ele>
        <time>2023-01-05T09:34:33.424Z</time>
      </trkpt>
      <trkpt lat="39.71827" lon="2.97334">
        <ele>100.710722</ele>
        <time>2023-01-05T09:34:36.413Z</time>
      </trkpt>
      <trkpt lat="39.71821" lon="2.97323">
        <ele>100.878986</ele>
        <time>2023-01-05T09:34:39.442Z</time>
      </trkpt>
      <trkpt lat="39.71815" lon="2.97312">
        <ele>101.051844</ele>
        <time>2023-01-05T09:34:42.453Z</time>
      </trkpt>
      <trkpt lat="39.71808" lon="2.97301">
        <ele>101.223743</ele>
        <time>2023-01-05T09:34:45.451Z</time>
      </trkpt>
      <trkpt lat="39.71801" lon="2.97289">
        <ele>101.401539</ele>
        <time>2023-01-05T09:34:48.452Z</time>
      </trkpt>
      <trkpt lat="39.71795" lon="2.97278">
        <ele>101.577725</ele>
        <time>2023-01-05T09:34:51.433Z</time>
      </trkpt>
      <trkpt lat="39.71788" lon="2.97266">
        <ele>101.734537</ele>
        <time>2023-01-05T09:34:54.442Z</time>
      </trkpt>
      <trkpt lat="39.71782" lon="2.97253">
        <ele>101.868736</ele>
        <time>2023-01-05T09:34:57.437Z</time>
      </trkpt>
      <trkpt lat="39.71775" lon="2.9724">
        <ele>102.004209</ele>
        <time>2023-01-05T09:35:00.443Z</time>
      </trkpt>
      <trkpt lat="39.71768" lon="2.97228">
        <ele>102.134685</ele>
        <time>2023-01-05T09:35:03.430Z</time>
      </trkpt>
      <trkpt lat="39.71762" lon="2.97217">
        <ele>102.261081</ele>
        <time>2023-01-05T09:35:06.452Z</time>
      </trkpt>
      <trkpt lat="39.71755" lon="2.97204">
        <ele>102.39503</ele>
        <time>2023-01-05T09:35:09.444Z</time>
      </trkpt>
      <trkpt lat="39.71748" lon="2.97192">
        <ele>102.522846</ele>
        <time>2023-01-05T09:35:12.422Z</time>
      </trkpt>
      <trkpt lat="39.71741" lon="2.9718">
        <ele>102.657543</ele>
        <time>2023-01-05T09:35:15.428Z</time>
      </trkpt>
      <trkpt lat="39.71735" lon="2.97168">
        <ele>102.785973</ele>
        <time>2023-01-05T09:35:18.431Z</time>
      </trkpt>
      <trkpt lat="39.71728" lon="2.97156">
        <ele>102.913737</ele>
        <time>2023-01-05T09:35:21.432Z</time>
      </trkpt>
      <trkpt lat="39.71721" lon="2.97144">
        <ele>103.042166</ele>
        <time>2023-01-05T09:35:24.436Z</time>
      </trkpt>
      <trkpt lat="39.71715" lon="2.97132">
        <ele>103.173487</ele>
        <time>2023-01-05T09:35:27.450Z</time>
      </trkpt>
      <trkpt lat="39.71708" lon="2.97119">
        <ele>103.300828</ele>
        <time>2023-01-05T09:35:30.437Z</time>
      </trkpt>
      <trkpt lat="39.71702" lon="2.97107">
        <ele>103.432742</ele>
        <time>2023-01-05T09:35:33.443Z</time>
      </trkpt>
      <trkpt lat="39.71695" lon="2.97095">
        <ele>103.561346</ele>
        <time>2023-01-05T09:35:36.440Z</time>
      </trkpt>
      <trkpt lat="39.71688" lon="2.97083">
        <ele>103.689745</ele>
        <time>2023-01-05T09:35:39.435Z</time>
      </trkpt>
      <trkpt lat="39.71682" lon="2.97071">
        <ele>103.862974</ele>
        <time>2023-01-05T09:35:42.451Z</time>
      </trkpt>
      <trkpt lat="39.71675" lon="2.9706">
        <ele>104.047262</ele>
        <time>2023-01-05T09:35:45.436Z</time>
      </trkpt>
      <trkpt lat="39.71669" lon="2.97048">
        <ele>104.227679</ele>
        <time>2023-01-05T09:35:48.424Z</time>
      </trkpt>
      <trkpt lat="39.71663" lon="2.97035">
        <ele>104.41765</ele>
        <time>2023-01-05T09:35:51.424Z</time>
      </trkpt>
      <trkpt lat="39.71657" lon="2.97024">
        <ele>104.601227</ele>
        <time>2023-01-05T09:35:54.441Z</time>
      </trkpt>
      <trkpt lat="39.7165" lon="2.97011">
        <ele>104.78785</ele>
        <time>2023-01-05T09:35:57.426Z</time>
      </trkpt>
      <trkpt lat="39.71644" lon="2.97">
        <ele>104.971313</ele>
        <time>2023-01-05T09:36:00.438Z</time>
      </trkpt>
      <trkpt lat="39.71638" lon="2.96989">
        <ele>105.141778</ele>
        <time>2023-01-05T09:36:03.423Z</time>
      </trkpt>
      <trkpt lat="39.71632" lon="2.96979">
        <ele>105.303765</ele>
        <time>2023-01-05T09:36:06.431Z</time>
      </trkpt>
      <trkpt lat="39.71629" lon="2.96967">
        <ele>105.461729</ele>
        <time>2023-01-05T09:36:09.430Z</time>
      </trkpt>
      <trkpt lat="39.71624" lon="2.96955">
        <ele>105.634485</ele>
        <time>2023-01-05T09:36:12.439Z</time>
      </trkpt>
      <trkpt lat="39.71619" lon="2.96942">
        <ele>105.818987</ele>
        <time>2023-01-05T09:36:15.436Z</time>
      </trkpt>
      <trkpt lat="39.71614" lon="2.96929">
        <ele>106.000598</ele>
        <time>2023-01-05T09:36:18.442Z</time>
      </trkpt>
      <trkpt lat="39.7161" lon="2.96917">
        <ele>106.179894</ele>
        <time>2023-01-05T09:36:21.446Z</time>
      </trkpt>
      <trkpt lat="39.71606" lon="2.96903">
        <ele>106.364674</ele>
        <time>2023-01-05T09:36:24.439Z</time>
      </trkpt>
      <trkpt lat="39.71601" lon="2.96889">
        <ele>106.557948</ele>
        <time>2023-01-05T09:36:27.431Z</time>
      </trkpt>
      <trkpt lat="39.71597" lon="2.96876">
        <ele>106.736207</ele>
        <time>2023-01-05T09:36:30.443Z</time>
      </trkpt>
      <trkpt lat="39.71594" lon="2.96862">
        <ele>106.884917</ele>
        <time>2023-01-05T09:36:33.436Z</time>
      </trkpt>
      <trkpt lat="39.7159" lon="2.96848">
        <ele>107.04117</ele>
        <time>2023-01-05T09:36:36.449Z</time>
      </trkpt>
      <trkpt lat="39.71586" lon="2.96835">
        <ele>107.190099</ele>
        <time>2023-01-05T09:36:39.431Z</time>
      </trkpt>
      <trkpt lat="39.71582" lon="2.96821">
        <ele>107.343931</ele>
        <time>2023-01-05T09:36:42.434Z</time>
      </trkpt>
      <trkpt lat="39.71579" lon="2.96808">
        <ele>107.488669</ele>
        <time>2023-01-05T09:36:45.441Z</time>
      </trkpt>
      <trkpt lat="39.71575" lon="2.96794">
        <ele>107.639639</ele>
        <time>2023-01-05T09:36:48.439Z</time>
      </trkpt>
      <trkpt lat="39.71572" lon="2.9678">
        <ele>107.792038</ele>
        <time>2023-01-05T09:36:51.431Z</time>
      </trkpt>
      <trkpt lat="39.71568" lon="2.96767">
        <ele>107.941946</ele>
        <time>2023-01-05T09:36:54.437Z</time>
      </trkpt>
      <trkpt lat="39.71564" lon="2.96753">
        <ele>108.091836</ele>
        <time>2023-01-05T09:36:57.435Z</time>
      </trkpt>
      <trkpt lat="39.7156" lon="2.96739">
        <ele>108.243705</ele>
        <time>2023-01-05T09:37:00.434Z</time>
      </trkpt>
      <trkpt lat="39.71556" lon="2.96726">
        <ele>108.391813</ele>
        <time>2023-01-05T09:37:03.429Z</time>
      </trkpt>
      <trkpt lat="39.71552" lon="2.96713">
        <ele>108.537323</ele>
        <time>2023-01-05T09:37:06.436Z</time>
      </trkpt>
      <trkpt lat="39.71548" lon="2.96701">
        <ele>108.674805</ele>
        <time>2023-01-05T09:37:09.435Z</time>
      </trkpt>
      <trkpt lat="39.71543" lon="2.9669">
        <ele>108.81033</ele>
        <time>2023-01-05T09:37:12.433Z</time>
      </trkpt>
      <trkpt lat="39.71538" lon="2.96679">
        <ele>108.938697</ele>
        <time>2023-01-05T09:37:15.447Z</time>
      </trkpt>
      <trkpt lat="39.71534" lon="2.96669">
        <ele>109.062471</ele>
        <time>2023-01-05T09:37:18.430Z</time>
      </trkpt>
      <trkpt lat="39.71529" lon="2.96659">
        <ele>109.164882</ele>
        <time>2023-01-05T09:37:21.423Z</time>
      </trkpt>
      <trkpt lat="39.71522" lon="2.96646">
        <ele>109.242747</ele>
        <time>2023-01-05T09:37:25.430Z</time>
      </trkpt>
      <trkpt lat="39.71517" lon="2.96637">
        <ele>109.301546</ele>
        <time>2023-01-05T09:37:28.424Z</time>
      </trkpt>
      <trkpt lat="39.71511" lon="2.96627">
        <ele>109.364266</ele>
        <time>2023-01-05T09:37:31.434Z</time>
      </trkpt>
      <trkpt lat="39.71505" lon="2.96617">
        <ele>109.427379</ele>
        <time>2023-01-05T09:37:34.435Z</time>
      </trkpt>
      <trkpt lat="39.71499" lon="2.96607">
        <ele>109.488165</ele>
        <time>2023-01-05T09:37:37.427Z</time>
      </trkpt>
      <trkpt lat="39.71492" lon="2.96599">
        <ele>109.547872</ele>
        <time>2023-01-05T09:37:40.430Z</time>
      </trkpt>
      <trkpt lat="39.71486" lon="2.9659">
        <ele>109.607634</ele>
        <time>2023-01-05T09:37:43.432Z</time>
      </trkpt>
      <trkpt lat="39.71479" lon="2.96582">
        <ele>109.668496</ele>
        <time>2023-01-05T09:37:46.414Z</time>
      </trkpt>
      <trkpt lat="39.71472" lon="2.96574">
        <ele>109.729665</ele>
        <time>2023-01-05T09:37:49.438Z</time>
      </trkpt>
      <trkpt lat="39.71465" lon="2.96567">
        <ele>109.789542</ele>
        <time>2023-01-05T09:37:52.441Z</time>
      </trkpt>
      <trkpt lat="39.71455" lon="2.96558">
        <ele>109.867879</ele>
        <time>2023-01-05T09:37:56.429Z</time>
      </trkpt>
      <trkpt lat="39.71446" lon="2.96548">
        <ele>109.944303</ele>
        <time>2023-01-05T09:38:00.424Z</time>
      </trkpt>
      <trkpt lat="39.71439" lon="2.96542">
        <ele>110.003534</ele>
        <time>2023-01-05T09:38:03.422Z</time>
      </trkpt>
      <trkpt lat="39.71429" lon="2.96533">
        <ele>110.078717</ele>
        <time>2023-01-05T09:38:07.436Z</time>
      </trkpt>
      <trkpt lat="39.71419" lon="2.96525">
        <ele>110.153629</ele>
        <time>2023-01-05T09:38:11.428Z</time>
      </trkpt>
      <trkpt lat="39.71409" lon="2.96517">
        <ele>110.23261</ele>
        <time>2023-01-05T09:38:15.435Z</time>
      </trkpt>
      <trkpt lat="39.714" lon="2.96511">
        <ele>110.297303</ele>
        <time>2023-01-05T09:38:18.434Z</time>
      </trkpt>
      <trkpt lat="39.71392" lon="2.96507">
        <ele>110.463689</ele>
        <time>2023-01-05T09:38:21.447Z</time>
      </trkpt>
      <trkpt lat="39.71381" lon="2.96501">
        <ele>110.738223</ele>
        <time>2023-01-05T09:38:25.440Z</time>
      </trkpt>
      <trkpt lat="39.71373" lon="2.96494">
        <ele>110.974377</ele>
        <time>2023-01-05T09:38:28.422Z</time>
      </trkpt>
      <trkpt lat="39.71365" lon="2.9649">
        <ele>111.193972</ele>
        <time>2023-01-05T09:38:31.426Z</time>
      </trkpt>
      <trkpt lat="39.71357" lon="2.96484">
        <ele>111.414498</ele>
        <time>2023-01-05T09:38:34.433Z</time>
      </trkpt>
      <trkpt lat="39.71346" lon="2.96479">
        <ele>111.679346</ele>
        <time>2023-01-05T09:38:38.422Z</time>
      </trkpt>
      <trkpt lat="39.71337" lon="2.96474">
        <ele>111.92313</ele>
        <time>2023-01-05T09:38:42.422Z</time>
      </trkpt>
      <trkpt lat="39.71328" lon="2.96467">
        <ele>112.1856</ele>
        <time>2023-01-05T09:38:46.416Z</time>
      </trkpt>
      <trkpt lat="39.71318" lon="2.9646">
        <ele>112.444249</ele>
        <time>2023-01-05T09:38:50.421Z</time>
      </trkpt>
      <trkpt lat="39.71309" lon="2.96454">
        <ele>112.696898</ele>
        <time>2023-01-05T09:38:54.418Z</time>
      </trkpt>
      <trkpt lat="39.71299" lon="2.96446">
        <ele>112.968605</ele>
        <time>2023-01-05T09:38:59.436Z</time>
      </trkpt>
      <trkpt lat="39.71292" lon="2.96439">
        <ele>113.197722</ele>
        <time>2023-01-05T09:39:03.413Z</time>
      </trkpt>
      <trkpt lat="39.71284" lon="2.9643">
        <ele>113.447415</ele>
        <time>2023-01-05T09:39:07.438Z</time>
      </trkpt>
      <trkpt lat="39.71276" lon="2.9642">
        <ele>113.724009</ele>
        <time>2023-01-05T09:39:11.424Z</time>
      </trkpt>
      <trkpt lat="39.71268" lon="2.96409">
        <ele>113.997339</ele>
        <time>2023-01-05T09:39:15.432Z</time>
      </trkpt>
      <trkpt lat="39.71262" lon="2.964">
        <ele>114.215158</ele>
        <time>2023-01-05T09:39:18.425Z</time>
      </trkpt>
      <trkpt lat="39.71256" lon="2.96391">
        <ele>114.442149</ele>
        <time>2023-01-05T09:39:21.433Z</time>
      </trkpt>
      <trkpt lat="39.71252" lon="2.9638">
        <ele>114.659608</ele>
        <time>2023-01-05T09:39:24.440Z</time>
      </trkpt>
      <trkpt lat="39.71247" lon="2.9637">
        <ele>114.861155</ele>
        <time>2023-01-05T09:39:27.435Z</time>
      </trkpt>
      <trkpt lat="39.71242" lon="2.96356">
        <ele>115.122077</ele>
        <time>2023-01-05T09:39:31.425Z</time>
      </trkpt>
      <trkpt lat="39.71237" lon="2.96342">
        <ele>115.385065</ele>
        <time>2023-01-05T09:39:35.424Z</time>
      </trkpt>
      <trkpt lat="39.71234" lon="2.96331">
        <ele>115.586007</ele>
        <time>2023-01-05T09:39:38.436Z</time>
      </trkpt>
      <trkpt lat="39.71231" lon="2.96316">
        <ele>115.848303</ele>
        <time>2023-01-05T09:39:42.419Z</time>
      </trkpt>
      <trkpt lat="39.71228" lon="2.96304">
        <ele>116.055285</ele>
        <time>2023-01-05T09:39:45.438Z</time>
      </trkpt>
      <trkpt lat="39.71227" lon="2.96292">
        <ele>116.262988</ele>
        <time>2023-01-05T09:39:48.420Z</time>
      </trkpt>
      <trkpt lat="39.71225" lon="2.96279">
        <ele>116.474826</ele>
        <time>2023-01-05T09:39:51.452Z</time>
      </trkpt>
      <trkpt lat="39.71223" lon="2.96267">
        <ele>116.680959</ele>
        <time>2023-01-05T09:39:54.426Z</time>
      </trkpt>
      <trkpt lat="39.71221" lon="2.96253">
        <ele>116.928343</ele>
        <time>2023-01-05T09:39:58.436Z</time>
      </trkpt>
      <trkpt lat="39.7122" lon="2.96238">
        <ele>117.17842</ele>
        <time>2023-01-05T09:40:02.424Z</time>
      </trkpt>
      <trkpt lat="39.71221" lon="2.96225">
        <ele>117.405515</ele>
        <time>2023-01-05T09:40:06.436Z</time>
      </trkpt>
      <trkpt lat="39.7122" lon="2.96219">
        <ele>117.492645</ele>
        <time>2023-01-05T09:40:09.209Z</time>
      </trkpt>
      <trkpt lat="39.71214" lon="2.96197">
        <ele>117.897455</ele>
        <time>2023-01-05T09:42:37.438Z</time>
      </trkpt>
      <trkpt lat="39.71212" lon="2.96182">
        <ele>118.149503</ele>
        <time>2023-01-05T09:42:41.435Z</time>
      </trkpt>
      <trkpt lat="39.71207" lon="2.96168">
        <ele>118.406173</ele>
        <time>2023-01-05T09:42:45.434Z</time>
      </trkpt>
      <trkpt lat="39.71203" lon="2.96155">
        <ele>118.575152</ele>
        <time>2023-01-05T09:42:48.429Z</time>
      </trkpt>
      <trkpt lat="39.71199" lon="2.96143">
        <ele>118.426626</ele>
        <time>2023-01-05T09:42:51.418Z</time>
      </trkpt>
      <trkpt lat="39.71193" lon="2.9613">
        <ele>118.268655</ele>
        <time>2023-01-05T09:42:54.447Z</time>
      </trkpt>
      <trkpt lat="39.71188" lon="2.96119">
        <ele>118.129146</ele>
        <time>2023-01-05T09:42:57.435Z</time>
      </trkpt>
      <trkpt lat="39.71181" lon="2.96106">
        <ele>117.966344</ele>
        <time>2023-01-05T09:43:00.437Z</time>
      </trkpt>
      <trkpt lat="39.71172" lon="2.96094">
        <ele>117.789275</ele>
        <time>2023-01-05T09:43:03.436Z</time>
      </trkpt>
      <trkpt lat="39.71162" lon="2.96082">
        <ele>117.601867</ele>
        <time>2023-01-05T09:43:06.425Z</time>
      </trkpt>
      <trkpt lat="39.71155" lon="2.96073">
        <ele>117.469229</ele>
        <time>2023-01-05T09:43:08.429Z</time>
      </trkpt>
      <trkpt lat="39.71148" lon="2.96065">
        <ele>117.332017</ele>
        <time>2023-01-05T09:43:10.439Z</time>
      </trkpt>
      <trkpt lat="39.7114" lon="2.96057">
        <ele>117.193419</ele>
        <time>2023-01-05T09:43:12.422Z</time>
      </trkpt>
      <trkpt lat="39.71131" lon="2.9605">
        <ele>117.047374</ele>
        <time>2023-01-05T09:43:14.433Z</time>
      </trkpt>
      <trkpt lat="39.71122" lon="2.96043">
        <ele>116.897623</ele>
        <time>2023-01-05T09:43:16.421Z</time>
      </trkpt>
      <trkpt lat="39.71112" lon="2.96036">
        <ele>116.741123</ele>
        <time>2023-01-05T09:43:18.428Z</time>
      </trkpt>
      <trkpt lat="39.71101" lon="2.9603">
        <ele>116.577908</ele>
        <time>2023-01-05T09:43:20.433Z</time>
      </trkpt>
      <trkpt lat="39.71089" lon="2.96025">
        <ele>116.411267</ele>
        <time>2023-01-05T09:43:22.425Z</time>
      </trkpt>
      <trkpt lat="39.71078" lon="2.96017">
        <ele>116.236645</ele>
        <time>2023-01-05T09:43:24.442Z</time>
      </trkpt>
      <trkpt lat="39.71069" lon="2.96006">
        <ele>116.091305</ele>
        <time>2023-01-05T09:43:26.449Z</time>
      </trkpt>
      <trkpt lat="39.71059" lon="2.95999">
        <ele>116.020009</ele>
        <time>2023-01-05T09:43:28.448Z</time>
      </trkpt>
      <trkpt lat="39.71049" lon="2.95999">
        <ele>115.958193</ele>
        <time>2023-01-05T09:43:30.439Z</time>
      </trkpt>
      <trkpt lat="39.71039" lon="2.96002">
        <ele>115.895086</ele>
        <time>2023-01-05T09:43:32.436Z</time>
      </trkpt>
      <trkpt lat="39.71028" lon="2.96002">
        <ele>115.827821</ele>
        <time>2023-01-05T09:43:34.438Z</time>
      </trkpt>
      <trkpt lat="39.71016" lon="2.95995">
        <ele>115.752649</ele>
        <time>2023-01-05T09:43:36.439Z</time>
      </trkpt>
      <trkpt lat="39.71007" lon="2.95987">
        <ele>115.687089</ele>
        <time>2023-01-05T09:43:38.446Z</time>
      </trkpt>
      <trkpt lat="39.71" lon="2.9598">
        <ele>115.630375</ele>
        <time>2023-01-05T09:43:40.448Z</time>
      </trkpt>
      <trkpt lat="39.7099" lon="2.95972">
        <ele>115.560509</ele>
        <time>2023-01-05T09:43:43.426Z</time>
      </trkpt>
      <trkpt lat="39.70981" lon="2.95965">
        <ele>115.498261</ele>
        <time>2023-01-05T09:43:46.435Z</time>
      </trkpt>
      <trkpt lat="39.70973" lon="2.95958">
        <ele>115.437286</ele>
        <time>2023-01-05T09:43:49.434Z</time>
      </trkpt>
      <trkpt lat="39.70965" lon="2.95951">
        <ele>115.37828</ele>
        <time>2023-01-05T09:43:52.425Z</time>
      </trkpt>
      <trkpt lat="39.70956" lon="2.95944">
        <ele>115.316793</ele>
        <time>2023-01-05T09:43:55.452Z</time>
      </trkpt>
      <trkpt lat="39.70948" lon="2.95936">
        <ele>115.253534</ele>
        <time>2023-01-05T09:43:58.453Z</time>
      </trkpt>
      <trkpt lat="39.70939" lon="2.95929">
        <ele>115.192807</ele>
        <time>2023-01-05T09:44:01.429Z</time>
      </trkpt>
      <trkpt lat="39.70931" lon="2.95921">
        <ele>115.131552</ele>
        <time>2023-01-05T09:44:04.453Z</time>
      </trkpt>
      <trkpt lat="39.70922" lon="2.95915">
        <ele>115.070311</ele>
        <time>2023-01-05T09:44:07.458Z</time>
      </trkpt>
      <trkpt lat="39.70913" lon="2.95908">
        <ele>115.06611</ele>
        <time>2023-01-05T09:44:10.452Z</time>
      </trkpt>
      <trkpt lat="39.70905" lon="2.959">
        <ele>115.265559</ele>
        <time>2023-01-05T09:44:13.445Z</time>
      </trkpt>
      <trkpt lat="39.70897" lon="2.95893">
        <ele>115.471717</ele>
        <time>2023-01-05T09:44:16.445Z</time>
      </trkpt>
      <trkpt lat="39.70889" lon="2.95886">
        <ele>115.670406</ele>
        <time>2023-01-05T09:44:19.440Z</time>
      </trkpt>
      <trkpt lat="39.70881" lon="2.95879">
        <ele>115.858738</ele>
        <time>2023-01-05T09:44:22.441Z</time>
      </trkpt>
      <trkpt lat="39.70873" lon="2.95873">
        <ele>116.05402</ele>
        <time>2023-01-05T09:44:25.460Z</time>
      </trkpt>
      <trkpt lat="39.70864" lon="2.95866">
        <ele>116.255929</ele>
        <time>2023-01-05T09:44:28.436Z</time>
      </trkpt>
      <trkpt lat="39.70856" lon="2.95859">
        <ele>116.450209</ele>
        <time>2023-01-05T09:44:31.448Z</time>
      </trkpt>
      <trkpt lat="39.70846" lon="2.95851">
        <ele>116.694548</ele>
        <time>2023-01-05T09:44:35.422Z</time>
      </trkpt>
      <trkpt lat="39.70838" lon="2.95843">
        <ele>116.891448</ele>
        <time>2023-01-05T09:44:38.460Z</time>
      </trkpt>
      <trkpt lat="39.7083" lon="2.95836">
        <ele>117.08229</ele>
        <time>2023-01-05T09:44:41.449Z</time>
      </trkpt>
      <trkpt lat="39.70822" lon="2.9583">
        <ele>117.273299</ele>
        <time>2023-01-05T09:44:44.433Z</time>
      </trkpt>
      <trkpt lat="39.70814" lon="2.95823">
        <ele>117.463514</ele>
        <time>2023-01-05T09:44:47.450Z</time>
      </trkpt>
      <trkpt lat="39.70806" lon="2.95817">
        <ele>117.65188</ele>
        <time>2023-01-05T09:44:50.437Z</time>
      </trkpt>
      <trkpt lat="39.70796" lon="2.95809">
        <ele>117.891969</ele>
        <time>2023-01-05T09:44:54.457Z</time>
      </trkpt>
      <trkpt lat="39.70788" lon="2.95802">
        <ele>118.082979</ele>
        <time>2023-01-05T09:44:57.444Z</time>
      </trkpt>
      <trkpt lat="39.70781" lon="2.95796">
        <ele>118.26538</ele>
        <time>2023-01-05T09:45:00.436Z</time>
      </trkpt>
      <trkpt lat="39.70773" lon="2.95789">
        <ele>118.462424</ele>
        <time>2023-01-05T09:45:03.434Z</time>
      </trkpt>
      <trkpt lat="39.70764" lon="2.95782">
        <ele>118.662663</ele>
        <time>2023-01-05T09:45:06.446Z</time>
      </trkpt>
      <trkpt lat="39.70757" lon="2.95775">
        <ele>118.849571</ele>
        <time>2023-01-05T09:45:09.433Z</time>
      </trkpt>
      <trkpt lat="39.70749" lon="2.9577">
        <ele>119.034633</ele>
        <time>2023-01-05T09:45:12.448Z</time>
      </trkpt>
      <trkpt lat="39.70739" lon="2.95761">
        <ele>119.267193</ele>
        <time>2023-01-05T09:45:16.429Z</time>
      </trkpt>
      <trkpt lat="39.70729" lon="2.95752">
        <ele>119.509234</ele>
        <time>2023-01-05T09:45:20.443Z</time>
      </trkpt>
      <trkpt lat="39.70719" lon="2.95743">
        <ele>119.753079</ele>
        <time>2023-01-05T09:45:24.444Z</time>
      </trkpt>
      <trkpt lat="39.70712" lon="2.95736">
        <ele>119.942778</ele>
        <time>2023-01-05T09:45:27.441Z</time>
      </trkpt>
      <trkpt lat="39.70703" lon="2.95729">
        <ele>120.158481</ele>
        <time>2023-01-05T09:45:30.448Z</time>
      </trkpt>
      <trkpt lat="39.70693" lon="2.95722">
        <ele>120.372215</ele>
        <time>2023-01-05T09:45:33.449Z</time>
      </trkpt>
      <trkpt lat="39.70684" lon="2.95716">
        <ele>120.579149</ele>
        <time>2023-01-05T09:45:36.433Z</time>
      </trkpt>
      <trkpt lat="39.70675" lon="2.95709">
        <ele>120.789134</ele>
        <time>2023-01-05T09:45:39.444Z</time>
      </trkpt>
      <trkpt lat="39.70666" lon="2.95703">
        <ele>120.999024</ele>
        <time>2023-01-05T09:45:42.463Z</time>
      </trkpt>
      <trkpt lat="39.70656" lon="2.95699">
        <ele>121.203381</ele>
        <time>2023-01-05T09:45:45.442Z</time>
      </trkpt>
      <trkpt lat="39.70646" lon="2.95696">
        <ele>121.419354</ele>
        <time>2023-01-05T09:45:48.424Z</time>
      </trkpt>
      <trkpt lat="39.70636" lon="2.9569">
        <ele>121.640876</ele>
        <time>2023-01-05T09:45:51.428Z</time>
      </trkpt>
      <trkpt lat="39.70626" lon="2.95681">
        <ele>121.885344</ele>
        <time>2023-01-05T09:45:54.433Z</time>
      </trkpt>
      <trkpt lat="39.70616" lon="2.9567">
        <ele>122.135882</ele>
        <time>2023-01-05T09:45:57.425Z</time>
      </trkpt>
      <trkpt lat="39.70609" lon="2.95662">
        <ele>122.320479</ele>
        <time>2023-01-05T09:45:59.427Z</time>
      </trkpt>
      <trkpt lat="39.70603" lon="2.95654">
        <ele>122.464891</ele>
        <time>2023-01-05T09:46:01.423Z</time>
      </trkpt>
      <trkpt lat="39.70597" lon="2.95644">
        <ele>122.622669</ele>
        <time>2023-01-05T09:46:03.426Z</time>
      </trkpt>
      <trkpt lat="39.70591" lon="2.95634">
        <ele>122.774586</ele>
        <time>2023-01-05T09:46:05.428Z</time>
      </trkpt>
      <trkpt lat="39.70585" lon="2.95624">
        <ele>122.924641</ele>
        <time>2023-01-05T09:46:07.429Z</time>
      </trkpt>
      <trkpt lat="39.70579" lon="2.95615">
        <ele>123.077986</ele>
        <time>2023-01-05T09:46:09.430Z</time>
      </trkpt>
      <trkpt lat="39.70573" lon="2.95606">
        <ele>123.22899</ele>
        <time>2023-01-05T09:46:11.444Z</time>
      </trkpt>
      <trkpt lat="39.70565" lon="2.95592">
        <ele>123.443648</ele>
        <time>2023-01-05T09:46:14.428Z</time>
      </trkpt>
      <trkpt lat="39.70556" lon="2.95579">
        <ele>123.657498</ele>
        <time>2023-01-05T09:46:17.430Z</time>
      </trkpt>
      <trkpt lat="39.70548" lon="2.95565">
        <ele>123.866314</ele>
        <time>2023-01-05T09:46:20.433Z</time>
      </trkpt>
      <trkpt lat="39.70543" lon="2.95556">
        <ele>124.011567</ele>
        <time>2023-01-05T09:46:22.462Z</time>
      </trkpt>
      <trkpt lat="39.70536" lon="2.95542">
        <ele>124.218165</ele>
        <time>2023-01-05T09:46:25.438Z</time>
      </trkpt>
      <trkpt lat="39.70527" lon="2.95531">
        <ele>124.419147</ele>
        <time>2023-01-05T09:46:28.440Z</time>
      </trkpt>
      <trkpt lat="39.70516" lon="2.95524">
        <ele>124.610501</ele>
        <time>2023-01-05T09:46:31.425Z</time>
      </trkpt>
      <trkpt lat="39.70506" lon="2.95516">
        <ele>124.804237</ele>
        <time>2023-01-05T09:46:34.461Z</time>
      </trkpt>
      <trkpt lat="39.70494" lon="2.95508">
        <ele>125.01161</ele>
        <time>2023-01-05T09:46:37.429Z</time>
      </trkpt>
      <trkpt lat="39.70483" lon="2.955">
        <ele>125.187888</ele>
        <time>2023-01-05T09:46:40.432Z</time>
      </trkpt>
      <trkpt lat="39.70472" lon="2.95491">
        <ele>125.234611</ele>
        <time>2023-01-05T09:46:43.453Z</time>
      </trkpt>
      <trkpt lat="39.70463" lon="2.95481">
        <ele>125.278799</ele>
        <time>2023-01-05T09:46:46.424Z</time>
      </trkpt>
      <trkpt lat="39.70455" lon="2.95469">
        <ele>125.323139</ele>
        <time>2023-01-05T09:46:49.413Z</time>
      </trkpt>
      <trkpt lat="39.70447" lon="2.95458">
        <ele>125.366151</ele>
        <time>2023-01-05T09:46:52.431Z</time>
      </trkpt>
      <trkpt lat="39.7044" lon="2.95447">
        <ele>125.407511</ele>
        <time>2023-01-05T09:46:55.441Z</time>
      </trkpt>
      <trkpt lat="39.70432" lon="2.95435">
        <ele>125.449377</ele>
        <time>2023-01-05T09:46:58.433Z</time>
      </trkpt>
      <trkpt lat="39.70425" lon="2.95424">
        <ele>125.491748</ele>
        <time>2023-01-05T09:47:01.448Z</time>
      </trkpt>
      <trkpt lat="39.70416" lon="2.95415">
        <ele>125.532133</ele>
        <time>2023-01-05T09:47:04.426Z</time>
      </trkpt>
      <trkpt lat="39.70407" lon="2.95405">
        <ele>125.575975</ele>
        <time>2023-01-05T09:47:07.448Z</time>
      </trkpt>
      <trkpt lat="39.70397" lon="2.95396">
        <ele>125.619276</ele>
        <time>2023-01-05T09:47:10.439Z</time>
      </trkpt>
      <trkpt lat="39.70388" lon="2.95387">
        <ele>125.662363</ele>
        <time>2023-01-05T09:47:13.442Z</time>
      </trkpt>
      <trkpt lat="39.70379" lon="2.95378">
        <ele>125.702959</ele>
        <time>2023-01-05T09:47:16.425Z</time>
      </trkpt>
      <trkpt lat="39.7037" lon="2.95368">
        <ele>125.744829</ele>
        <time>2023-01-05T09:47:19.435Z</time>
      </trkpt>
      <trkpt lat="39.70361" lon="2.95359">
        <ele>125.787516</ele>
        <time>2023-01-05T09:47:22.435Z</time>
      </trkpt>
      <trkpt lat="39.70353" lon="2.9535">
        <ele>125.827017</ele>
        <time>2023-01-05T09:47:25.439Z</time>
      </trkpt>
      <trkpt lat="39.70344" lon="2.95341">
        <ele>125.970083</ele>
        <time>2023-01-05T09:47:28.436Z</time>
      </trkpt>
      <trkpt lat="39.70336" lon="2.95332">
        <ele>126.137777</ele>
        <time>2023-01-05T09:47:31.436Z</time>
      </trkpt>
      <trkpt lat="39.70328" lon="2.95324">
        <ele>126.302078</ele>
        <time>2023-01-05T09:47:34.460Z</time>
      </trkpt>
      <trkpt lat="39.7032" lon="2.95315">
        <ele>126.47137</ele>
        <time>2023-01-05T09:47:37.440Z</time>
      </trkpt>
      <trkpt lat="39.70312" lon="2.95306">
        <ele>126.642725</ele>
        <time>2023-01-05T09:47:40.438Z</time>
      </trkpt>
      <trkpt lat="39.70304" lon="2.95297">
        <ele>126.81566</ele>
        <time>2023-01-05T09:47:43.439Z</time>
      </trkpt>
      <trkpt lat="39.70297" lon="2.95288">
        <ele>126.977659</ele>
        <time>2023-01-05T09:47:46.454Z</time>
      </trkpt>
      <trkpt lat="39.70289" lon="2.95279">
        <ele>127.139744</ele>
        <time>2023-01-05T09:47:49.438Z</time>
      </trkpt>
      <trkpt lat="39.70282" lon="2.95271">
        <ele>127.302959</ele>
        <time>2023-01-05T09:47:52.452Z</time>
      </trkpt>
      <trkpt lat="39.70274" lon="2.95262">
        <ele>127.464149</ele>
        <time>2023-01-05T09:47:55.433Z</time>
      </trkpt>
      <trkpt lat="39.70266" lon="2.95254">
        <ele>127.628173</ele>
        <time>2023-01-05T09:47:58.446Z</time>
      </trkpt>
      <trkpt lat="39.70257" lon="2.95245">
        <ele>127.806191</ele>
        <time>2023-01-05T09:48:01.440Z</time>
      </trkpt>
      <trkpt lat="39.70247" lon="2.95239">
        <ele>127.986834</ele>
        <time>2023-01-05T09:48:04.425Z</time>
      </trkpt>
      <trkpt lat="39.70236" lon="2.95234">
        <ele>128.18039</ele>
        <time>2023-01-05T09:48:07.440Z</time>
      </trkpt>
      <trkpt lat="39.70225" lon="2.95226">
        <ele>128.377449</ele>
        <time>2023-01-05T09:48:10.417Z</time>
      </trkpt>
      <trkpt lat="39.70214" lon="2.95218">
        <ele>128.577295</ele>
        <time>2023-01-05T09:48:13.443Z</time>
      </trkpt>
      <trkpt lat="39.70204" lon="2.95208">
        <ele>128.761449</ele>
        <time>2023-01-05T09:48:16.427Z</time>
      </trkpt>
      <trkpt lat="39.70194" lon="2.95196">
        <ele>128.879621</ele>
        <time>2023-01-05T09:48:19.429Z</time>
      </trkpt>
      <trkpt lat="39.70187" lon="2.95183">
        <ele>128.988064</ele>
        <time>2023-01-05T09:48:22.458Z</time>
      </trkpt>
      <trkpt lat="39.70183" lon="2.95167">
        <ele>129.104187</ele>
        <time>2023-01-05T09:48:25.441Z</time>
      </trkpt>
      <trkpt lat="39.70179" lon="2.95151">
        <ele>129.217567</ele>
        <time>2023-01-05T09:48:28.439Z</time>
      </trkpt>
      <trkpt lat="39.70175" lon="2.95136">
        <ele>129.330152</ele>
        <time>2023-01-05T09:48:31.453Z</time>
      </trkpt>
      <trkpt lat="39.70171" lon="2.9512">
        <ele>129.444337</ele>
        <time>2023-01-05T09:48:34.443Z</time>
      </trkpt>
      <trkpt lat="39.70166" lon="2.95105">
        <ele>129.557547</ele>
        <time>2023-01-05T09:48:37.447Z</time>
      </trkpt>
      <trkpt lat="39.70161" lon="2.9509">
        <ele>129.669621</ele>
        <time>2023-01-05T09:48:40.433Z</time>
      </trkpt>
      <trkpt lat="39.70156" lon="2.95076">
        <ele>129.777261</ele>
        <time>2023-01-05T09:48:43.433Z</time>
      </trkpt>
      <trkpt lat="39.7015" lon="2.95062">
        <ele>129.883714</ele>
        <time>2023-01-05T09:48:46.425Z</time>
      </trkpt>
      <trkpt lat="39.70144" lon="2.95048">
        <ele>129.993274</ele>
        <time>2023-01-05T09:48:49.431Z</time>
      </trkpt>
      <trkpt lat="39.70138" lon="2.95035">
        <ele>130.096702</ele>
        <time>2023-01-05T09:48:52.440Z</time>
      </trkpt>
      <trkpt lat="39.70132" lon="2.95022">
        <ele>130.199836</ele>
        <time>2023-01-05T09:48:55.449Z</time>
      </trkpt>
      <trkpt lat="39.70127" lon="2.95009">
        <ele>130.302666</ele>
        <time>2023-01-05T09:48:58.440Z</time>
      </trkpt>
      <trkpt lat="39.70122" lon="2.94997">
        <ele>130.509334</ele>
        <time>2023-01-05T09:49:01.429Z</time>
      </trkpt>
      <trkpt lat="39.70116" lon="2.94983">
        <ele>130.786302</ele>
        <time>2023-01-05T09:49:04.430Z</time>
      </trkpt>
      <trkpt lat="39.70109" lon="2.94971">
        <ele>131.071865</ele>
        <time>2023-01-05T09:49:07.444Z</time>
      </trkpt>
      <trkpt lat="39.70104" lon="2.94958">
        <ele>131.342193</ele>
        <time>2023-01-05T09:49:10.443Z</time>
      </trkpt>
      <trkpt lat="39.70101" lon="2.94944">
        <ele>131.612672</ele>
        <time>2023-01-05T09:49:13.436Z</time>
      </trkpt>
      <trkpt lat="39.70098" lon="2.94931">
        <ele>131.859043</ele>
        <time>2023-01-05T09:49:16.436Z</time>
      </trkpt>
      <trkpt lat="39.70096" lon="2.94919">
        <ele>132.088769</ele>
        <time>2023-01-05T09:49:19.456Z</time>
      </trkpt>
      <trkpt lat="39.70092" lon="2.94904">
        <ele>132.375451</ele>
        <time>2023-01-05T09:49:23.443Z</time>
      </trkpt>
      <trkpt lat="39.70089" lon="2.94892">
        <ele>132.59569</ele>
        <time>2023-01-05T09:49:26.459Z</time>
      </trkpt>
      <trkpt lat="39.70085" lon="2.94881">
        <ele>132.822286</ele>
        <time>2023-01-05T09:49:29.433Z</time>
      </trkpt>
      <trkpt lat="39.70082" lon="2.94869">
        <ele>133.054126</ele>
        <time>2023-01-05T09:49:32.432Z</time>
      </trkpt>
      <trkpt lat="39.7008" lon="2.94858">
        <ele>133.277511</ele>
        <time>2023-01-05T09:49:35.433Z</time>
      </trkpt>
      <trkpt lat="39.70076" lon="2.94846">
        <ele>133.508433</ele>
        <time>2023-01-05T09:49:38.452Z</time>
      </trkpt>
      <trkpt lat="39.70071" lon="2.94831">
        <ele>133.79913</ele>
        <time>2023-01-05T09:49:42.443Z</time>
      </trkpt>
      <trkpt lat="39.70068" lon="2.9482">
        <ele>134.015244</ele>
        <time>2023-01-05T09:49:45.425Z</time>
      </trkpt>
      <trkpt lat="39.70064" lon="2.94809">
        <ele>134.245047</ele>
        <time>2023-01-05T09:49:48.439Z</time>
      </trkpt>
      <trkpt lat="39.70061" lon="2.94797">
        <ele>134.474156</ele>
        <time>2023-01-05T09:49:51.434Z</time>
      </trkpt>
      <trkpt lat="39.70058" lon="2.94786">
        <ele>134.61271</ele>
        <time>2023-01-05T09:49:54.459Z</time>
      </trkpt>
      <trkpt lat="39.70055" lon="2.94774">
        <ele>134.55813</ele>
        <time>2023-01-05T09:49:57.430Z</time>
      </trkpt>
      <trkpt lat="39.70051" lon="2.9476">
        <ele>134.492554</ele>
        <time>2023-01-05T09:50:01.439Z</time>
      </trkpt>
      <trkpt lat="39.70047" lon="2.94747">
        <ele>134.428013</ele>
        <time>2023-01-05T09:50:05.433Z</time>
      </trkpt>
      <trkpt lat="39.70044" lon="2.94732">
        <ele>134.361457</ele>
        <time>2023-01-05T09:50:09.435Z</time>
      </trkpt>
      <trkpt lat="39.7004" lon="2.94719">
        <ele>134.296279</ele>
        <time>2023-01-05T09:50:13.436Z</time>
      </trkpt>
      <trkpt lat="39.70037" lon="2.94705">
        <ele>134.23456</ele>
        <time>2023-01-05T09:50:17.439Z</time>
      </trkpt>
      <trkpt lat="39.70033" lon="2.94694">
        <ele>134.179146</ele>
        <time>2023-01-05T09:50:21.441Z</time>
      </trkpt>
      <trkpt lat="39.70029" lon="2.9468">
        <ele>134.115627</ele>
        <time>2023-01-05T09:50:26.439Z</time>
      </trkpt>
      <trkpt lat="39.70023" lon="2.94667">
        <ele>134.046869</ele>
        <time>2023-01-05T09:50:30.436Z</time>
      </trkpt>
      <trkpt lat="39.70017" lon="2.94653">
        <ele>133.976554</ele>
        <time>2023-01-05T09:50:33.432Z</time>
      </trkpt>
      <trkpt lat="39.70012" lon="2.94642">
        <ele>133.917653</ele>
        <time>2023-01-05T09:50:35.441Z</time>
      </trkpt>
      <trkpt lat="39.70005" lon="2.9463">
        <ele>133.853325</ele>
        <time>2023-01-05T09:50:37.438Z</time>
      </trkpt>
      <trkpt lat="39.69998" lon="2.94615">
        <ele>133.77234</ele>
        <time>2023-01-05T09:50:39.425Z</time>
      </trkpt>
      <trkpt lat="39.69989" lon="2.94599">
        <ele>133.684488</ele>
        <time>2023-01-05T09:50:41.461Z</time>
      </trkpt>
      <trkpt lat="39.69981" lon="2.94581">
        <ele>133.592149</ele>
        <time>2023-01-05T09:50:43.436Z</time>
      </trkpt>
      <trkpt lat="39.69971" lon="2.94564">
        <ele>133.615574</ele>
        <time>2023-01-05T09:50:45.425Z</time>
      </trkpt>
      <trkpt lat="39.69963" lon="2.94546">
        <ele>133.642382</ele>
        <time>2023-01-05T09:50:47.421Z</time>
      </trkpt>
      <trkpt lat="39.69954" lon="2.94528">
        <ele>133.668368</ele>
        <time>2023-01-05T09:50:49.433Z</time>
      </trkpt>
      <trkpt lat="39.69946" lon="2.94512">
        <ele>133.693362</ele>
        <time>2023-01-05T09:50:51.438Z</time>
      </trkpt>
      <trkpt lat="39.69938" lon="2.94496">
        <ele>133.717158</ele>
        <time>2023-01-05T09:50:53.441Z</time>
      </trkpt>
      <trkpt lat="39.69931" lon="2.94482">
        <ele>133.739153</ele>
        <time>2023-01-05T09:50:55.424Z</time>
      </trkpt>
      <trkpt lat="39.69924" lon="2.94469">
        <ele>133.759502</ele>
        <time>2023-01-05T09:50:57.436Z</time>
      </trkpt>
      <trkpt lat="39.69917" lon="2.94455">
        <ele>133.779502</ele>
        <time>2023-01-05T09:50:59.437Z</time>
      </trkpt>
      <trkpt lat="39.69911" lon="2.94444">
        <ele>133.797724</ele>
        <time>2023-01-05T09:51:01.448Z</time>
      </trkpt>
      <trkpt lat="39.69905" lon="2.94432">
        <ele>133.815255</ele>
        <time>2023-01-05T09:51:03.418Z</time>
      </trkpt>
      <trkpt lat="39.69899" lon="2.94422">
        <ele>133.830878</ele>
        <time>2023-01-05T09:51:05.431Z</time>
      </trkpt>
      <trkpt lat="39.69892" lon="2.94409">
        <ele>133.851227</ele>
        <time>2023-01-05T09:51:08.440Z</time>
      </trkpt>
      <trkpt lat="39.69891" lon="2.94397">
        <ele>133.866436</ele>
        <time>2023-01-05T09:51:11.440Z</time>
      </trkpt>
      <trkpt lat="39.69899" lon="2.94389">
        <ele>133.883602</ele>
        <time>2023-01-05T09:51:15.427Z</time>
      </trkpt>
      <trkpt lat="39.69907" lon="2.94382">
        <ele>133.967345</ele>
        <time>2023-01-05T09:51:19.448Z</time>
      </trkpt>
      <trkpt lat="39.69916" lon="2.94374">
        <ele>134.08572</ele>
        <time>2023-01-05T09:51:24.438Z</time>
      </trkpt>
      <trkpt lat="39.69923" lon="2.94366">
        <ele>134.18313</ele>
        <time>2023-01-05T09:51:28.441Z</time>
      </trkpt>
      <trkpt lat="39.69931" lon="2.9436">
        <ele>134.280904</ele>
        <time>2023-01-05T09:51:32.430Z</time>
      </trkpt>
      <trkpt lat="39.69937" lon="2.94351">
        <ele>134.378917</ele>
        <time>2023-01-05T09:51:39.418Z</time>
      </trkpt>
      <trkpt lat="39.69944" lon="2.94343">
        <ele>134.479076</ele>
        <time>2023-01-05T09:51:49.436Z</time>
      </trkpt>
      <trkpt lat="39.69952" lon="2.94339">
        <ele>134.575977</ele>
        <time>2023-01-05T09:51:58.427Z</time>
      </trkpt>
      <trkpt lat="39.6996" lon="2.94332">
        <ele>134.676248</ele>
        <time>2023-01-05T09:52:02.444Z</time>
      </trkpt>
      <trkpt lat="39.69967" lon="2.94319">
        <ele>134.800171</ele>
        <time>2023-01-05T09:52:06.423Z</time>
      </trkpt>
      <trkpt lat="39.69966" lon="2.94306">
        <ele>134.907385</ele>
        <time>2023-01-05T09:52:09.447Z</time>
      </trkpt>
      <trkpt lat="39.69963" lon="2.94294">
        <ele>135.011356</ele>
        <time>2023-01-05T09:52:12.431Z</time>
      </trkpt>
      <trkpt lat="39.69959" lon="2.94284">
        <ele>135.107913</ele>
        <time>2023-01-05T09:52:15.447Z</time>
      </trkpt>
      <trkpt lat="39.69954" lon="2.94273">
        <ele>135.208872</ele>
        <time>2023-01-05T09:52:18.454Z</time>
      </trkpt>
      <trkpt lat="39.6995" lon="2.94262">
        <ele>135.309416</ele>
        <time>2023-01-05T09:52:21.447Z</time>
      </trkpt>
      <trkpt lat="39.69946" lon="2.94251">
        <ele>135.409959</ele>
        <time>2023-01-05T09:52:24.442Z</time>
      </trkpt>
      <trkpt lat="39.69942" lon="2.94239">
        <ele>135.513619</ele>
        <time>2023-01-05T09:52:27.442Z</time>
      </trkpt>
      <trkpt lat="39.69938" lon="2.94227">
        <ele>135.62229</ele>
        <time>2023-01-05T09:52:30.434Z</time>
      </trkpt>
      <trkpt lat="39.69934" lon="2.94216">
        <ele>135.722834</ele>
        <time>2023-01-05T09:52:33.438Z</time>
      </trkpt>
      <trkpt lat="39.6993" lon="2.94205">
        <ele>135.801247</ele>
        <time>2023-01-05T09:52:36.441Z</time>
      </trkpt>
      <trkpt lat="39.69925" lon="2.94195">
        <ele>135.817118</ele>
        <time>2023-01-05T09:52:40.449Z</time>
      </trkpt>
      <trkpt lat="39.6992" lon="2.94182">
        <ele>135.835648</ele>
        <time>2023-01-05T09:52:46.437Z</time>
      </trkpt>
      <trkpt lat="39.69915" lon="2.94168">
        <ele>135.855136</ele>
        <time>2023-01-05T09:52:49.438Z</time>
      </trkpt>
      <trkpt lat="39.69911" lon="2.94156">
        <ele>135.871611</ele>
        <time>2023-01-05T09:52:51.437Z</time>
      </trkpt>
      <trkpt lat="39.69906" lon="2.94143">
        <ele>135.890107</ele>
        <time>2023-01-05T09:52:53.427Z</time>
      </trkpt>
      <trkpt lat="39.699" lon="2.94129">
        <ele>135.910335</ele>
        <time>2023-01-05T09:52:55.444Z</time>
      </trkpt>
      <trkpt lat="39.69895" lon="2.94115">
        <ele>135.930263</ele>
        <time>2023-01-05T09:52:57.437Z</time>
      </trkpt>
      <trkpt lat="39.69889" lon="2.941">
        <ele>135.95155</ele>
        <time>2023-01-05T09:52:59.437Z</time>
      </trkpt>
      <trkpt lat="39.69884" lon="2.94085">
        <ele>135.972808</ele>
        <time>2023-01-05T09:53:01.442Z</time>
      </trkpt>
      <trkpt lat="39.69878" lon="2.94069">
        <ele>135.995041</ele>
        <time>2023-01-05T09:53:03.426Z</time>
      </trkpt>
      <trkpt lat="39.69872" lon="2.94053">
        <ele>136.017503</ele>
        <time>2023-01-05T09:53:05.430Z</time>
      </trkpt>
      <trkpt lat="39.69866" lon="2.94037">
        <ele>136.039893</ele>
        <time>2023-01-05T09:53:07.431Z</time>
      </trkpt>
      <trkpt lat="39.69861" lon="2.94021">
        <ele>136.062029</ele>
        <time>2023-01-05T09:53:09.433Z</time>
      </trkpt>
      <trkpt lat="39.69855" lon="2.94007">
        <ele>136.083352</ele>
        <time>2023-01-05T09:53:11.437Z</time>
      </trkpt>
      <trkpt lat="39.69849" lon="2.93991">
        <ele>136.036323</ele>
        <time>2023-01-05T09:53:13.430Z</time>
      </trkpt>
      <trkpt lat="39.69843" lon="2.93977">
        <ele>135.907796</ele>
        <time>2023-01-05T09:53:15.435Z</time>
      </trkpt>
      <trkpt lat="39.69838" lon="2.93963">
        <ele>135.779034</ele>
        <time>2023-01-05T09:53:17.429Z</time>
      </trkpt>
      <trkpt lat="39.69832" lon="2.9395">
        <ele>135.654392</ele>
        <time>2023-01-05T09:53:19.417Z</time>
      </trkpt>
      <trkpt lat="39.69827" lon="2.93936">
        <ele>135.536108</ele>
        <time>2023-01-05T09:53:21.441Z</time>
      </trkpt>
      <trkpt lat="39.69821" lon="2.93923">
        <ele>135.414417</ele>
        <time>2023-01-05T09:53:23.437Z</time>
      </trkpt>
      <trkpt lat="39.69815" lon="2.93909">
        <ele>135.289699</ele>
        <time>2023-01-05T09:53:25.439Z</time>
      </trkpt>
      <trkpt lat="39.69809" lon="2.93895">
        <ele>135.155124</ele>
        <time>2023-01-05T09:53:27.461Z</time>
      </trkpt>
      <trkpt lat="39.69801" lon="2.93878">
        <ele>135.000668</ele>
        <time>2023-01-05T09:53:29.428Z</time>
      </trkpt>
      <trkpt lat="39.69793" lon="2.9386">
        <ele>134.828663</ele>
        <time>2023-01-05T09:53:31.432Z</time>
      </trkpt>
      <trkpt lat="39.69784" lon="2.93841">
        <ele>134.6516</ele>
        <time>2023-01-05T09:53:33.438Z</time>
      </trkpt>
      <trkpt lat="39.69775" lon="2.93822">
        <ele>134.474538</ele>
        <time>2023-01-05T09:53:35.434Z</time>
      </trkpt>
      <trkpt lat="39.69767" lon="2.93804">
        <ele>134.302532</ele>
        <time>2023-01-05T09:53:37.417Z</time>
      </trkpt>
      <trkpt lat="39.69759" lon="2.93787">
        <ele>134.272043</ele>
        <time>2023-01-05T09:53:39.443Z</time>
      </trkpt>
      <trkpt lat="39.69753" lon="2.93772">
        <ele>134.372955</ele>
        <time>2023-01-05T09:53:41.433Z</time>
      </trkpt>
      <trkpt lat="39.69748" lon="2.93759">
        <ele>134.456749</ele>
        <time>2023-01-05T09:53:43.447Z</time>
      </trkpt>
      <trkpt lat="39.69743" lon="2.93749">
        <ele>134.527975</ele>
        <time>2023-01-05T09:53:45.414Z</time>
      </trkpt>
      <trkpt lat="39.69737" lon="2.93735">
        <ele>134.621502</ele>
        <time>2023-01-05T09:53:48.420Z</time>
      </trkpt>
      <trkpt lat="39.69732" lon="2.93723">
        <ele>134.706021</ele>
        <time>2023-01-05T09:53:51.424Z</time>
      </trkpt>
      <trkpt lat="39.69726" lon="2.93711">
        <ele>134.789395</ele>
        <time>2023-01-05T09:53:54.440Z</time>
      </trkpt>
      <trkpt lat="39.69721" lon="2.937">
        <ele>134.86934</ele>
        <time>2023-01-05T09:53:57.414Z</time>
      </trkpt>
      <trkpt lat="39.69715" lon="2.93688">
        <ele>134.949706</ele>
        <time>2023-01-05T09:54:00.446Z</time>
      </trkpt>
      <trkpt lat="39.6971" lon="2.93677">
        <ele>135.02832</ele>
        <time>2023-01-05T09:54:03.442Z</time>
      </trkpt>
      <trkpt lat="39.69704" lon="2.93666">
        <ele>135.110471</ele>
        <time>2023-01-05T09:54:06.435Z</time>
      </trkpt>
      <trkpt lat="39.69698" lon="2.93653">
        <ele>135.199984</ele>
        <time>2023-01-05T09:54:09.422Z</time>
      </trkpt>
      <trkpt lat="39.69692" lon="2.93638">
        <ele>135.29702</ele>
        <time>2023-01-05T09:54:12.444Z</time>
      </trkpt>
      <trkpt lat="39.69686" lon="2.93624">
        <ele>135.390401</ele>
        <time>2023-01-05T09:54:15.445Z</time>
      </trkpt>
      <trkpt lat="39.6968" lon="2.93611">
        <ele>135.482495</ele>
        <time>2023-01-05T09:54:18.443Z</time>
      </trkpt>
      <trkpt lat="39.69672" lon="2.93598">
        <ele>135.580573</ele>
        <time>2023-01-05T09:54:21.445Z</time>
      </trkpt>
      <trkpt lat="39.69667" lon="2.93583">
        <ele>135.630082</ele>
        <time>2023-01-05T09:54:24.438Z</time>
      </trkpt>
      <trkpt lat="39.69661" lon="2.93567">
        <ele>135.662619</ele>
        <time>2023-01-05T09:54:27.437Z</time>
      </trkpt>
      <trkpt lat="39.69657" lon="2.93551">
        <ele>135.694061</ele>
        <time>2023-01-05T09:54:30.423Z</time>
      </trkpt>
      <trkpt lat="39.6965" lon="2.93536">
        <ele>135.726892</ele>
        <time>2023-01-05T09:54:33.435Z</time>
      </trkpt>
      <trkpt lat="39.69643" lon="2.93529">
        <ele>135.749502</ele>
        <time>2023-01-05T09:54:35.433Z</time>
      </trkpt>
      <trkpt lat="39.69631" lon="2.93521">
        <ele>135.782486</ele>
        <time>2023-01-05T09:54:38.422Z</time>
      </trkpt>
      <trkpt lat="39.69623" lon="2.93515">
        <ele>135.805214</ele>
        <time>2023-01-05T09:54:40.437Z</time>
      </trkpt>
      <trkpt lat="39.69611" lon="2.93508">
        <ele>135.837737</ele>
        <time>2023-01-05T09:54:43.445Z</time>
      </trkpt>
      <trkpt lat="39.696" lon="2.93498">
        <ele>135.870077</ele>
        <time>2023-01-05T09:54:46.463Z</time>
      </trkpt>
      <trkpt lat="39.69588" lon="2.93491">
        <ele>135.902077</ele>
        <time>2023-01-05T09:54:49.441Z</time>
      </trkpt>
      <trkpt lat="39.69576" lon="2.93484">
        <ele>135.934159</ele>
        <time>2023-01-05T09:54:52.442Z</time>
      </trkpt>
      <trkpt lat="39.69565" lon="2.93476">
        <ele>135.964232</ele>
        <time>2023-01-05T09:54:55.441Z</time>
      </trkpt>
      <trkpt lat="39.69555" lon="2.9347">
        <ele>135.991477</ele>
        <time>2023-01-05T09:54:58.431Z</time>
      </trkpt>
      <trkpt lat="39.69546" lon="2.93464">
        <ele>136.016419</ele>
        <time>2023-01-05T09:55:01.431Z</time>
      </trkpt>
      <trkpt lat="39.69538" lon="2.93457">
        <ele>136.040167</ele>
        <time>2023-01-05T09:55:04.440Z</time>
      </trkpt>
      <trkpt lat="39.6953" lon="2.93451">
        <ele>136.085903</ele>
        <time>2023-01-05T09:55:07.432Z</time>
      </trkpt>
      <trkpt lat="39.69521" lon="2.93443">
        <ele>136.155399</ele>
        <time>2023-01-05T09:55:11.433Z</time>
      </trkpt>
      <trkpt lat="39.69513" lon="2.93434">
        <ele>136.219643</ele>
        <time>2023-01-05T09:55:15.421Z</time>
      </trkpt>
      <trkpt lat="39.69506" lon="2.93426">
        <ele>136.280079</ele>
        <time>2023-01-05T09:55:20.429Z</time>
      </trkpt>
      <trkpt lat="39.69499" lon="2.93419">
        <ele>136.337122</ele>
        <time>2023-01-05T09:55:26.419Z</time>
      </trkpt>
      <trkpt lat="39.6949" lon="2.93404">
        <ele>136.427022</ele>
        <time>2023-01-05T09:55:56.433Z</time>
      </trkpt>
      <trkpt lat="39.69482" lon="2.93396">
        <ele>136.488602</ele>
        <time>2023-01-05T09:56:05.417Z</time>
      </trkpt>
      <trkpt lat="39.69474" lon="2.93391">
        <ele>136.545809</ele>
        <time>2023-01-05T09:56:13.429Z</time>
      </trkpt>
      <trkpt lat="39.69467" lon="2.93383">
        <ele>136.603937</ele>
        <time>2023-01-05T09:56:20.416Z</time>
      </trkpt>
      <trkpt lat="39.69459" lon="2.93372">
        <ele>136.673928</ele>
        <time>2023-01-05T09:56:26.442Z</time>
      </trkpt>
      <trkpt lat="39.6945" lon="2.93362">
        <ele>136.747515</ele>
        <time>2023-01-05T09:56:30.434Z</time>
      </trkpt>
      <trkpt lat="39.69444" lon="2.93351">
        <ele>136.814946</ele>
        <time>2023-01-05T09:56:33.455Z</time>
      </trkpt>
      <trkpt lat="39.69436" lon="2.9334">
        <ele>136.883322</ele>
        <time>2023-01-05T09:56:36.440Z</time>
      </trkpt>
      <trkpt lat="39.6943" lon="2.9333">
        <ele>136.947782</ele>
        <time>2023-01-05T09:56:39.430Z</time>
      </trkpt>
      <trkpt lat="39.69423" lon="2.93319">
        <ele>137.017931</ele>
        <time>2023-01-05T09:56:42.440Z</time>
      </trkpt>
      <trkpt lat="39.69415" lon="2.93308">
        <ele>137.087751</ele>
        <time>2023-01-05T09:56:45.431Z</time>
      </trkpt>
      <trkpt lat="39.69406" lon="2.93297">
        <ele>137.16316</ele>
        <time>2023-01-05T09:56:48.434Z</time>
      </trkpt>
      <trkpt lat="39.69398" lon="2.93286">
        <ele>137.209178</ele>
        <time>2023-01-05T09:56:51.450Z</time>
      </trkpt>
      <trkpt lat="39.6939" lon="2.93275">
        <ele>137.252617</ele>
        <time>2023-01-05T09:56:54.423Z</time>
      </trkpt>
      <trkpt lat="39.69381" lon="2.93264">
        <ele>137.295233</ele>
        <time>2023-01-05T09:56:57.434Z</time>
      </trkpt>
      <trkpt lat="39.69372" lon="2.93254">
        <ele>137.337366</ele>
        <time>2023-01-05T09:57:00.435Z</time>
      </trkpt>
      <trkpt lat="39.69364" lon="2.93243">
        <ele>137.378454</ele>
        <time>2023-01-05T09:57:03.425Z</time>
      </trkpt>
      <trkpt lat="39.69355" lon="2.93233">
        <ele>137.420109</ele>
        <time>2023-01-05T09:57:06.435Z</time>
      </trkpt>
      <trkpt lat="39.69347" lon="2.93222">
        <ele>137.461841</ele>
        <time>2023-01-05T09:57:09.433Z</time>
      </trkpt>
      <trkpt lat="39.6934" lon="2.9321">
        <ele>137.502442</ele>
        <time>2023-01-05T09:57:12.439Z</time>
      </trkpt>
      <trkpt lat="39.69331" lon="2.93197">
        <ele>137.550315</ele>
        <time>2023-01-05T09:57:15.444Z</time>
      </trkpt>
      <trkpt lat="39.69325" lon="2.93187">
        <ele>137.585463</ele>
        <time>2023-01-05T09:57:17.429Z</time>
      </trkpt>
      <trkpt lat="39.69319" lon="2.93177">
        <ele>137.61997</ele>
        <time>2023-01-05T09:57:19.422Z</time>
      </trkpt>
      <trkpt lat="39.69312" lon="2.93167">
        <ele>137.655806</ele>
        <time>2023-01-05T09:57:21.428Z</time>
      </trkpt>
      <trkpt lat="39.69306" lon="2.93157">
        <ele>137.691852</ele>
        <time>2023-01-05T09:57:23.434Z</time>
      </trkpt>
      <trkpt lat="39.69299" lon="2.93146">
        <ele>137.730043</ele>
        <time>2023-01-05T09:57:25.453Z</time>
      </trkpt>
      <trkpt lat="39.69292" lon="2.93136">
        <ele>137.767614</ele>
        <time>2023-01-05T09:57:27.424Z</time>
      </trkpt>
      <trkpt lat="39.69285" lon="2.93126">
        <ele>137.806092</ele>
        <time>2023-01-05T09:57:29.433Z</time>
      </trkpt>
      <trkpt lat="39.69278" lon="2.93115">
        <ele>137.635893</ele>
        <time>2023-01-05T09:57:31.439Z</time>
      </trkpt>
      <trkpt lat="39.6927" lon="2.93104">
        <ele>137.444559</ele>
        <time>2023-01-05T09:57:33.433Z</time>
      </trkpt>
      <trkpt lat="39.69264" lon="2.93093">
        <ele>137.252643</ele>
        <time>2023-01-05T09:57:35.452Z</time>
      </trkpt>
      <trkpt lat="39.69257" lon="2.93083">
        <ele>137.071628</ele>
        <time>2023-01-05T09:57:37.427Z</time>
      </trkpt>
      <trkpt lat="39.6925" lon="2.93073">
        <ele>136.884703</ele>
        <time>2023-01-05T09:57:39.435Z</time>
      </trkpt>
      <trkpt lat="39.69244" lon="2.93062">
        <ele>136.698213</ele>
        <time>2023-01-05T09:57:41.439Z</time>
      </trkpt>
      <trkpt lat="39.69236" lon="2.93052">
        <ele>136.506245</ele>
        <time>2023-01-05T09:57:43.419Z</time>
      </trkpt>
      <trkpt lat="39.6923" lon="2.93041">
        <ele>136.31222</ele>
        <time>2023-01-05T09:57:45.445Z</time>
      </trkpt>
      <trkpt lat="39.69223" lon="2.9303">
        <ele>136.113752</ele>
        <time>2023-01-05T09:57:47.444Z</time>
      </trkpt>
      <trkpt lat="39.69215" lon="2.9302">
        <ele>135.924001</ele>
        <time>2023-01-05T09:57:49.447Z</time>
      </trkpt>
      <trkpt lat="39.69208" lon="2.9301">
        <ele>135.734964</ele>
        <time>2023-01-05T09:57:51.427Z</time>
      </trkpt>
      <trkpt lat="39.692" lon="2.93">
        <ele>135.549648</ele>
        <time>2023-01-05T09:57:53.417Z</time>
      </trkpt>
      <trkpt lat="39.69193" lon="2.9299">
        <ele>135.362722</ele>
        <time>2023-01-05T09:57:55.433Z</time>
      </trkpt>
      <trkpt lat="39.69185" lon="2.9298">
        <ele>135.159683</ele>
        <time>2023-01-05T09:57:57.436Z</time>
      </trkpt>
      <trkpt lat="39.69177" lon="2.92969">
        <ele>134.946472</ele>
        <time>2023-01-05T09:57:59.425Z</time>
      </trkpt>
      <trkpt lat="39.69168" lon="2.92957">
        <ele>134.72296</ele>
        <time>2023-01-05T09:58:01.444Z</time>
      </trkpt>
      <trkpt lat="39.69159" lon="2.92944">
        <ele>134.540042</ele>
        <time>2023-01-05T09:58:03.422Z</time>
      </trkpt>
      <trkpt lat="39.6915" lon="2.92932">
        <ele>134.394405</ele>
        <time>2023-01-05T09:58:05.447Z</time>
      </trkpt>
      <trkpt lat="39.69141" lon="2.92919">
        <ele>134.251874</ele>
        <time>2023-01-05T09:58:07.433Z</time>
      </trkpt>
      <trkpt lat="39.69132" lon="2.92905">
        <ele>134.103086</ele>
        <time>2023-01-05T09:58:09.449Z</time>
      </trkpt>
      <trkpt lat="39.69123" lon="2.92892">
        <ele>133.957696</ele>
        <time>2023-01-05T09:58:11.419Z</time>
      </trkpt>
      <trkpt lat="39.69114" lon="2.92879">
        <ele>133.812652</ele>
        <time>2023-01-05T09:58:13.442Z</time>
      </trkpt>
      <trkpt lat="39.69105" lon="2.92865">
        <ele>133.662999</ele>
        <time>2023-01-05T09:58:15.433Z</time>
      </trkpt>
      <trkpt lat="39.69096" lon="2.92851">
        <ele>133.514152</ele>
        <time>2023-01-05T09:58:17.442Z</time>
      </trkpt>
      <trkpt lat="39.69088" lon="2.92837">
        <ele>133.369901</ele>
        <time>2023-01-05T09:58:19.434Z</time>
      </trkpt>
      <trkpt lat="39.6908" lon="2.92824">
        <ele>133.230881</ele>
        <time>2023-01-05T09:58:21.431Z</time>
      </trkpt>
      <trkpt lat="39.69073" lon="2.92811">
        <ele>133.096463</ele>
        <time>2023-01-05T09:58:23.433Z</time>
      </trkpt>
      <trkpt lat="39.69066" lon="2.92797">
        <ele>132.958339</ele>
        <time>2023-01-05T09:58:25.441Z</time>
      </trkpt>
      <trkpt lat="39.6906" lon="2.92783">
        <ele>132.827804</ele>
        <time>2023-01-05T09:58:27.435Z</time>
      </trkpt>
      <trkpt lat="39.69056" lon="2.9277">
        <ele>132.714277</ele>
        <time>2023-01-05T09:58:29.433Z</time>
      </trkpt>
      <trkpt lat="39.69053" lon="2.92758">
        <ele>132.787879</ele>
        <time>2023-01-05T09:58:31.436Z</time>
      </trkpt>
      <trkpt lat="39.69049" lon="2.92743">
        <ele>132.987686</ele>
        <time>2023-01-05T09:58:34.442Z</time>
      </trkpt>
      <trkpt lat="39.69046" lon="2.9273">
        <ele>133.173115</ele>
        <time>2023-01-05T09:58:37.433Z</time>
      </trkpt>
      <trkpt lat="39.69042" lon="2.92715">
        <ele>133.364678</ele>
        <time>2023-01-05T09:58:40.432Z</time>
      </trkpt>
      <trkpt lat="39.69037" lon="2.92701">
        <ele>133.563741</ele>
        <time>2023-01-05T09:58:43.426Z</time>
      </trkpt>
      <trkpt lat="39.69032" lon="2.92687">
        <ele>133.759617</ele>
        <time>2023-01-05T09:58:46.443Z</time>
      </trkpt>
      <trkpt lat="39.69027" lon="2.92673">
        <ele>133.950826</ele>
        <time>2023-01-05T09:58:49.432Z</time>
      </trkpt>
      <trkpt lat="39.69023" lon="2.9266">
        <ele>134.140871</ele>
        <time>2023-01-05T09:58:52.441Z</time>
      </trkpt>
      <trkpt lat="39.69018" lon="2.92646">
        <ele>134.334278</ele>
        <time>2023-01-05T09:58:55.433Z</time>
      </trkpt>
      <trkpt lat="39.69013" lon="2.92633">
        <ele>134.522942</ele>
        <time>2023-01-05T09:58:58.451Z</time>
      </trkpt>
      <trkpt lat="39.69008" lon="2.9262">
        <ele>134.710088</ele>
        <time>2023-01-05T09:59:01.442Z</time>
      </trkpt>
      <trkpt lat="39.69003" lon="2.92606">
        <ele>134.906837</ele>
        <time>2023-01-05T09:59:04.435Z</time>
      </trkpt>
      <trkpt lat="39.68998" lon="2.92593">
        <ele>135.085291</ele>
        <time>2023-01-05T09:59:07.436Z</time>
      </trkpt>
      <trkpt lat="39.68994" lon="2.9258">
        <ele>135.266748</ele>
        <time>2023-01-05T09:59:10.433Z</time>
      </trkpt>
      <trkpt lat="39.68989" lon="2.92566">
        <ele>135.464836</ele>
        <time>2023-01-05T09:59:13.430Z</time>
      </trkpt>
      <trkpt lat="39.68985" lon="2.92551">
        <ele>135.661018</ele>
        <time>2023-01-05T09:59:16.443Z</time>
      </trkpt>
      <trkpt lat="39.68981" lon="2.92537">
        <ele>135.705286</ele>
        <time>2023-01-05T09:59:19.433Z</time>
      </trkpt>
      <trkpt lat="39.68977" lon="2.92523">
        <ele>135.749704</ele>
        <time>2023-01-05T09:59:22.438Z</time>
      </trkpt>
      <trkpt lat="39.68974" lon="2.92507">
        <ele>135.798565</ele>
        <time>2023-01-05T09:59:25.426Z</time>
      </trkpt>
      <trkpt lat="39.68971" lon="2.92495">
        <ele>135.833099</ele>
        <time>2023-01-05T09:59:27.443Z</time>
      </trkpt>
      <trkpt lat="39.68967" lon="2.9248">
        <ele>135.883155</ele>
        <time>2023-01-05T09:59:30.419Z</time>
      </trkpt>
      <trkpt lat="39.68965" lon="2.92468">
        <ele>135.918277</ele>
        <time>2023-01-05T09:59:32.433Z</time>
      </trkpt>
      <trkpt lat="39.68963" lon="2.92452">
        <ele>135.967514</ele>
        <time>2023-01-05T09:59:35.425Z</time>
      </trkpt>
      <trkpt lat="39.6896" lon="2.92435">
        <ele>136.01822</ele>
        <time>2023-01-05T09:59:38.437Z</time>
      </trkpt>
      <trkpt lat="39.68957" lon="2.92419">
        <ele>136.06659</ele>
        <time>2023-01-05T09:59:41.454Z</time>
      </trkpt>
      <trkpt lat="39.68952" lon="2.92404">
        <ele>136.115008</ele>
        <time>2023-01-05T09:59:44.439Z</time>
      </trkpt>
      <trkpt lat="39.68948" lon="2.92389">
        <ele>136.162596</ele>
        <time>2023-01-05T09:59:47.451Z</time>
      </trkpt>
      <trkpt lat="39.68943" lon="2.92373">
        <ele>136.211407</ele>
        <time>2023-01-05T09:59:50.456Z</time>
      </trkpt>
      <trkpt lat="39.68939" lon="2.92358">
        <ele>136.258013</ele>
        <time>2023-01-05T09:59:53.433Z</time>
      </trkpt>
      <trkpt lat="39.68936" lon="2.92344">
        <ele>136.301504</ele>
        <time>2023-01-05T09:59:56.438Z</time>
      </trkpt>
      <trkpt lat="39.68932" lon="2.9233">
        <ele>136.345762</ele>
        <time>2023-01-05T09:59:59.429Z</time>
      </trkpt>
      <trkpt lat="39.68927" lon="2.92316">
        <ele>136.477819</ele>
        <time>2023-01-05T10:00:02.436Z</time>
      </trkpt>
      <trkpt lat="39.68922" lon="2.92302">
        <ele>136.610284</ele>
        <time>2023-01-05T10:00:05.450Z</time>
      </trkpt>
      <trkpt lat="39.68918" lon="2.92287">
        <ele>136.74937</ele>
        <time>2023-01-05T10:00:08.454Z</time>
      </trkpt>
      <trkpt lat="39.68914" lon="2.92273">
        <ele>136.886363</ele>
        <time>2023-01-05T10:00:11.429Z</time>
      </trkpt>
      <trkpt lat="39.6891" lon="2.92258">
        <ele>137.024184</ele>
        <time>2023-01-05T10:00:14.454Z</time>
      </trkpt>
      <trkpt lat="39.68906" lon="2.92243">
        <ele>137.164065</ele>
        <time>2023-01-05T10:00:17.434Z</time>
      </trkpt>
      <trkpt lat="39.68902" lon="2.92228">
        <ele>137.3017</ele>
        <time>2023-01-05T10:00:20.424Z</time>
      </trkpt>
      <trkpt lat="39.68898" lon="2.92215">
        <ele>137.426132</ele>
        <time>2023-01-05T10:00:23.422Z</time>
      </trkpt>
      <trkpt lat="39.68894" lon="2.92203">
        <ele>137.547547</ele>
        <time>2023-01-05T10:00:26.438Z</time>
      </trkpt>
      <trkpt lat="39.68888" lon="2.92191">
        <ele>137.670884</ele>
        <time>2023-01-05T10:00:29.431Z</time>
      </trkpt>
      <trkpt lat="39.68882" lon="2.92179">
        <ele>137.794471</ele>
        <time>2023-01-05T10:00:32.448Z</time>
      </trkpt>
      <trkpt lat="39.68878" lon="2.92167">
        <ele>137.913013</ele>
        <time>2023-01-05T10:00:35.451Z</time>
      </trkpt>
      <trkpt lat="39.68872" lon="2.92155">
        <ele>138.038459</ele>
        <time>2023-01-05T10:00:38.449Z</time>
      </trkpt>
      <trkpt lat="39.68866" lon="2.92144">
        <ele>138.157096</ele>
        <time>2023-01-05T10:00:41.428Z</time>
      </trkpt>
      <trkpt lat="39.68861" lon="2.92133">
        <ele>138.272758</ele>
        <time>2023-01-05T10:00:44.427Z</time>
      </trkpt>
      <trkpt lat="39.68855" lon="2.92122">
        <ele>138.389286</ele>
        <time>2023-01-05T10:00:47.466Z</time>
      </trkpt>
      <trkpt lat="39.68849" lon="2.92111">
        <ele>138.410632</ele>
        <time>2023-01-05T10:00:50.452Z</time>
      </trkpt>
      <trkpt lat="39.68843" lon="2.92098">
        <ele>138.401499</ele>
        <time>2023-01-05T10:00:53.426Z</time>
      </trkpt>
      <trkpt lat="39.68837" lon="2.92084">
        <ele>138.392342</ele>
        <time>2023-01-05T10:00:56.429Z</time>
      </trkpt>
      <trkpt lat="39.68831" lon="2.9207">
        <ele>138.382187</ele>
        <time>2023-01-05T10:00:59.417Z</time>
      </trkpt>
      <trkpt lat="39.68826" lon="2.9206">
        <ele>138.375225</ele>
        <time>2023-01-05T10:01:01.440Z</time>
      </trkpt>
      <trkpt lat="39.6882" lon="2.9205">
        <ele>138.368016</ele>
        <time>2023-01-05T10:01:03.409Z</time>
      </trkpt>
      <trkpt lat="39.68812" lon="2.92036">
        <ele>138.357794</ele>
        <time>2023-01-05T10:01:06.415Z</time>
      </trkpt>
      <trkpt lat="39.68807" lon="2.92026">
        <ele>138.350767</ele>
        <time>2023-01-05T10:01:08.423Z</time>
      </trkpt>
      <trkpt lat="39.68799" lon="2.92012">
        <ele>138.340609</ele>
        <time>2023-01-05T10:01:11.418Z</time>
      </trkpt>
      <trkpt lat="39.68794" lon="2.92003">
        <ele>138.333539</ele>
        <time>2023-01-05T10:01:13.426Z</time>
      </trkpt>
      <trkpt lat="39.68788" lon="2.91994">
        <ele>138.326461</ele>
        <time>2023-01-05T10:01:15.444Z</time>
      </trkpt>
      <trkpt lat="39.6878" lon="2.9198">
        <ele>138.316292</ele>
        <time>2023-01-05T10:01:18.446Z</time>
      </trkpt>
      <trkpt lat="39.68774" lon="2.91965">
        <ele>138.306572</ele>
        <time>2023-01-05T10:01:21.441Z</time>
      </trkpt>
      <trkpt lat="39.68768" lon="2.91952">
        <ele>138.29735</ele>
        <time>2023-01-05T10:01:24.431Z</time>
      </trkpt>
      <trkpt lat="39.68762" lon="2.91938">
        <ele>138.287988</ele>
        <time>2023-01-05T10:01:27.444Z</time>
      </trkpt>
      <trkpt lat="39.68755" lon="2.91923">
        <ele>138.271489</ele>
        <time>2023-01-05T10:01:30.440Z</time>
      </trkpt>
      <trkpt lat="39.68749" lon="2.9191">
        <ele>138.16843</ele>
        <time>2023-01-05T10:01:33.431Z</time>
      </trkpt>
      <trkpt lat="39.68742" lon="2.91896">
        <ele>138.056766</ele>
        <time>2023-01-05T10:01:36.436Z</time>
      </trkpt>
      <trkpt lat="39.68736" lon="2.91882">
        <ele>137.948317</ele>
        <time>2023-01-05T10:01:39.435Z</time>
      </trkpt>
      <trkpt lat="39.6873" lon="2.91868">
        <ele>137.839596</ele>
        <time>2023-01-05T10:01:42.431Z</time>
      </trkpt>
      <trkpt lat="39.68723" lon="2.91856">
        <ele>137.73854</ele>
        <time>2023-01-05T10:01:45.440Z</time>
      </trkpt>
      <trkpt lat="39.68718" lon="2.91845">
        <ele>137.650245</ele>
        <time>2023-01-05T10:01:48.433Z</time>
      </trkpt>
      <trkpt lat="39.68713" lon="2.91834">
        <ele>137.562071</ele>
        <time>2023-01-05T10:01:51.435Z</time>
      </trkpt>
      <trkpt lat="39.68707" lon="2.91823">
        <ele>137.476678</ele>
        <time>2023-01-05T10:01:54.446Z</time>
      </trkpt>
      <trkpt lat="39.68702" lon="2.91813">
        <ele>137.393673</ele>
        <time>2023-01-05T10:01:57.434Z</time>
      </trkpt>
      <trkpt lat="39.68696" lon="2.91801">
        <ele>137.300816</ele>
        <time>2023-01-05T10:02:00.437Z</time>
      </trkpt>
      <trkpt lat="39.68689" lon="2.91788">
        <ele>137.191651</ele>
        <time>2023-01-05T10:02:03.443Z</time>
      </trkpt>
      <trkpt lat="39.68685" lon="2.91776">
        <ele>137.105606</ele>
        <time>2023-01-05T10:02:05.441Z</time>
      </trkpt>
      <trkpt lat="39.6868" lon="2.91765">
        <ele>137.017367</ele>
        <time>2023-01-05T10:02:07.437Z</time>
      </trkpt>
      <trkpt lat="39.68675" lon="2.91753">
        <ele>136.929324</ele>
        <time>2023-01-05T10:02:09.433Z</time>
      </trkpt>
      <trkpt lat="39.6867" lon="2.91742">
        <ele>136.839689</ele>
        <time>2023-01-05T10:02:11.421Z</time>
      </trkpt>
      <trkpt lat="39.68665" lon="2.9173">
        <ele>136.748252</ele>
        <time>2023-01-05T10:02:13.432Z</time>
      </trkpt>
      <trkpt lat="39.6866" lon="2.91718">
        <ele>136.658051</ele>
        <time>2023-01-05T10:02:15.433Z</time>
      </trkpt>
      <trkpt lat="39.68655" lon="2.91707">
        <ele>136.568504</ele>
        <time>2023-01-05T10:02:17.445Z</time>
      </trkpt>
      <trkpt lat="39.6865" lon="2.91696">
        <ele>136.473598</ele>
        <time>2023-01-05T10:02:19.446Z</time>
      </trkpt>
      <trkpt lat="39.68645" lon="2.91685">
        <ele>136.384302</ele>
        <time>2023-01-05T10:02:21.429Z</time>
      </trkpt>
      <trkpt lat="39.6864" lon="2.91675">
        <ele>136.301571</ele>
        <time>2023-01-05T10:02:23.430Z</time>
      </trkpt>
      <trkpt lat="39.68633" lon="2.91661">
        <ele>136.182455</ele>
        <time>2023-01-05T10:02:26.416Z</time>
      </trkpt>
      <trkpt lat="39.68627" lon="2.91651">
        <ele>136.097973</ele>
        <time>2023-01-05T10:02:28.459Z</time>
      </trkpt>
      <trkpt lat="39.68622" lon="2.91642">
        <ele>136.015049</ele>
        <time>2023-01-05T10:02:30.439Z</time>
      </trkpt>
      <trkpt lat="39.68617" lon="2.91631">
        <ele>135.930438</ele>
        <time>2023-01-05T10:02:32.423Z</time>
      </trkpt>
      <trkpt lat="39.6861" lon="2.91617">
        <ele>135.812826</ele>
        <time>2023-01-05T10:02:35.434Z</time>
      </trkpt>
      <trkpt lat="39.68604" lon="2.91604">
        <ele>135.705832</ele>
        <time>2023-01-05T10:02:38.420Z</time>
      </trkpt>
      <trkpt lat="39.686" lon="2.91592">
        <ele>135.611002</ele>
        <time>2023-01-05T10:02:41.435Z</time>
      </trkpt>
      <trkpt lat="39.68594" lon="2.9158">
        <ele>135.516297</ele>
        <time>2023-01-05T10:02:44.424Z</time>
      </trkpt>
      <trkpt lat="39.68589" lon="2.91569">
        <ele>135.425329</ele>
        <time>2023-01-05T10:02:47.436Z</time>
      </trkpt>
      <trkpt lat="39.68583" lon="2.91558">
        <ele>135.3309</ele>
        <time>2023-01-05T10:02:51.439Z</time>
      </trkpt>
      <trkpt lat="39.68577" lon="2.91549">
        <ele>135.247495</ele>
        <time>2023-01-05T10:02:56.431Z</time>
      </trkpt>
      <trkpt lat="39.68572" lon="2.91538">
        <ele>135.154368</ele>
        <time>2023-01-05T10:03:01.429Z</time>
      </trkpt>
      <trkpt lat="39.68566" lon="2.91527">
        <ele>135.067137</ele>
        <time>2023-01-05T10:03:05.425Z</time>
      </trkpt>
      <trkpt lat="39.68559" lon="2.91517">
        <ele>135.047141</ele>
        <time>2023-01-05T10:03:09.439Z</time>
      </trkpt>
      <trkpt lat="39.68552" lon="2.91506">
        <ele>135.025789</ele>
        <time>2023-01-05T10:03:13.430Z</time>
      </trkpt>
      <trkpt lat="39.68547" lon="2.91494">
        <ele>135.006421</ele>
        <time>2023-01-05T10:03:17.439Z</time>
      </trkpt>
      <trkpt lat="39.68542" lon="2.91484">
        <ele>134.988489</ele>
        <time>2023-01-05T10:03:20.414Z</time>
      </trkpt>
      <trkpt lat="39.68536" lon="2.91471">
        <ele>134.966835</ele>
        <time>2023-01-05T10:03:24.420Z</time>
      </trkpt>
      <trkpt lat="39.68529" lon="2.91459">
        <ele>134.945607</ele>
        <time>2023-01-05T10:03:28.432Z</time>
      </trkpt>
      <trkpt lat="39.68524" lon="2.91447">
        <ele>134.925767</ele>
        <time>2023-01-05T10:03:32.428Z</time>
      </trkpt>
      <trkpt lat="39.6852" lon="2.91437">
        <ele>134.908809</ele>
        <time>2023-01-05T10:03:35.448Z</time>
      </trkpt>
      <trkpt lat="39.68514" lon="2.91426">
        <ele>134.890515</ele>
        <time>2023-01-05T10:03:38.444Z</time>
      </trkpt>
      <trkpt lat="39.68509" lon="2.91415">
        <ele>134.870474</ele>
        <time>2023-01-05T10:03:41.454Z</time>
      </trkpt>
      <trkpt lat="39.68503" lon="2.91403">
        <ele>134.850126</ele>
        <time>2023-01-05T10:03:44.444Z</time>
      </trkpt>
      <trkpt lat="39.68497" lon="2.91392">
        <ele>134.830708</ele>
        <time>2023-01-05T10:03:47.436Z</time>
      </trkpt>
      <trkpt lat="39.68491" lon="2.9138">
        <ele>134.810688</ele>
        <time>2023-01-05T10:03:50.429Z</time>
      </trkpt>
      <trkpt lat="39.68485" lon="2.91369">
        <ele>134.791075</ele>
        <time>2023-01-05T10:03:53.434Z</time>
      </trkpt>
      <trkpt lat="39.68479" lon="2.91358">
        <ele>134.771623</ele>
        <time>2023-01-05T10:03:56.413Z</time>
      </trkpt>
      <trkpt lat="39.68473" lon="2.91348">
        <ele>134.752354</ele>
        <time>2023-01-05T10:03:59.427Z</time>
      </trkpt>
      <trkpt lat="39.68468" lon="2.91336">
        <ele>134.733165</ele>
        <time>2023-01-05T10:04:02.445Z</time>
      </trkpt>
      <trkpt lat="39.68463" lon="2.91324">
        <ele>134.815589</ele>
        <time>2023-01-05T10:04:05.433Z</time>
      </trkpt>
      <trkpt lat="39.68458" lon="2.91312">
        <ele>134.935308</ele>
        <time>2023-01-05T10:04:08.420Z</time>
      </trkpt>
      <trkpt lat="39.68451" lon="2.913">
        <ele>135.055288</ele>
        <time>2023-01-05T10:04:11.426Z</time>
      </trkpt>
      <trkpt lat="39.68446" lon="2.91289">
        <ele>135.170634</ele>
        <time>2023-01-05T10:04:14.429Z</time>
      </trkpt>
      <trkpt lat="39.68441" lon="2.91277">
        <ele>135.284281</ele>
        <time>2023-01-05T10:04:17.417Z</time>
      </trkpt>
      <trkpt lat="39.68438" lon="2.91264">
        <ele>135.396903</ele>
        <time>2023-01-05T10:04:20.419Z</time>
      </trkpt>
      <trkpt lat="39.68435" lon="2.91251">
        <ele>135.509219</ele>
        <time>2023-01-05T10:04:23.421Z</time>
      </trkpt>
      <trkpt lat="39.68432" lon="2.91237">
        <ele>135.635408</ele>
        <time>2023-01-05T10:04:26.446Z</time>
      </trkpt>
      <trkpt lat="39.68427" lon="2.91222">
        <ele>135.773311</ele>
        <time>2023-01-05T10:04:29.443Z</time>
      </trkpt>
      <trkpt lat="39.68421" lon="2.91206">
        <ele>135.924014</ele>
        <time>2023-01-05T10:04:32.432Z</time>
      </trkpt>
      <trkpt lat="39.68416" lon="2.91195">
        <ele>136.028382</ele>
        <time>2023-01-05T10:04:34.428Z</time>
      </trkpt>
      <trkpt lat="39.68411" lon="2.91184">
        <ele>136.142809</ele>
        <time>2023-01-05T10:04:36.431Z</time>
      </trkpt>
      <trkpt lat="39.68406" lon="2.91171">
        <ele>136.260967</ele>
        <time>2023-01-05T10:04:38.426Z</time>
      </trkpt>
      <trkpt lat="39.68401" lon="2.91159">
        <ele>136.375634</ele>
        <time>2023-01-05T10:04:40.427Z</time>
      </trkpt>
      <trkpt lat="39.68396" lon="2.91147">
        <ele>136.492074</ele>
        <time>2023-01-05T10:04:42.448Z</time>
      </trkpt>
      <trkpt lat="39.6839" lon="2.91135">
        <ele>136.609048</ele>
        <time>2023-01-05T10:04:44.453Z</time>
      </trkpt>
      <trkpt lat="39.68386" lon="2.91123">
        <ele>136.711407</ele>
        <time>2023-01-05T10:04:46.440Z</time>
      </trkpt>
      <trkpt lat="39.68381" lon="2.91111">
        <ele>136.770749</ele>
        <time>2023-01-05T10:04:48.442Z</time>
      </trkpt>
      <trkpt lat="39.68376" lon="2.91099">
        <ele>136.830093</ele>
        <time>2023-01-05T10:04:50.454Z</time>
      </trkpt>
      <trkpt lat="39.68371" lon="2.91088">
        <ele>136.886846</ele>
        <time>2023-01-05T10:04:52.455Z</time>
      </trkpt>
      <trkpt lat="39.68366" lon="2.91078">
        <ele>136.941211</ele>
        <time>2023-01-05T10:04:54.440Z</time>
      </trkpt>
      <trkpt lat="39.6836" lon="2.91069">
        <ele>136.995249</ele>
        <time>2023-01-05T10:04:56.423Z</time>
      </trkpt>
      <trkpt lat="39.68354" lon="2.9106">
        <ele>137.0469</ele>
        <time>2023-01-05T10:04:58.437Z</time>
      </trkpt>
      <trkpt lat="39.68346" lon="2.91046">
        <ele>137.12288</ele>
        <time>2023-01-05T10:05:01.432Z</time>
      </trkpt>
      <trkpt lat="39.68338" lon="2.91033">
        <ele>137.195727</ele>
        <time>2023-01-05T10:05:04.432Z</time>
      </trkpt>
      <trkpt lat="39.6833" lon="2.9102">
        <ele>137.267181</ele>
        <time>2023-01-05T10:05:07.448Z</time>
      </trkpt>
      <trkpt lat="39.68323" lon="2.91008">
        <ele>137.335484</ele>
        <time>2023-01-05T10:05:10.453Z</time>
      </trkpt>
      <trkpt lat="39.68316" lon="2.90997">
        <ele>137.398208</ele>
        <time>2023-01-05T10:05:13.432Z</time>
      </trkpt>
      <trkpt lat="39.68309" lon="2.90985">
        <ele>137.461291</ele>
        <time>2023-01-05T10:05:16.441Z</time>
      </trkpt>
      <trkpt lat="39.68302" lon="2.90973">
        <ele>137.531371</ele>
        <time>2023-01-05T10:05:19.438Z</time>
      </trkpt>
      <trkpt lat="39.68295" lon="2.90964">
        <ele>137.584867</ele>
        <time>2023-01-05T10:05:21.453Z</time>
      </trkpt>
      <trkpt lat="39.68289" lon="2.90954">
        <ele>137.642836</ele>
        <time>2023-01-05T10:05:23.429Z</time>
      </trkpt>
      <trkpt lat="39.68281" lon="2.90943">
        <ele>137.708673</ele>
        <time>2023-01-05T10:05:25.456Z</time>
      </trkpt>
      <trkpt lat="39.6827" lon="2.90931">
        <ele>137.932337</ele>
        <time>2023-01-05T10:05:27.436Z</time>
      </trkpt>
      <trkpt lat="39.68259" lon="2.90918">
        <ele>138.201977</ele>
        <time>2023-01-05T10:05:29.441Z</time>
      </trkpt>
      <trkpt lat="39.68252" lon="2.90905">
        <ele>138.438496</ele>
        <time>2023-01-05T10:05:31.441Z</time>
      </trkpt>
      <trkpt lat="39.68246" lon="2.90891">
        <ele>138.666271</ele>
        <time>2023-01-05T10:05:33.432Z</time>
      </trkpt>
      <trkpt lat="39.68241" lon="2.90877">
        <ele>138.888537</ele>
        <time>2023-01-05T10:05:35.443Z</time>
      </trkpt>
      <trkpt lat="39.68237" lon="2.90864">
        <ele>139.094113</ele>
        <time>2023-01-05T10:05:37.415Z</time>
      </trkpt>
      <trkpt lat="39.68234" lon="2.90853">
        <ele>139.271386</ele>
        <time>2023-01-05T10:05:39.435Z</time>
      </trkpt>
      <trkpt lat="39.68232" lon="2.90841">
        <ele>139.449124</ele>
        <time>2023-01-05T10:05:41.425Z</time>
      </trkpt>
      <trkpt lat="39.68229" lon="2.90824">
        <ele>139.692732</ele>
        <time>2023-01-05T10:05:44.435Z</time>
      </trkpt>
      <trkpt lat="39.68227" lon="2.90808">
        <ele>139.92745</ele>
        <time>2023-01-05T10:05:47.409Z</time>
      </trkpt>
      <trkpt lat="39.68225" lon="2.90793">
        <ele>140.153384</ele>
        <time>2023-01-05T10:05:50.407Z</time>
      </trkpt>
      <trkpt lat="39.68222" lon="2.90778">
        <ele>140.37509</ele>
        <time>2023-01-05T10:05:53.431Z</time>
      </trkpt>
      <trkpt lat="39.68218" lon="2.90763">
        <ele>140.602476</ele>
        <time>2023-01-05T10:05:56.445Z</time>
      </trkpt>
      <trkpt lat="39.68215" lon="2.90748">
        <ele>140.829865</ele>
        <time>2023-01-05T10:05:59.424Z</time>
      </trkpt>
      <trkpt lat="39.68211" lon="2.90733">
        <ele>141.061969</ele>
        <time>2023-01-05T10:06:02.434Z</time>
      </trkpt>
      <trkpt lat="39.68207" lon="2.90718">
        <ele>141.122857</ele>
        <time>2023-01-05T10:06:05.448Z</time>
      </trkpt>
      <trkpt lat="39.68204" lon="2.90703">
        <ele>141.132763</ele>
        <time>2023-01-05T10:06:08.448Z</time>
      </trkpt>
      <trkpt lat="39.682" lon="2.90688">
        <ele>141.142607</ele>
        <time>2023-01-05T10:06:11.418Z</time>
      </trkpt>
      <trkpt lat="39.68197" lon="2.90675">
        <ele>141.151451</ele>
        <time>2023-01-05T10:06:14.437Z</time>
      </trkpt>
      <trkpt lat="39.68193" lon="2.90661">
        <ele>141.160541</ele>
        <time>2023-01-05T10:06:17.435Z</time>
      </trkpt>
      <trkpt lat="39.68189" lon="2.90649">
        <ele>141.169098</ele>
        <time>2023-01-05T10:06:20.444Z</time>
      </trkpt>
      <trkpt lat="39.68185" lon="2.90637">
        <ele>141.177372</ele>
        <time>2023-01-05T10:06:23.440Z</time>
      </trkpt>
      <trkpt lat="39.6818" lon="2.90626">
        <ele>141.185558</ele>
        <time>2023-01-05T10:06:26.436Z</time>
      </trkpt>
      <trkpt lat="39.68174" lon="2.90612">
        <ele>141.195263</ele>
        <time>2023-01-05T10:06:30.448Z</time>
      </trkpt>
      <trkpt lat="39.68171" lon="2.90601">
        <ele>141.203196</ele>
        <time>2023-01-05T10:06:33.437Z</time>
      </trkpt>
      <trkpt lat="39.68167" lon="2.9059">
        <ele>141.211147</ele>
        <time>2023-01-05T10:06:36.442Z</time>
      </trkpt>
      <trkpt lat="39.68162" lon="2.90578">
        <ele>141.219418</ele>
        <time>2023-01-05T10:06:39.428Z</time>
      </trkpt>
      <trkpt lat="39.68157" lon="2.90567">
        <ele>141.227516</ele>
        <time>2023-01-05T10:06:42.438Z</time>
      </trkpt>
      <trkpt lat="39.68153" lon="2.90555">
        <ele>141.236014</ele>
        <time>2023-01-05T10:06:45.437Z</time>
      </trkpt>
      <trkpt lat="39.68148" lon="2.90543">
        <ele>141.244668</ele>
        <time>2023-01-05T10:06:48.432Z</time>
      </trkpt>
      <trkpt lat="39.68143" lon="2.9053">
        <ele>141.253617</ele>
        <time>2023-01-05T10:06:51.433Z</time>
      </trkpt>
      <trkpt lat="39.68139" lon="2.90519">
        <ele>141.261941</ele>
        <time>2023-01-05T10:06:54.439Z</time>
      </trkpt>
      <trkpt lat="39.68135" lon="2.90508">
        <ele>141.200311</ele>
        <time>2023-01-05T10:06:57.446Z</time>
      </trkpt>
      <trkpt lat="39.68129" lon="2.90494">
        <ele>141.095038</ele>
        <time>2023-01-05T10:07:01.425Z</time>
      </trkpt>
      <trkpt lat="39.68126" lon="2.90484">
        <ele>141.015468</ele>
        <time>2023-01-05T10:07:04.447Z</time>
      </trkpt>
      <trkpt lat="39.68119" lon="2.90471">
        <ele>140.914633</ele>
        <time>2023-01-05T10:07:08.435Z</time>
      </trkpt>
      <trkpt lat="39.68115" lon="2.90458">
        <ele>140.818198</ele>
        <time>2023-01-05T10:07:12.434Z</time>
      </trkpt>
      <trkpt lat="39.68111" lon="2.90445">
        <ele>140.721617</ele>
        <time>2023-01-05T10:07:16.442Z</time>
      </trkpt>
      <trkpt lat="39.68106" lon="2.90432">
        <ele>140.625285</ele>
        <time>2023-01-05T10:07:20.447Z</time>
      </trkpt>
      <trkpt lat="39.68102" lon="2.90419">
        <ele>140.527716</ele>
        <time>2023-01-05T10:07:24.425Z</time>
      </trkpt>
      <trkpt lat="39.68096" lon="2.90407">
        <ele>140.428775</ele>
        <time>2023-01-05T10:07:28.435Z</time>
      </trkpt>
      <trkpt lat="39.68091" lon="2.90395">
        <ele>140.337516</ele>
        <time>2023-01-05T10:07:32.436Z</time>
      </trkpt>
      <trkpt lat="39.68086" lon="2.90383">
        <ele>140.245974</ele>
        <time>2023-01-05T10:07:36.438Z</time>
      </trkpt>
      <trkpt lat="39.68083" lon="2.90369">
        <ele>140.142863</ele>
        <time>2023-01-05T10:07:40.432Z</time>
      </trkpt>
      <trkpt lat="39.68079" lon="2.90358">
        <ele>140.057791</ele>
        <time>2023-01-05T10:07:43.447Z</time>
      </trkpt>
      <trkpt lat="39.68075" lon="2.90346">
        <ele>139.96876</ele>
        <time>2023-01-05T10:07:46.426Z</time>
      </trkpt>
      <trkpt lat="39.6807" lon="2.90335">
        <ele>139.886853</ele>
        <time>2023-01-05T10:07:49.448Z</time>
      </trkpt>
      <trkpt lat="39.68066" lon="2.90324">
        <ele>139.802037</ele>
        <time>2023-01-05T10:07:52.439Z</time>
      </trkpt>
      <trkpt lat="39.68063" lon="2.90312">
        <ele>139.718974</ele>
        <time>2023-01-05T10:07:55.418Z</time>
      </trkpt>
      <trkpt lat="39.68058" lon="2.90299">
        <ele>139.704847</ele>
        <time>2023-01-05T10:07:59.429Z</time>
      </trkpt>
      <trkpt lat="39.68054" lon="2.90286">
        <ele>139.769512</ele>
        <time>2023-01-05T10:08:03.435Z</time>
      </trkpt>
      <trkpt lat="39.68048" lon="2.90273">
        <ele>139.838909</ele>
        <time>2023-01-05T10:08:07.419Z</time>
      </trkpt>
      <trkpt lat="39.68044" lon="2.90262">
        <ele>139.894325</ele>
        <time>2023-01-05T10:08:10.439Z</time>
      </trkpt>
      <trkpt lat="39.6804" lon="2.9025">
        <ele>139.951283</ele>
        <time>2023-01-05T10:08:13.426Z</time>
      </trkpt>
      <trkpt lat="39.68036" lon="2.90239">
        <ele>140.010862</ele>
        <time>2023-01-05T10:08:16.438Z</time>
      </trkpt>
      <trkpt lat="39.68031" lon="2.90226">
        <ele>140.071963</ele>
        <time>2023-01-05T10:08:19.432Z</time>
      </trkpt>
      <trkpt lat="39.68027" lon="2.90214">
        <ele>140.134927</ele>
        <time>2023-01-05T10:08:22.451Z</time>
      </trkpt>
      <trkpt lat="39.68022" lon="2.90202">
        <ele>140.197631</ele>
        <time>2023-01-05T10:08:25.450Z</time>
      </trkpt>
      <trkpt lat="39.68017" lon="2.9019">
        <ele>140.259399</ele>
        <time>2023-01-05T10:08:28.449Z</time>
      </trkpt>
      <trkpt lat="39.68012" lon="2.90178">
        <ele>140.323082</ele>
        <time>2023-01-05T10:08:31.430Z</time>
      </trkpt>
      <trkpt lat="39.68006" lon="2.90165">
        <ele>140.388928</ele>
        <time>2023-01-05T10:08:34.437Z</time>
      </trkpt>
      <trkpt lat="39.68001" lon="2.90153">
        <ele>140.453482</ele>
        <time>2023-01-05T10:08:37.432Z</time>
      </trkpt>
      <trkpt lat="39.67995" lon="2.90141">
        <ele>140.518531</ele>
        <time>2023-01-05T10:08:40.431Z</time>
      </trkpt>
      <trkpt lat="39.67989" lon="2.90127">
        <ele>140.591295</ele>
        <time>2023-01-05T10:08:43.434Z</time>
      </trkpt>
      <trkpt lat="39.67983" lon="2.90113">
        <ele>140.662176</ele>
        <time>2023-01-05T10:08:46.440Z</time>
      </trkpt>
      <trkpt lat="39.67977" lon="2.90099">
        <ele>140.73778</ele>
        <time>2023-01-05T10:08:49.434Z</time>
      </trkpt>
      <trkpt lat="39.67971" lon="2.90085">
        <ele>140.81557</ele>
        <time>2023-01-05T10:08:52.427Z</time>
      </trkpt>
      <trkpt lat="39.67966" lon="2.90071">
        <ele>140.895743</ele>
        <time>2023-01-05T10:08:55.429Z</time>
      </trkpt>
      <trkpt lat="39.67959" lon="2.90057">
        <ele>140.977831</ele>
        <time>2023-01-05T10:08:58.440Z</time>
      </trkpt>
      <trkpt lat="39.67954" lon="2.90042">
        <ele>141.061969</ele>
        <time>2023-01-05T10:09:01.442Z</time>
      </trkpt>
      <trkpt lat="39.67948" lon="2.90028">
        <ele>141.141687</ele>
        <time>2023-01-05T10:09:04.427Z</time>
      </trkpt>
      <trkpt lat="39.67943" lon="2.90013">
        <ele>141.224103</ele>
        <time>2023-01-05T10:09:07.455Z</time>
      </trkpt>
      <trkpt lat="39.67937" lon="2.89999">
        <ele>141.30446</ele>
        <time>2023-01-05T10:09:10.441Z</time>
      </trkpt>
      <trkpt lat="39.67931" lon="2.89985">
        <ele>141.386449</ele>
        <time>2023-01-05T10:09:13.446Z</time>
      </trkpt>
      <trkpt lat="39.67925" lon="2.8997">
        <ele>141.468992</ele>
        <time>2023-01-05T10:09:16.432Z</time>
      </trkpt>
      <trkpt lat="39.67919" lon="2.89955">
        <ele>141.550796</ele>
        <time>2023-01-05T10:09:19.423Z</time>
      </trkpt>
      <trkpt lat="39.67914" lon="2.89941">
        <ele>141.631575</ele>
        <time>2023-01-05T10:09:22.450Z</time>
      </trkpt>
      <trkpt lat="39.67908" lon="2.89925">
        <ele>141.718906</ele>
        <time>2023-01-05T10:09:25.429Z</time>
      </trkpt>
      <trkpt lat="39.67902" lon="2.8991">
        <ele>141.804288</ele>
        <time>2023-01-05T10:09:28.443Z</time>
      </trkpt>
      <trkpt lat="39.67896" lon="2.89895">
        <ele>141.889701</ele>
        <time>2023-01-05T10:09:31.421Z</time>
      </trkpt>
      <trkpt lat="39.67891" lon="2.89884">
        <ele>141.920454</ele>
        <time>2023-01-05T10:09:33.423Z</time>
      </trkpt>
      <trkpt lat="39.67887" lon="2.89873">
        <ele>141.936859</ele>
        <time>2023-01-05T10:09:35.426Z</time>
      </trkpt>
      <trkpt lat="39.67882" lon="2.89862">
        <ele>141.953405</ele>
        <time>2023-01-05T10:09:37.428Z</time>
      </trkpt>
      <trkpt lat="39.67878" lon="2.89852">
        <ele>141.969452</ele>
        <time>2023-01-05T10:09:39.432Z</time>
      </trkpt>
      <trkpt lat="39.67874" lon="2.89841">
        <ele>141.985896</ele>
        <time>2023-01-05T10:09:41.429Z</time>
      </trkpt>
      <trkpt lat="39.67869" lon="2.8983">
        <ele>142.002022</ele>
        <time>2023-01-05T10:09:43.438Z</time>
      </trkpt>
      <trkpt lat="39.67865" lon="2.89819">
        <ele>142.019118</ele>
        <time>2023-01-05T10:09:45.434Z</time>
      </trkpt>
      <trkpt lat="39.6786" lon="2.89808">
        <ele>142.035997</ele>
        <time>2023-01-05T10:09:47.432Z</time>
      </trkpt>
      <trkpt lat="39.67855" lon="2.89797">
        <ele>142.053007</ele>
        <time>2023-01-05T10:09:49.445Z</time>
      </trkpt>
      <trkpt lat="39.67851" lon="2.89785">
        <ele>142.069886</ele>
        <time>2023-01-05T10:09:51.427Z</time>
      </trkpt>
      <trkpt lat="39.67846" lon="2.89775">
        <ele>142.086131</ele>
        <time>2023-01-05T10:09:53.425Z</time>
      </trkpt>
      <trkpt lat="39.67842" lon="2.89763">
        <ele>142.102896</ele>
        <time>2023-01-05T10:09:55.428Z</time>
      </trkpt>
      <trkpt lat="39.67837" lon="2.89753">
        <ele>142.119392</ele>
        <time>2023-01-05T10:09:57.437Z</time>
      </trkpt>
      <trkpt lat="39.67833" lon="2.89742">
        <ele>142.136009</ele>
        <time>2023-01-05T10:09:59.435Z</time>
      </trkpt>
      <trkpt lat="39.67829" lon="2.8973">
        <ele>142.153523</ele>
        <time>2023-01-05T10:10:01.440Z</time>
      </trkpt>
      <trkpt lat="39.67824" lon="2.89719">
        <ele>142.170322</ele>
        <time>2023-01-05T10:10:03.421Z</time>
      </trkpt>
      <trkpt lat="39.6782" lon="2.89708">
        <ele>142.186884</ele>
        <time>2023-01-05T10:10:05.440Z</time>
      </trkpt>
      <trkpt lat="39.67815" lon="2.89697">
        <ele>142.202775</ele>
        <time>2023-01-05T10:10:07.427Z</time>
      </trkpt>
      <trkpt lat="39.67811" lon="2.89687">
        <ele>142.2188</ele>
        <time>2023-01-05T10:10:09.434Z</time>
      </trkpt>
      <trkpt lat="39.67807" lon="2.89676">
        <ele>142.254839</ele>
        <time>2023-01-05T10:10:11.427Z</time>
      </trkpt>
      <trkpt lat="39.67801" lon="2.89666">
        <ele>142.295896</ele>
        <time>2023-01-05T10:10:13.433Z</time>
      </trkpt>
      <trkpt lat="39.67797" lon="2.89656">
        <ele>142.33546</ele>
        <time>2023-01-05T10:10:15.438Z</time>
      </trkpt>
      <trkpt lat="39.67792" lon="2.89646">
        <ele>142.376001</ele>
        <time>2023-01-05T10:10:17.421Z</time>
      </trkpt>
      <trkpt lat="39.67786" lon="2.89635">
        <ele>142.417853</ele>
        <time>2023-01-05T10:10:19.448Z</time>
      </trkpt>
      <trkpt lat="39.67781" lon="2.89625">
        <ele>142.45882</ele>
        <time>2023-01-05T10:10:21.433Z</time>
      </trkpt>
      <trkpt lat="39.67776" lon="2.89615">
        <ele>142.500768</ele>
        <time>2023-01-05T10:10:23.437Z</time>
      </trkpt>
      <trkpt lat="39.6777" lon="2.89604">
        <ele>142.542385</ele>
        <time>2023-01-05T10:10:25.456Z</time>
      </trkpt>
      <trkpt lat="39.67765" lon="2.89594">
        <ele>142.582926</ele>
        <time>2023-01-05T10:10:27.430Z</time>
      </trkpt>
      <trkpt lat="39.67761" lon="2.89584">
        <ele>142.622207</ele>
        <time>2023-01-05T10:10:29.454Z</time>
      </trkpt>
      <trkpt lat="39.67756" lon="2.89573">
        <ele>142.662851</ele>
        <time>2023-01-05T10:10:31.429Z</time>
      </trkpt>
      <trkpt lat="39.67751" lon="2.89564">
        <ele>142.702005</ele>
        <time>2023-01-05T10:10:33.437Z</time>
      </trkpt>
      <trkpt lat="39.67745" lon="2.89554">
        <ele>142.741654</ele>
        <time>2023-01-05T10:10:35.433Z</time>
      </trkpt>
      <trkpt lat="39.67741" lon="2.89543">
        <ele>142.782384</ele>
        <time>2023-01-05T10:10:37.439Z</time>
      </trkpt>
      <trkpt lat="39.67735" lon="2.89533">
        <ele>142.822556</ele>
        <time>2023-01-05T10:10:39.452Z</time>
      </trkpt>
      <trkpt lat="39.6773" lon="2.89523">
        <ele>142.863893</ele>
        <time>2023-01-05T10:10:41.439Z</time>
      </trkpt>
      <trkpt lat="39.67725" lon="2.89513">
        <ele>142.903405</ele>
        <time>2023-01-05T10:10:43.422Z</time>
      </trkpt>
      <trkpt lat="39.6772" lon="2.89503">
        <ele>142.943874</ele>
        <time>2023-01-05T10:10:45.427Z</time>
      </trkpt>
      <trkpt lat="39.67715" lon="2.89493">
        <ele>142.983029</ele>
        <time>2023-01-05T10:10:47.422Z</time>
      </trkpt>
      <trkpt lat="39.67708" lon="2.8948">
        <ele>143</ele>
        <time>2023-01-05T10:10:50.451Z</time>
      </trkpt>
      <trkpt lat="39.67701" lon="2.89465">
        <ele>143</ele>
        <time>2023-01-05T10:10:53.424Z</time>
      </trkpt>
      <trkpt lat="39.67694" lon="2.8945">
        <ele>143</ele>
        <time>2023-01-05T10:10:56.419Z</time>
      </trkpt>
      <trkpt lat="39.67688" lon="2.8944">
        <ele>143</ele>
        <time>2023-01-05T10:10:58.451Z</time>
      </trkpt>
      <trkpt lat="39.67683" lon="2.8943">
        <ele>143</ele>
        <time>2023-01-05T10:11:00.437Z</time>
      </trkpt>
      <trkpt lat="39.67678" lon="2.8942">
        <ele>143</ele>
        <time>2023-01-05T10:11:02.434Z</time>
      </trkpt>
      <trkpt lat="39.6767" lon="2.89406">
        <ele>143</ele>
        <time>2023-01-05T10:11:05.439Z</time>
      </trkpt>
      <trkpt lat="39.67663" lon="2.89393">
        <ele>143</ele>
        <time>2023-01-05T10:11:08.441Z</time>
      </trkpt>
      <trkpt lat="39.67655" lon="2.89379">
        <ele>143</ele>
        <time>2023-01-05T10:11:11.420Z</time>
      </trkpt>
      <trkpt lat="39.67647" lon="2.89366">
        <ele>143</ele>
        <time>2023-01-05T10:11:14.448Z</time>
      </trkpt>
      <trkpt lat="39.6764" lon="2.89352">
        <ele>143</ele>
        <time>2023-01-05T10:11:17.430Z</time>
      </trkpt>
      <trkpt lat="39.67633" lon="2.89337">
        <ele>143</ele>
        <time>2023-01-05T10:11:20.440Z</time>
      </trkpt>
      <trkpt lat="39.67626" lon="2.89323">
        <ele>143</ele>
        <time>2023-01-05T10:11:23.444Z</time>
      </trkpt>
      <trkpt lat="39.6762" lon="2.89309">
        <ele>143</ele>
        <time>2023-01-05T10:11:26.444Z</time>
      </trkpt>
      <trkpt lat="39.67613" lon="2.89296">
        <ele>143</ele>
        <time>2023-01-05T10:11:29.423Z</time>
      </trkpt>
      <trkpt lat="39.67606" lon="2.89283">
        <ele>143.02026</ele>
        <time>2023-01-05T10:11:32.446Z</time>
      </trkpt>
      <trkpt lat="39.67601" lon="2.8927">
        <ele>143.04137</ele>
        <time>2023-01-05T10:11:35.411Z</time>
      </trkpt>
      <trkpt lat="39.67594" lon="2.89258">
        <ele>143.062125</ele>
        <time>2023-01-05T10:11:38.434Z</time>
      </trkpt>
      <trkpt lat="39.67587" lon="2.89244">
        <ele>143.086046</ele>
        <time>2023-01-05T10:11:41.432Z</time>
      </trkpt>
      <trkpt lat="39.6758" lon="2.89229">
        <ele>143.109129</ele>
        <time>2023-01-05T10:11:44.427Z</time>
      </trkpt>
      <trkpt lat="39.67574" lon="2.89216">
        <ele>143.131814</ele>
        <time>2023-01-05T10:11:47.444Z</time>
      </trkpt>
      <trkpt lat="39.67567" lon="2.89202">
        <ele>143.154137</ele>
        <time>2023-01-05T10:11:50.434Z</time>
      </trkpt>
      <trkpt lat="39.67561" lon="2.89189">
        <ele>143.17653</ele>
        <time>2023-01-05T10:11:53.429Z</time>
      </trkpt>
      <trkpt lat="39.67554" lon="2.89175">
        <ele>143.198352</ele>
        <time>2023-01-05T10:11:56.429Z</time>
      </trkpt>
      <trkpt lat="39.67548" lon="2.89161">
        <ele>143.220734</ele>
        <time>2023-01-05T10:11:59.429Z</time>
      </trkpt>
      <trkpt lat="39.67542" lon="2.89148">
        <ele>143.242057</ele>
        <time>2023-01-05T10:12:02.415Z</time>
      </trkpt>
      <trkpt lat="39.67535" lon="2.89135">
        <ele>143.264391</ele>
        <time>2023-01-05T10:12:05.437Z</time>
      </trkpt>
      <trkpt lat="39.67529" lon="2.89122">
        <ele>143.286141</ele>
        <time>2023-01-05T10:12:08.435Z</time>
      </trkpt>
      <trkpt lat="39.67523" lon="2.89108">
        <ele>143.308584</ele>
        <time>2023-01-05T10:12:11.428Z</time>
      </trkpt>
      <trkpt lat="39.67516" lon="2.89094">
        <ele>143.341359</ele>
        <time>2023-01-05T10:12:14.427Z</time>
      </trkpt>
      <trkpt lat="39.6751" lon="2.89081">
        <ele>143.416701</ele>
        <time>2023-01-05T10:12:17.435Z</time>
      </trkpt>
      <trkpt lat="39.67505" lon="2.89068">
        <ele>143.486599</ele>
        <time>2023-01-05T10:12:20.439Z</time>
      </trkpt>
      <trkpt lat="39.67499" lon="2.89056">
        <ele>143.557916</ele>
        <time>2023-01-05T10:12:23.438Z</time>
      </trkpt>
      <trkpt lat="39.67494" lon="2.89043">
        <ele>143.629683</ele>
        <time>2023-01-05T10:12:26.434Z</time>
      </trkpt>
      <trkpt lat="39.67487" lon="2.8903">
        <ele>143.702246</ele>
        <time>2023-01-05T10:12:29.432Z</time>
      </trkpt>
      <trkpt lat="39.67481" lon="2.89018">
        <ele>143.772505</ele>
        <time>2023-01-05T10:12:32.439Z</time>
      </trkpt>
      <trkpt lat="39.67475" lon="2.89005">
        <ele>143.842169</ele>
        <time>2023-01-05T10:12:35.441Z</time>
      </trkpt>
      <trkpt lat="39.67469" lon="2.88993">
        <ele>143.910936</ele>
        <time>2023-01-05T10:12:38.445Z</time>
      </trkpt>
      <trkpt lat="39.67464" lon="2.88982">
        <ele>143.974691</ele>
        <time>2023-01-05T10:12:41.448Z</time>
      </trkpt>
      <trkpt lat="39.67458" lon="2.8897">
        <ele>144.043203</ele>
        <time>2023-01-05T10:12:44.453Z</time>
      </trkpt>
      <trkpt lat="39.67452" lon="2.88958">
        <ele>144.111502</ele>
        <time>2023-01-05T10:12:47.440Z</time>
      </trkpt>
      <trkpt lat="39.67446" lon="2.88946">
        <ele>144.182453</ele>
        <time>2023-01-05T10:12:50.438Z</time>
      </trkpt>
      <trkpt lat="39.6744" lon="2.88934">
        <ele>144.25427</ele>
        <time>2023-01-05T10:12:53.434Z</time>
      </trkpt>
      <trkpt lat="39.67433" lon="2.88921">
        <ele>144.328676</ele>
        <time>2023-01-05T10:12:56.429Z</time>
      </trkpt>
      <trkpt lat="39.67427" lon="2.88908">
        <ele>144.400643</ele>
        <time>2023-01-05T10:12:59.427Z</time>
      </trkpt>
      <trkpt lat="39.67421" lon="2.88895">
        <ele>144.469608</ele>
        <time>2023-01-05T10:13:02.433Z</time>
      </trkpt>
      <trkpt lat="39.67414" lon="2.88883">
        <ele>144.520669</ele>
        <time>2023-01-05T10:13:05.440Z</time>
      </trkpt>
      <trkpt lat="39.67409" lon="2.8887">
        <ele>144.571529</ele>
        <time>2023-01-05T10:13:08.423Z</time>
      </trkpt>
      <trkpt lat="39.67403" lon="2.88857">
        <ele>144.621392</ele>
        <time>2023-01-05T10:13:11.442Z</time>
      </trkpt>
      <trkpt lat="39.67396" lon="2.88845">
        <ele>144.67159</ele>
        <time>2023-01-05T10:13:14.444Z</time>
      </trkpt>
      <trkpt lat="39.67389" lon="2.88834">
        <ele>144.719604</ele>
        <time>2023-01-05T10:13:17.432Z</time>
      </trkpt>
      <trkpt lat="39.67384" lon="2.88821">
        <ele>144.768714</ele>
        <time>2023-01-05T10:13:20.417Z</time>
      </trkpt>
      <trkpt lat="39.67377" lon="2.88809">
        <ele>144.820219</ele>
        <time>2023-01-05T10:13:23.430Z</time>
      </trkpt>
      <trkpt lat="39.67371" lon="2.88797">
        <ele>144.868859</ele>
        <time>2023-01-05T10:13:26.442Z</time>
      </trkpt>
      <trkpt lat="39.67365" lon="2.88786">
        <ele>144.913183</ele>
        <time>2023-01-05T10:13:29.447Z</time>
      </trkpt>
      <trkpt lat="39.67359" lon="2.88773">
        <ele>144.963854</ele>
        <time>2023-01-05T10:13:33.427Z</time>
      </trkpt>
      <trkpt lat="39.67354" lon="2.88762">
        <ele>145.007493</ele>
        <time>2023-01-05T10:13:36.438Z</time>
      </trkpt>
      <trkpt lat="39.67349" lon="2.88751">
        <ele>145.051026</ele>
        <time>2023-01-05T10:13:39.427Z</time>
      </trkpt>
      <trkpt lat="39.67344" lon="2.88741">
        <ele>145.093239</ele>
        <time>2023-01-05T10:13:42.460Z</time>
      </trkpt>
      <trkpt lat="39.67339" lon="2.88726">
        <ele>145.146466</ele>
        <time>2023-01-05T10:13:46.435Z</time>
      </trkpt>
      <trkpt lat="39.67334" lon="2.88715">
        <ele>145.188527</ele>
        <time>2023-01-05T10:13:49.441Z</time>
      </trkpt>
      <trkpt lat="39.6733" lon="2.88705">
        <ele>145.229085</ele>
        <time>2023-01-05T10:13:52.439Z</time>
      </trkpt>
      <trkpt lat="39.67325" lon="2.88694">
        <ele>145.292153</ele>
        <time>2023-01-05T10:13:55.439Z</time>
      </trkpt>
      <trkpt lat="39.67321" lon="2.88683">
        <ele>145.364856</ele>
        <time>2023-01-05T10:13:58.432Z</time>
      </trkpt>
      <trkpt lat="39.67316" lon="2.88671">
        <ele>145.447435</ele>
        <time>2023-01-05T10:14:02.439Z</time>
      </trkpt>
      <trkpt lat="39.67313" lon="2.88658">
        <ele>145.533293</ele>
        <time>2023-01-05T10:14:06.447Z</time>
      </trkpt>
      <trkpt lat="39.67309" lon="2.88645">
        <ele>145.615741</ele>
        <time>2023-01-05T10:14:10.457Z</time>
      </trkpt>
      <trkpt lat="39.67305" lon="2.88633">
        <ele>145.694183</ele>
        <time>2023-01-05T10:14:14.437Z</time>
      </trkpt>
      <trkpt lat="39.67302" lon="2.88623">
        <ele>145.763526</ele>
        <time>2023-01-05T10:14:19.943Z</time>
      </trkpt>
      <trkpt lat="39.67314" lon="2.88628">
        <ele>145.858888</ele>
        <time>2023-01-05T10:22:34.404Z</time>
      </trkpt>
      <trkpt lat="39.67307" lon="2.88618">
        <ele>145.938102</ele>
        <time>2023-01-05T10:22:35.418Z</time>
      </trkpt>
      <trkpt lat="39.67299" lon="2.88612">
        <ele>146.011158</ele>
        <time>2023-01-05T10:22:46.431Z</time>
      </trkpt>
      <trkpt lat="39.67294" lon="2.88599">
        <ele>146.100004</ele>
        <time>2023-01-05T10:22:51.429Z</time>
      </trkpt>
      <trkpt lat="39.67289" lon="2.88585">
        <ele>146.195236</ele>
        <time>2023-01-05T10:22:55.435Z</time>
      </trkpt>
      <trkpt lat="39.67283" lon="2.88574">
        <ele>146.276897</ele>
        <time>2023-01-05T10:22:58.423Z</time>
      </trkpt>
      <trkpt lat="39.67278" lon="2.88562">
        <ele>146.359659</ele>
        <time>2023-01-05T10:23:01.426Z</time>
      </trkpt>
      <trkpt lat="39.67272" lon="2.88551">
        <ele>146.445418</ele>
        <time>2023-01-05T10:23:04.451Z</time>
      </trkpt>
      <trkpt lat="39.67264" lon="2.88539">
        <ele>146.54186</ele>
        <time>2023-01-05T10:23:07.453Z</time>
      </trkpt>
      <trkpt lat="39.67257" lon="2.88526">
        <ele>146.636319</ele>
        <time>2023-01-05T10:23:10.447Z</time>
      </trkpt>
      <trkpt lat="39.6725" lon="2.88515">
        <ele>146.770412</ele>
        <time>2023-01-05T10:23:13.439Z</time>
      </trkpt>
      <trkpt lat="39.67242" lon="2.88503">
        <ele>146.935299</ele>
        <time>2023-01-05T10:23:16.450Z</time>
      </trkpt>
      <trkpt lat="39.67234" lon="2.88493">
        <ele>147.1024</ele>
        <time>2023-01-05T10:23:19.463Z</time>
      </trkpt>
      <trkpt lat="39.67226" lon="2.88483">
        <ele>147.260464</ele>
        <time>2023-01-05T10:23:22.448Z</time>
      </trkpt>
      <trkpt lat="39.67218" lon="2.88472">
        <ele>147.424522</ele>
        <time>2023-01-05T10:23:25.443Z</time>
      </trkpt>
      <trkpt lat="39.67211" lon="2.8846">
        <ele>147.596627</ele>
        <time>2023-01-05T10:23:28.452Z</time>
      </trkpt>
      <trkpt lat="39.67203" lon="2.88448">
        <ele>147.772006</ele>
        <time>2023-01-05T10:23:31.456Z</time>
      </trkpt>
      <trkpt lat="39.67196" lon="2.88436">
        <ele>147.940462</ele>
        <time>2023-01-05T10:23:34.443Z</time>
      </trkpt>
      <trkpt lat="39.6719" lon="2.88424">
        <ele>148.101718</ele>
        <time>2023-01-05T10:23:37.421Z</time>
      </trkpt>
      <trkpt lat="39.67183" lon="2.88411">
        <ele>148.274877</ele>
        <time>2023-01-05T10:23:40.443Z</time>
      </trkpt>
      <trkpt lat="39.67176" lon="2.88398">
        <ele>148.458202</ele>
        <time>2023-01-05T10:23:43.428Z</time>
      </trkpt>
      <trkpt lat="39.67166" lon="2.88385">
        <ele>148.653586</ele>
        <time>2023-01-05T10:23:46.441Z</time>
      </trkpt>
      <trkpt lat="39.67158" lon="2.88372">
        <ele>148.845247</ele>
        <time>2023-01-05T10:23:49.436Z</time>
      </trkpt>
      <trkpt lat="39.67151" lon="2.88364">
        <ele>148.976128</ele>
        <time>2023-01-05T10:23:51.435Z</time>
      </trkpt>
      <trkpt lat="39.67141" lon="2.88353">
        <ele>149.16431</ele>
        <time>2023-01-05T10:23:54.454Z</time>
      </trkpt>
      <trkpt lat="39.67133" lon="2.88341">
        <ele>149.281998</ele>
        <time>2023-01-05T10:23:57.437Z</time>
      </trkpt>
      <trkpt lat="39.67124" lon="2.8833">
        <ele>149.305561</ele>
        <time>2023-01-05T10:24:00.436Z</time>
      </trkpt>
      <trkpt lat="39.67115" lon="2.88318">
        <ele>149.329663</ele>
        <time>2023-01-05T10:24:03.432Z</time>
      </trkpt>
      <trkpt lat="39.67106" lon="2.88306">
        <ele>149.353698</ele>
        <time>2023-01-05T10:24:06.442Z</time>
      </trkpt>
      <trkpt lat="39.67096" lon="2.88295">
        <ele>149.378282</ele>
        <time>2023-01-05T10:24:09.450Z</time>
      </trkpt>
      <trkpt lat="39.67088" lon="2.88282">
        <ele>149.402546</ele>
        <time>2023-01-05T10:24:12.454Z</time>
      </trkpt>
      <trkpt lat="39.67082" lon="2.88273">
        <ele>149.419438</ele>
        <time>2023-01-05T10:24:14.424Z</time>
      </trkpt>
      <trkpt lat="39.67075" lon="2.88259">
        <ele>149.443573</ele>
        <time>2023-01-05T10:24:17.439Z</time>
      </trkpt>
      <trkpt lat="39.67067" lon="2.88246">
        <ele>149.468847</ele>
        <time>2023-01-05T10:24:20.435Z</time>
      </trkpt>
      <trkpt lat="39.67058" lon="2.88232">
        <ele>149.493554</ele>
        <time>2023-01-05T10:24:23.429Z</time>
      </trkpt>
      <trkpt lat="39.6705" lon="2.8822">
        <ele>149.516791</ele>
        <time>2023-01-05T10:24:26.449Z</time>
      </trkpt>
      <trkpt lat="39.67042" lon="2.88208">
        <ele>149.539906</ele>
        <time>2023-01-05T10:24:29.436Z</time>
      </trkpt>
      <trkpt lat="39.67034" lon="2.88196">
        <ele>149.563574</ele>
        <time>2023-01-05T10:24:32.450Z</time>
      </trkpt>
      <trkpt lat="39.67026" lon="2.88183">
        <ele>149.587005</ele>
        <time>2023-01-05T10:24:35.435Z</time>
      </trkpt>
      <trkpt lat="39.67019" lon="2.8817">
        <ele>149.610432</ele>
        <time>2023-01-05T10:24:38.437Z</time>
      </trkpt>
      <trkpt lat="39.67011" lon="2.88157">
        <ele>149.625393</ele>
        <time>2023-01-05T10:24:41.441Z</time>
      </trkpt>
      <trkpt lat="39.67003" lon="2.88145">
        <ele>149.639421</ele>
        <time>2023-01-05T10:24:44.444Z</time>
      </trkpt>
      <trkpt lat="39.66995" lon="2.88131">
        <ele>149.654073</ele>
        <time>2023-01-05T10:24:47.413Z</time>
      </trkpt>
      <trkpt lat="39.66987" lon="2.88118">
        <ele>149.668926</ele>
        <time>2023-01-05T10:24:50.448Z</time>
      </trkpt>
      <trkpt lat="39.6698" lon="2.88105">
        <ele>149.682965</ele>
        <time>2023-01-05T10:24:53.430Z</time>
      </trkpt>
      <trkpt lat="39.66972" lon="2.88091">
        <ele>149.697894</ele>
        <time>2023-01-05T10:24:56.436Z</time>
      </trkpt>
      <trkpt lat="39.66967" lon="2.88081">
        <ele>149.708407</ele>
        <time>2023-01-05T10:24:58.431Z</time>
      </trkpt>
      <trkpt lat="39.66959" lon="2.88067">
        <ele>149.723813</ele>
        <time>2023-01-05T10:25:01.439Z</time>
      </trkpt>
      <trkpt lat="39.66952" lon="2.88058">
        <ele>149.734473</ele>
        <time>2023-01-05T10:25:03.441Z</time>
      </trkpt>
      <trkpt lat="39.66947" lon="2.88048">
        <ele>149.744975</ele>
        <time>2023-01-05T10:25:05.432Z</time>
      </trkpt>
      <trkpt lat="39.66939" lon="2.88035">
        <ele>149.759971</ele>
        <time>2023-01-05T10:25:08.423Z</time>
      </trkpt>
      <trkpt lat="39.66933" lon="2.88025">
        <ele>149.77061</ele>
        <time>2023-01-05T10:25:10.441Z</time>
      </trkpt>
      <trkpt lat="39.66928" lon="2.88015">
        <ele>149.781043</ele>
        <time>2023-01-05T10:25:12.448Z</time>
      </trkpt>
      <trkpt lat="39.66922" lon="2.88005">
        <ele>149.791961</ele>
        <time>2023-01-05T10:25:14.453Z</time>
      </trkpt>
      <trkpt lat="39.66914" lon="2.87991">
        <ele>149.80682</ele>
        <time>2023-01-05T10:25:17.444Z</time>
      </trkpt>
      <trkpt lat="39.66908" lon="2.87982">
        <ele>149.81106</ele>
        <time>2023-01-05T10:25:19.440Z</time>
      </trkpt>
      <trkpt lat="39.66903" lon="2.87972">
        <ele>149.785429</ele>
        <time>2023-01-05T10:25:21.450Z</time>
      </trkpt>
      <trkpt lat="39.66895" lon="2.87959">
        <ele>149.750574</ele>
        <time>2023-01-05T10:25:24.435Z</time>
      </trkpt>
      <trkpt lat="39.66887" lon="2.87946">
        <ele>149.714561</ele>
        <time>2023-01-05T10:25:27.449Z</time>
      </trkpt>
      <trkpt lat="39.66882" lon="2.87936">
        <ele>149.68989</ele>
        <time>2023-01-05T10:25:29.438Z</time>
      </trkpt>
      <trkpt lat="39.66874" lon="2.87923">
        <ele>149.654052</ele>
        <time>2023-01-05T10:25:32.436Z</time>
      </trkpt>
      <trkpt lat="39.66866" lon="2.87909">
        <ele>149.617012</ele>
        <time>2023-01-05T10:25:35.449Z</time>
      </trkpt>
      <trkpt lat="39.6686" lon="2.87899">
        <ele>149.591722</ele>
        <time>2023-01-05T10:25:37.433Z</time>
      </trkpt>
      <trkpt lat="39.66852" lon="2.87886">
        <ele>149.554512</ele>
        <time>2023-01-05T10:25:40.447Z</time>
      </trkpt>
      <trkpt lat="39.66846" lon="2.87876">
        <ele>149.527885</ele>
        <time>2023-01-05T10:25:42.451Z</time>
      </trkpt>
      <trkpt lat="39.6684" lon="2.87866">
        <ele>149.501592</ele>
        <time>2023-01-05T10:25:44.428Z</time>
      </trkpt>
      <trkpt lat="39.66834" lon="2.87856">
        <ele>149.476131</ele>
        <time>2023-01-05T10:25:46.437Z</time>
      </trkpt>
      <trkpt lat="39.66827" lon="2.87842">
        <ele>149.439634</ele>
        <time>2023-01-05T10:25:49.441Z</time>
      </trkpt>
      <trkpt lat="39.66822" lon="2.87827">
        <ele>149.405472</ele>
        <time>2023-01-05T10:25:52.423Z</time>
      </trkpt>
      <trkpt lat="39.66817" lon="2.87812">
        <ele>149.370319</ele>
        <time>2023-01-05T10:25:55.427Z</time>
      </trkpt>
      <trkpt lat="39.66811" lon="2.87796">
        <ele>149.333085</ele>
        <time>2023-01-05T10:25:58.449Z</time>
      </trkpt>
      <trkpt lat="39.66803" lon="2.87782">
        <ele>149.296052</ele>
        <time>2023-01-05T10:26:01.438Z</time>
      </trkpt>
      <trkpt lat="39.66795" lon="2.87769">
        <ele>149.257518</ele>
        <time>2023-01-05T10:26:04.446Z</time>
      </trkpt>
      <trkpt lat="39.66787" lon="2.87757">
        <ele>149.221252</ele>
        <time>2023-01-05T10:26:07.429Z</time>
      </trkpt>
      <trkpt lat="39.66779" lon="2.87746">
        <ele>149.18656</ele>
        <time>2023-01-05T10:26:10.440Z</time>
      </trkpt>
      <trkpt lat="39.66772" lon="2.87735">
        <ele>149.156042</ele>
        <time>2023-01-05T10:26:13.418Z</time>
      </trkpt>
      <trkpt lat="39.66766" lon="2.87726">
        <ele>149.127997</ele>
        <time>2023-01-05T10:26:16.455Z</time>
      </trkpt>
      <trkpt lat="39.66759" lon="2.87717">
        <ele>149.098325</ele>
        <time>2023-01-05T10:26:20.437Z</time>
      </trkpt>
      <trkpt lat="39.66751" lon="2.87707">
        <ele>149.066542</ele>
        <time>2023-01-05T10:26:24.440Z</time>
      </trkpt>
      <trkpt lat="39.66743" lon="2.87698">
        <ele>149.035066</ele>
        <time>2023-01-05T10:26:28.450Z</time>
      </trkpt>
      <trkpt lat="39.66737" lon="2.87686">
        <ele>149.003866</ele>
        <time>2023-01-05T10:26:31.433Z</time>
      </trkpt>
      <trkpt lat="39.66729" lon="2.87676">
        <ele>148.971187</ele>
        <time>2023-01-05T10:26:34.454Z</time>
      </trkpt>
      <trkpt lat="39.6672" lon="2.87664">
        <ele>148.933408</ele>
        <time>2023-01-05T10:26:37.455Z</time>
      </trkpt>
      <trkpt lat="39.66711" lon="2.87651">
        <ele>148.895064</ele>
        <time>2023-01-05T10:26:40.450Z</time>
      </trkpt>
      <trkpt lat="39.66702" lon="2.87639">
        <ele>148.856113</ele>
        <time>2023-01-05T10:26:43.427Z</time>
      </trkpt>
      <trkpt lat="39.66697" lon="2.8763">
        <ele>148.829403</ele>
        <time>2023-01-05T10:26:45.448Z</time>
      </trkpt>
      <trkpt lat="39.66688" lon="2.87617">
        <ele>148.802458</ele>
        <time>2023-01-05T10:26:48.444Z</time>
      </trkpt>
      <trkpt lat="39.66681" lon="2.87608">
        <ele>148.885713</ele>
        <time>2023-01-05T10:26:50.437Z</time>
      </trkpt>
      <trkpt lat="39.66672" lon="2.87595">
        <ele>149.00316</ele>
        <time>2023-01-05T10:26:53.459Z</time>
      </trkpt>
      <trkpt lat="39.66663" lon="2.87584">
        <ele>149.114338</ele>
        <time>2023-01-05T10:26:56.437Z</time>
      </trkpt>
      <trkpt lat="39.66654" lon="2.87573">
        <ele>149.222809</ele>
        <time>2023-01-05T10:26:59.440Z</time>
      </trkpt>
      <trkpt lat="39.66646" lon="2.87562">
        <ele>149.33206</ele>
        <time>2023-01-05T10:27:02.443Z</time>
      </trkpt>
      <trkpt lat="39.66637" lon="2.8755">
        <ele>149.443534</ele>
        <time>2023-01-05T10:27:05.463Z</time>
      </trkpt>
      <trkpt lat="39.66629" lon="2.87538">
        <ele>149.553458</ele>
        <time>2023-01-05T10:27:08.438Z</time>
      </trkpt>
      <trkpt lat="39.66622" lon="2.87525">
        <ele>149.660054</ele>
        <time>2023-01-05T10:27:11.415Z</time>
      </trkpt>
      <trkpt lat="39.66617" lon="2.87513">
        <ele>149.755613</ele>
        <time>2023-01-05T10:27:14.424Z</time>
      </trkpt>
      <trkpt lat="39.66615" lon="2.875">
        <ele>149.845222</ele>
        <time>2023-01-05T10:27:17.426Z</time>
      </trkpt>
      <trkpt lat="39.66616" lon="2.87487">
        <ele>149.936291</ele>
        <time>2023-01-05T10:27:20.438Z</time>
      </trkpt>
      <trkpt lat="39.6662" lon="2.87474">
        <ele>150.028035</ele>
        <time>2023-01-05T10:27:23.431Z</time>
      </trkpt>
      <trkpt lat="39.66626" lon="2.87464">
        <ele>150.118955</ele>
        <time>2023-01-05T10:27:26.443Z</time>
      </trkpt>
      <trkpt lat="39.66634" lon="2.87455">
        <ele>150.211546</ele>
        <time>2023-01-05T10:27:29.433Z</time>
      </trkpt>
      <trkpt lat="39.66639" lon="2.87444">
        <ele>150.298506</ele>
        <time>2023-01-05T10:27:32.437Z</time>
      </trkpt>
      <trkpt lat="39.66643" lon="2.87433">
        <ele>150.380098</ele>
        <time>2023-01-05T10:27:35.417Z</time>
      </trkpt>
      <trkpt lat="39.66643" lon="2.87421">
        <ele>150.482767</ele>
        <time>2023-01-05T10:27:38.430Z</time>
      </trkpt>
      <trkpt lat="39.66637" lon="2.8741">
        <ele>150.602817</ele>
        <time>2023-01-05T10:27:41.431Z</time>
      </trkpt>
      <trkpt lat="39.66632" lon="2.87396">
        <ele>150.732295</ele>
        <time>2023-01-05T10:27:44.428Z</time>
      </trkpt>
      <trkpt lat="39.66626" lon="2.87382">
        <ele>150.871973</ele>
        <time>2023-01-05T10:27:47.428Z</time>
      </trkpt>
      <trkpt lat="39.66621" lon="2.87368">
        <ele>151.003523</ele>
        <time>2023-01-05T10:27:50.437Z</time>
      </trkpt>
      <trkpt lat="39.66615" lon="2.87354">
        <ele>151.141816</ele>
        <time>2023-01-05T10:27:53.457Z</time>
      </trkpt>
      <trkpt lat="39.6661" lon="2.87341">
        <ele>151.275788</ele>
        <time>2023-01-05T10:27:56.455Z</time>
      </trkpt>
      <trkpt lat="39.66605" lon="2.87326">
        <ele>151.416155</ele>
        <time>2023-01-05T10:27:59.452Z</time>
      </trkpt>
      <trkpt lat="39.666" lon="2.87311">
        <ele>151.560273</ele>
        <time>2023-01-05T10:28:02.455Z</time>
      </trkpt>
      <trkpt lat="39.66595" lon="2.87297">
        <ele>151.699009</ele>
        <time>2023-01-05T10:28:05.433Z</time>
      </trkpt>
      <trkpt lat="39.66589" lon="2.87282">
        <ele>151.846365</ele>
        <time>2023-01-05T10:28:08.438Z</time>
      </trkpt>
      <trkpt lat="39.66583" lon="2.87267">
        <ele>151.992956</ele>
        <time>2023-01-05T10:28:11.421Z</time>
      </trkpt>
      <trkpt lat="39.66576" lon="2.87252">
        <ele>152.139474</ele>
        <time>2023-01-05T10:28:14.449Z</time>
      </trkpt>
      <trkpt lat="39.66569" lon="2.87238">
        <ele>152.289934</ele>
        <time>2023-01-05T10:28:17.437Z</time>
      </trkpt>
      <trkpt lat="39.66564" lon="2.87228">
        <ele>152.394587</ele>
        <time>2023-01-05T10:28:19.434Z</time>
      </trkpt>
      <trkpt lat="39.66559" lon="2.87218">
        <ele>152.470855</ele>
        <time>2023-01-05T10:28:21.452Z</time>
      </trkpt>
      <trkpt lat="39.66554" lon="2.87208">
        <ele>152.532767</ele>
        <time>2023-01-05T10:28:23.431Z</time>
      </trkpt>
      <trkpt lat="39.66547" lon="2.87193">
        <ele>152.626004</ele>
        <time>2023-01-05T10:28:26.438Z</time>
      </trkpt>
      <trkpt lat="39.66541" lon="2.87182">
        <ele>152.695946</ele>
        <time>2023-01-05T10:28:28.431Z</time>
      </trkpt>
      <trkpt lat="39.66537" lon="2.87172">
        <ele>152.757921</ele>
        <time>2023-01-05T10:28:30.436Z</time>
      </trkpt>
      <trkpt lat="39.66531" lon="2.87162">
        <ele>152.823534</ele>
        <time>2023-01-05T10:28:32.455Z</time>
      </trkpt>
      <trkpt lat="39.66524" lon="2.87148">
        <ele>152.912774</ele>
        <time>2023-01-05T10:28:35.432Z</time>
      </trkpt>
      <trkpt lat="39.66517" lon="2.87134">
        <ele>153.000567</ele>
        <time>2023-01-05T10:28:38.457Z</time>
      </trkpt>
      <trkpt lat="39.66509" lon="2.8712">
        <ele>153.092775</ele>
        <time>2023-01-05T10:28:41.440Z</time>
      </trkpt>
      <trkpt lat="39.66502" lon="2.87106">
        <ele>153.179838</ele>
        <time>2023-01-05T10:28:44.435Z</time>
      </trkpt>
      <trkpt lat="39.66495" lon="2.87093">
        <ele>153.269468</ele>
        <time>2023-01-05T10:28:47.431Z</time>
      </trkpt>
      <trkpt lat="39.66488" lon="2.87079">
        <ele>153.357631</ele>
        <time>2023-01-05T10:28:50.436Z</time>
      </trkpt>
      <trkpt lat="39.66481" lon="2.87066">
        <ele>153.439207</ele>
        <time>2023-01-05T10:28:53.427Z</time>
      </trkpt>
      <trkpt lat="39.66475" lon="2.87052">
        <ele>153.526047</ele>
        <time>2023-01-05T10:28:56.436Z</time>
      </trkpt>
      <trkpt lat="39.66469" lon="2.87038">
        <ele>153.609526</ele>
        <time>2023-01-05T10:28:59.434Z</time>
      </trkpt>
      <trkpt lat="39.66463" lon="2.87024">
        <ele>153.697626</ele>
        <time>2023-01-05T10:29:02.441Z</time>
      </trkpt>
      <trkpt lat="39.66456" lon="2.8701">
        <ele>153.784806</ele>
        <time>2023-01-05T10:29:05.438Z</time>
      </trkpt>
      <trkpt lat="39.66449" lon="2.86996">
        <ele>153.876431</ele>
        <time>2023-01-05T10:29:08.446Z</time>
      </trkpt>
      <trkpt lat="39.66441" lon="2.86983">
        <ele>153.963062</ele>
        <time>2023-01-05T10:29:11.414Z</time>
      </trkpt>
      <trkpt lat="39.66433" lon="2.8697">
        <ele>154.053143</ele>
        <time>2023-01-05T10:29:14.439Z</time>
      </trkpt>
      <trkpt lat="39.66425" lon="2.86957">
        <ele>154.144089</ele>
        <time>2023-01-05T10:29:17.449Z</time>
      </trkpt>
      <trkpt lat="39.66417" lon="2.86944">
        <ele>154.235454</ele>
        <time>2023-01-05T10:29:20.448Z</time>
      </trkpt>
      <trkpt lat="39.66409" lon="2.86931">
        <ele>154.326883</ele>
        <time>2023-01-05T10:29:23.427Z</time>
      </trkpt>
      <trkpt lat="39.66401" lon="2.86918">
        <ele>154.415647</ele>
        <time>2023-01-05T10:29:26.444Z</time>
      </trkpt>
      <trkpt lat="39.66394" lon="2.86905">
        <ele>154.503137</ele>
        <time>2023-01-05T10:29:29.436Z</time>
      </trkpt>
      <trkpt lat="39.66388" lon="2.86891">
        <ele>154.588557</ele>
        <time>2023-01-05T10:29:32.412Z</time>
      </trkpt>
      <trkpt lat="39.66381" lon="2.86878">
        <ele>154.67502</ele>
        <time>2023-01-05T10:29:35.430Z</time>
      </trkpt>
      <trkpt lat="39.66375" lon="2.86864">
        <ele>154.762071</ele>
        <time>2023-01-05T10:29:38.431Z</time>
      </trkpt>
      <trkpt lat="39.66369" lon="2.8685">
        <ele>154.850358</ele>
        <time>2023-01-05T10:29:41.437Z</time>
      </trkpt>
      <trkpt lat="39.66362" lon="2.86836">
        <ele>154.937619</ele>
        <time>2023-01-05T10:29:44.453Z</time>
      </trkpt>
      <trkpt lat="39.66356" lon="2.86822">
        <ele>155.019551</ele>
        <time>2023-01-05T10:29:47.435Z</time>
      </trkpt>
      <trkpt lat="39.66349" lon="2.86809">
        <ele>155.100114</ele>
        <time>2023-01-05T10:29:50.451Z</time>
      </trkpt>
      <trkpt lat="39.66342" lon="2.86794">
        <ele>155.186226</ele>
        <time>2023-01-05T10:29:53.427Z</time>
      </trkpt>
      <trkpt lat="39.66335" lon="2.86781">
        <ele>155.267929</ele>
        <time>2023-01-05T10:29:56.448Z</time>
      </trkpt>
      <trkpt lat="39.6633" lon="2.86766">
        <ele>155.35051</ele>
        <time>2023-01-05T10:29:59.436Z</time>
      </trkpt>
      <trkpt lat="39.66327" lon="2.86751">
        <ele>155.427699</ele>
        <time>2023-01-05T10:30:02.435Z</time>
      </trkpt>
      <trkpt lat="39.66323" lon="2.86736">
        <ele>155.506787</ele>
        <time>2023-01-05T10:30:05.429Z</time>
      </trkpt>
      <trkpt lat="39.6632" lon="2.86722">
        <ele>155.585318</ele>
        <time>2023-01-05T10:30:08.438Z</time>
      </trkpt>
      <trkpt lat="39.66316" lon="2.86707">
        <ele>155.664634</ele>
        <time>2023-01-05T10:30:11.435Z</time>
      </trkpt>
      <trkpt lat="39.66312" lon="2.86692">
        <ele>155.744815</ele>
        <time>2023-01-05T10:30:14.430Z</time>
      </trkpt>
      <trkpt lat="39.66309" lon="2.86677">
        <ele>155.822658</ele>
        <time>2023-01-05T10:30:17.437Z</time>
      </trkpt>
      <trkpt lat="39.66305" lon="2.86662">
        <ele>155.900781</ele>
        <time>2023-01-05T10:30:20.437Z</time>
      </trkpt>
      <trkpt lat="39.66302" lon="2.86648">
        <ele>155.97797</ele>
        <time>2023-01-05T10:30:23.440Z</time>
      </trkpt>
      <trkpt lat="39.66298" lon="2.86633">
        <ele>156.057257</ele>
        <time>2023-01-05T10:30:26.451Z</time>
      </trkpt>
      <trkpt lat="39.66294" lon="2.86619">
        <ele>156.129873</ele>
        <time>2023-01-05T10:30:29.433Z</time>
      </trkpt>
      <trkpt lat="39.66292" lon="2.86603">
        <ele>156.19835</ele>
        <time>2023-01-05T10:30:32.440Z</time>
      </trkpt>
      <trkpt lat="39.66292" lon="2.86588">
        <ele>156.267104</ele>
        <time>2023-01-05T10:30:35.426Z</time>
      </trkpt>
      <trkpt lat="39.66292" lon="2.86572">
        <ele>156.335421</ele>
        <time>2023-01-05T10:30:38.433Z</time>
      </trkpt>
      <trkpt lat="39.66292" lon="2.86556">
        <ele>156.404059</ele>
        <time>2023-01-05T10:30:41.446Z</time>
      </trkpt>
      <trkpt lat="39.66292" lon="2.86541">
        <ele>156.471396</ele>
        <time>2023-01-05T10:30:44.436Z</time>
      </trkpt>
      <trkpt lat="39.66291" lon="2.86525">
        <ele>156.543165</ele>
        <time>2023-01-05T10:30:47.436Z</time>
      </trkpt>
      <trkpt lat="39.66288" lon="2.8651">
        <ele>156.611069</ele>
        <time>2023-01-05T10:30:50.435Z</time>
      </trkpt>
      <trkpt lat="39.66285" lon="2.86495">
        <ele>156.678594</ele>
        <time>2023-01-05T10:30:53.442Z</time>
      </trkpt>
      <trkpt lat="39.66283" lon="2.86479">
        <ele>156.748686</ele>
        <time>2023-01-05T10:30:56.447Z</time>
      </trkpt>
      <trkpt lat="39.6628" lon="2.86464">
        <ele>156.814382</ele>
        <time>2023-01-05T10:30:59.450Z</time>
      </trkpt>
      <trkpt lat="39.66278" lon="2.86449">
        <ele>156.881436</ele>
        <time>2023-01-05T10:31:02.437Z</time>
      </trkpt>
      <trkpt lat="39.66275" lon="2.86434">
        <ele>156.94934</ele>
        <time>2023-01-05T10:31:05.446Z</time>
      </trkpt>
      <trkpt lat="39.66272" lon="2.86418">
        <ele>157.019432</ele>
        <time>2023-01-05T10:31:08.426Z</time>
      </trkpt>
      <trkpt lat="39.66268" lon="2.86403">
        <ele>157.09023</ele>
        <time>2023-01-05T10:31:11.441Z</time>
      </trkpt>
      <trkpt lat="39.66263" lon="2.86388">
        <ele>157.162349</ele>
        <time>2023-01-05T10:31:14.429Z</time>
      </trkpt>
      <trkpt lat="39.66259" lon="2.86372">
        <ele>157.234335</ele>
        <time>2023-01-05T10:31:17.457Z</time>
      </trkpt>
      <trkpt lat="39.66254" lon="2.86357">
        <ele>157.30534</ele>
        <time>2023-01-05T10:31:20.442Z</time>
      </trkpt>
      <trkpt lat="39.6625" lon="2.86341">
        <ele>157.37685</ele>
        <time>2023-01-05T10:31:23.431Z</time>
      </trkpt>
      <trkpt lat="39.66247" lon="2.86325">
        <ele>157.445091</ele>
        <time>2023-01-05T10:31:26.445Z</time>
      </trkpt>
      <trkpt lat="39.66243" lon="2.8631">
        <ele>157.5157</ele>
        <time>2023-01-05T10:31:29.442Z</time>
      </trkpt>
      <trkpt lat="39.66239" lon="2.86294">
        <ele>157.586974</ele>
        <time>2023-01-05T10:31:32.432Z</time>
      </trkpt>
      <trkpt lat="39.66236" lon="2.86279">
        <ele>157.655288</ele>
        <time>2023-01-05T10:31:35.452Z</time>
      </trkpt>
      <trkpt lat="39.66232" lon="2.86263">
        <ele>157.723846</ele>
        <time>2023-01-05T10:31:38.433Z</time>
      </trkpt>
      <trkpt lat="39.66229" lon="2.86247">
        <ele>157.794</ele>
        <time>2023-01-05T10:31:41.434Z</time>
      </trkpt>
      <trkpt lat="39.66225" lon="2.86232">
        <ele>157.865043</ele>
        <time>2023-01-05T10:31:44.456Z</time>
      </trkpt>
      <trkpt lat="39.6622" lon="2.86217">
        <ele>157.933844</ele>
        <time>2023-01-05T10:31:47.430Z</time>
      </trkpt>
      <trkpt lat="39.66217" lon="2.86201">
        <ele>158.002346</ele>
        <time>2023-01-05T10:31:50.439Z</time>
      </trkpt>
      <trkpt lat="39.66213" lon="2.86186">
        <ele>158.069966</ele>
        <time>2023-01-05T10:31:53.439Z</time>
      </trkpt>
      <trkpt lat="39.66209" lon="2.86171">
        <ele>158.135981</ele>
        <time>2023-01-05T10:31:56.435Z</time>
      </trkpt>
      <trkpt lat="39.66205" lon="2.86155">
        <ele>158.093734</ele>
        <time>2023-01-05T10:31:59.442Z</time>
      </trkpt>
      <trkpt lat="39.66202" lon="2.86139">
        <ele>158.051855</ele>
        <time>2023-01-05T10:32:02.455Z</time>
      </trkpt>
      <trkpt lat="39.66198" lon="2.86123">
        <ele>158.01013</ele>
        <time>2023-01-05T10:32:05.448Z</time>
      </trkpt>
      <trkpt lat="39.66194" lon="2.86107">
        <ele>157.96761</ele>
        <time>2023-01-05T10:32:08.430Z</time>
      </trkpt>
      <trkpt lat="39.66191" lon="2.86091">
        <ele>157.927096</ele>
        <time>2023-01-05T10:32:11.424Z</time>
      </trkpt>
      <trkpt lat="39.66187" lon="2.86075">
        <ele>157.885059</ele>
        <time>2023-01-05T10:32:14.460Z</time>
      </trkpt>
      <trkpt lat="39.66183" lon="2.8606">
        <ele>157.84279</ele>
        <time>2023-01-05T10:32:17.441Z</time>
      </trkpt>
      <trkpt lat="39.66179" lon="2.86046">
        <ele>157.805788</ele>
        <time>2023-01-05T10:32:20.445Z</time>
      </trkpt>
      <trkpt lat="39.66176" lon="2.86031">
        <ele>157.766521</ele>
        <time>2023-01-05T10:32:23.428Z</time>
      </trkpt>
      <trkpt lat="39.66174" lon="2.86018">
        <ele>157.733935</ele>
        <time>2023-01-05T10:32:25.435Z</time>
      </trkpt>
      <trkpt lat="39.6617" lon="2.86002">
        <ele>157.690723</ele>
        <time>2023-01-05T10:32:28.447Z</time>
      </trkpt>
      <trkpt lat="39.66167" lon="2.85987">
        <ele>157.652089</ele>
        <time>2023-01-05T10:32:31.450Z</time>
      </trkpt>
      <trkpt lat="39.66164" lon="2.85972">
        <ele>157.614119</ele>
        <time>2023-01-05T10:32:34.439Z</time>
      </trkpt>
      <trkpt lat="39.66161" lon="2.85957">
        <ele>157.573873</ele>
        <time>2023-01-05T10:32:37.434Z</time>
      </trkpt>
      <trkpt lat="39.66157" lon="2.85941">
        <ele>157.612932</ele>
        <time>2023-01-05T10:32:40.454Z</time>
      </trkpt>
      <trkpt lat="39.66156" lon="2.85925">
        <ele>157.787674</ele>
        <time>2023-01-05T10:32:43.430Z</time>
      </trkpt>
      <trkpt lat="39.66153" lon="2.85908">
        <ele>157.962989</ele>
        <time>2023-01-05T10:32:46.441Z</time>
      </trkpt>
      <trkpt lat="39.66153" lon="2.8589">
        <ele>158.145259</ele>
        <time>2023-01-05T10:32:49.434Z</time>
      </trkpt>
      <trkpt lat="39.66152" lon="2.85873">
        <ele>158.32594</ele>
        <time>2023-01-05T10:32:52.453Z</time>
      </trkpt>
      <trkpt lat="39.66151" lon="2.85856">
        <ele>158.505107</ele>
        <time>2023-01-05T10:32:55.426Z</time>
      </trkpt>
      <trkpt lat="39.6615" lon="2.85839">
        <ele>158.675264</ele>
        <time>2023-01-05T10:32:58.454Z</time>
      </trkpt>
      <trkpt lat="39.66149" lon="2.85823">
        <ele>158.839448</ele>
        <time>2023-01-05T10:33:01.443Z</time>
      </trkpt>
      <trkpt lat="39.66146" lon="2.85807">
        <ele>159.015878</ele>
        <time>2023-01-05T10:33:04.426Z</time>
      </trkpt>
      <trkpt lat="39.66141" lon="2.85791">
        <ele>159.194078</ele>
        <time>2023-01-05T10:33:07.447Z</time>
      </trkpt>
      <trkpt lat="39.66137" lon="2.85776">
        <ele>159.361739</ele>
        <time>2023-01-05T10:33:10.449Z</time>
      </trkpt>
      <trkpt lat="39.66134" lon="2.8576">
        <ele>159.528537</ele>
        <time>2023-01-05T10:33:13.424Z</time>
      </trkpt>
      <trkpt lat="39.6613" lon="2.85744">
        <ele>159.704634</ele>
        <time>2023-01-05T10:33:16.430Z</time>
      </trkpt>
      <trkpt lat="39.66128" lon="2.85727">
        <ele>159.881719</ele>
        <time>2023-01-05T10:33:19.437Z</time>
      </trkpt>
      <trkpt lat="39.66126" lon="2.8571">
        <ele>159.96551</ele>
        <time>2023-01-05T10:33:22.441Z</time>
      </trkpt>
      <trkpt lat="39.66124" lon="2.85694">
        <ele>159.963726</ele>
        <time>2023-01-05T10:33:25.435Z</time>
      </trkpt>
      <trkpt lat="39.66122" lon="2.85679">
        <ele>159.961952</ele>
        <time>2023-01-05T10:33:28.442Z</time>
      </trkpt>
      <trkpt lat="39.66121" lon="2.85663">
        <ele>159.96023</ele>
        <time>2023-01-05T10:33:31.428Z</time>
      </trkpt>
      <trkpt lat="39.66119" lon="2.85651">
        <ele>159.958784</ele>
        <time>2023-01-05T10:33:34.422Z</time>
      </trkpt>
      <trkpt lat="39.66117" lon="2.85636">
        <ele>159.957138</ele>
        <time>2023-01-05T10:33:38.442Z</time>
      </trkpt>
      <trkpt lat="39.66115" lon="2.85623">
        <ele>159.955666</ele>
        <time>2023-01-05T10:33:41.422Z</time>
      </trkpt>
      <trkpt lat="39.66113" lon="2.85608">
        <ele>159.953986</ele>
        <time>2023-01-05T10:33:44.431Z</time>
      </trkpt>
      <trkpt lat="39.66112" lon="2.85593">
        <ele>159.952224</ele>
        <time>2023-01-05T10:33:47.426Z</time>
      </trkpt>
      <trkpt lat="39.66111" lon="2.85577">
        <ele>159.95052</ele>
        <time>2023-01-05T10:33:50.443Z</time>
      </trkpt>
      <trkpt lat="39.66111" lon="2.85562">
        <ele>159.94884</ele>
        <time>2023-01-05T10:33:53.443Z</time>
      </trkpt>
      <trkpt lat="39.6611" lon="2.85547">
        <ele>159.947126</ele>
        <time>2023-01-05T10:33:56.435Z</time>
      </trkpt>
      <trkpt lat="39.66109" lon="2.85532">
        <ele>159.945435</ele>
        <time>2023-01-05T10:33:59.438Z</time>
      </trkpt>
      <trkpt lat="39.66108" lon="2.85517">
        <ele>159.94375</ele>
        <time>2023-01-05T10:34:02.432Z</time>
      </trkpt>
      <trkpt lat="39.66107" lon="2.85503">
        <ele>159.942222</ele>
        <time>2023-01-05T10:34:05.447Z</time>
      </trkpt>
      <trkpt lat="39.66107" lon="2.85491">
        <ele>159.940835</ele>
        <time>2023-01-05T10:34:08.436Z</time>
      </trkpt>
      <trkpt lat="39.66107" lon="2.85479">
        <ele>160.003007</ele>
        <time>2023-01-05T10:34:11.414Z</time>
      </trkpt>
      <trkpt lat="39.66107" lon="2.85467">
        <ele>160.109935</ele>
        <time>2023-01-05T10:34:14.421Z</time>
      </trkpt>
      <trkpt lat="39.66107" lon="2.85454">
        <ele>160.211773</ele>
        <time>2023-01-05T10:34:17.436Z</time>
      </trkpt>
      <trkpt lat="39.66106" lon="2.85442">
        <ele>160.315131</ele>
        <time>2023-01-05T10:34:20.432Z</time>
      </trkpt>
      <trkpt lat="39.66107" lon="2.85429">
        <ele>160.42461</ele>
        <time>2023-01-05T10:34:23.431Z</time>
      </trkpt>
      <trkpt lat="39.66106" lon="2.85416">
        <ele>160.535708</ele>
        <time>2023-01-05T10:34:26.437Z</time>
      </trkpt>
      <trkpt lat="39.66108" lon="2.85402">
        <ele>160.651714</ele>
        <time>2023-01-05T10:34:29.427Z</time>
      </trkpt>
      <trkpt lat="39.6611" lon="2.85388">
        <ele>160.768312</ele>
        <time>2023-01-05T10:34:32.433Z</time>
      </trkpt>
      <trkpt lat="39.66111" lon="2.85375">
        <ele>160.881873</ele>
        <time>2023-01-05T10:34:35.444Z</time>
      </trkpt>
      <trkpt lat="39.66114" lon="2.85361">
        <ele>160.997283</ele>
        <time>2023-01-05T10:34:38.443Z</time>
      </trkpt>
      <trkpt lat="39.66115" lon="2.85348">
        <ele>161.110469</ele>
        <time>2023-01-05T10:34:41.441Z</time>
      </trkpt>
      <trkpt lat="39.66116" lon="2.85334">
        <ele>161.230227</ele>
        <time>2023-01-05T10:34:44.445Z</time>
      </trkpt>
      <trkpt lat="39.66117" lon="2.85319">
        <ele>161.355068</ele>
        <time>2023-01-05T10:34:47.449Z</time>
      </trkpt>
      <trkpt lat="39.66119" lon="2.85304">
        <ele>161.479814</ele>
        <time>2023-01-05T10:34:50.448Z</time>
      </trkpt>
      <trkpt lat="39.66119" lon="2.85289">
        <ele>161.605135</ele>
        <time>2023-01-05T10:34:53.420Z</time>
      </trkpt>
      <trkpt lat="39.6612" lon="2.85274">
        <ele>161.729579</ele>
        <time>2023-01-05T10:34:56.445Z</time>
      </trkpt>
      <trkpt lat="39.66118" lon="2.85259">
        <ele>161.85235</ele>
        <time>2023-01-05T10:34:59.429Z</time>
      </trkpt>
      <trkpt lat="39.66116" lon="2.85244">
        <ele>162.007876</ele>
        <time>2023-01-05T10:35:02.436Z</time>
      </trkpt>
      <trkpt lat="39.66115" lon="2.85227">
        <ele>162.183194</ele>
        <time>2023-01-05T10:35:05.446Z</time>
      </trkpt>
      <trkpt lat="39.66114" lon="2.8521">
        <ele>162.36736</ele>
        <time>2023-01-05T10:35:08.434Z</time>
      </trkpt>
      <trkpt lat="39.66113" lon="2.85193">
        <ele>162.547759</ele>
        <time>2023-01-05T10:35:11.425Z</time>
      </trkpt>
      <trkpt lat="39.66113" lon="2.85177">
        <ele>162.719595</ele>
        <time>2023-01-05T10:35:14.444Z</time>
      </trkpt>
      <trkpt lat="39.66113" lon="2.85161">
        <ele>162.881948</ele>
        <time>2023-01-05T10:35:17.442Z</time>
      </trkpt>
      <trkpt lat="39.66113" lon="2.85147">
        <ele>163.031701</ele>
        <time>2023-01-05T10:35:20.444Z</time>
      </trkpt>
      <trkpt lat="39.66113" lon="2.85132">
        <ele>163.187724</ele>
        <time>2023-01-05T10:35:23.435Z</time>
      </trkpt>
      <trkpt lat="39.66113" lon="2.85117">
        <ele>163.344854</ele>
        <time>2023-01-05T10:35:26.441Z</time>
      </trkpt>
      <trkpt lat="39.66113" lon="2.85102">
        <ele>163.501026</ele>
        <time>2023-01-05T10:35:29.457Z</time>
      </trkpt>
      <trkpt lat="39.66113" lon="2.85087">
        <ele>163.665505</ele>
        <time>2023-01-05T10:35:32.450Z</time>
      </trkpt>
      <trkpt lat="39.66112" lon="2.85071">
        <ele>163.837428</ele>
        <time>2023-01-05T10:35:35.440Z</time>
      </trkpt>
      <trkpt lat="39.66112" lon="2.85055">
        <ele>164.00111</ele>
        <time>2023-01-05T10:35:38.444Z</time>
      </trkpt>
      <trkpt lat="39.6611" lon="2.8504">
        <ele>164.165974</ele>
        <time>2023-01-05T10:35:41.431Z</time>
      </trkpt>
      <trkpt lat="39.66107" lon="2.85024">
        <ele>164.337909</ele>
        <time>2023-01-05T10:35:44.416Z</time>
      </trkpt>
      <trkpt lat="39.66103" lon="2.85008">
        <ele>164.489393</ele>
        <time>2023-01-05T10:35:47.434Z</time>
      </trkpt>
      <trkpt lat="39.66099" lon="2.84997">
        <ele>164.595062</ele>
        <time>2023-01-05T10:35:49.443Z</time>
      </trkpt>
      <trkpt lat="39.66095" lon="2.84981">
        <ele>164.744682</ele>
        <time>2023-01-05T10:35:52.447Z</time>
      </trkpt>
      <trkpt lat="39.66091" lon="2.84964">
        <ele>164.894542</ele>
        <time>2023-01-05T10:35:55.435Z</time>
      </trkpt>
      <trkpt lat="39.66087" lon="2.84949">
        <ele>165.03967</ele>
        <time>2023-01-05T10:35:58.432Z</time>
      </trkpt>
      <trkpt lat="39.66082" lon="2.84933">
        <ele>165.189047</ele>
        <time>2023-01-05T10:36:01.418Z</time>
      </trkpt>
      <trkpt lat="39.66078" lon="2.84917">
        <ele>165.334143</ele>
        <time>2023-01-05T10:36:04.438Z</time>
      </trkpt>
      <trkpt lat="39.66073" lon="2.84901">
        <ele>165.484192</ele>
        <time>2023-01-05T10:36:07.447Z</time>
      </trkpt>
      <trkpt lat="39.66069" lon="2.84885">
        <ele>165.633852</ele>
        <time>2023-01-05T10:36:10.441Z</time>
      </trkpt>
      <trkpt lat="39.66065" lon="2.84869">
        <ele>165.784427</ele>
        <time>2023-01-05T10:36:13.423Z</time>
      </trkpt>
      <trkpt lat="39.66061" lon="2.84858">
        <ele>165.888096</ele>
        <time>2023-01-05T10:36:15.439Z</time>
      </trkpt>
      <trkpt lat="39.66057" lon="2.84842">
        <ele>166.03593</ele>
        <time>2023-01-05T10:36:18.436Z</time>
      </trkpt>
      <trkpt lat="39.66053" lon="2.84826">
        <ele>166.18567</ele>
        <time>2023-01-05T10:36:21.420Z</time>
      </trkpt>
      <trkpt lat="39.66049" lon="2.8481">
        <ele>166.336942</ele>
        <time>2023-01-05T10:36:24.435Z</time>
      </trkpt>
      <trkpt lat="39.66045" lon="2.84799">
        <ele>166.424178</ele>
        <time>2023-01-05T10:36:26.433Z</time>
      </trkpt>
      <trkpt lat="39.66042" lon="2.84788">
        <ele>166.468672</ele>
        <time>2023-01-05T10:36:28.430Z</time>
      </trkpt>
      <trkpt lat="39.66038" lon="2.84772">
        <ele>166.533085</ele>
        <time>2023-01-05T10:36:31.414Z</time>
      </trkpt>
      <trkpt lat="39.66034" lon="2.84756">
        <ele>166.596034</ele>
        <time>2023-01-05T10:36:34.443Z</time>
      </trkpt>
      <trkpt lat="39.66029" lon="2.8474">
        <ele>166.659686</ele>
        <time>2023-01-05T10:36:37.446Z</time>
      </trkpt>
      <trkpt lat="39.66024" lon="2.84725">
        <ele>166.724223</ele>
        <time>2023-01-05T10:36:40.444Z</time>
      </trkpt>
      <trkpt lat="39.66019" lon="2.84709">
        <ele>166.789513</ele>
        <time>2023-01-05T10:36:43.420Z</time>
      </trkpt>
      <trkpt lat="39.66015" lon="2.84698">
        <ele>166.834016</ele>
        <time>2023-01-05T10:36:45.431Z</time>
      </trkpt>
      <trkpt lat="39.6601" lon="2.84682">
        <ele>166.898228</ele>
        <time>2023-01-05T10:36:48.435Z</time>
      </trkpt>
      <trkpt lat="39.66005" lon="2.84666">
        <ele>166.961533</ele>
        <time>2023-01-05T10:36:51.431Z</time>
      </trkpt>
      <trkpt lat="39.66" lon="2.84651">
        <ele>167.023127</ele>
        <time>2023-01-05T10:36:54.443Z</time>
      </trkpt>
      <trkpt lat="39.65995" lon="2.84635">
        <ele>167.088197</ele>
        <time>2023-01-05T10:36:57.430Z</time>
      </trkpt>
      <trkpt lat="39.6599" lon="2.8462">
        <ele>167.152384</ele>
        <time>2023-01-05T10:37:00.436Z</time>
      </trkpt>
      <trkpt lat="39.65986" lon="2.84603">
        <ele>167.218026</ele>
        <time>2023-01-05T10:37:03.426Z</time>
      </trkpt>
      <trkpt lat="39.65983" lon="2.84592">
        <ele>167.263743</ele>
        <time>2023-01-05T10:37:05.429Z</time>
      </trkpt>
      <trkpt lat="39.6598" lon="2.84581">
        <ele>167.295499</ele>
        <time>2023-01-05T10:37:07.428Z</time>
      </trkpt>
      <trkpt lat="39.65977" lon="2.8457">
        <ele>167.30508</ele>
        <time>2023-01-05T10:37:09.443Z</time>
      </trkpt>
      <trkpt lat="39.65972" lon="2.84553">
        <ele>167.319375</ele>
        <time>2023-01-05T10:37:12.446Z</time>
      </trkpt>
      <trkpt lat="39.65969" lon="2.84542">
        <ele>167.32888</ele>
        <time>2023-01-05T10:37:14.452Z</time>
      </trkpt>
      <trkpt lat="39.65964" lon="2.84527">
        <ele>167.342719</ele>
        <time>2023-01-05T10:37:17.440Z</time>
      </trkpt>
      <trkpt lat="39.65959" lon="2.84511">
        <ele>167.356635</ele>
        <time>2023-01-05T10:37:20.435Z</time>
      </trkpt>
      <trkpt lat="39.65955" lon="2.84495">
        <ele>167.37055</ele>
        <time>2023-01-05T10:37:23.422Z</time>
      </trkpt>
      <trkpt lat="39.65951" lon="2.84484">
        <ele>167.380094</ele>
        <time>2023-01-05T10:37:25.435Z</time>
      </trkpt>
      <trkpt lat="39.65947" lon="2.84468">
        <ele>167.39379</ele>
        <time>2023-01-05T10:37:28.450Z</time>
      </trkpt>
      <trkpt lat="39.65944" lon="2.84452">
        <ele>167.406825</ele>
        <time>2023-01-05T10:37:31.439Z</time>
      </trkpt>
      <trkpt lat="39.6594" lon="2.84436">
        <ele>167.420321</ele>
        <time>2023-01-05T10:37:34.441Z</time>
      </trkpt>
      <trkpt lat="39.65937" lon="2.84419">
        <ele>167.434765</ele>
        <time>2023-01-05T10:37:37.447Z</time>
      </trkpt>
      <trkpt lat="39.65933" lon="2.84403">
        <ele>167.448867</ele>
        <time>2023-01-05T10:37:40.441Z</time>
      </trkpt>
      <trkpt lat="39.65931" lon="2.84391">
        <ele>167.458759</ele>
        <time>2023-01-05T10:37:42.443Z</time>
      </trkpt>
      <trkpt lat="39.65929" lon="2.84379">
        <ele>167.468548</ele>
        <time>2023-01-05T10:37:44.446Z</time>
      </trkpt>
      <trkpt lat="39.65927" lon="2.84368">
        <ele>167.478154</ele>
        <time>2023-01-05T10:37:46.457Z</time>
      </trkpt>
      <trkpt lat="39.65924" lon="2.84356">
        <ele>167.523891</ele>
        <time>2023-01-05T10:37:48.437Z</time>
      </trkpt>
      <trkpt lat="39.65922" lon="2.84344">
        <ele>167.591826</ele>
        <time>2023-01-05T10:37:50.435Z</time>
      </trkpt>
      <trkpt lat="39.6592" lon="2.84332">
        <ele>167.65865</ele>
        <time>2023-01-05T10:37:52.441Z</time>
      </trkpt>
      <trkpt lat="39.65918" lon="2.84321">
        <ele>167.725606</ele>
        <time>2023-01-05T10:37:54.442Z</time>
      </trkpt>
      <trkpt lat="39.65914" lon="2.84304">
        <ele>167.826179</ele>
        <time>2023-01-05T10:37:57.434Z</time>
      </trkpt>
      <trkpt lat="39.65912" lon="2.84293">
        <ele>167.892951</ele>
        <time>2023-01-05T10:37:59.435Z</time>
      </trkpt>
      <trkpt lat="39.65908" lon="2.84277">
        <ele>167.988625</ele>
        <time>2023-01-05T10:38:02.435Z</time>
      </trkpt>
      <trkpt lat="39.65906" lon="2.84265">
        <ele>168.055304</ele>
        <time>2023-01-05T10:38:04.436Z</time>
      </trkpt>
      <trkpt lat="39.65902" lon="2.84249">
        <ele>168.149892</ele>
        <time>2023-01-05T10:38:07.455Z</time>
      </trkpt>
      <trkpt lat="39.65898" lon="2.84233">
        <ele>168.246109</ele>
        <time>2023-01-05T10:38:10.438Z</time>
      </trkpt>
      <trkpt lat="39.65894" lon="2.84217">
        <ele>168.343849</ele>
        <time>2023-01-05T10:38:13.428Z</time>
      </trkpt>
      <trkpt lat="39.6589" lon="2.84201">
        <ele>168.441274</ele>
        <time>2023-01-05T10:38:16.448Z</time>
      </trkpt>
      <trkpt lat="39.65886" lon="2.84185">
        <ele>168.534683</ele>
        <time>2023-01-05T10:38:19.444Z</time>
      </trkpt>
      <trkpt lat="39.65884" lon="2.84169">
        <ele>168.626966</ele>
        <time>2023-01-05T10:38:22.436Z</time>
      </trkpt>
      <trkpt lat="39.65881" lon="2.84153">
        <ele>168.718206</ele>
        <time>2023-01-05T10:38:25.436Z</time>
      </trkpt>
      <trkpt lat="39.6588" lon="2.84138">
        <ele>168.805744</ele>
        <time>2023-01-05T10:38:28.446Z</time>
      </trkpt>
      <trkpt lat="39.65879" lon="2.84123">
        <ele>168.857358</ele>
        <time>2023-01-05T10:38:31.439Z</time>
      </trkpt>
      <trkpt lat="39.65877" lon="2.84108">
        <ele>168.909965</ele>
        <time>2023-01-05T10:38:34.444Z</time>
      </trkpt>
      <trkpt lat="39.65874" lon="2.84092">
        <ele>168.964391</ele>
        <time>2023-01-05T10:38:37.451Z</time>
      </trkpt>
      <trkpt lat="39.6587" lon="2.84076">
        <ele>169.018264</ele>
        <time>2023-01-05T10:38:40.443Z</time>
      </trkpt>
      <trkpt lat="39.65866" lon="2.84061">
        <ele>169.072732</ele>
        <time>2023-01-05T10:38:43.438Z</time>
      </trkpt>
      <trkpt lat="39.65862" lon="2.84045">
        <ele>169.127792</ele>
        <time>2023-01-05T10:38:46.455Z</time>
      </trkpt>
      <trkpt lat="39.65857" lon="2.84029">
        <ele>169.185046</ele>
        <time>2023-01-05T10:38:49.434Z</time>
      </trkpt>
      <trkpt lat="39.65855" lon="2.84013">
        <ele>169.241425</ele>
        <time>2023-01-05T10:38:52.445Z</time>
      </trkpt>
      <trkpt lat="39.65854" lon="2.83997">
        <ele>169.293875</ele>
        <time>2023-01-05T10:38:55.435Z</time>
      </trkpt>
      <trkpt lat="39.65853" lon="2.83982">
        <ele>169.344834</ele>
        <time>2023-01-05T10:38:58.445Z</time>
      </trkpt>
      <trkpt lat="39.65852" lon="2.83967">
        <ele>169.394792</ele>
        <time>2023-01-05T10:39:01.446Z</time>
      </trkpt>
      <trkpt lat="39.65851" lon="2.83952">
        <ele>169.444084</ele>
        <time>2023-01-05T10:39:04.437Z</time>
      </trkpt>
      <trkpt lat="39.65851" lon="2.83938">
        <ele>169.49225</ele>
        <time>2023-01-05T10:39:07.447Z</time>
      </trkpt>
      <trkpt lat="39.65849" lon="2.83922">
        <ele>169.545908</ele>
        <time>2023-01-05T10:39:10.434Z</time>
      </trkpt>
      <trkpt lat="39.65847" lon="2.83906">
        <ele>169.58252</ele>
        <time>2023-01-05T10:39:13.411Z</time>
      </trkpt>
      <trkpt lat="39.65843" lon="2.83892">
        <ele>169.528792</ele>
        <time>2023-01-05T10:39:16.432Z</time>
      </trkpt>
      <trkpt lat="39.6584" lon="2.83876">
        <ele>169.4726</ele>
        <time>2023-01-05T10:39:19.442Z</time>
      </trkpt>
      <trkpt lat="39.65837" lon="2.8386">
        <ele>169.415986</ele>
        <time>2023-01-05T10:39:22.442Z</time>
      </trkpt>
      <trkpt lat="39.65834" lon="2.83844">
        <ele>169.35851</ele>
        <time>2023-01-05T10:39:25.423Z</time>
      </trkpt>
      <trkpt lat="39.65831" lon="2.83828">
        <ele>169.299148</ele>
        <time>2023-01-05T10:39:28.448Z</time>
      </trkpt>
      <trkpt lat="39.65829" lon="2.83811">
        <ele>169.239254</ele>
        <time>2023-01-05T10:39:31.433Z</time>
      </trkpt>
      <trkpt lat="39.65829" lon="2.83794">
        <ele>169.180448</ele>
        <time>2023-01-05T10:39:34.427Z</time>
      </trkpt>
      <trkpt lat="39.6583" lon="2.83782">
        <ele>169.139625</ele>
        <time>2023-01-05T10:39:36.446Z</time>
      </trkpt>
      <trkpt lat="39.6583" lon="2.8377">
        <ele>169.09753</ele>
        <time>2023-01-05T10:39:38.437Z</time>
      </trkpt>
      <trkpt lat="39.6583" lon="2.83758">
        <ele>169.056819</ele>
        <time>2023-01-05T10:39:40.442Z</time>
      </trkpt>
      <trkpt lat="39.6583" lon="2.83746">
        <ele>169.014357</ele>
        <time>2023-01-05T10:39:42.439Z</time>
      </trkpt>
      <trkpt lat="39.6583" lon="2.83734">
        <ele>168.971895</ele>
        <time>2023-01-05T10:39:44.446Z</time>
      </trkpt>
      <trkpt lat="39.65831" lon="2.83716">
        <ele>168.909915</ele>
        <time>2023-01-05T10:39:47.433Z</time>
      </trkpt>
      <trkpt lat="39.65831" lon="2.83699">
        <ele>168.851097</ele>
        <time>2023-01-05T10:39:50.451Z</time>
      </trkpt>
      <trkpt lat="39.65832" lon="2.83687">
        <ele>168.809927</ele>
        <time>2023-01-05T10:39:52.437Z</time>
      </trkpt>
      <trkpt lat="39.65832" lon="2.8367">
        <ele>168.763427</ele>
        <time>2023-01-05T10:39:55.455Z</time>
      </trkpt>
      <trkpt lat="39.65832" lon="2.83653">
        <ele>168.733831</ele>
        <time>2023-01-05T10:39:58.447Z</time>
      </trkpt>
      <trkpt lat="39.65832" lon="2.83636">
        <ele>168.705131</ele>
        <time>2023-01-05T10:40:01.435Z</time>
      </trkpt>
      <trkpt lat="39.65833" lon="2.83619">
        <ele>168.675176</ele>
        <time>2023-01-05T10:40:04.447Z</time>
      </trkpt>
      <trkpt lat="39.65832" lon="2.83603">
        <ele>168.645769</ele>
        <time>2023-01-05T10:40:07.419Z</time>
      </trkpt>
      <trkpt lat="39.65833" lon="2.83586">
        <ele>168.615999</ele>
        <time>2023-01-05T10:40:10.455Z</time>
      </trkpt>
      <trkpt lat="39.65833" lon="2.83574">
        <ele>168.595523</ele>
        <time>2023-01-05T10:40:12.438Z</time>
      </trkpt>
      <trkpt lat="39.65833" lon="2.83562">
        <ele>168.574854</ele>
        <time>2023-01-05T10:40:14.445Z</time>
      </trkpt>
      <trkpt lat="39.65833" lon="2.83545">
        <ele>168.544229</ele>
        <time>2023-01-05T10:40:17.445Z</time>
      </trkpt>
      <trkpt lat="39.65834" lon="2.83528">
        <ele>168.515172</ele>
        <time>2023-01-05T10:40:20.448Z</time>
      </trkpt>
      <trkpt lat="39.65833" lon="2.83511">
        <ele>168.485069</ele>
        <time>2023-01-05T10:40:23.427Z</time>
      </trkpt>
      <trkpt lat="39.65833" lon="2.83494">
        <ele>168.455614</ele>
        <time>2023-01-05T10:40:26.438Z</time>
      </trkpt>
      <trkpt lat="39.65832" lon="2.83477">
        <ele>168.426319</ele>
        <time>2023-01-05T10:40:29.450Z</time>
      </trkpt>
      <trkpt lat="39.65829" lon="2.8346">
        <ele>168.396087</ele>
        <time>2023-01-05T10:40:32.438Z</time>
      </trkpt>
      <trkpt lat="39.65826" lon="2.83444">
        <ele>168.373791</ele>
        <time>2023-01-05T10:40:35.427Z</time>
      </trkpt>
      <trkpt lat="39.65824" lon="2.83427">
        <ele>168.418055</ele>
        <time>2023-01-05T10:40:38.444Z</time>
      </trkpt>
      <trkpt lat="39.65821" lon="2.8341">
        <ele>168.463476</ele>
        <time>2023-01-05T10:40:41.437Z</time>
      </trkpt>
      <trkpt lat="39.6582" lon="2.83398">
        <ele>168.494394</ele>
        <time>2023-01-05T10:40:43.426Z</time>
      </trkpt>
      <trkpt lat="39.65817" lon="2.83381">
        <ele>168.539362</ele>
        <time>2023-01-05T10:40:46.441Z</time>
      </trkpt>
      <trkpt lat="39.65815" lon="2.83364">
        <ele>168.583308</ele>
        <time>2023-01-05T10:40:49.444Z</time>
      </trkpt>
      <trkpt lat="39.65813" lon="2.83353">
        <ele>168.614164</ele>
        <time>2023-01-05T10:40:51.447Z</time>
      </trkpt>
      <trkpt lat="39.6581" lon="2.83337">
        <ele>168.657363</ele>
        <time>2023-01-05T10:40:54.436Z</time>
      </trkpt>
      <trkpt lat="39.65808" lon="2.8332">
        <ele>168.700418</ele>
        <time>2023-01-05T10:40:57.449Z</time>
      </trkpt>
      <trkpt lat="39.65805" lon="2.83305">
        <ele>168.742679</ele>
        <time>2023-01-05T10:41:00.439Z</time>
      </trkpt>
      <trkpt lat="39.65801" lon="2.8329">
        <ele>168.782366</ele>
        <time>2023-01-05T10:41:03.432Z</time>
      </trkpt>
      <trkpt lat="39.65798" lon="2.83276">
        <ele>168.820743</ele>
        <time>2023-01-05T10:41:06.450Z</time>
      </trkpt>
      <trkpt lat="39.65796" lon="2.83262">
        <ele>168.857475</ele>
        <time>2023-01-05T10:41:09.417Z</time>
      </trkpt>
      <trkpt lat="39.65793" lon="2.83245">
        <ele>168.902525</ele>
        <time>2023-01-05T10:41:12.427Z</time>
      </trkpt>
      <trkpt lat="39.6579" lon="2.83229">
        <ele>168.946462</ele>
        <time>2023-01-05T10:41:15.442Z</time>
      </trkpt>
      <trkpt lat="39.65788" lon="2.83217">
        <ele>168.976961</ele>
        <time>2023-01-05T10:41:17.436Z</time>
      </trkpt>
      <trkpt lat="39.65786" lon="2.83206">
        <ele>169.007135</ele>
        <time>2023-01-05T10:41:19.426Z</time>
      </trkpt>
      <trkpt lat="39.65784" lon="2.83194">
        <ele>169.037271</ele>
        <time>2023-01-05T10:41:21.458Z</time>
      </trkpt>
      <trkpt lat="39.65781" lon="2.83182">
        <ele>169.067605</ele>
        <time>2023-01-05T10:41:23.422Z</time>
      </trkpt>
      <trkpt lat="39.65779" lon="2.8317">
        <ele>169.098265</ele>
        <time>2023-01-05T10:41:25.443Z</time>
      </trkpt>
      <trkpt lat="39.65777" lon="2.83159">
        <ele>169.128532</ele>
        <time>2023-01-05T10:41:27.435Z</time>
      </trkpt>
      <trkpt lat="39.65774" lon="2.83147">
        <ele>169.160041</ele>
        <time>2023-01-05T10:41:29.442Z</time>
      </trkpt>
      <trkpt lat="39.65771" lon="2.83135">
        <ele>169.190935</ele>
        <time>2023-01-05T10:41:31.436Z</time>
      </trkpt>
      <trkpt lat="39.65768" lon="2.83123">
        <ele>169.223597</ele>
        <time>2023-01-05T10:41:33.436Z</time>
      </trkpt>
      <trkpt lat="39.65765" lon="2.83111">
        <ele>169.254966</ele>
        <time>2023-01-05T10:41:35.453Z</time>
      </trkpt>
      <trkpt lat="39.65761" lon="2.83099">
        <ele>169.286072</ele>
        <time>2023-01-05T10:41:37.439Z</time>
      </trkpt>
      <trkpt lat="39.65758" lon="2.83087">
        <ele>169.317168</ele>
        <time>2023-01-05T10:41:39.459Z</time>
      </trkpt>
      <trkpt lat="39.65755" lon="2.83075">
        <ele>169.349829</ele>
        <time>2023-01-05T10:41:41.441Z</time>
      </trkpt>
      <trkpt lat="39.65752" lon="2.83063">
        <ele>169.381517</ele>
        <time>2023-01-05T10:41:43.428Z</time>
      </trkpt>
      <trkpt lat="39.65748" lon="2.8305">
        <ele>169.41647</ele>
        <time>2023-01-05T10:41:45.436Z</time>
      </trkpt>
      <trkpt lat="39.65744" lon="2.83039">
        <ele>169.447362</ele>
        <time>2023-01-05T10:41:47.449Z</time>
      </trkpt>
      <trkpt lat="39.6574" lon="2.83027">
        <ele>169.480252</ele>
        <time>2023-01-05T10:41:49.438Z</time>
      </trkpt>
      <trkpt lat="39.65736" lon="2.83015">
        <ele>169.511775</ele>
        <time>2023-01-05T10:41:51.437Z</time>
      </trkpt>
      <trkpt lat="39.65732" lon="2.83003">
        <ele>169.544638</ele>
        <time>2023-01-05T10:41:53.426Z</time>
      </trkpt>
      <trkpt lat="39.65728" lon="2.82992">
        <ele>169.567578</ele>
        <time>2023-01-05T10:41:55.430Z</time>
      </trkpt>
      <trkpt lat="39.65724" lon="2.8298">
        <ele>169.580932</ele>
        <time>2023-01-05T10:41:57.440Z</time>
      </trkpt>
      <trkpt lat="39.6572" lon="2.82969">
        <ele>169.593891</ele>
        <time>2023-01-05T10:41:59.436Z</time>
      </trkpt>
      <trkpt lat="39.65716" lon="2.82958">
        <ele>169.606154</ele>
        <time>2023-01-05T10:42:01.443Z</time>
      </trkpt>
      <trkpt lat="39.65713" lon="2.82947">
        <ele>169.618369</ele>
        <time>2023-01-05T10:42:03.422Z</time>
      </trkpt>
      <trkpt lat="39.65709" lon="2.82936">
        <ele>169.631006</ele>
        <time>2023-01-05T10:42:05.433Z</time>
      </trkpt>
      <trkpt lat="39.65706" lon="2.82925">
        <ele>169.643416</ele>
        <time>2023-01-05T10:42:07.435Z</time>
      </trkpt>
      <trkpt lat="39.65702" lon="2.82915">
        <ele>169.655585</ele>
        <time>2023-01-05T10:42:09.437Z</time>
      </trkpt>
      <trkpt lat="39.65698" lon="2.82901">
        <ele>169.67081</ele>
        <time>2023-01-05T10:42:12.442Z</time>
      </trkpt>
      <trkpt lat="39.65693" lon="2.82889">
        <ele>169.684867</ele>
        <time>2023-01-05T10:42:15.432Z</time>
      </trkpt>
      <trkpt lat="39.65687" lon="2.82878">
        <ele>169.699107</ele>
        <time>2023-01-05T10:42:18.422Z</time>
      </trkpt>
      <trkpt lat="39.65684" lon="2.82865">
        <ele>169.713295</ele>
        <time>2023-01-05T10:42:21.431Z</time>
      </trkpt>
      <trkpt lat="39.65681" lon="2.82851">
        <ele>169.728366</ele>
        <time>2023-01-05T10:42:24.439Z</time>
      </trkpt>
      <trkpt lat="39.65676" lon="2.82836">
        <ele>169.745876</ele>
        <time>2023-01-05T10:42:27.429Z</time>
      </trkpt>
      <trkpt lat="39.65672" lon="2.82824">
        <ele>169.758336</ele>
        <time>2023-01-05T10:42:29.448Z</time>
      </trkpt>
      <trkpt lat="39.65669" lon="2.82813">
        <ele>169.770746</ele>
        <time>2023-01-05T10:42:31.456Z</time>
      </trkpt>
      <trkpt lat="39.65666" lon="2.82802">
        <ele>169.783698</ele>
        <time>2023-01-05T10:42:33.434Z</time>
      </trkpt>
      <trkpt lat="39.65662" lon="2.8279">
        <ele>169.796985</ele>
        <time>2023-01-05T10:42:35.437Z</time>
      </trkpt>
      <trkpt lat="39.65658" lon="2.82778">
        <ele>169.83474</ele>
        <time>2023-01-05T10:42:37.441Z</time>
      </trkpt>
      <trkpt lat="39.65655" lon="2.82767">
        <ele>169.912973</ele>
        <time>2023-01-05T10:42:39.432Z</time>
      </trkpt>
      <trkpt lat="39.65651" lon="2.82755">
        <ele>169.997449</ele>
        <time>2023-01-05T10:42:41.433Z</time>
      </trkpt>
      <trkpt lat="39.65648" lon="2.82742">
        <ele>170.077988</ele>
        <time>2023-01-05T10:42:43.439Z</time>
      </trkpt>
      <trkpt lat="39.65646" lon="2.8273">
        <ele>170.157019</ele>
        <time>2023-01-05T10:42:45.455Z</time>
      </trkpt>
      <trkpt lat="39.65644" lon="2.82718">
        <ele>170.240309</ele>
        <time>2023-01-05T10:42:47.439Z</time>
      </trkpt>
      <trkpt lat="39.65642" lon="2.82705">
        <ele>170.324657</ele>
        <time>2023-01-05T10:42:49.435Z</time>
      </trkpt>
      <trkpt lat="39.65641" lon="2.82692">
        <ele>170.407189</ele>
        <time>2023-01-05T10:42:51.438Z</time>
      </trkpt>
      <trkpt lat="39.65639" lon="2.82679">
        <ele>170.492013</ele>
        <time>2023-01-05T10:42:53.428Z</time>
      </trkpt>
      <trkpt lat="39.65637" lon="2.82666">
        <ele>170.575614</ele>
        <time>2023-01-05T10:42:55.449Z</time>
      </trkpt>
      <trkpt lat="39.65634" lon="2.82652">
        <ele>170.664956</ele>
        <time>2023-01-05T10:42:57.460Z</time>
      </trkpt>
      <trkpt lat="39.65632" lon="2.82639">
        <ele>170.751413</ele>
        <time>2023-01-05T10:42:59.444Z</time>
      </trkpt>
      <trkpt lat="39.6563" lon="2.82626">
        <ele>170.833824</ele>
        <time>2023-01-05T10:43:01.440Z</time>
      </trkpt>
      <trkpt lat="39.6563" lon="2.82614">
        <ele>170.914987</ele>
        <time>2023-01-05T10:43:03.430Z</time>
      </trkpt>
      <trkpt lat="39.65629" lon="2.82601">
        <ele>170.993745</ele>
        <time>2023-01-05T10:43:05.439Z</time>
      </trkpt>
      <trkpt lat="39.65628" lon="2.82589">
        <ele>171.074578</ele>
        <time>2023-01-05T10:43:07.431Z</time>
      </trkpt>
      <trkpt lat="39.65627" lon="2.82576">
        <ele>171.15369</ele>
        <time>2023-01-05T10:43:09.446Z</time>
      </trkpt>
      <trkpt lat="39.65626" lon="2.82564">
        <ele>171.235702</ele>
        <time>2023-01-05T10:43:11.442Z</time>
      </trkpt>
      <trkpt lat="39.65626" lon="2.82551">
        <ele>171.313932</ele>
        <time>2023-01-05T10:43:13.419Z</time>
      </trkpt>
      <trkpt lat="39.65625" lon="2.82538">
        <ele>171.379327</ele>
        <time>2023-01-05T10:43:15.431Z</time>
      </trkpt>
      <trkpt lat="39.65624" lon="2.82526">
        <ele>171.445386</ele>
        <time>2023-01-05T10:43:17.451Z</time>
      </trkpt>
      <trkpt lat="39.65623" lon="2.82513">
        <ele>171.514095</ele>
        <time>2023-01-05T10:43:19.425Z</time>
      </trkpt>
      <trkpt lat="39.65622" lon="2.825">
        <ele>171.580679</ele>
        <time>2023-01-05T10:43:21.444Z</time>
      </trkpt>
      <trkpt lat="39.65621" lon="2.82488">
        <ele>171.647109</ele>
        <time>2023-01-05T10:43:23.434Z</time>
      </trkpt>
      <trkpt lat="39.6562" lon="2.82475">
        <ele>171.713594</ele>
        <time>2023-01-05T10:43:25.439Z</time>
      </trkpt>
      <trkpt lat="39.6562" lon="2.82462">
        <ele>171.782145</ele>
        <time>2023-01-05T10:43:27.429Z</time>
      </trkpt>
      <trkpt lat="39.65619" lon="2.82449">
        <ele>171.850139</ele>
        <time>2023-01-05T10:43:29.430Z</time>
      </trkpt>
      <trkpt lat="39.65618" lon="2.82437">
        <ele>171.916142</ele>
        <time>2023-01-05T10:43:31.434Z</time>
      </trkpt>
      <trkpt lat="39.65617" lon="2.82424">
        <ele>171.98188</ele>
        <time>2023-01-05T10:43:33.419Z</time>
      </trkpt>
      <trkpt lat="39.65615" lon="2.82412">
        <ele>172.050807</ele>
        <time>2023-01-05T10:43:35.432Z</time>
      </trkpt>
      <trkpt lat="39.65615" lon="2.82399">
        <ele>172.119303</ele>
        <time>2023-01-05T10:43:37.453Z</time>
      </trkpt>
      <trkpt lat="39.65614" lon="2.82386">
        <ele>172.185693</ele>
        <time>2023-01-05T10:43:39.435Z</time>
      </trkpt>
      <trkpt lat="39.65615" lon="2.82373">
        <ele>172.2538</ele>
        <time>2023-01-05T10:43:41.431Z</time>
      </trkpt>
      <trkpt lat="39.65617" lon="2.8236">
        <ele>172.321689</ele>
        <time>2023-01-05T10:43:43.428Z</time>
      </trkpt>
      <trkpt lat="39.65618" lon="2.82348">
        <ele>172.389447</ele>
        <time>2023-01-05T10:43:45.439Z</time>
      </trkpt>
      <trkpt lat="39.65618" lon="2.82334">
        <ele>172.458439</ele>
        <time>2023-01-05T10:43:47.432Z</time>
      </trkpt>
      <trkpt lat="39.65617" lon="2.82321">
        <ele>172.526123</ele>
        <time>2023-01-05T10:43:49.450Z</time>
      </trkpt>
      <trkpt lat="39.65615" lon="2.82307">
        <ele>172.545778</ele>
        <time>2023-01-05T10:43:51.435Z</time>
      </trkpt>
      <trkpt lat="39.65614" lon="2.82295">
        <ele>172.563786</ele>
        <time>2023-01-05T10:43:53.450Z</time>
      </trkpt>
      <trkpt lat="39.65614" lon="2.82282">
        <ele>172.581733</ele>
        <time>2023-01-05T10:43:55.447Z</time>
      </trkpt>
      <trkpt lat="39.65614" lon="2.82269">
        <ele>172.600273</ele>
        <time>2023-01-05T10:43:57.451Z</time>
      </trkpt>
      <trkpt lat="39.65613" lon="2.82256">
        <ele>172.618254</ele>
        <time>2023-01-05T10:43:59.443Z</time>
      </trkpt>
      <trkpt lat="39.65613" lon="2.82243">
        <ele>172.637256</ele>
        <time>2023-01-05T10:44:01.448Z</time>
      </trkpt>
      <trkpt lat="39.65611" lon="2.82231">
        <ele>172.654751</ele>
        <time>2023-01-05T10:44:03.441Z</time>
      </trkpt>
      <trkpt lat="39.6561" lon="2.82218">
        <ele>172.673565</ele>
        <time>2023-01-05T10:44:05.444Z</time>
      </trkpt>
      <trkpt lat="39.6561" lon="2.82204">
        <ele>172.692666</ele>
        <time>2023-01-05T10:44:07.458Z</time>
      </trkpt>
      <trkpt lat="39.65611" lon="2.82192">
        <ele>172.710727</ele>
        <time>2023-01-05T10:44:09.430Z</time>
      </trkpt>
      <trkpt lat="39.65612" lon="2.82179">
        <ele>172.729424</ele>
        <time>2023-01-05T10:44:11.429Z</time>
      </trkpt>
      <trkpt lat="39.65614" lon="2.82166">
        <ele>172.747955</ele>
        <time>2023-01-05T10:44:13.443Z</time>
      </trkpt>
      <trkpt lat="39.65615" lon="2.82153">
        <ele>172.766159</ele>
        <time>2023-01-05T10:44:15.448Z</time>
      </trkpt>
      <trkpt lat="39.65615" lon="2.8214">
        <ele>172.784851</ele>
        <time>2023-01-05T10:44:17.441Z</time>
      </trkpt>
      <trkpt lat="39.65616" lon="2.82127">
        <ele>172.803128</ele>
        <time>2023-01-05T10:44:19.437Z</time>
      </trkpt>
      <trkpt lat="39.65615" lon="2.82115">
        <ele>172.821394</ele>
        <time>2023-01-05T10:44:21.442Z</time>
      </trkpt>
      <trkpt lat="39.65613" lon="2.82102">
        <ele>172.83938</ele>
        <time>2023-01-05T10:44:23.424Z</time>
      </trkpt>
      <trkpt lat="39.65612" lon="2.82089">
        <ele>172.853031</ele>
        <time>2023-01-05T10:44:25.448Z</time>
      </trkpt>
      <trkpt lat="39.65611" lon="2.82076">
        <ele>172.76361</ele>
        <time>2023-01-05T10:44:27.446Z</time>
      </trkpt>
      <trkpt lat="39.65609" lon="2.82063">
        <ele>172.673112</ele>
        <time>2023-01-05T10:44:29.440Z</time>
      </trkpt>
      <trkpt lat="39.65607" lon="2.8205">
        <ele>172.586118</ele>
        <time>2023-01-05T10:44:31.450Z</time>
      </trkpt>
      <trkpt lat="39.65606" lon="2.82038">
        <ele>172.498591</ele>
        <time>2023-01-05T10:44:33.428Z</time>
      </trkpt>
      <trkpt lat="39.65605" lon="2.82024">
        <ele>172.405234</ele>
        <time>2023-01-05T10:44:35.417Z</time>
      </trkpt>
      <trkpt lat="39.65603" lon="2.8201">
        <ele>172.310413</ele>
        <time>2023-01-05T10:44:37.418Z</time>
      </trkpt>
      <trkpt lat="39.65602" lon="2.81996">
        <ele>172.212998</ele>
        <time>2023-01-05T10:44:39.446Z</time>
      </trkpt>
      <trkpt lat="39.656" lon="2.81982">
        <ele>172.116307</ele>
        <time>2023-01-05T10:44:41.432Z</time>
      </trkpt>
      <trkpt lat="39.65599" lon="2.81967">
        <ele>172.015172</ele>
        <time>2023-01-05T10:44:43.409Z</time>
      </trkpt>
      <trkpt lat="39.65598" lon="2.81953">
        <ele>171.914157</ele>
        <time>2023-01-05T10:44:45.436Z</time>
      </trkpt>
      <trkpt lat="39.65597" lon="2.81938">
        <ele>171.811591</ele>
        <time>2023-01-05T10:44:47.441Z</time>
      </trkpt>
      <trkpt lat="39.65595" lon="2.81923">
        <ele>171.709901</ele>
        <time>2023-01-05T10:44:49.432Z</time>
      </trkpt>
      <trkpt lat="39.65594" lon="2.81908">
        <ele>171.605942</ele>
        <time>2023-01-05T10:44:51.411Z</time>
      </trkpt>
      <trkpt lat="39.65593" lon="2.81893">
        <ele>171.502698</ele>
        <time>2023-01-05T10:44:53.415Z</time>
      </trkpt>
      <trkpt lat="39.65591" lon="2.81878">
        <ele>171.402358</ele>
        <time>2023-01-05T10:44:55.431Z</time>
      </trkpt>
      <trkpt lat="39.6559" lon="2.81863">
        <ele>171.303328</ele>
        <time>2023-01-05T10:44:57.449Z</time>
      </trkpt>
      <trkpt lat="39.6559" lon="2.81848">
        <ele>171.314319</ele>
        <time>2023-01-05T10:44:59.423Z</time>
      </trkpt>
      <trkpt lat="39.65589" lon="2.81834">
        <ele>171.386554</ele>
        <time>2023-01-05T10:45:01.438Z</time>
      </trkpt>
      <trkpt lat="39.65587" lon="2.8182">
        <ele>171.45605</ele>
        <time>2023-01-05T10:45:03.438Z</time>
      </trkpt>
      <trkpt lat="39.65586" lon="2.81806">
        <ele>171.530123</ele>
        <time>2023-01-05T10:45:05.452Z</time>
      </trkpt>
      <trkpt lat="39.65585" lon="2.81792">
        <ele>171.600253</ele>
        <time>2023-01-05T10:45:07.447Z</time>
      </trkpt>
      <trkpt lat="39.65584" lon="2.81778">
        <ele>171.668672</ele>
        <time>2023-01-05T10:45:09.462Z</time>
      </trkpt>
      <trkpt lat="39.65583" lon="2.81765">
        <ele>171.737937</ele>
        <time>2023-01-05T10:45:11.427Z</time>
      </trkpt>
      <trkpt lat="39.65581" lon="2.81752">
        <ele>171.802127</ele>
        <time>2023-01-05T10:45:13.430Z</time>
      </trkpt>
      <trkpt lat="39.6558" lon="2.8174">
        <ele>171.861969</ele>
        <time>2023-01-05T10:45:15.445Z</time>
      </trkpt>
      <trkpt lat="39.6558" lon="2.81728">
        <ele>171.922398</ele>
        <time>2023-01-05T10:45:17.430Z</time>
      </trkpt>
      <trkpt lat="39.65579" lon="2.81716">
        <ele>171.986458</ele>
        <time>2023-01-05T10:45:19.447Z</time>
      </trkpt>
      <trkpt lat="39.65578" lon="2.81703">
        <ele>172.050377</ele>
        <time>2023-01-05T10:45:21.438Z</time>
      </trkpt>
      <trkpt lat="39.65577" lon="2.81691">
        <ele>172.113476</ele>
        <time>2023-01-05T10:45:23.424Z</time>
      </trkpt>
      <trkpt lat="39.65576" lon="2.81678">
        <ele>172.17825</ele>
        <time>2023-01-05T10:45:25.442Z</time>
      </trkpt>
      <trkpt lat="39.65575" lon="2.81665">
        <ele>172.242092</ele>
        <time>2023-01-05T10:45:27.446Z</time>
      </trkpt>
      <trkpt lat="39.65574" lon="2.81652">
        <ele>172.306511</ele>
        <time>2023-01-05T10:45:29.435Z</time>
      </trkpt>
      <trkpt lat="39.65573" lon="2.8164">
        <ele>172.371619</ele>
        <time>2023-01-05T10:45:31.427Z</time>
      </trkpt>
      <trkpt lat="39.65572" lon="2.81627">
        <ele>172.435039</ele>
        <time>2023-01-05T10:45:33.428Z</time>
      </trkpt>
      <trkpt lat="39.65571" lon="2.81614">
        <ele>172.484139</ele>
        <time>2023-01-05T10:45:35.429Z</time>
      </trkpt>
      <trkpt lat="39.6557" lon="2.81601">
        <ele>172.530094</ele>
        <time>2023-01-05T10:45:37.441Z</time>
      </trkpt>
      <trkpt lat="39.65568" lon="2.81588">
        <ele>172.575717</ele>
        <time>2023-01-05T10:45:39.427Z</time>
      </trkpt>
      <trkpt lat="39.65568" lon="2.81575">
        <ele>172.623025</ele>
        <time>2023-01-05T10:45:41.437Z</time>
      </trkpt>
      <trkpt lat="39.65567" lon="2.81562">
        <ele>172.669953</ele>
        <time>2023-01-05T10:45:43.429Z</time>
      </trkpt>
      <trkpt lat="39.65566" lon="2.81549">
        <ele>172.7163</ele>
        <time>2023-01-05T10:45:45.448Z</time>
      </trkpt>
      <trkpt lat="39.65565" lon="2.81536">
        <ele>172.762387</ele>
        <time>2023-01-05T10:45:47.435Z</time>
      </trkpt>
      <trkpt lat="39.65564" lon="2.81523">
        <ele>172.808526</ele>
        <time>2023-01-05T10:45:49.433Z</time>
      </trkpt>
      <trkpt lat="39.65564" lon="2.8151">
        <ele>172.855079</ele>
        <time>2023-01-05T10:45:51.428Z</time>
      </trkpt>
      <trkpt lat="39.65562" lon="2.81497">
        <ele>172.901518</ele>
        <time>2023-01-05T10:45:53.430Z</time>
      </trkpt>
      <trkpt lat="39.65562" lon="2.81485">
        <ele>172.945609</ele>
        <time>2023-01-05T10:45:55.436Z</time>
      </trkpt>
      <trkpt lat="39.65562" lon="2.81471">
        <ele>172.992162</ele>
        <time>2023-01-05T10:45:57.443Z</time>
      </trkpt>
      <trkpt lat="39.65561" lon="2.81458">
        <ele>173.038825</ele>
        <time>2023-01-05T10:45:59.440Z</time>
      </trkpt>
      <trkpt lat="39.6556" lon="2.81446">
        <ele>173.082916</ele>
        <time>2023-01-05T10:46:01.436Z</time>
      </trkpt>
      <trkpt lat="39.65559" lon="2.81433">
        <ele>173.128188</ele>
        <time>2023-01-05T10:46:03.427Z</time>
      </trkpt>
      <trkpt lat="39.65558" lon="2.81421">
        <ele>173.173475</ele>
        <time>2023-01-05T10:46:05.434Z</time>
      </trkpt>
      <trkpt lat="39.65557" lon="2.81408">
        <ele>173.218302</ele>
        <time>2023-01-05T10:46:07.437Z</time>
      </trkpt>
      <trkpt lat="39.65556" lon="2.81395">
        <ele>173.263633</ele>
        <time>2023-01-05T10:46:09.437Z</time>
      </trkpt>
      <trkpt lat="39.65555" lon="2.81382">
        <ele>173.271294</ele>
        <time>2023-01-05T10:46:11.444Z</time>
      </trkpt>
      <trkpt lat="39.65554" lon="2.8137">
        <ele>173.270907</ele>
        <time>2023-01-05T10:46:13.434Z</time>
      </trkpt>
      <trkpt lat="39.65552" lon="2.81358">
        <ele>173.270536</ele>
        <time>2023-01-05T10:46:15.446Z</time>
      </trkpt>
      <trkpt lat="39.6555" lon="2.81347">
        <ele>173.270156</ele>
        <time>2023-01-05T10:46:17.442Z</time>
      </trkpt>
      <trkpt lat="39.65548" lon="2.81335">
        <ele>173.269773</ele>
        <time>2023-01-05T10:46:19.433Z</time>
      </trkpt>
      <trkpt lat="39.65544" lon="2.81323">
        <ele>173.269381</ele>
        <time>2023-01-05T10:46:21.417Z</time>
      </trkpt>
      <trkpt lat="39.65542" lon="2.81311">
        <ele>173.269002</ele>
        <time>2023-01-05T10:46:23.427Z</time>
      </trkpt>
      <trkpt lat="39.6554" lon="2.81299">
        <ele>173.268606</ele>
        <time>2023-01-05T10:46:25.456Z</time>
      </trkpt>
      <trkpt lat="39.65538" lon="2.81287">
        <ele>173.268239</ele>
        <time>2023-01-05T10:46:27.450Z</time>
      </trkpt>
      <trkpt lat="39.65538" lon="2.81275">
        <ele>173.267835</ele>
        <time>2023-01-05T10:46:29.417Z</time>
      </trkpt>
      <trkpt lat="39.65538" lon="2.81262">
        <ele>173.267438</ele>
        <time>2023-01-05T10:46:31.417Z</time>
      </trkpt>
      <trkpt lat="39.65539" lon="2.81249">
        <ele>173.267026</ele>
        <time>2023-01-05T10:46:33.417Z</time>
      </trkpt>
      <trkpt lat="39.65541" lon="2.81236">
        <ele>173.266635</ele>
        <time>2023-01-05T10:46:35.452Z</time>
      </trkpt>
      <trkpt lat="39.65542" lon="2.81224">
        <ele>173.266239</ele>
        <time>2023-01-05T10:46:37.444Z</time>
      </trkpt>
      <trkpt lat="39.65542" lon="2.81212">
        <ele>173.26586</ele>
        <time>2023-01-05T10:46:39.430Z</time>
      </trkpt>
      <trkpt lat="39.65542" lon="2.812">
        <ele>173.265482</ele>
        <time>2023-01-05T10:46:41.443Z</time>
      </trkpt>
      <trkpt lat="39.65542" lon="2.81188">
        <ele>173.265107</ele>
        <time>2023-01-05T10:46:43.424Z</time>
      </trkpt>
      <trkpt lat="39.65542" lon="2.81175">
        <ele>173.264728</ele>
        <time>2023-01-05T10:46:45.435Z</time>
      </trkpt>
      <trkpt lat="39.65541" lon="2.81163">
        <ele>173.264332</ele>
        <time>2023-01-05T10:46:47.437Z</time>
      </trkpt>
      <trkpt lat="39.6554" lon="2.81151">
        <ele>173.242772</ele>
        <time>2023-01-05T10:46:49.435Z</time>
      </trkpt>
      <trkpt lat="39.65539" lon="2.81139">
        <ele>173.221011</ele>
        <time>2023-01-05T10:46:51.441Z</time>
      </trkpt>
      <trkpt lat="39.65538" lon="2.81125">
        <ele>173.197245</ele>
        <time>2023-01-05T10:46:53.429Z</time>
      </trkpt>
      <trkpt lat="39.65538" lon="2.81112">
        <ele>173.173589</ele>
        <time>2023-01-05T10:46:55.448Z</time>
      </trkpt>
      <trkpt lat="39.65537" lon="2.811">
        <ele>173.15134</ele>
        <time>2023-01-05T10:46:57.432Z</time>
      </trkpt>
      <trkpt lat="39.65537" lon="2.81086">
        <ele>173.127149</ele>
        <time>2023-01-05T10:46:59.435Z</time>
      </trkpt>
      <trkpt lat="39.65537" lon="2.81073">
        <ele>173.102956</ele>
        <time>2023-01-05T10:47:01.434Z</time>
      </trkpt>
      <trkpt lat="39.65537" lon="2.81059">
        <ele>173.078944</ele>
        <time>2023-01-05T10:47:03.418Z</time>
      </trkpt>
      <trkpt lat="39.65538" lon="2.81046">
        <ele>173.055041</ele>
        <time>2023-01-05T10:47:05.455Z</time>
      </trkpt>
      <trkpt lat="39.65538" lon="2.81033">
        <ele>173.031567</ele>
        <time>2023-01-05T10:47:07.453Z</time>
      </trkpt>
      <trkpt lat="39.65538" lon="2.8102">
        <ele>173.008781</ele>
        <time>2023-01-05T10:47:09.441Z</time>
      </trkpt>
      <trkpt lat="39.65537" lon="2.81003">
        <ele>172.978443</ele>
        <time>2023-01-05T10:47:12.443Z</time>
      </trkpt>
      <trkpt lat="39.65535" lon="2.80987">
        <ele>172.947908</ele>
        <time>2023-01-05T10:47:15.419Z</time>
      </trkpt>
      <trkpt lat="39.65532" lon="2.8097">
        <ele>172.917408</ele>
        <time>2023-01-05T10:47:18.450Z</time>
      </trkpt>
      <trkpt lat="39.65528" lon="2.80959">
        <ele>172.895916</ele>
        <time>2023-01-05T10:47:20.434Z</time>
      </trkpt>
      <trkpt lat="39.65523" lon="2.80948">
        <ele>172.87329</ele>
        <time>2023-01-05T10:47:22.425Z</time>
      </trkpt>
      <trkpt lat="39.65516" lon="2.80939">
        <ele>172.8504</ele>
        <time>2023-01-05T10:47:24.434Z</time>
      </trkpt>
      <trkpt lat="39.65511" lon="2.80929">
        <ele>172.82768</ele>
        <time>2023-01-05T10:47:26.434Z</time>
      </trkpt>
      <trkpt lat="39.65505" lon="2.8092">
        <ele>172.804312</ele>
        <time>2023-01-05T10:47:28.437Z</time>
      </trkpt>
      <trkpt lat="39.65499" lon="2.8091">
        <ele>172.779529</ele>
        <time>2023-01-05T10:47:30.427Z</time>
      </trkpt>
      <trkpt lat="39.65493" lon="2.80902">
        <ele>172.755397</ele>
        <time>2023-01-05T10:47:32.444Z</time>
      </trkpt>
      <trkpt lat="39.65486" lon="2.80893">
        <ele>172.731906</ele>
        <time>2023-01-05T10:47:34.414Z</time>
      </trkpt>
      <trkpt lat="39.65477" lon="2.80881">
        <ele>172.698071</ele>
        <time>2023-01-05T10:47:37.448Z</time>
      </trkpt>
      <trkpt lat="39.65468" lon="2.80869">
        <ele>172.664088</ele>
        <time>2023-01-05T10:47:40.434Z</time>
      </trkpt>
      <trkpt lat="39.65459" lon="2.80857">
        <ele>172.632256</ele>
        <time>2023-01-05T10:47:43.417Z</time>
      </trkpt>
      <trkpt lat="39.65451" lon="2.80845">
        <ele>172.60021</ele>
        <time>2023-01-05T10:47:46.444Z</time>
      </trkpt>
      <trkpt lat="39.65443" lon="2.80834">
        <ele>172.569902</ele>
        <time>2023-01-05T10:47:49.447Z</time>
      </trkpt>
      <trkpt lat="39.65434" lon="2.80822">
        <ele>172.537636</ele>
        <time>2023-01-05T10:47:52.440Z</time>
      </trkpt>
      <trkpt lat="39.65427" lon="2.8081">
        <ele>172.507216</ele>
        <time>2023-01-05T10:47:55.427Z</time>
      </trkpt>
      <trkpt lat="39.6542" lon="2.80798">
        <ele>172.477422</ele>
        <time>2023-01-05T10:47:58.448Z</time>
      </trkpt>
      <trkpt lat="39.65413" lon="2.80787">
        <ele>172.449826</ele>
        <time>2023-01-05T10:48:01.439Z</time>
      </trkpt>
      <trkpt lat="39.65406" lon="2.80777">
        <ele>172.423611</ele>
        <time>2023-01-05T10:48:04.439Z</time>
      </trkpt>
      <trkpt lat="39.654" lon="2.80766">
        <ele>172.396798</ele>
        <time>2023-01-05T10:48:07.413Z</time>
      </trkpt>
      <trkpt lat="39.65392" lon="2.80757">
        <ele>172.324249</ele>
        <time>2023-01-05T10:48:10.419Z</time>
      </trkpt>
      <trkpt lat="39.65385" lon="2.80749">
        <ele>172.21116</ele>
        <time>2023-01-05T10:48:13.421Z</time>
      </trkpt>
      <trkpt lat="39.65377" lon="2.80742">
        <ele>172.100619</ele>
        <time>2023-01-05T10:48:16.439Z</time>
      </trkpt>
      <trkpt lat="39.65369" lon="2.80733">
        <ele>171.983549</ele>
        <time>2023-01-05T10:48:19.428Z</time>
      </trkpt>
      <trkpt lat="39.65361" lon="2.80725">
        <ele>171.869579</ele>
        <time>2023-01-05T10:48:22.443Z</time>
      </trkpt>
      <trkpt lat="39.65354" lon="2.80717">
        <ele>171.759104</ele>
        <time>2023-01-05T10:48:25.431Z</time>
      </trkpt>
      <trkpt lat="39.65347" lon="2.80709">
        <ele>171.655484</ele>
        <time>2023-01-05T10:48:28.428Z</time>
      </trkpt>
      <trkpt lat="39.65338" lon="2.80699">
        <ele>171.523456</ele>
        <time>2023-01-05T10:48:32.447Z</time>
      </trkpt>
      <trkpt lat="39.65331" lon="2.80691">
        <ele>171.419253</ele>
        <time>2023-01-05T10:48:35.431Z</time>
      </trkpt>
      <trkpt lat="39.65325" lon="2.80683">
        <ele>171.315114</ele>
        <time>2023-01-05T10:48:38.435Z</time>
      </trkpt>
      <trkpt lat="39.65317" lon="2.80674">
        <ele>171.194526</ele>
        <time>2023-01-05T10:48:42.440Z</time>
      </trkpt>
      <trkpt lat="39.65311" lon="2.80664">
        <ele>171.087131</ele>
        <time>2023-01-05T10:48:46.419Z</time>
      </trkpt>
      <trkpt lat="39.65307" lon="2.80653">
        <ele>170.977778</ele>
        <time>2023-01-05T10:48:50.444Z</time>
      </trkpt>
      <trkpt lat="39.65308" lon="2.8066">
        <ele>170.91298</ele>
        <time>2023-01-05T10:49:09.319Z</time>
      </trkpt>
      <trkpt lat="39.65373" lon="2.80741">
        <ele>170.500222</ele>
        <time>2023-01-05T10:51:12.424Z</time>
      </trkpt>
      <trkpt lat="39.65366" lon="2.80731">
        <ele>170.542484</ele>
        <time>2023-01-05T10:51:16.430Z</time>
      </trkpt>
      <trkpt lat="39.65359" lon="2.80723">
        <ele>170.579535</ele>
        <time>2023-01-05T10:51:19.443Z</time>
      </trkpt>
      <trkpt lat="39.65352" lon="2.80714">
        <ele>170.619041</ele>
        <time>2023-01-05T10:51:22.438Z</time>
      </trkpt>
      <trkpt lat="39.65344" lon="2.80704">
        <ele>170.663141</ele>
        <time>2023-01-05T10:51:25.431Z</time>
      </trkpt>
      <trkpt lat="39.65335" lon="2.80693">
        <ele>170.713717</ele>
        <time>2023-01-05T10:51:28.441Z</time>
      </trkpt>
      <trkpt lat="39.65325" lon="2.80681">
        <ele>170.766953</ele>
        <time>2023-01-05T10:51:31.444Z</time>
      </trkpt>
      <trkpt lat="39.65319" lon="2.80672">
        <ele>170.804449</ele>
        <time>2023-01-05T10:51:33.436Z</time>
      </trkpt>
      <trkpt lat="39.6531" lon="2.80658">
        <ele>170.859591</ele>
        <time>2023-01-05T10:51:36.427Z</time>
      </trkpt>
      <trkpt lat="39.65305" lon="2.80648">
        <ele>170.898684</ele>
        <time>2023-01-05T10:51:38.426Z</time>
      </trkpt>
      <trkpt lat="39.653" lon="2.80636">
        <ele>170.938583</ele>
        <time>2023-01-05T10:51:40.440Z</time>
      </trkpt>
      <trkpt lat="39.65296" lon="2.80625">
        <ele>170.978667</ele>
        <time>2023-01-05T10:51:42.425Z</time>
      </trkpt>
      <trkpt lat="39.65292" lon="2.80613">
        <ele>171.019605</ele>
        <time>2023-01-05T10:51:44.432Z</time>
      </trkpt>
      <trkpt lat="39.65287" lon="2.806">
        <ele>171.06291</ele>
        <time>2023-01-05T10:51:46.441Z</time>
      </trkpt>
      <trkpt lat="39.65282" lon="2.80587">
        <ele>170.995419</ele>
        <time>2023-01-05T10:51:48.439Z</time>
      </trkpt>
      <trkpt lat="39.65278" lon="2.80575">
        <ele>170.930663</ele>
        <time>2023-01-05T10:51:50.434Z</time>
      </trkpt>
      <trkpt lat="39.65273" lon="2.80563">
        <ele>170.866046</ele>
        <time>2023-01-05T10:51:52.436Z</time>
      </trkpt>
      <trkpt lat="39.65269" lon="2.8055">
        <ele>170.797531</ele>
        <time>2023-01-05T10:51:54.438Z</time>
      </trkpt>
      <trkpt lat="39.65264" lon="2.80537">
        <ele>170.730247</ele>
        <time>2023-01-05T10:51:56.441Z</time>
      </trkpt>
      <trkpt lat="39.65259" lon="2.80525">
        <ele>170.662046</ele>
        <time>2023-01-05T10:51:58.437Z</time>
      </trkpt>
      <trkpt lat="39.65255" lon="2.80512">
        <ele>170.593623</ele>
        <time>2023-01-05T10:52:00.440Z</time>
      </trkpt>
      <trkpt lat="39.6525" lon="2.80499">
        <ele>170.524277</ele>
        <time>2023-01-05T10:52:02.445Z</time>
      </trkpt>
      <trkpt lat="39.65245" lon="2.80487">
        <ele>170.456904</ele>
        <time>2023-01-05T10:52:04.436Z</time>
      </trkpt>
      <trkpt lat="39.65239" lon="2.80475">
        <ele>170.386478</ele>
        <time>2023-01-05T10:52:06.438Z</time>
      </trkpt>
      <trkpt lat="39.65233" lon="2.80462">
        <ele>170.317614</ele>
        <time>2023-01-05T10:52:08.447Z</time>
      </trkpt>
      <trkpt lat="39.65227" lon="2.8045">
        <ele>170.244738</ele>
        <time>2023-01-05T10:52:10.437Z</time>
      </trkpt>
      <trkpt lat="39.65221" lon="2.80437">
        <ele>170.173667</ele>
        <time>2023-01-05T10:52:12.440Z</time>
      </trkpt>
      <trkpt lat="39.65216" lon="2.80423">
        <ele>170.100304</ele>
        <time>2023-01-05T10:52:14.428Z</time>
      </trkpt>
      <trkpt lat="39.65212" lon="2.80409">
        <ele>170.025887</ele>
        <time>2023-01-05T10:52:16.424Z</time>
      </trkpt>
      <trkpt lat="39.65209" lon="2.80394">
        <ele>169.951945</ele>
        <time>2023-01-05T10:52:18.444Z</time>
      </trkpt>
      <trkpt lat="39.65206" lon="2.80379">
        <ele>169.928594</ele>
        <time>2023-01-05T10:52:20.448Z</time>
      </trkpt>
      <trkpt lat="39.65203" lon="2.80365">
        <ele>169.920806</ele>
        <time>2023-01-05T10:52:22.454Z</time>
      </trkpt>
      <trkpt lat="39.65199" lon="2.8035">
        <ele>169.913029</ele>
        <time>2023-01-05T10:52:24.435Z</time>
      </trkpt>
      <trkpt lat="39.65195" lon="2.80336">
        <ele>169.905167</ele>
        <time>2023-01-05T10:52:26.437Z</time>
      </trkpt>
      <trkpt lat="39.65191" lon="2.80322">
        <ele>169.897429</ele>
        <time>2023-01-05T10:52:28.451Z</time>
      </trkpt>
      <trkpt lat="39.65187" lon="2.80307">
        <ele>169.889619</ele>
        <time>2023-01-05T10:52:30.445Z</time>
      </trkpt>
      <trkpt lat="39.65182" lon="2.80294">
        <ele>169.881952</ele>
        <time>2023-01-05T10:52:32.437Z</time>
      </trkpt>
      <trkpt lat="39.65176" lon="2.80281">
        <ele>169.874315</ele>
        <time>2023-01-05T10:52:34.415Z</time>
      </trkpt>
      <trkpt lat="39.65171" lon="2.80268">
        <ele>169.866952</ele>
        <time>2023-01-05T10:52:36.442Z</time>
      </trkpt>
      <trkpt lat="39.65166" lon="2.80255">
        <ele>169.859416</ele>
        <time>2023-01-05T10:52:38.419Z</time>
      </trkpt>
      <trkpt lat="39.65162" lon="2.80241">
        <ele>169.851606</ele>
        <time>2023-01-05T10:52:40.433Z</time>
      </trkpt>
      <trkpt lat="39.65159" lon="2.80227">
        <ele>169.844196</ele>
        <time>2023-01-05T10:52:42.447Z</time>
      </trkpt>
      <trkpt lat="39.65155" lon="2.80213">
        <ele>169.836673</ele>
        <time>2023-01-05T10:52:44.428Z</time>
      </trkpt>
      <trkpt lat="39.65152" lon="2.80199">
        <ele>169.829081</ele>
        <time>2023-01-05T10:52:46.446Z</time>
      </trkpt>
      <trkpt lat="39.65149" lon="2.80184">
        <ele>169.821528</ele>
        <time>2023-01-05T10:52:48.456Z</time>
      </trkpt>
      <trkpt lat="39.65146" lon="2.80171">
        <ele>169.818176</ele>
        <time>2023-01-05T10:52:50.446Z</time>
      </trkpt>
      <trkpt lat="39.65143" lon="2.80157">
        <ele>169.855088</ele>
        <time>2023-01-05T10:52:52.441Z</time>
      </trkpt>
      <trkpt lat="39.65139" lon="2.80143">
        <ele>169.891844</ele>
        <time>2023-01-05T10:52:54.457Z</time>
      </trkpt>
      <trkpt lat="39.65135" lon="2.8013">
        <ele>169.928355</ele>
        <time>2023-01-05T10:52:56.463Z</time>
      </trkpt>
      <trkpt lat="39.65131" lon="2.80116">
        <ele>169.965104</ele>
        <time>2023-01-05T10:52:58.430Z</time>
      </trkpt>
      <trkpt lat="39.65127" lon="2.80103">
        <ele>170.001144</ele>
        <time>2023-01-05T10:53:00.439Z</time>
      </trkpt>
      <trkpt lat="39.65124" lon="2.8009">
        <ele>170.037332</ele>
        <time>2023-01-05T10:53:02.450Z</time>
      </trkpt>
      <trkpt lat="39.65121" lon="2.80076">
        <ele>170.072205</ele>
        <time>2023-01-05T10:53:04.441Z</time>
      </trkpt>
      <trkpt lat="39.65118" lon="2.80063">
        <ele>170.107323</ele>
        <time>2023-01-05T10:53:06.426Z</time>
      </trkpt>
      <trkpt lat="39.65115" lon="2.8005">
        <ele>170.142597</ele>
        <time>2023-01-05T10:53:08.448Z</time>
      </trkpt>
      <trkpt lat="39.65113" lon="2.80036">
        <ele>170.179146</ele>
        <time>2023-01-05T10:53:10.443Z</time>
      </trkpt>
      <trkpt lat="39.6511" lon="2.80021">
        <ele>170.216259</ele>
        <time>2023-01-05T10:53:12.447Z</time>
      </trkpt>
      <trkpt lat="39.65108" lon="2.80007">
        <ele>170.253991</ele>
        <time>2023-01-05T10:53:14.450Z</time>
      </trkpt>
      <trkpt lat="39.65105" lon="2.79992">
        <ele>170.292664</ele>
        <time>2023-01-05T10:53:16.441Z</time>
      </trkpt>
      <trkpt lat="39.65103" lon="2.79977">
        <ele>170.330982</ele>
        <time>2023-01-05T10:53:18.446Z</time>
      </trkpt>
      <trkpt lat="39.651" lon="2.79962">
        <ele>170.371924</ele>
        <time>2023-01-05T10:53:20.436Z</time>
      </trkpt>
      <trkpt lat="39.65097" lon="2.79945">
        <ele>170.478726</ele>
        <time>2023-01-05T10:53:22.436Z</time>
      </trkpt>
      <trkpt lat="39.65094" lon="2.79927">
        <ele>170.959174</ele>
        <time>2023-01-05T10:53:24.452Z</time>
      </trkpt>
      <trkpt lat="39.65091" lon="2.7991">
        <ele>171.438917</ele>
        <time>2023-01-05T10:53:26.425Z</time>
      </trkpt>
      <trkpt lat="39.65088" lon="2.79892">
        <ele>171.927159</ele>
        <time>2023-01-05T10:53:28.440Z</time>
      </trkpt>
      <trkpt lat="39.65085" lon="2.79874">
        <ele>172.418</ele>
        <time>2023-01-05T10:53:30.441Z</time>
      </trkpt>
      <trkpt lat="39.65083" lon="2.79856">
        <ele>172.894457</ele>
        <time>2023-01-05T10:53:32.428Z</time>
      </trkpt>
      <trkpt lat="39.6508" lon="2.79841">
        <ele>173.292713</ele>
        <time>2023-01-05T10:53:34.437Z</time>
      </trkpt>
      <trkpt lat="39.65079" lon="2.79829">
        <ele>173.621879</ele>
        <time>2023-01-05T10:53:36.438Z</time>
      </trkpt>
      <trkpt lat="39.65077" lon="2.79816">
        <ele>173.960923</ele>
        <time>2023-01-05T10:53:39.445Z</time>
      </trkpt>
      <trkpt lat="39.65075" lon="2.79802">
        <ele>174.343003</ele>
        <time>2023-01-05T10:53:44.444Z</time>
      </trkpt>
      <trkpt lat="39.65073" lon="2.79789">
        <ele>174.69497</ele>
        <time>2023-01-05T10:53:48.441Z</time>
      </trkpt>
      <trkpt lat="39.65071" lon="2.79776">
        <ele>175.045032</ele>
        <time>2023-01-05T10:53:52.450Z</time>
      </trkpt>
      <trkpt lat="39.65069" lon="2.79764">
        <ele>175.381393</ele>
        <time>2023-01-05T10:53:56.437Z</time>
      </trkpt>
      <trkpt lat="39.65067" lon="2.79752">
        <ele>175.699416</ele>
        <time>2023-01-05T10:54:00.437Z</time>
      </trkpt>
      <trkpt lat="39.65065" lon="2.7974">
        <ele>176.043165</ele>
        <time>2023-01-05T10:54:04.421Z</time>
      </trkpt>
      <trkpt lat="39.65064" lon="2.79726">
        <ele>176.394791</ele>
        <time>2023-01-05T10:54:08.447Z</time>
      </trkpt>
      <trkpt lat="39.65062" lon="2.79713">
        <ele>176.485181</ele>
        <time>2023-01-05T10:54:13.429Z</time>
      </trkpt>
      <trkpt lat="39.6506" lon="2.79701">
        <ele>176.220934</ele>
        <time>2023-01-05T10:54:17.437Z</time>
      </trkpt>
      <trkpt lat="39.65057" lon="2.79688">
        <ele>175.942255</ele>
        <time>2023-01-05T10:54:21.446Z</time>
      </trkpt>
      <trkpt lat="39.65055" lon="2.79675">
        <ele>175.659623</ele>
        <time>2023-01-05T10:54:25.445Z</time>
      </trkpt>
      <trkpt lat="39.65053" lon="2.79661">
        <ele>175.356332</ele>
        <time>2023-01-05T10:54:29.439Z</time>
      </trkpt>
      <trkpt lat="39.65051" lon="2.79646">
        <ele>175.041921</ele>
        <time>2023-01-05T10:54:33.445Z</time>
      </trkpt>
      <trkpt lat="39.65049" lon="2.79631">
        <ele>174.719615</ele>
        <time>2023-01-05T10:54:37.425Z</time>
      </trkpt>
      <trkpt lat="39.65046" lon="2.79619">
        <ele>174.449702</ele>
        <time>2023-01-05T10:54:40.416Z</time>
      </trkpt>
      <trkpt lat="39.65044" lon="2.79603">
        <ele>174.11638</ele>
        <time>2023-01-05T10:54:43.424Z</time>
      </trkpt>
      <trkpt lat="39.65042" lon="2.79592">
        <ele>173.858303</ele>
        <time>2023-01-05T10:54:45.434Z</time>
      </trkpt>
      <trkpt lat="39.6504" lon="2.79578">
        <ele>173.560411</ele>
        <time>2023-01-05T10:54:47.441Z</time>
      </trkpt>
      <trkpt lat="39.65037" lon="2.79563">
        <ele>173.226981</ele>
        <time>2023-01-05T10:54:49.439Z</time>
      </trkpt>
      <trkpt lat="39.65034" lon="2.79545">
        <ele>172.835912</ele>
        <time>2023-01-05T10:54:51.438Z</time>
      </trkpt>
      <trkpt lat="39.6503" lon="2.79524">
        <ele>172.384499</ele>
        <time>2023-01-05T10:54:53.421Z</time>
      </trkpt>
      <trkpt lat="39.65026" lon="2.79501">
        <ele>171.879818</ele>
        <time>2023-01-05T10:54:55.437Z</time>
      </trkpt>
      <trkpt lat="39.65024" lon="2.79489">
        <ele>171.643513</ele>
        <time>2023-01-05T10:54:56.436Z</time>
      </trkpt>
      <trkpt lat="39.65022" lon="2.79477">
        <ele>171.537883</ele>
        <time>2023-01-05T10:54:57.456Z</time>
      </trkpt>
      <trkpt lat="39.6502" lon="2.79465">
        <ele>171.436847</ele>
        <time>2023-01-05T10:54:58.449Z</time>
      </trkpt>
      <trkpt lat="39.65016" lon="2.79443">
        <ele>171.243419</ele>
        <time>2023-01-05T10:55:00.441Z</time>
      </trkpt>
      <trkpt lat="39.65012" lon="2.79421">
        <ele>171.058986</ele>
        <time>2023-01-05T10:55:02.450Z</time>
      </trkpt>
      <trkpt lat="39.65008" lon="2.79401">
        <ele>170.880735</ele>
        <time>2023-01-05T10:55:04.452Z</time>
      </trkpt>
      <trkpt lat="39.65006" lon="2.79381">
        <ele>170.712682</ele>
        <time>2023-01-05T10:55:06.434Z</time>
      </trkpt>
      <trkpt lat="39.65003" lon="2.79362">
        <ele>170.549842</ele>
        <time>2023-01-05T10:55:08.432Z</time>
      </trkpt>
      <trkpt lat="39.65" lon="2.79345">
        <ele>170.40111</ele>
        <time>2023-01-05T10:55:10.435Z</time>
      </trkpt>
      <trkpt lat="39.64998" lon="2.79328">
        <ele>170.256284</ele>
        <time>2023-01-05T10:55:12.432Z</time>
      </trkpt>
      <trkpt lat="39.64996" lon="2.79312">
        <ele>170.120153</ele>
        <time>2023-01-05T10:55:14.444Z</time>
      </trkpt>
      <trkpt lat="39.64994" lon="2.79297">
        <ele>169.989468</ele>
        <time>2023-01-05T10:55:16.434Z</time>
      </trkpt>
      <trkpt lat="39.64991" lon="2.79282">
        <ele>169.861198</ele>
        <time>2023-01-05T10:55:18.424Z</time>
      </trkpt>
      <trkpt lat="39.64989" lon="2.79267">
        <ele>169.730692</ele>
        <time>2023-01-05T10:55:20.453Z</time>
      </trkpt>
      <trkpt lat="39.64986" lon="2.79252">
        <ele>169.773318</ele>
        <time>2023-01-05T10:55:22.440Z</time>
      </trkpt>
      <trkpt lat="39.64984" lon="2.79237">
        <ele>169.913692</ele>
        <time>2023-01-05T10:55:24.452Z</time>
      </trkpt>
      <trkpt lat="39.64981" lon="2.79223">
        <ele>170.042836</ele>
        <time>2023-01-05T10:55:26.445Z</time>
      </trkpt>
      <trkpt lat="39.64979" lon="2.7921">
        <ele>170.1693</ele>
        <time>2023-01-05T10:55:28.441Z</time>
      </trkpt>
      <trkpt lat="39.64977" lon="2.79197">
        <ele>170.2852</ele>
        <time>2023-01-05T10:55:30.448Z</time>
      </trkpt>
      <trkpt lat="39.64981" lon="2.79186">
        <ele>170.398309</ele>
        <time>2023-01-05T10:55:32.426Z</time>
      </trkpt>
      <trkpt lat="39.64985" lon="2.79175">
        <ele>170.510627</ele>
        <time>2023-01-05T10:55:34.426Z</time>
      </trkpt>
      <trkpt lat="39.6499" lon="2.79164">
        <ele>170.623516</ele>
        <time>2023-01-05T10:55:36.435Z</time>
      </trkpt>
      <trkpt lat="39.64996" lon="2.79149">
        <ele>170.779747</ele>
        <time>2023-01-05T10:55:39.443Z</time>
      </trkpt>
      <trkpt lat="39.64999" lon="2.79133">
        <ele>170.93009</ele>
        <time>2023-01-05T10:55:42.446Z</time>
      </trkpt>
      <trkpt lat="39.65" lon="2.79117">
        <ele>171.077126</ele>
        <time>2023-01-05T10:55:45.417Z</time>
      </trkpt>
      <trkpt lat="39.64996" lon="2.79104">
        <ele>171.209861</ele>
        <time>2023-01-05T10:55:48.436Z</time>
      </trkpt>
      <trkpt lat="39.6499" lon="2.7909">
        <ele>171.351908</ele>
        <time>2023-01-05T10:55:51.423Z</time>
      </trkpt>
      <trkpt lat="39.64983" lon="2.79078">
        <ele>171.494145</ele>
        <time>2023-01-05T10:55:54.436Z</time>
      </trkpt>
      <trkpt lat="39.64975" lon="2.79065">
        <ele>171.639139</ele>
        <time>2023-01-05T10:55:57.419Z</time>
      </trkpt>
      <trkpt lat="39.64967" lon="2.79054">
        <ele>171.781576</ele>
        <time>2023-01-05T10:56:00.434Z</time>
      </trkpt>
      <trkpt lat="39.64958" lon="2.79044">
        <ele>171.745827</ele>
        <time>2023-01-05T10:56:03.420Z</time>
      </trkpt>
      <trkpt lat="39.64949" lon="2.79035">
        <ele>171.645984</ele>
        <time>2023-01-05T10:56:06.447Z</time>
      </trkpt>
      <trkpt lat="39.64938" lon="2.79028">
        <ele>171.542872</ele>
        <time>2023-01-05T10:56:09.436Z</time>
      </trkpt>
      <trkpt lat="39.64929" lon="2.79016">
        <ele>171.430211</ele>
        <time>2023-01-05T10:56:12.451Z</time>
      </trkpt>
      <trkpt lat="39.64923" lon="2.79007">
        <ele>171.348042</ele>
        <time>2023-01-05T10:56:14.449Z</time>
      </trkpt>
      <trkpt lat="39.64921" lon="2.78995">
        <ele>171.264099</ele>
        <time>2023-01-05T10:56:16.429Z</time>
      </trkpt>
      <trkpt lat="39.64919" lon="2.78981">
        <ele>171.173708</ele>
        <time>2023-01-05T10:56:18.428Z</time>
      </trkpt>
      <trkpt lat="39.64918" lon="2.78968">
        <ele>171.085857</ele>
        <time>2023-01-05T10:56:20.430Z</time>
      </trkpt>
      <trkpt lat="39.64915" lon="2.78956">
        <ele>170.99735</ele>
        <time>2023-01-05T10:56:22.435Z</time>
      </trkpt>
      <trkpt lat="39.64913" lon="2.78941">
        <ele>170.899638</ele>
        <time>2023-01-05T10:56:24.439Z</time>
      </trkpt>
      <trkpt lat="39.64911" lon="2.78927">
        <ele>170.800873</ele>
        <time>2023-01-05T10:56:26.449Z</time>
      </trkpt>
      <trkpt lat="39.6491" lon="2.78912">
        <ele>170.702469</ele>
        <time>2023-01-05T10:56:28.452Z</time>
      </trkpt>
      <trkpt lat="39.64908" lon="2.78898">
        <ele>170.605593</ele>
        <time>2023-01-05T10:56:30.457Z</time>
      </trkpt>
      <trkpt lat="39.64906" lon="2.78883">
        <ele>170.50323</ele>
        <time>2023-01-05T10:56:32.435Z</time>
      </trkpt>
      <trkpt lat="39.64903" lon="2.78869">
        <ele>170.403172</ele>
        <time>2023-01-05T10:56:34.447Z</time>
      </trkpt>
      <trkpt lat="39.649" lon="2.78855">
        <ele>170.302648</ele>
        <time>2023-01-05T10:56:36.437Z</time>
      </trkpt>
      <trkpt lat="39.64897" lon="2.7884">
        <ele>170.259245</ele>
        <time>2023-01-05T10:56:38.454Z</time>
      </trkpt>
      <trkpt lat="39.64894" lon="2.78826">
        <ele>170.286068</ele>
        <time>2023-01-05T10:56:40.439Z</time>
      </trkpt>
      <trkpt lat="39.64891" lon="2.78811">
        <ele>170.312711</ele>
        <time>2023-01-05T10:56:42.444Z</time>
      </trkpt>
      <trkpt lat="39.64889" lon="2.78797">
        <ele>170.339017</ele>
        <time>2023-01-05T10:56:44.436Z</time>
      </trkpt>
      <trkpt lat="39.64886" lon="2.78783">
        <ele>170.365372</ele>
        <time>2023-01-05T10:56:46.437Z</time>
      </trkpt>
      <trkpt lat="39.64884" lon="2.7877">
        <ele>170.389951</ele>
        <time>2023-01-05T10:56:48.451Z</time>
      </trkpt>
      <trkpt lat="39.64882" lon="2.78756">
        <ele>170.414454</ele>
        <time>2023-01-05T10:56:50.474Z</time>
      </trkpt>
      <trkpt lat="39.6488" lon="2.78742">
        <ele>170.440009</ele>
        <time>2023-01-05T10:56:52.410Z</time>
      </trkpt>
      <trkpt lat="39.64877" lon="2.78729">
        <ele>170.464163</ele>
        <time>2023-01-05T10:56:54.466Z</time>
      </trkpt>
      <trkpt lat="39.64876" lon="2.78716">
        <ele>170.488136</ele>
        <time>2023-01-05T10:56:56.399Z</time>
      </trkpt>
      <trkpt lat="39.64874" lon="2.78703">
        <ele>170.511478</ele>
        <time>2023-01-05T10:56:58.401Z</time>
      </trkpt>
      <trkpt lat="39.64872" lon="2.78691">
        <ele>170.533983</ele>
        <time>2023-01-05T10:57:00.402Z</time>
      </trkpt>
      <trkpt lat="39.6487" lon="2.78678">
        <ele>170.557557</ele>
        <time>2023-01-05T10:57:02.399Z</time>
      </trkpt>
      <trkpt lat="39.64867" lon="2.78665">
        <ele>170.581943</ele>
        <time>2023-01-05T10:57:04.397Z</time>
      </trkpt>
      <trkpt lat="39.64865" lon="2.78652">
        <ele>170.605402</ele>
        <time>2023-01-05T10:57:06.495Z</time>
      </trkpt>
      <trkpt lat="39.64862" lon="2.78639">
        <ele>170.629209</ele>
        <time>2023-01-05T10:57:08.401Z</time>
      </trkpt>
      <trkpt lat="39.6486" lon="2.78626">
        <ele>170.653138</ele>
        <time>2023-01-05T10:57:10.438Z</time>
      </trkpt>
      <trkpt lat="39.64858" lon="2.78613">
        <ele>170.616825</ele>
        <time>2023-01-05T10:57:12.412Z</time>
      </trkpt>
      <trkpt lat="39.64856" lon="2.78601">
        <ele>170.50782</ele>
        <time>2023-01-05T10:57:14.455Z</time>
      </trkpt>
      <trkpt lat="39.64854" lon="2.78588">
        <ele>170.396406</ele>
        <time>2023-01-05T10:57:16.446Z</time>
      </trkpt>
      <trkpt lat="39.64853" lon="2.78577">
        <ele>170.294266</ele>
        <time>2023-01-05T10:57:18.450Z</time>
      </trkpt>
      <trkpt lat="39.6485" lon="2.7856">
        <ele>170.150574</ele>
        <time>2023-01-05T10:57:21.435Z</time>
      </trkpt>
      <trkpt lat="39.64846" lon="2.78545">
        <ele>170.011079</ele>
        <time>2023-01-05T10:57:24.441Z</time>
      </trkpt>
      <trkpt lat="39.64843" lon="2.78531">
        <ele>169.887408</ele>
        <time>2023-01-05T10:57:27.443Z</time>
      </trkpt>
      <trkpt lat="39.64841" lon="2.78516">
        <ele>169.757404</ele>
        <time>2023-01-05T10:57:30.444Z</time>
      </trkpt>
      <trkpt lat="39.64839" lon="2.785">
        <ele>169.61841</ele>
        <time>2023-01-05T10:57:33.447Z</time>
      </trkpt>
      <trkpt lat="39.64836" lon="2.78484">
        <ele>169.476146</ele>
        <time>2023-01-05T10:57:36.435Z</time>
      </trkpt>
      <trkpt lat="39.64834" lon="2.78468">
        <ele>169.333146</ele>
        <time>2023-01-05T10:57:39.449Z</time>
      </trkpt>
      <trkpt lat="39.64831" lon="2.78451">
        <ele>169.185925</ele>
        <time>2023-01-05T10:57:42.431Z</time>
      </trkpt>
      <trkpt lat="39.64829" lon="2.78434">
        <ele>169.039661</ele>
        <time>2023-01-05T10:57:45.447Z</time>
      </trkpt>
      <trkpt lat="39.64827" lon="2.78418">
        <ele>168.900877</ele>
        <time>2023-01-05T10:57:48.421Z</time>
      </trkpt>
      <trkpt lat="39.64824" lon="2.78403">
        <ele>168.766305</ele>
        <time>2023-01-05T10:57:51.429Z</time>
      </trkpt>
      <trkpt lat="39.64821" lon="2.78388">
        <ele>168.674618</ele>
        <time>2023-01-05T10:57:54.424Z</time>
      </trkpt>
      <trkpt lat="39.64819" lon="2.78372">
        <ele>168.763381</ele>
        <time>2023-01-05T10:57:57.437Z</time>
      </trkpt>
      <trkpt lat="39.64816" lon="2.78356">
        <ele>168.850678</ele>
        <time>2023-01-05T10:58:00.430Z</time>
      </trkpt>
      <trkpt lat="39.64814" lon="2.78341">
        <ele>168.936899</ele>
        <time>2023-01-05T10:58:03.436Z</time>
      </trkpt>
      <trkpt lat="39.64811" lon="2.78325">
        <ele>169.026119</ele>
        <time>2023-01-05T10:58:06.431Z</time>
      </trkpt>
      <trkpt lat="39.64809" lon="2.7831">
        <ele>169.110859</ele>
        <time>2023-01-05T10:58:09.431Z</time>
      </trkpt>
      <trkpt lat="39.64807" lon="2.78294">
        <ele>169.200427</ele>
        <time>2023-01-05T10:58:12.439Z</time>
      </trkpt>
      <trkpt lat="39.64804" lon="2.78279">
        <ele>169.285037</ele>
        <time>2023-01-05T10:58:15.438Z</time>
      </trkpt>
      <trkpt lat="39.64802" lon="2.78264">
        <ele>169.365861</ele>
        <time>2023-01-05T10:58:18.432Z</time>
      </trkpt>
      <trkpt lat="39.648" lon="2.7825">
        <ele>169.445326</ele>
        <time>2023-01-05T10:58:21.443Z</time>
      </trkpt>
      <trkpt lat="39.64798" lon="2.78237">
        <ele>169.520577</ele>
        <time>2023-01-05T10:58:24.442Z</time>
      </trkpt>
      <trkpt lat="39.64796" lon="2.78223">
        <ele>169.595854</ele>
        <time>2023-01-05T10:58:27.441Z</time>
      </trkpt>
      <trkpt lat="39.64795" lon="2.78211">
        <ele>169.666266</ele>
        <time>2023-01-05T10:58:30.438Z</time>
      </trkpt>
      <trkpt lat="39.64793" lon="2.78198">
        <ele>169.736118</ele>
        <time>2023-01-05T10:58:33.434Z</time>
      </trkpt>
      <trkpt lat="39.6479" lon="2.78184">
        <ele>169.814472</ele>
        <time>2023-01-05T10:58:37.445Z</time>
      </trkpt>
      <trkpt lat="39.64792" lon="2.78171">
        <ele>169.890076</ele>
        <time>2023-01-05T10:58:41.435Z</time>
      </trkpt>
      <trkpt lat="39.64797" lon="2.78157">
        <ele>170.019289</ele>
        <time>2023-01-05T10:58:45.436Z</time>
      </trkpt>
      <trkpt lat="39.64802" lon="2.78145">
        <ele>170.19421</ele>
        <time>2023-01-05T10:58:48.435Z</time>
      </trkpt>
      <trkpt lat="39.6481" lon="2.78136">
        <ele>170.37327</ele>
        <time>2023-01-05T10:58:51.429Z</time>
      </trkpt>
      <trkpt lat="39.64819" lon="2.78128">
        <ele>170.557896</ele>
        <time>2023-01-05T10:58:54.428Z</time>
      </trkpt>
      <trkpt lat="39.64828" lon="2.78119">
        <ele>170.748784</ele>
        <time>2023-01-05T10:58:57.445Z</time>
      </trkpt>
      <trkpt lat="39.64838" lon="2.78111">
        <ele>170.944679</ele>
        <time>2023-01-05T10:59:00.436Z</time>
      </trkpt>
      <trkpt lat="39.64848" lon="2.78104">
        <ele>171.14412</ele>
        <time>2023-01-05T10:59:03.430Z</time>
      </trkpt>
      <trkpt lat="39.64858" lon="2.78096">
        <ele>171.337087</ele>
        <time>2023-01-05T10:59:06.441Z</time>
      </trkpt>
      <trkpt lat="39.64868" lon="2.78087">
        <ele>171.539226</ele>
        <time>2023-01-05T10:59:09.427Z</time>
      </trkpt>
      <trkpt lat="39.64878" lon="2.78079">
        <ele>171.737193</ele>
        <time>2023-01-05T10:59:12.446Z</time>
      </trkpt>
      <trkpt lat="39.64888" lon="2.78071">
        <ele>171.940182</ele>
        <time>2023-01-05T10:59:15.431Z</time>
      </trkpt>
      <trkpt lat="39.649" lon="2.78062">
        <ele>172.158029</ele>
        <time>2023-01-05T10:59:18.441Z</time>
      </trkpt>
      <trkpt lat="39.6491" lon="2.78053">
        <ele>172.362346</ele>
        <time>2023-01-05T10:59:21.431Z</time>
      </trkpt>
      <trkpt lat="39.64921" lon="2.78045">
        <ele>172.57934</ele>
        <time>2023-01-05T10:59:24.451Z</time>
      </trkpt>
      <trkpt lat="39.64932" lon="2.78036">
        <ele>172.793505</ele>
        <time>2023-01-05T10:59:27.457Z</time>
      </trkpt>
      <trkpt lat="39.6494" lon="2.78024">
        <ele>172.97769</ele>
        <time>2023-01-05T10:59:30.420Z</time>
      </trkpt>
      <trkpt lat="39.64948" lon="2.78011">
        <ele>173.057274</ele>
        <time>2023-01-05T10:59:33.436Z</time>
      </trkpt>
      <trkpt lat="39.64955" lon="2.77997">
        <ele>173.133384</ele>
        <time>2023-01-05T10:59:36.442Z</time>
      </trkpt>
      <trkpt lat="39.64962" lon="2.77984">
        <ele>173.20765</ele>
        <time>2023-01-05T10:59:39.442Z</time>
      </trkpt>
      <trkpt lat="39.64969" lon="2.7797">
        <ele>173.286142</ele>
        <time>2023-01-05T10:59:42.451Z</time>
      </trkpt>
      <trkpt lat="39.64977" lon="2.77957">
        <ele>173.361282</ele>
        <time>2023-01-05T10:59:45.439Z</time>
      </trkpt>
      <trkpt lat="39.64983" lon="2.77944">
        <ele>173.436338</ele>
        <time>2023-01-05T10:59:48.440Z</time>
      </trkpt>
      <trkpt lat="39.64991" lon="2.77932">
        <ele>173.508857</ele>
        <time>2023-01-05T10:59:51.435Z</time>
      </trkpt>
      <trkpt lat="39.64998" lon="2.77919">
        <ele>173.583258</ele>
        <time>2023-01-05T10:59:54.456Z</time>
      </trkpt>
      <trkpt lat="39.65004" lon="2.77907">
        <ele>173.652652</ele>
        <time>2023-01-05T10:59:57.415Z</time>
      </trkpt>
      <trkpt lat="39.6501" lon="2.77895">
        <ele>173.718032</ele>
        <time>2023-01-05T11:00:00.451Z</time>
      </trkpt>
      <trkpt lat="39.65015" lon="2.77883">
        <ele>173.783343</ele>
        <time>2023-01-05T11:00:03.436Z</time>
      </trkpt>
      <trkpt lat="39.65021" lon="2.77871">
        <ele>173.849798</ele>
        <time>2023-01-05T11:00:06.445Z</time>
      </trkpt>
      <trkpt lat="39.65026" lon="2.77858">
        <ele>173.917859</ele>
        <time>2023-01-05T11:00:09.436Z</time>
      </trkpt>
      <trkpt lat="39.65029" lon="2.77844">
        <ele>173.984233</ele>
        <time>2023-01-05T11:00:12.434Z</time>
      </trkpt>
      <trkpt lat="39.65024" lon="2.77829">
        <ele>174.065129</ele>
        <time>2023-01-05T11:00:15.410Z</time>
      </trkpt>
      <trkpt lat="39.65016" lon="2.77816">
        <ele>174.236898</ele>
        <time>2023-01-05T11:00:18.434Z</time>
      </trkpt>
      <trkpt lat="39.65008" lon="2.77803">
        <ele>174.416381</ele>
        <time>2023-01-05T11:00:21.422Z</time>
      </trkpt>
      <trkpt lat="39.65001" lon="2.77791">
        <ele>174.579036</ele>
        <time>2023-01-05T11:00:24.434Z</time>
      </trkpt>
      <trkpt lat="39.64993" lon="2.77779">
        <ele>174.745361</ele>
        <time>2023-01-05T11:00:27.425Z</time>
      </trkpt>
      <trkpt lat="39.64986" lon="2.77768">
        <ele>174.897818</ele>
        <time>2023-01-05T11:00:30.443Z</time>
      </trkpt>
      <trkpt lat="39.6498" lon="2.77757">
        <ele>175.037105</ele>
        <time>2023-01-05T11:00:33.438Z</time>
      </trkpt>
      <trkpt lat="39.64975" lon="2.77747">
        <ele>175.167185</ele>
        <time>2023-01-05T11:00:37.430Z</time>
      </trkpt>
      <trkpt lat="39.64968" lon="2.77737">
        <ele>175.301997</ele>
        <time>2023-01-05T11:00:43.428Z</time>
      </trkpt>
      <trkpt lat="39.64963" lon="2.77747">
        <ele>175.428682</ele>
        <time>2023-01-05T11:00:49.429Z</time>
      </trkpt>
      <trkpt lat="39.64959" lon="2.77746">
        <ele>175.484247</ele>
        <time>2023-01-05T11:00:55.435Z</time>
      </trkpt>
      <trkpt lat="39.64964" lon="2.77729">
        <ele>175.685017</ele>
        <time>2023-01-05T11:39:52.433Z</time>
      </trkpt>
      <trkpt lat="39.64958" lon="2.77718">
        <ele>175.827408</ele>
        <time>2023-01-05T11:39:57.445Z</time>
      </trkpt>
      <trkpt lat="39.64952" lon="2.77707">
        <ele>175.967471</ele>
        <time>2023-01-05T11:40:01.445Z</time>
      </trkpt>
      <trkpt lat="39.64946" lon="2.77696">
        <ele>176.10612</ele>
        <time>2023-01-05T11:40:05.431Z</time>
      </trkpt>
      <trkpt lat="39.6494" lon="2.77682">
        <ele>176.274833</ele>
        <time>2023-01-05T11:40:09.421Z</time>
      </trkpt>
      <trkpt lat="39.64936" lon="2.77671">
        <ele>176.406655</ele>
        <time>2023-01-05T11:40:12.417Z</time>
      </trkpt>
      <trkpt lat="39.64931" lon="2.77661">
        <ele>176.528211</ele>
        <time>2023-01-05T11:40:15.428Z</time>
      </trkpt>
      <trkpt lat="39.64926" lon="2.77649">
        <ele>176.522289</ele>
        <time>2023-01-05T11:40:18.437Z</time>
      </trkpt>
      <trkpt lat="39.6492" lon="2.7764">
        <ele>176.516897</ele>
        <time>2023-01-05T11:40:21.427Z</time>
      </trkpt>
      <trkpt lat="39.64915" lon="2.77627">
        <ele>176.510572</ele>
        <time>2023-01-05T11:40:25.446Z</time>
      </trkpt>
      <trkpt lat="39.64914" lon="2.77614">
        <ele>176.504541</ele>
        <time>2023-01-05T11:40:29.427Z</time>
      </trkpt>
      <trkpt lat="39.64909" lon="2.77599">
        <ele>176.497652</ele>
        <time>2023-01-05T11:40:33.419Z</time>
      </trkpt>
      <trkpt lat="39.64905" lon="2.77587">
        <ele>176.491614</ele>
        <time>2023-01-05T11:40:36.456Z</time>
      </trkpt>
      <trkpt lat="39.649" lon="2.77576">
        <ele>176.486031</ele>
        <time>2023-01-05T11:40:39.451Z</time>
      </trkpt>
      <trkpt lat="39.64891" lon="2.77577">
        <ele>176.480829</ele>
        <time>2023-01-05T11:40:42.429Z</time>
      </trkpt>
      <trkpt lat="39.64883" lon="2.77582">
        <ele>176.475447</ele>
        <time>2023-01-05T11:40:46.413Z</time>
      </trkpt>
      <trkpt lat="39.64892" lon="2.77575">
        <ele>176.469389</ele>
        <time>2023-01-05T11:40:56.424Z</time>
      </trkpt>
      <trkpt lat="39.64896" lon="2.77562">
        <ele>176.462807</ele>
        <time>2023-01-05T11:41:01.426Z</time>
      </trkpt>
      <trkpt lat="39.64893" lon="2.7755">
        <ele>176.457079</ele>
        <time>2023-01-05T11:41:04.413Z</time>
      </trkpt>
      <trkpt lat="39.64889" lon="2.77536">
        <ele>176.450665</ele>
        <time>2023-01-05T11:41:07.429Z</time>
      </trkpt>
      <trkpt lat="39.64883" lon="2.77523">
        <ele>176.443926</ele>
        <time>2023-01-05T11:41:10.440Z</time>
      </trkpt>
      <trkpt lat="39.64878" lon="2.77511">
        <ele>176.437775</ele>
        <time>2023-01-05T11:41:13.433Z</time>
      </trkpt>
      <trkpt lat="39.64873" lon="2.77499">
        <ele>176.431867</ele>
        <time>2023-01-05T11:41:16.434Z</time>
      </trkpt>
      <trkpt lat="39.64867" lon="2.77489">
        <ele>176.426265</ele>
        <time>2023-01-05T11:41:24.437Z</time>
      </trkpt>
      <trkpt lat="39.64857" lon="2.7749">
        <ele>176.47016</ele>
        <time>2023-01-05T11:41:28.442Z</time>
      </trkpt>
      <trkpt lat="39.64849" lon="2.77496">
        <ele>176.533063</ele>
        <time>2023-01-05T11:41:31.440Z</time>
      </trkpt>
      <trkpt lat="39.64839" lon="2.77503">
        <ele>176.602637</ele>
        <time>2023-01-05T11:41:34.433Z</time>
      </trkpt>
      <trkpt lat="39.64829" lon="2.77511">
        <ele>176.678865</ele>
        <time>2023-01-05T11:41:37.437Z</time>
      </trkpt>
      <trkpt lat="39.64818" lon="2.77518">
        <ele>176.758917</ele>
        <time>2023-01-05T11:41:40.444Z</time>
      </trkpt>
      <trkpt lat="39.64807" lon="2.77526">
        <ele>176.839441</ele>
        <time>2023-01-05T11:41:43.420Z</time>
      </trkpt>
      <trkpt lat="39.64796" lon="2.77533">
        <ele>176.921341</ele>
        <time>2023-01-05T11:41:46.447Z</time>
      </trkpt>
      <trkpt lat="39.64784" lon="2.77541">
        <ele>177.005637</ele>
        <time>2023-01-05T11:41:49.418Z</time>
      </trkpt>
      <trkpt lat="39.64776" lon="2.77546">
        <ele>177.064783</ele>
        <time>2023-01-05T11:41:51.426Z</time>
      </trkpt>
      <trkpt lat="39.64765" lon="2.77553">
        <ele>177.144953</ele>
        <time>2023-01-05T11:41:54.431Z</time>
      </trkpt>
      <trkpt lat="39.64754" lon="2.77559">
        <ele>177.221068</ele>
        <time>2023-01-05T11:41:57.439Z</time>
      </trkpt>
      <trkpt lat="39.64743" lon="2.77566">
        <ele>177.296892</ele>
        <time>2023-01-05T11:42:00.432Z</time>
      </trkpt>
      <trkpt lat="39.64732" lon="2.77573">
        <ele>177.374596</ele>
        <time>2023-01-05T11:42:03.429Z</time>
      </trkpt>
      <trkpt lat="39.64723" lon="2.77581">
        <ele>177.450794</ele>
        <time>2023-01-05T11:42:06.432Z</time>
      </trkpt>
      <trkpt lat="39.64712" lon="2.7759">
        <ele>177.52944</ele>
        <time>2023-01-05T11:42:09.443Z</time>
      </trkpt>
      <trkpt lat="39.64703" lon="2.77601">
        <ele>177.50382</ele>
        <time>2023-01-05T11:42:12.435Z</time>
      </trkpt>
      <trkpt lat="39.64693" lon="2.7761">
        <ele>177.252705</ele>
        <time>2023-01-05T11:42:15.434Z</time>
      </trkpt>
      <trkpt lat="39.64683" lon="2.7762">
        <ele>177.001216</ele>
        <time>2023-01-05T11:42:18.446Z</time>
      </trkpt>
      <trkpt lat="39.64672" lon="2.77629">
        <ele>176.753583</ele>
        <time>2023-01-05T11:42:21.424Z</time>
      </trkpt>
      <trkpt lat="39.64662" lon="2.77637">
        <ele>176.504035</ele>
        <time>2023-01-05T11:42:24.451Z</time>
      </trkpt>
      <trkpt lat="39.64651" lon="2.77647">
        <ele>176.247131</ele>
        <time>2023-01-05T11:42:27.423Z</time>
      </trkpt>
      <trkpt lat="39.64642" lon="2.77657">
        <ele>176.004837</ele>
        <time>2023-01-05T11:42:30.447Z</time>
      </trkpt>
      <trkpt lat="39.64633" lon="2.77665">
        <ele>175.783757</ele>
        <time>2023-01-05T11:42:33.442Z</time>
      </trkpt>
      <trkpt lat="39.64623" lon="2.77662">
        <ele>175.577165</ele>
        <time>2023-01-05T11:42:36.427Z</time>
      </trkpt>
      <trkpt lat="39.64616" lon="2.77652">
        <ele>175.374721</ele>
        <time>2023-01-05T11:42:39.435Z</time>
      </trkpt>
      <trkpt lat="39.64607" lon="2.7764">
        <ele>175.120442</ele>
        <time>2023-01-05T11:42:42.446Z</time>
      </trkpt>
      <trkpt lat="39.646" lon="2.77629">
        <ele>174.896348</ele>
        <time>2023-01-05T11:42:45.441Z</time>
      </trkpt>
      <trkpt lat="39.64591" lon="2.77619">
        <ele>174.66478</ele>
        <time>2023-01-05T11:42:48.435Z</time>
      </trkpt>
      <trkpt lat="39.64584" lon="2.77608">
        <ele>174.43374</ele>
        <time>2023-01-05T11:42:51.434Z</time>
      </trkpt>
      <trkpt lat="39.64576" lon="2.77598">
        <ele>174.223457</ele>
        <time>2023-01-05T11:42:54.456Z</time>
      </trkpt>
      <trkpt lat="39.6457" lon="2.77588">
        <ele>174.037186</ele>
        <time>2023-01-05T11:42:57.432Z</time>
      </trkpt>
      <trkpt lat="39.64564" lon="2.77579">
        <ele>174.022618</ele>
        <time>2023-01-05T11:43:00.446Z</time>
      </trkpt>
      <trkpt lat="39.64556" lon="2.7757">
        <ele>174.061872</ele>
        <time>2023-01-05T11:43:03.428Z</time>
      </trkpt>
      <trkpt lat="39.64549" lon="2.77558">
        <ele>174.103855</ele>
        <time>2023-01-05T11:43:06.445Z</time>
      </trkpt>
      <trkpt lat="39.64541" lon="2.77548">
        <ele>174.145913</ele>
        <time>2023-01-05T11:43:09.433Z</time>
      </trkpt>
      <trkpt lat="39.64534" lon="2.77536">
        <ele>174.188926</ele>
        <time>2023-01-05T11:43:12.456Z</time>
      </trkpt>
      <trkpt lat="39.64526" lon="2.77524">
        <ele>174.233789</ele>
        <time>2023-01-05T11:43:15.442Z</time>
      </trkpt>
      <trkpt lat="39.64518" lon="2.77511">
        <ele>174.279699</ele>
        <time>2023-01-05T11:43:18.443Z</time>
      </trkpt>
      <trkpt lat="39.6451" lon="2.77499">
        <ele>174.322713</ele>
        <time>2023-01-05T11:43:21.432Z</time>
      </trkpt>
      <trkpt lat="39.64502" lon="2.77488">
        <ele>174.366701</ele>
        <time>2023-01-05T11:43:24.442Z</time>
      </trkpt>
      <trkpt lat="39.64495" lon="2.77476">
        <ele>174.409477</ele>
        <time>2023-01-05T11:43:27.448Z</time>
      </trkpt>
      <trkpt lat="39.64487" lon="2.77463">
        <ele>174.456559</ele>
        <time>2023-01-05T11:43:30.431Z</time>
      </trkpt>
      <trkpt lat="39.64479" lon="2.7745">
        <ele>174.503368</ele>
        <time>2023-01-05T11:43:33.439Z</time>
      </trkpt>
      <trkpt lat="39.64473" lon="2.77441">
        <ele>174.537208</ele>
        <time>2023-01-05T11:43:35.446Z</time>
      </trkpt>
      <trkpt lat="39.64466" lon="2.77432">
        <ele>174.573075</ele>
        <time>2023-01-05T11:43:37.443Z</time>
      </trkpt>
      <trkpt lat="39.64461" lon="2.77421">
        <ele>174.610292</ele>
        <time>2023-01-05T11:43:39.429Z</time>
      </trkpt>
      <trkpt lat="39.64456" lon="2.7741">
        <ele>174.645</ele>
        <time>2023-01-05T11:43:41.419Z</time>
      </trkpt>
      <trkpt lat="39.64451" lon="2.77399">
        <ele>174.739593</ele>
        <time>2023-01-05T11:43:43.428Z</time>
      </trkpt>
      <trkpt lat="39.64447" lon="2.77387">
        <ele>174.860671</ele>
        <time>2023-01-05T11:43:45.437Z</time>
      </trkpt>
      <trkpt lat="39.64443" lon="2.77374">
        <ele>174.985653</ele>
        <time>2023-01-05T11:43:47.437Z</time>
      </trkpt>
      <trkpt lat="39.64439" lon="2.77362">
        <ele>175.108926</ele>
        <time>2023-01-05T11:43:49.454Z</time>
      </trkpt>
      <trkpt lat="39.64434" lon="2.77351">
        <ele>175.229267</ele>
        <time>2023-01-05T11:43:51.439Z</time>
      </trkpt>
      <trkpt lat="39.6443" lon="2.7734">
        <ele>175.345433</ele>
        <time>2023-01-05T11:43:53.440Z</time>
      </trkpt>
      <trkpt lat="39.64426" lon="2.77329">
        <ele>175.462409</ele>
        <time>2023-01-05T11:43:55.434Z</time>
      </trkpt>
      <trkpt lat="39.64421" lon="2.77317">
        <ele>175.582697</ele>
        <time>2023-01-05T11:43:57.435Z</time>
      </trkpt>
      <trkpt lat="39.64417" lon="2.77306">
        <ele>175.703279</ele>
        <time>2023-01-05T11:43:59.437Z</time>
      </trkpt>
      <trkpt lat="39.64413" lon="2.77294">
        <ele>175.824499</ele>
        <time>2023-01-05T11:44:01.445Z</time>
      </trkpt>
      <trkpt lat="39.64408" lon="2.77283">
        <ele>175.935397</ele>
        <time>2023-01-05T11:44:03.419Z</time>
      </trkpt>
      <trkpt lat="39.64403" lon="2.77268">
        <ele>176.092851</ele>
        <time>2023-01-05T11:44:06.435Z</time>
      </trkpt>
      <trkpt lat="39.64399" lon="2.77257">
        <ele>176.203241</ele>
        <time>2023-01-05T11:44:08.440Z</time>
      </trkpt>
      <trkpt lat="39.64393" lon="2.77242">
        <ele>176.36531</ele>
        <time>2023-01-05T11:44:11.417Z</time>
      </trkpt>
      <trkpt lat="39.64389" lon="2.7723">
        <ele>176.480783</ele>
        <time>2023-01-05T11:44:13.428Z</time>
      </trkpt>
      <trkpt lat="39.64385" lon="2.77219">
        <ele>176.595583</ele>
        <time>2023-01-05T11:44:15.435Z</time>
      </trkpt>
      <trkpt lat="39.64381" lon="2.77209">
        <ele>176.707875</ele>
        <time>2023-01-05T11:44:17.435Z</time>
      </trkpt>
      <trkpt lat="39.64377" lon="2.77198">
        <ele>176.81714</ele>
        <time>2023-01-05T11:44:19.433Z</time>
      </trkpt>
      <trkpt lat="39.64371" lon="2.77183">
        <ele>177.09973</ele>
        <time>2023-01-05T11:44:22.436Z</time>
      </trkpt>
      <trkpt lat="39.64366" lon="2.77169">
        <ele>177.371146</ele>
        <time>2023-01-05T11:44:25.439Z</time>
      </trkpt>
      <trkpt lat="39.6436" lon="2.77155">
        <ele>177.635557</ele>
        <time>2023-01-05T11:44:28.437Z</time>
      </trkpt>
      <trkpt lat="39.64354" lon="2.77143">
        <ele>177.899622</ele>
        <time>2023-01-05T11:44:31.430Z</time>
      </trkpt>
      <trkpt lat="39.64348" lon="2.77129">
        <ele>178.171947</ele>
        <time>2023-01-05T11:44:34.448Z</time>
      </trkpt>
      <trkpt lat="39.64342" lon="2.77118">
        <ele>178.414766</ele>
        <time>2023-01-05T11:44:37.430Z</time>
      </trkpt>
      <trkpt lat="39.64335" lon="2.77107">
        <ele>178.653463</ele>
        <time>2023-01-05T11:44:40.451Z</time>
      </trkpt>
      <trkpt lat="39.64329" lon="2.77096">
        <ele>178.893449</ele>
        <time>2023-01-05T11:44:43.426Z</time>
      </trkpt>
      <trkpt lat="39.64322" lon="2.77086">
        <ele>179.123714</ele>
        <time>2023-01-05T11:44:46.457Z</time>
      </trkpt>
      <trkpt lat="39.64316" lon="2.77076">
        <ele>179.344381</ele>
        <time>2023-01-05T11:44:49.438Z</time>
      </trkpt>
      <trkpt lat="39.6431" lon="2.77066">
        <ele>179.562182</ele>
        <time>2023-01-05T11:44:52.436Z</time>
      </trkpt>
      <trkpt lat="39.64304" lon="2.77057">
        <ele>179.77317</ele>
        <time>2023-01-05T11:44:55.440Z</time>
      </trkpt>
      <trkpt lat="39.64299" lon="2.77047">
        <ele>179.977186</ele>
        <time>2023-01-05T11:44:58.441Z</time>
      </trkpt>
      <trkpt lat="39.64291" lon="2.77036">
        <ele>180.243385</ele>
        <time>2023-01-05T11:45:02.445Z</time>
      </trkpt>
      <trkpt lat="39.64286" lon="2.77026">
        <ele>180.45845</ele>
        <time>2023-01-05T11:45:05.452Z</time>
      </trkpt>
      <trkpt lat="39.6428" lon="2.77016">
        <ele>180.672148</ele>
        <time>2023-01-05T11:45:08.441Z</time>
      </trkpt>
      <trkpt lat="39.64274" lon="2.77007">
        <ele>180.877584</ele>
        <time>2023-01-05T11:45:11.422Z</time>
      </trkpt>
      <trkpt lat="39.64267" lon="2.76995">
        <ele>181.571281</ele>
        <time>2023-01-05T11:45:15.433Z</time>
      </trkpt>
      <trkpt lat="39.64261" lon="2.76984">
        <ele>182.201226</ele>
        <time>2023-01-05T11:45:19.433Z</time>
      </trkpt>
      <trkpt lat="39.64255" lon="2.76974">
        <ele>182.8505</ele>
        <time>2023-01-05T11:45:23.432Z</time>
      </trkpt>
      <trkpt lat="39.64249" lon="2.76963">
        <ele>183.488756</ele>
        <time>2023-01-05T11:45:27.435Z</time>
      </trkpt>
      <trkpt lat="39.64243" lon="2.76953">
        <ele>184.10324</ele>
        <time>2023-01-05T11:45:31.436Z</time>
      </trkpt>
      <trkpt lat="39.64237" lon="2.76944">
        <ele>184.719479</ele>
        <time>2023-01-05T11:45:35.424Z</time>
      </trkpt>
      <trkpt lat="39.6423" lon="2.76934">
        <ele>185.349694</ele>
        <time>2023-01-05T11:45:39.427Z</time>
      </trkpt>
      <trkpt lat="39.64224" lon="2.76924">
        <ele>185.992112</ele>
        <time>2023-01-05T11:45:43.431Z</time>
      </trkpt>
      <trkpt lat="39.64218" lon="2.76914">
        <ele>186.602981</ele>
        <time>2023-01-05T11:45:47.429Z</time>
      </trkpt>
      <trkpt lat="39.64212" lon="2.76904">
        <ele>187.209846</ele>
        <time>2023-01-05T11:45:51.439Z</time>
      </trkpt>
      <trkpt lat="39.64206" lon="2.76894">
        <ele>187.8325</ele>
        <time>2023-01-05T11:45:55.452Z</time>
      </trkpt>
      <trkpt lat="39.64201" lon="2.76884">
        <ele>188.431915</ele>
        <time>2023-01-05T11:45:59.435Z</time>
      </trkpt>
      <trkpt lat="39.64195" lon="2.76875">
        <ele>189.024587</ele>
        <time>2023-01-05T11:46:03.427Z</time>
      </trkpt>
      <trkpt lat="39.64189" lon="2.76864">
        <ele>189.652691</ele>
        <time>2023-01-05T11:46:07.445Z</time>
      </trkpt>
      <trkpt lat="39.64183" lon="2.76854">
        <ele>190.247859</ele>
        <time>2023-01-05T11:46:11.414Z</time>
      </trkpt>
      <trkpt lat="39.64178" lon="2.76844">
        <ele>190.87421</ele>
        <time>2023-01-05T11:46:15.436Z</time>
      </trkpt>
      <trkpt lat="39.64171" lon="2.76834">
        <ele>191.500661</ele>
        <time>2023-01-05T11:46:19.446Z</time>
      </trkpt>
      <trkpt lat="39.64165" lon="2.76824">
        <ele>192.138353</ele>
        <time>2023-01-05T11:46:23.423Z</time>
      </trkpt>
      <trkpt lat="39.64159" lon="2.76814">
        <ele>192.787404</ele>
        <time>2023-01-05T11:46:27.442Z</time>
      </trkpt>
      <trkpt lat="39.64152" lon="2.76805">
        <ele>193.434813</ele>
        <time>2023-01-05T11:46:31.435Z</time>
      </trkpt>
      <trkpt lat="39.64145" lon="2.76796">
        <ele>194.09889</ele>
        <time>2023-01-05T11:46:35.447Z</time>
      </trkpt>
      <trkpt lat="39.64137" lon="2.76787">
        <ele>194.778838</ele>
        <time>2023-01-05T11:46:39.416Z</time>
      </trkpt>
      <trkpt lat="39.64129" lon="2.76779">
        <ele>195.458394</ele>
        <time>2023-01-05T11:46:43.415Z</time>
      </trkpt>
      <trkpt lat="39.64122" lon="2.7677">
        <ele>196.129936</ele>
        <time>2023-01-05T11:46:47.427Z</time>
      </trkpt>
      <trkpt lat="39.64114" lon="2.76762">
        <ele>196.790483</ele>
        <time>2023-01-05T11:46:51.427Z</time>
      </trkpt>
      <trkpt lat="39.64106" lon="2.76755">
        <ele>197.434978</ele>
        <time>2023-01-05T11:46:55.434Z</time>
      </trkpt>
      <trkpt lat="39.64098" lon="2.76747">
        <ele>198.144407</ele>
        <time>2023-01-05T11:46:59.440Z</time>
      </trkpt>
      <trkpt lat="39.64089" lon="2.76743">
        <ele>198.757349</ele>
        <time>2023-01-05T11:47:03.425Z</time>
      </trkpt>
      <trkpt lat="39.6408" lon="2.76744">
        <ele>199.365803</ele>
        <time>2023-01-05T11:47:07.443Z</time>
      </trkpt>
      <trkpt lat="39.6407" lon="2.76745">
        <ele>199.998877</ele>
        <time>2023-01-05T11:47:11.433Z</time>
      </trkpt>
      <trkpt lat="39.64061" lon="2.76746">
        <ele>200.622029</ele>
        <time>2023-01-05T11:47:15.443Z</time>
      </trkpt>
      <trkpt lat="39.6405" lon="2.76748">
        <ele>201.343193</ele>
        <time>2023-01-05T11:47:20.439Z</time>
      </trkpt>
      <trkpt lat="39.6404" lon="2.7675">
        <ele>202.054681</ele>
        <time>2023-01-05T11:47:25.436Z</time>
      </trkpt>
      <trkpt lat="39.6403" lon="2.76752">
        <ele>202.744327</ele>
        <time>2023-01-05T11:47:30.434Z</time>
      </trkpt>
      <trkpt lat="39.64019" lon="2.76754">
        <ele>203.49069</ele>
        <time>2023-01-05T11:47:35.439Z</time>
      </trkpt>
      <trkpt lat="39.64009" lon="2.76756">
        <ele>204.134198</ele>
        <time>2023-01-05T11:47:40.446Z</time>
      </trkpt>
      <trkpt lat="39.63999" lon="2.76759">
        <ele>204.517075</ele>
        <time>2023-01-05T11:47:45.439Z</time>
      </trkpt>
      <trkpt lat="39.63988" lon="2.76761">
        <ele>204.803856</ele>
        <time>2023-01-05T11:47:49.416Z</time>
      </trkpt>
      <trkpt lat="39.63977" lon="2.76762">
        <ele>205.093058</ele>
        <time>2023-01-05T11:47:54.442Z</time>
      </trkpt>
      <trkpt lat="39.63967" lon="2.76761">
        <ele>205.36602</ele>
        <time>2023-01-05T11:47:59.426Z</time>
      </trkpt>
      <trkpt lat="39.63958" lon="2.76754">
        <ele>205.658657</ele>
        <time>2023-01-05T11:48:04.455Z</time>
      </trkpt>
      <trkpt lat="39.63948" lon="2.76747">
        <ele>205.948932</ele>
        <time>2023-01-05T11:48:09.453Z</time>
      </trkpt>
      <trkpt lat="39.63941" lon="2.76739">
        <ele>206.222989</ele>
        <time>2023-01-05T11:48:14.421Z</time>
      </trkpt>
      <trkpt lat="39.63936" lon="2.76726">
        <ele>206.511744</ele>
        <time>2023-01-05T11:48:19.442Z</time>
      </trkpt>
      <trkpt lat="39.63934" lon="2.76714">
        <ele>206.767086</ele>
        <time>2023-01-05T11:48:24.455Z</time>
      </trkpt>
      <trkpt lat="39.63933" lon="2.76701">
        <ele>207.024584</ele>
        <time>2023-01-05T11:48:30.417Z</time>
      </trkpt>
      <trkpt lat="39.63932" lon="2.76689">
        <ele>207.286497</ele>
        <time>2023-01-05T11:48:34.438Z</time>
      </trkpt>
      <trkpt lat="39.63933" lon="2.76674">
        <ele>207.588968</ele>
        <time>2023-01-05T11:48:37.427Z</time>
      </trkpt>
      <trkpt lat="39.63934" lon="2.76663">
        <ele>207.831097</ele>
        <time>2023-01-05T11:48:39.419Z</time>
      </trkpt>
      <trkpt lat="39.63935" lon="2.76648">
        <ele>208.134175</ele>
        <time>2023-01-05T11:48:41.438Z</time>
      </trkpt>
      <trkpt lat="39.63937" lon="2.76633">
        <ele>208.453089</ele>
        <time>2023-01-05T11:48:43.440Z</time>
      </trkpt>
      <trkpt lat="39.63937" lon="2.76618">
        <ele>208.759688</ele>
        <time>2023-01-05T11:48:45.427Z</time>
      </trkpt>
      <trkpt lat="39.63937" lon="2.76602">
        <ele>209.089341</ele>
        <time>2023-01-05T11:48:47.430Z</time>
      </trkpt>
      <trkpt lat="39.63936" lon="2.76586">
        <ele>209.094866</ele>
        <time>2023-01-05T11:48:49.422Z</time>
      </trkpt>
      <trkpt lat="39.63935" lon="2.76569">
        <ele>209.052829</ele>
        <time>2023-01-05T11:48:51.424Z</time>
      </trkpt>
      <trkpt lat="39.63932" lon="2.76554">
        <ele>209.012064</ele>
        <time>2023-01-05T11:48:53.439Z</time>
      </trkpt>
      <trkpt lat="39.63927" lon="2.76538">
        <ele>208.970271</ele>
        <time>2023-01-05T11:48:55.429Z</time>
      </trkpt>
      <trkpt lat="39.63921" lon="2.76525">
        <ele>208.930467</ele>
        <time>2023-01-05T11:48:57.426Z</time>
      </trkpt>
      <trkpt lat="39.63914" lon="2.76512">
        <ele>208.890151</ele>
        <time>2023-01-05T11:48:59.439Z</time>
      </trkpt>
      <trkpt lat="39.63906" lon="2.765">
        <ele>208.850259</ele>
        <time>2023-01-05T11:49:01.454Z</time>
      </trkpt>
      <trkpt lat="39.63898" lon="2.76489">
        <ele>208.811893</ele>
        <time>2023-01-05T11:49:03.426Z</time>
      </trkpt>
      <trkpt lat="39.63892" lon="2.76477">
        <ele>208.774825</ele>
        <time>2023-01-05T11:49:05.438Z</time>
      </trkpt>
      <trkpt lat="39.63885" lon="2.76466">
        <ele>208.737351</ele>
        <time>2023-01-05T11:49:07.444Z</time>
      </trkpt>
      <trkpt lat="39.63879" lon="2.76452">
        <ele>208.698218</ele>
        <time>2023-01-05T11:49:09.442Z</time>
      </trkpt>
      <trkpt lat="39.63876" lon="2.76438">
        <ele>208.661999</ele>
        <time>2023-01-05T11:49:11.432Z</time>
      </trkpt>
      <trkpt lat="39.63875" lon="2.76425">
        <ele>208.628745</ele>
        <time>2023-01-05T11:49:13.421Z</time>
      </trkpt>
      <trkpt lat="39.63874" lon="2.76414">
        <ele>208.598696</ele>
        <time>2023-01-05T11:49:15.428Z</time>
      </trkpt>
      <trkpt lat="39.63875" lon="2.76397">
        <ele>208.556187</ele>
        <time>2023-01-05T11:49:18.446Z</time>
      </trkpt>
      <trkpt lat="39.63875" lon="2.7638">
        <ele>208.684576</ele>
        <time>2023-01-05T11:49:21.424Z</time>
      </trkpt>
      <trkpt lat="39.63875" lon="2.76364">
        <ele>208.949311</ele>
        <time>2023-01-05T11:49:24.425Z</time>
      </trkpt>
      <trkpt lat="39.63874" lon="2.76347">
        <ele>209.22344</ele>
        <time>2023-01-05T11:49:27.427Z</time>
      </trkpt>
      <trkpt lat="39.63871" lon="2.7633">
        <ele>209.506985</ele>
        <time>2023-01-05T11:49:30.435Z</time>
      </trkpt>
      <trkpt lat="39.63866" lon="2.76314">
        <ele>209.787988</ele>
        <time>2023-01-05T11:49:33.420Z</time>
      </trkpt>
      <trkpt lat="39.63863" lon="2.76303">
        <ele>209.97786</ele>
        <time>2023-01-05T11:49:35.434Z</time>
      </trkpt>
      <trkpt lat="39.6386" lon="2.76292">
        <ele>210.166898</ele>
        <time>2023-01-05T11:49:37.431Z</time>
      </trkpt>
      <trkpt lat="39.63856" lon="2.7628">
        <ele>210.372672</ele>
        <time>2023-01-05T11:49:39.437Z</time>
      </trkpt>
      <trkpt lat="39.63852" lon="2.76268">
        <ele>210.580535</ele>
        <time>2023-01-05T11:49:41.441Z</time>
      </trkpt>
      <trkpt lat="39.63848" lon="2.76257">
        <ele>210.783974</ele>
        <time>2023-01-05T11:49:43.419Z</time>
      </trkpt>
      <trkpt lat="39.63844" lon="2.76245">
        <ele>210.986174</ele>
        <time>2023-01-05T11:49:45.429Z</time>
      </trkpt>
      <trkpt lat="39.6384" lon="2.76234">
        <ele>211.189844</ele>
        <time>2023-01-05T11:49:47.451Z</time>
      </trkpt>
      <trkpt lat="39.63836" lon="2.76222">
        <ele>211.389711</ele>
        <time>2023-01-05T11:49:49.437Z</time>
      </trkpt>
      <trkpt lat="39.63833" lon="2.76211">
        <ele>211.586416</ele>
        <time>2023-01-05T11:49:51.430Z</time>
      </trkpt>
      <trkpt lat="39.63829" lon="2.762">
        <ele>211.786282</ele>
        <time>2023-01-05T11:49:53.434Z</time>
      </trkpt>
      <trkpt lat="39.63825" lon="2.76184">
        <ele>212.058075</ele>
        <time>2023-01-05T11:49:56.438Z</time>
      </trkpt>
      <trkpt lat="39.63823" lon="2.76169">
        <ele>212.30612</ele>
        <time>2023-01-05T11:49:59.433Z</time>
      </trkpt>
      <trkpt lat="39.63821" lon="2.76154">
        <ele>211.820823</ele>
        <time>2023-01-05T11:50:02.417Z</time>
      </trkpt>
      <trkpt lat="39.6382" lon="2.76141">
        <ele>211.368098</ele>
        <time>2023-01-05T11:50:05.412Z</time>
      </trkpt>
      <trkpt lat="39.63819" lon="2.76129">
        <ele>210.974725</ele>
        <time>2023-01-05T11:50:08.438Z</time>
      </trkpt>
      <trkpt lat="39.63819" lon="2.76115">
        <ele>210.512059</ele>
        <time>2023-01-05T11:50:12.455Z</time>
      </trkpt>
      <trkpt lat="39.63818" lon="2.76103">
        <ele>210.10866</ele>
        <time>2023-01-05T11:50:17.431Z</time>
      </trkpt>
      <trkpt lat="39.63817" lon="2.76086">
        <ele>209.512929</ele>
        <time>2023-01-05T11:50:37.440Z</time>
      </trkpt>
      <trkpt lat="39.63815" lon="2.76073">
        <ele>209.069383</ele>
        <time>2023-01-05T11:50:40.444Z</time>
      </trkpt>
      <trkpt lat="39.63813" lon="2.7606">
        <ele>208.64325</ele>
        <time>2023-01-05T11:50:42.449Z</time>
      </trkpt>
      <trkpt lat="39.63812" lon="2.76046">
        <ele>208.161068</ele>
        <time>2023-01-05T11:50:44.445Z</time>
      </trkpt>
      <trkpt lat="39.63813" lon="2.7603">
        <ele>207.633913</ele>
        <time>2023-01-05T11:50:46.426Z</time>
      </trkpt>
      <trkpt lat="39.63817" lon="2.76014">
        <ele>207.048208</ele>
        <time>2023-01-05T11:50:48.435Z</time>
      </trkpt>
      <trkpt lat="39.63824" lon="2.75997">
        <ele>206.436825</ele>
        <time>2023-01-05T11:50:50.427Z</time>
      </trkpt>
      <trkpt lat="39.63831" lon="2.75983">
        <ele>205.857407</ele>
        <time>2023-01-05T11:50:52.418Z</time>
      </trkpt>
      <trkpt lat="39.63834" lon="2.75967">
        <ele>205.304136</ele>
        <time>2023-01-05T11:50:54.431Z</time>
      </trkpt>
      <trkpt lat="39.63831" lon="2.75948">
        <ele>204.644997</ele>
        <time>2023-01-05T11:50:56.414Z</time>
      </trkpt>
      <trkpt lat="39.63827" lon="2.75929">
        <ele>203.497379</ele>
        <time>2023-01-05T11:50:58.440Z</time>
      </trkpt>
      <trkpt lat="39.63827" lon="2.75907">
        <ele>202.114586</ele>
        <time>2023-01-05T11:51:00.428Z</time>
      </trkpt>
      <trkpt lat="39.63828" lon="2.75886">
        <ele>200.695722</ele>
        <time>2023-01-05T11:51:02.414Z</time>
      </trkpt>
      <trkpt lat="39.63825" lon="2.75864">
        <ele>199.298206</ele>
        <time>2023-01-05T11:51:04.444Z</time>
      </trkpt>
      <trkpt lat="39.63825" lon="2.75843">
        <ele>197.933951</ele>
        <time>2023-01-05T11:51:06.431Z</time>
      </trkpt>
      <trkpt lat="39.63826" lon="2.75821">
        <ele>196.457861</ele>
        <time>2023-01-05T11:51:08.438Z</time>
      </trkpt>
      <trkpt lat="39.63827" lon="2.75809">
        <ele>195.686415</ele>
        <time>2023-01-05T11:51:09.418Z</time>
      </trkpt>
      <trkpt lat="39.63829" lon="2.75797">
        <ele>194.871995</ele>
        <time>2023-01-05T11:51:10.435Z</time>
      </trkpt>
      <trkpt lat="39.63831" lon="2.75785">
        <ele>194.086269</ele>
        <time>2023-01-05T11:51:11.411Z</time>
      </trkpt>
      <trkpt lat="39.63833" lon="2.75772">
        <ele>193.273465</ele>
        <time>2023-01-05T11:51:12.414Z</time>
      </trkpt>
      <trkpt lat="39.63834" lon="2.75759">
        <ele>192.402003</ele>
        <time>2023-01-05T11:51:13.417Z</time>
      </trkpt>
      <trkpt lat="39.63835" lon="2.75745">
        <ele>191.486542</ele>
        <time>2023-01-05T11:51:14.449Z</time>
      </trkpt>
      <trkpt lat="39.63836" lon="2.75731">
        <ele>190.580974</ele>
        <time>2023-01-05T11:51:15.429Z</time>
      </trkpt>
      <trkpt lat="39.63836" lon="2.75717">
        <ele>189.672097</ele>
        <time>2023-01-05T11:51:16.428Z</time>
      </trkpt>
      <trkpt lat="39.63836" lon="2.75703">
        <ele>188.999418</ele>
        <time>2023-01-05T11:51:17.417Z</time>
      </trkpt>
      <trkpt lat="39.63835" lon="2.75688">
        <ele>188.488844</ele>
        <time>2023-01-05T11:51:18.439Z</time>
      </trkpt>
      <trkpt lat="39.63834" lon="2.75674">
        <ele>187.978814</ele>
        <time>2023-01-05T11:51:19.416Z</time>
      </trkpt>
      <trkpt lat="39.63832" lon="2.75661">
        <ele>187.484608</ele>
        <time>2023-01-05T11:51:20.435Z</time>
      </trkpt>
      <trkpt lat="39.63829" lon="2.75647">
        <ele>186.982547</ele>
        <time>2023-01-05T11:51:21.418Z</time>
      </trkpt>
      <trkpt lat="39.63826" lon="2.75633">
        <ele>186.48826</ele>
        <time>2023-01-05T11:51:22.405Z</time>
      </trkpt>
      <trkpt lat="39.63822" lon="2.7562">
        <ele>186.001961</ele>
        <time>2023-01-05T11:51:23.418Z</time>
      </trkpt>
      <trkpt lat="39.63819" lon="2.75608">
        <ele>185.536811</ele>
        <time>2023-01-05T11:51:24.412Z</time>
      </trkpt>
      <trkpt lat="39.63816" lon="2.75596">
        <ele>185.083653</ele>
        <time>2023-01-05T11:51:25.445Z</time>
      </trkpt>
      <trkpt lat="39.63813" lon="2.75583">
        <ele>184.604996</ele>
        <time>2023-01-05T11:51:26.436Z</time>
      </trkpt>
      <trkpt lat="39.6381" lon="2.75571">
        <ele>184.157474</ele>
        <time>2023-01-05T11:51:27.432Z</time>
      </trkpt>
      <trkpt lat="39.63807" lon="2.75559">
        <ele>183.709953</ele>
        <time>2023-01-05T11:51:28.436Z</time>
      </trkpt>
      <trkpt lat="39.63804" lon="2.75547">
        <ele>183.256324</ele>
        <time>2023-01-05T11:51:29.453Z</time>
      </trkpt>
      <trkpt lat="39.63802" lon="2.75535">
        <ele>182.822352</ele>
        <time>2023-01-05T11:51:30.448Z</time>
      </trkpt>
      <trkpt lat="39.63799" lon="2.75523">
        <ele>182.384996</ele>
        <time>2023-01-05T11:51:31.426Z</time>
      </trkpt>
      <trkpt lat="39.63796" lon="2.75512">
        <ele>181.959739</ele>
        <time>2023-01-05T11:51:32.436Z</time>
      </trkpt>
      <trkpt lat="39.63793" lon="2.755">
        <ele>181.519955</ele>
        <time>2023-01-05T11:51:33.418Z</time>
      </trkpt>
      <trkpt lat="39.6379" lon="2.75488">
        <ele>181.088623</ele>
        <time>2023-01-05T11:51:34.439Z</time>
      </trkpt>
      <trkpt lat="39.63787" lon="2.75476">
        <ele>180.584416</ele>
        <time>2023-01-05T11:51:35.448Z</time>
      </trkpt>
      <trkpt lat="39.63784" lon="2.75465">
        <ele>180.085382</ele>
        <time>2023-01-05T11:51:36.446Z</time>
      </trkpt>
      <trkpt lat="39.63782" lon="2.75453">
        <ele>179.579231</ele>
        <time>2023-01-05T11:51:37.438Z</time>
      </trkpt>
      <trkpt lat="39.63778" lon="2.75441">
        <ele>179.058003</ele>
        <time>2023-01-05T11:51:38.456Z</time>
      </trkpt>
      <trkpt lat="39.63776" lon="2.75429">
        <ele>178.531309</ele>
        <time>2023-01-05T11:51:39.433Z</time>
      </trkpt>
      <trkpt lat="39.63773" lon="2.75416">
        <ele>177.994051</ele>
        <time>2023-01-05T11:51:40.440Z</time>
      </trkpt>
      <trkpt lat="39.63771" lon="2.75403">
        <ele>177.44476</ele>
        <time>2023-01-05T11:51:41.439Z</time>
      </trkpt>
      <trkpt lat="39.63769" lon="2.7539">
        <ele>176.891655</ele>
        <time>2023-01-05T11:51:42.443Z</time>
      </trkpt>
      <trkpt lat="39.63766" lon="2.75376">
        <ele>176.306605</ele>
        <time>2023-01-05T11:51:43.428Z</time>
      </trkpt>
      <trkpt lat="39.63764" lon="2.75363">
        <ele>175.729304</ele>
        <time>2023-01-05T11:51:44.436Z</time>
      </trkpt>
      <trkpt lat="39.63762" lon="2.75348">
        <ele>175.135781</ele>
        <time>2023-01-05T11:51:45.435Z</time>
      </trkpt>
      <trkpt lat="39.6376" lon="2.75334">
        <ele>174.55037</ele>
        <time>2023-01-05T11:51:46.449Z</time>
      </trkpt>
      <trkpt lat="39.63758" lon="2.7532">
        <ele>173.951857</ele>
        <time>2023-01-05T11:51:47.446Z</time>
      </trkpt>
      <trkpt lat="39.63756" lon="2.75306">
        <ele>173.364496</ele>
        <time>2023-01-05T11:51:48.439Z</time>
      </trkpt>
      <trkpt lat="39.63754" lon="2.75292">
        <ele>172.778133</ele>
        <time>2023-01-05T11:51:49.448Z</time>
      </trkpt>
      <trkpt lat="39.63752" lon="2.75278">
        <ele>172.198853</ele>
        <time>2023-01-05T11:51:50.442Z</time>
      </trkpt>
      <trkpt lat="39.6375" lon="2.75264">
        <ele>171.618408</ele>
        <time>2023-01-05T11:51:51.434Z</time>
      </trkpt>
      <trkpt lat="39.63748" lon="2.75251">
        <ele>171.122631</ele>
        <time>2023-01-05T11:51:52.437Z</time>
      </trkpt>
      <trkpt lat="39.63746" lon="2.75237">
        <ele>170.670585</ele>
        <time>2023-01-05T11:51:53.431Z</time>
      </trkpt>
      <trkpt lat="39.63744" lon="2.75224">
        <ele>170.216824</ele>
        <time>2023-01-05T11:51:54.451Z</time>
      </trkpt>
      <trkpt lat="39.63742" lon="2.75211">
        <ele>169.77612</ele>
        <time>2023-01-05T11:51:55.434Z</time>
      </trkpt>
      <trkpt lat="39.6374" lon="2.75198">
        <ele>169.341148</ele>
        <time>2023-01-05T11:51:56.442Z</time>
      </trkpt>
      <trkpt lat="39.63739" lon="2.75185">
        <ele>168.919991</ele>
        <time>2023-01-05T11:51:57.433Z</time>
      </trkpt>
      <trkpt lat="39.63737" lon="2.75173">
        <ele>168.497063</ele>
        <time>2023-01-05T11:51:58.435Z</time>
      </trkpt>
      <trkpt lat="39.63735" lon="2.75161">
        <ele>168.086456</ele>
        <time>2023-01-05T11:51:59.430Z</time>
      </trkpt>
      <trkpt lat="39.63734" lon="2.75148">
        <ele>167.673328</ele>
        <time>2023-01-05T11:52:00.442Z</time>
      </trkpt>
      <trkpt lat="39.63732" lon="2.75136">
        <ele>167.268436</ele>
        <time>2023-01-05T11:52:01.429Z</time>
      </trkpt>
      <trkpt lat="39.6373" lon="2.75124">
        <ele>166.866795</ele>
        <time>2023-01-05T11:52:02.427Z</time>
      </trkpt>
      <trkpt lat="39.63728" lon="2.75113">
        <ele>166.472471</ele>
        <time>2023-01-05T11:52:03.435Z</time>
      </trkpt>
      <trkpt lat="39.63727" lon="2.75101">
        <ele>166.082183</ele>
        <time>2023-01-05T11:52:04.438Z</time>
      </trkpt>
      <trkpt lat="39.63725" lon="2.75089">
        <ele>165.672321</ele>
        <time>2023-01-05T11:52:05.439Z</time>
      </trkpt>
      <trkpt lat="39.63723" lon="2.75077">
        <ele>165.276312</ele>
        <time>2023-01-05T11:52:06.444Z</time>
      </trkpt>
      <trkpt lat="39.63721" lon="2.75066">
        <ele>164.883873</ele>
        <time>2023-01-05T11:52:07.446Z</time>
      </trkpt>
      <trkpt lat="39.63718" lon="2.75054">
        <ele>164.465766</ele>
        <time>2023-01-05T11:52:08.432Z</time>
      </trkpt>
      <trkpt lat="39.63716" lon="2.75042">
        <ele>164.067893</ele>
        <time>2023-01-05T11:52:09.449Z</time>
      </trkpt>
      <trkpt lat="39.63714" lon="2.7503">
        <ele>163.667914</ele>
        <time>2023-01-05T11:52:10.447Z</time>
      </trkpt>
      <trkpt lat="39.63711" lon="2.75019">
        <ele>163.292267</ele>
        <time>2023-01-05T11:52:11.431Z</time>
      </trkpt>
      <trkpt lat="39.63707" lon="2.74996">
        <ele>162.558672</ele>
        <time>2023-01-05T11:52:13.444Z</time>
      </trkpt>
      <trkpt lat="39.63702" lon="2.74975">
        <ele>161.854442</ele>
        <time>2023-01-05T11:52:15.428Z</time>
      </trkpt>
      <trkpt lat="39.63698" lon="2.74954">
        <ele>161.157422</ele>
        <time>2023-01-05T11:52:17.441Z</time>
      </trkpt>
      <trkpt lat="39.63693" lon="2.74934">
        <ele>160.495544</ele>
        <time>2023-01-05T11:52:19.447Z</time>
      </trkpt>
      <trkpt lat="39.63688" lon="2.74915">
        <ele>159.867487</ele>
        <time>2023-01-05T11:52:21.434Z</time>
      </trkpt>
      <trkpt lat="39.63684" lon="2.74896">
        <ele>159.26177</ele>
        <time>2023-01-05T11:52:23.439Z</time>
      </trkpt>
      <trkpt lat="39.6368" lon="2.74879">
        <ele>158.687409</ele>
        <time>2023-01-05T11:52:25.438Z</time>
      </trkpt>
      <trkpt lat="39.63675" lon="2.74863">
        <ele>158.142627</ele>
        <time>2023-01-05T11:52:27.423Z</time>
      </trkpt>
      <trkpt lat="39.63666" lon="2.74852">
        <ele>157.628637</ele>
        <time>2023-01-05T11:52:29.427Z</time>
      </trkpt>
      <trkpt lat="39.63653" lon="2.74848">
        <ele>157.065041</ele>
        <time>2023-01-05T11:52:31.426Z</time>
      </trkpt>
      <trkpt lat="39.6364" lon="2.74844">
        <ele>156.518631</ele>
        <time>2023-01-05T11:52:33.435Z</time>
      </trkpt>
      <trkpt lat="39.63626" lon="2.7484">
        <ele>156.293134</ele>
        <time>2023-01-05T11:52:35.441Z</time>
      </trkpt>
      <trkpt lat="39.63612" lon="2.74837">
        <ele>156.266394</ele>
        <time>2023-01-05T11:52:37.427Z</time>
      </trkpt>
      <trkpt lat="39.63597" lon="2.74833">
        <ele>156.236747</ele>
        <time>2023-01-05T11:52:39.446Z</time>
      </trkpt>
      <trkpt lat="39.63581" lon="2.74829">
        <ele>156.206135</ele>
        <time>2023-01-05T11:52:41.433Z</time>
      </trkpt>
      <trkpt lat="39.63565" lon="2.74824">
        <ele>156.175124</ele>
        <time>2023-01-05T11:52:43.427Z</time>
      </trkpt>
      <trkpt lat="39.63548" lon="2.7482">
        <ele>156.143495</ele>
        <time>2023-01-05T11:52:45.428Z</time>
      </trkpt>
      <trkpt lat="39.63531" lon="2.74816">
        <ele>156.11141</ele>
        <time>2023-01-05T11:52:47.425Z</time>
      </trkpt>
      <trkpt lat="39.63515" lon="2.74811">
        <ele>156.079568</ele>
        <time>2023-01-05T11:52:49.427Z</time>
      </trkpt>
      <trkpt lat="39.63498" lon="2.74807">
        <ele>156.048036</ele>
        <time>2023-01-05T11:52:51.426Z</time>
      </trkpt>
      <trkpt lat="39.63483" lon="2.74803">
        <ele>156.018677</ele>
        <time>2023-01-05T11:52:53.420Z</time>
      </trkpt>
      <trkpt lat="39.6347" lon="2.74799">
        <ele>155.994024</ele>
        <time>2023-01-05T11:52:55.419Z</time>
      </trkpt>
      <trkpt lat="39.63459" lon="2.74796">
        <ele>155.97209</ele>
        <time>2023-01-05T11:52:57.443Z</time>
      </trkpt>
      <trkpt lat="39.63449" lon="2.74794">
        <ele>155.976961</ele>
        <time>2023-01-05T11:52:59.431Z</time>
      </trkpt>
      <trkpt lat="39.63437" lon="2.74791">
        <ele>155.984438</ele>
        <time>2023-01-05T11:53:02.431Z</time>
      </trkpt>
      <trkpt lat="39.63425" lon="2.74787">
        <ele>155.991702</ele>
        <time>2023-01-05T11:53:05.433Z</time>
      </trkpt>
      <trkpt lat="39.63413" lon="2.74784">
        <ele>155.998957</ele>
        <time>2023-01-05T11:53:08.420Z</time>
      </trkpt>
      <trkpt lat="39.63401" lon="2.74781">
        <ele>156.006141</ele>
        <time>2023-01-05T11:53:11.425Z</time>
      </trkpt>
      <trkpt lat="39.6339" lon="2.74778">
        <ele>156.012797</ele>
        <time>2023-01-05T11:53:14.445Z</time>
      </trkpt>
      <trkpt lat="39.63379" lon="2.74776">
        <ele>156.019688</ele>
        <time>2023-01-05T11:53:17.439Z</time>
      </trkpt>
      <trkpt lat="39.63367" lon="2.74772">
        <ele>156.027136</ele>
        <time>2023-01-05T11:53:20.439Z</time>
      </trkpt>
      <trkpt lat="39.63355" lon="2.74769">
        <ele>156.034512</ele>
        <time>2023-01-05T11:53:23.434Z</time>
      </trkpt>
      <trkpt lat="39.63342" lon="2.74766">
        <ele>156.042319</ele>
        <time>2023-01-05T11:53:26.437Z</time>
      </trkpt>
      <trkpt lat="39.63329" lon="2.74762">
        <ele>156.049972</ele>
        <time>2023-01-05T11:53:29.431Z</time>
      </trkpt>
      <trkpt lat="39.63316" lon="2.7476">
        <ele>156.057883</ele>
        <time>2023-01-05T11:53:32.438Z</time>
      </trkpt>
      <trkpt lat="39.63306" lon="2.74757">
        <ele>156.063771</ele>
        <time>2023-01-05T11:53:34.439Z</time>
      </trkpt>
      <trkpt lat="39.63296" lon="2.74754">
        <ele>156.07031</ele>
        <time>2023-01-05T11:53:36.429Z</time>
      </trkpt>
      <trkpt lat="39.63284" lon="2.74751">
        <ele>156.077448</ele>
        <time>2023-01-05T11:53:38.428Z</time>
      </trkpt>
      <trkpt lat="39.63271" lon="2.74748">
        <ele>155.787561</ele>
        <time>2023-01-05T11:53:40.422Z</time>
      </trkpt>
      <trkpt lat="39.63257" lon="2.74744">
        <ele>155.440746</ele>
        <time>2023-01-05T11:53:42.426Z</time>
      </trkpt>
      <trkpt lat="39.63242" lon="2.7474">
        <ele>155.071923</ele>
        <time>2023-01-05T11:53:44.433Z</time>
      </trkpt>
      <trkpt lat="39.63226" lon="2.74736">
        <ele>154.682838</ele>
        <time>2023-01-05T11:53:46.448Z</time>
      </trkpt>
      <trkpt lat="39.6321" lon="2.74732">
        <ele>154.26065</ele>
        <time>2023-01-05T11:53:48.430Z</time>
      </trkpt>
      <trkpt lat="39.63201" lon="2.7473">
        <ele>154.035758</ele>
        <time>2023-01-05T11:53:49.432Z</time>
      </trkpt>
      <trkpt lat="39.63183" lon="2.74726">
        <ele>153.607315</ele>
        <time>2023-01-05T11:53:51.431Z</time>
      </trkpt>
      <trkpt lat="39.63168" lon="2.74721">
        <ele>153.214055</ele>
        <time>2023-01-05T11:53:53.430Z</time>
      </trkpt>
      <trkpt lat="39.63153" lon="2.74717">
        <ele>152.844437</ele>
        <time>2023-01-05T11:53:55.438Z</time>
      </trkpt>
      <trkpt lat="39.63139" lon="2.74713">
        <ele>152.487217</ele>
        <time>2023-01-05T11:53:57.434Z</time>
      </trkpt>
      <trkpt lat="39.63126" lon="2.74707">
        <ele>152.151983</ele>
        <time>2023-01-05T11:53:59.432Z</time>
      </trkpt>
      <trkpt lat="39.63115" lon="2.74701">
        <ele>151.853738</ele>
        <time>2023-01-05T11:54:01.433Z</time>
      </trkpt>
      <trkpt lat="39.63104" lon="2.74695">
        <ele>151.649934</ele>
        <time>2023-01-05T11:54:03.415Z</time>
      </trkpt>
      <trkpt lat="39.63093" lon="2.74689">
        <ele>151.611958</ele>
        <time>2023-01-05T11:54:05.439Z</time>
      </trkpt>
      <trkpt lat="39.63081" lon="2.74683">
        <ele>151.573018</ele>
        <time>2023-01-05T11:54:07.449Z</time>
      </trkpt>
      <trkpt lat="39.6307" lon="2.74677">
        <ele>151.534165</ele>
        <time>2023-01-05T11:54:09.431Z</time>
      </trkpt>
      <trkpt lat="39.63058" lon="2.74669">
        <ele>151.493284</ele>
        <time>2023-01-05T11:54:11.420Z</time>
      </trkpt>
      <trkpt lat="39.63045" lon="2.74662">
        <ele>151.451321</ele>
        <time>2023-01-05T11:54:13.420Z</time>
      </trkpt>
      <trkpt lat="39.63033" lon="2.74655">
        <ele>151.409936</ele>
        <time>2023-01-05T11:54:15.449Z</time>
      </trkpt>
      <trkpt lat="39.63021" lon="2.74647">
        <ele>151.367701</ele>
        <time>2023-01-05T11:54:17.436Z</time>
      </trkpt>
      <trkpt lat="39.63009" lon="2.74641">
        <ele>151.326697</ele>
        <time>2023-01-05T11:54:19.432Z</time>
      </trkpt>
      <trkpt lat="39.62997" lon="2.74634">
        <ele>151.285776</ele>
        <time>2023-01-05T11:54:21.433Z</time>
      </trkpt>
      <trkpt lat="39.62985" lon="2.74628">
        <ele>151.24614</ele>
        <time>2023-01-05T11:54:23.414Z</time>
      </trkpt>
      <trkpt lat="39.62973" lon="2.74621">
        <ele>151.207122</ele>
        <time>2023-01-05T11:54:25.432Z</time>
      </trkpt>
      <trkpt lat="39.62962" lon="2.74615">
        <ele>151.16933</ele>
        <time>2023-01-05T11:54:27.440Z</time>
      </trkpt>
      <trkpt lat="39.62951" lon="2.74609">
        <ele>151.134764</ele>
        <time>2023-01-05T11:54:29.429Z</time>
      </trkpt>
      <trkpt lat="39.62942" lon="2.74603">
        <ele>151.096305</ele>
        <time>2023-01-05T11:54:31.429Z</time>
      </trkpt>
      <trkpt lat="39.62932" lon="2.74597">
        <ele>151.021804</ele>
        <time>2023-01-05T11:54:33.419Z</time>
      </trkpt>
      <trkpt lat="39.62923" lon="2.74592">
        <ele>150.94978</ele>
        <time>2023-01-05T11:54:35.435Z</time>
      </trkpt>
      <trkpt lat="39.62914" lon="2.74587">
        <ele>150.881672</ele>
        <time>2023-01-05T11:54:37.455Z</time>
      </trkpt>
      <trkpt lat="39.62906" lon="2.74581">
        <ele>150.815389</ele>
        <time>2023-01-05T11:54:39.430Z</time>
      </trkpt>
      <trkpt lat="39.62894" lon="2.74574">
        <ele>150.718317</ele>
        <time>2023-01-05T11:54:42.444Z</time>
      </trkpt>
      <trkpt lat="39.62885" lon="2.74569">
        <ele>150.651947</ele>
        <time>2023-01-05T11:54:44.435Z</time>
      </trkpt>
      <trkpt lat="39.62877" lon="2.74564">
        <ele>150.587274</ele>
        <time>2023-01-05T11:54:46.438Z</time>
      </trkpt>
      <trkpt lat="39.62868" lon="2.74559">
        <ele>150.518512</ele>
        <time>2023-01-05T11:54:48.434Z</time>
      </trkpt>
      <trkpt lat="39.62859" lon="2.74555">
        <ele>150.451436</ele>
        <time>2023-01-05T11:54:50.452Z</time>
      </trkpt>
      <trkpt lat="39.6285" lon="2.7455">
        <ele>150.382674</ele>
        <time>2023-01-05T11:54:52.444Z</time>
      </trkpt>
      <trkpt lat="39.62841" lon="2.74544">
        <ele>150.309442</ele>
        <time>2023-01-05T11:54:54.434Z</time>
      </trkpt>
      <trkpt lat="39.62831" lon="2.74538">
        <ele>150.231496</ele>
        <time>2023-01-05T11:54:56.457Z</time>
      </trkpt>
      <trkpt lat="39.62821" lon="2.74532">
        <ele>150.151855</ele>
        <time>2023-01-05T11:54:58.435Z</time>
      </trkpt>
      <trkpt lat="39.6281" lon="2.74526">
        <ele>150.066557</ele>
        <time>2023-01-05T11:55:00.435Z</time>
      </trkpt>
      <trkpt lat="39.62799" lon="2.7452">
        <ele>149.980583</ele>
        <time>2023-01-05T11:55:02.453Z</time>
      </trkpt>
      <trkpt lat="39.62788" lon="2.74513">
        <ele>149.894618</ele>
        <time>2023-01-05T11:55:04.439Z</time>
      </trkpt>
      <trkpt lat="39.62776" lon="2.74507">
        <ele>149.802975</ele>
        <time>2023-01-05T11:55:06.440Z</time>
      </trkpt>
      <trkpt lat="39.62764" lon="2.74501">
        <ele>149.688653</ele>
        <time>2023-01-05T11:55:08.434Z</time>
      </trkpt>
      <trkpt lat="39.62752" lon="2.74494">
        <ele>149.571733</ele>
        <time>2023-01-05T11:55:10.431Z</time>
      </trkpt>
      <trkpt lat="39.62739" lon="2.74487">
        <ele>149.45134</ele>
        <time>2023-01-05T11:55:12.430Z</time>
      </trkpt>
      <trkpt lat="39.62726" lon="2.7448">
        <ele>149.328814</ele>
        <time>2023-01-05T11:55:14.440Z</time>
      </trkpt>
      <trkpt lat="39.62714" lon="2.74472">
        <ele>149.208372</ele>
        <time>2023-01-05T11:55:16.433Z</time>
      </trkpt>
      <trkpt lat="39.62701" lon="2.74465">
        <ele>149.086106</ele>
        <time>2023-01-05T11:55:18.432Z</time>
      </trkpt>
      <trkpt lat="39.62688" lon="2.74457">
        <ele>148.964588</ele>
        <time>2023-01-05T11:55:20.440Z</time>
      </trkpt>
      <trkpt lat="39.62676" lon="2.74449">
        <ele>148.841204</ele>
        <time>2023-01-05T11:55:22.444Z</time>
      </trkpt>
      <trkpt lat="39.62663" lon="2.74442">
        <ele>148.719735</ele>
        <time>2023-01-05T11:55:24.440Z</time>
      </trkpt>
      <trkpt lat="39.6265" lon="2.74434">
        <ele>148.598811</ele>
        <time>2023-01-05T11:55:26.449Z</time>
      </trkpt>
      <trkpt lat="39.62638" lon="2.74427">
        <ele>148.482421</ele>
        <time>2023-01-05T11:55:28.438Z</time>
      </trkpt>
      <trkpt lat="39.62626" lon="2.74421">
        <ele>148.36817</ele>
        <time>2023-01-05T11:55:30.441Z</time>
      </trkpt>
      <trkpt lat="39.62614" lon="2.74413">
        <ele>148.275037</ele>
        <time>2023-01-05T11:55:32.449Z</time>
      </trkpt>
      <trkpt lat="39.62602" lon="2.74406">
        <ele>148.717777</ele>
        <time>2023-01-05T11:55:34.438Z</time>
      </trkpt>
      <trkpt lat="39.6259" lon="2.74401">
        <ele>149.129963</ele>
        <time>2023-01-05T11:55:36.413Z</time>
      </trkpt>
      <trkpt lat="39.62579" lon="2.74395">
        <ele>149.528266</ele>
        <time>2023-01-05T11:55:38.458Z</time>
      </trkpt>
      <trkpt lat="39.62568" lon="2.74389">
        <ele>149.910003</ele>
        <time>2023-01-05T11:55:40.438Z</time>
      </trkpt>
      <trkpt lat="39.62559" lon="2.74384">
        <ele>150.255296</ele>
        <time>2023-01-05T11:55:42.437Z</time>
      </trkpt>
      <trkpt lat="39.62547" lon="2.74378">
        <ele>150.688936</ele>
        <time>2023-01-05T11:55:45.425Z</time>
      </trkpt>
      <trkpt lat="39.62536" lon="2.74372">
        <ele>151.07256</ele>
        <time>2023-01-05T11:55:48.434Z</time>
      </trkpt>
      <trkpt lat="39.62526" lon="2.74368">
        <ele>151.415191</ele>
        <time>2023-01-05T11:55:51.439Z</time>
      </trkpt>
      <trkpt lat="39.62516" lon="2.74362">
        <ele>151.791807</ele>
        <time>2023-01-05T11:55:55.418Z</time>
      </trkpt>
      <trkpt lat="39.62506" lon="2.74357">
        <ele>152.137099</ele>
        <time>2023-01-05T11:55:59.442Z</time>
      </trkpt>
      <trkpt lat="39.62496" lon="2.74351">
        <ele>152.517669</ele>
        <time>2023-01-05T11:56:04.452Z</time>
      </trkpt>
      <trkpt lat="39.62487" lon="2.74346">
        <ele>152.83543</ele>
        <time>2023-01-05T11:56:08.440Z</time>
      </trkpt>
      <trkpt lat="39.62477" lon="2.7434">
        <ele>153.199741</ele>
        <time>2023-01-05T11:56:13.420Z</time>
      </trkpt>
      <trkpt lat="39.62468" lon="2.74338">
        <ele>153.510454</ele>
        <time>2023-01-05T11:56:17.423Z</time>
      </trkpt>
      <trkpt lat="39.62457" lon="2.74337">
        <ele>153.878101</ele>
        <time>2023-01-05T11:56:22.435Z</time>
      </trkpt>
      <trkpt lat="39.62448" lon="2.7434">
        <ele>154.1904</ele>
        <time>2023-01-05T11:56:26.427Z</time>
      </trkpt>
      <trkpt lat="39.62439" lon="2.74343">
        <ele>154.562395</ele>
        <time>2023-01-05T11:56:30.415Z</time>
      </trkpt>
      <trkpt lat="39.62428" lon="2.74346">
        <ele>155.028918</ele>
        <time>2023-01-05T11:56:35.432Z</time>
      </trkpt>
      <trkpt lat="39.62418" lon="2.74342">
        <ele>155.459549</ele>
        <time>2023-01-05T11:56:40.418Z</time>
      </trkpt>
      <trkpt lat="39.62413" lon="2.74332">
        <ele>155.842659</ele>
        <time>2023-01-05T11:56:45.429Z</time>
      </trkpt>
      <trkpt lat="39.62408" lon="2.74321">
        <ele>156.252199</ele>
        <time>2023-01-05T11:56:51.417Z</time>
      </trkpt>
      <trkpt lat="39.62403" lon="2.74311">
        <ele>156.638376</ele>
        <time>2023-01-05T11:56:56.424Z</time>
      </trkpt>
      <trkpt lat="39.62394" lon="2.74305">
        <ele>157.048214</ele>
        <time>2023-01-05T11:57:01.441Z</time>
      </trkpt>
      <trkpt lat="39.62386" lon="2.74299">
        <ele>157.470952</ele>
        <time>2023-01-05T11:57:06.440Z</time>
      </trkpt>
      <trkpt lat="39.62377" lon="2.74298">
        <ele>157.852461</ele>
        <time>2023-01-05T11:57:11.416Z</time>
      </trkpt>
      <trkpt lat="39.62367" lon="2.74298">
        <ele>158.255437</ele>
        <time>2023-01-05T11:57:16.423Z</time>
      </trkpt>
      <trkpt lat="39.62358" lon="2.743">
        <ele>158.651623</ele>
        <time>2023-01-05T11:57:21.422Z</time>
      </trkpt>
      <trkpt lat="39.62349" lon="2.74304">
        <ele>159.054675</ele>
        <time>2023-01-05T11:57:26.434Z</time>
      </trkpt>
      <trkpt lat="39.6234" lon="2.7431">
        <ele>159.458825</ele>
        <time>2023-01-05T11:57:32.433Z</time>
      </trkpt>
      <trkpt lat="39.62326" lon="2.74309">
        <ele>160.041463</ele>
        <time>2023-01-05T11:57:49.437Z</time>
      </trkpt>
      <trkpt lat="39.62319" lon="2.74298">
        <ele>160.527686</ele>
        <time>2023-01-05T11:57:52.422Z</time>
      </trkpt>
      <trkpt lat="39.62315" lon="2.74286">
        <ele>160.937588</ele>
        <time>2023-01-05T11:57:54.426Z</time>
      </trkpt>
      <trkpt lat="39.62313" lon="2.74272">
        <ele>161.394856</ele>
        <time>2023-01-05T11:57:56.419Z</time>
      </trkpt>
      <trkpt lat="39.62313" lon="2.74256">
        <ele>161.764037</ele>
        <time>2023-01-05T11:57:58.421Z</time>
      </trkpt>
      <trkpt lat="39.62316" lon="2.74241">
        <ele>161.710417</ele>
        <time>2023-01-05T11:58:00.429Z</time>
      </trkpt>
      <trkpt lat="39.62321" lon="2.74226">
        <ele>161.6543</ele>
        <time>2023-01-05T11:58:02.434Z</time>
      </trkpt>
      <trkpt lat="39.62329" lon="2.74212">
        <ele>161.597401</ele>
        <time>2023-01-05T11:58:04.421Z</time>
      </trkpt>
      <trkpt lat="39.6234" lon="2.74201">
        <ele>161.537126</ele>
        <time>2023-01-05T11:58:06.434Z</time>
      </trkpt>
      <trkpt lat="39.62353" lon="2.74194">
        <ele>161.475564</ele>
        <time>2023-01-05T11:58:08.421Z</time>
      </trkpt>
      <trkpt lat="39.62365" lon="2.74185">
        <ele>161.414487</ele>
        <time>2023-01-05T11:58:10.425Z</time>
      </trkpt>
      <trkpt lat="39.62373" lon="2.7417">
        <ele>161.352999</ele>
        <time>2023-01-05T11:58:12.438Z</time>
      </trkpt>
      <trkpt lat="39.62379" lon="2.74154">
        <ele>161.293295</ele>
        <time>2023-01-05T11:58:14.431Z</time>
      </trkpt>
      <trkpt lat="39.62385" lon="2.74138">
        <ele>161.233721</ele>
        <time>2023-01-05T11:58:16.452Z</time>
      </trkpt>
      <trkpt lat="39.6239" lon="2.74122">
        <ele>161.17549</ele>
        <time>2023-01-05T11:58:18.411Z</time>
      </trkpt>
      <trkpt lat="39.62396" lon="2.74107">
        <ele>161.119147</ele>
        <time>2023-01-05T11:58:20.436Z</time>
      </trkpt>
      <trkpt lat="39.62401" lon="2.74093">
        <ele>161.067602</ele>
        <time>2023-01-05T11:58:22.427Z</time>
      </trkpt>
      <trkpt lat="39.62406" lon="2.7408">
        <ele>161.020644</ele>
        <time>2023-01-05T11:58:24.443Z</time>
      </trkpt>
      <trkpt lat="39.6241" lon="2.74068">
        <ele>161.002635</ele>
        <time>2023-01-05T11:58:26.439Z</time>
      </trkpt>
      <trkpt lat="39.62413" lon="2.74056">
        <ele>161.023458</ele>
        <time>2023-01-05T11:58:28.462Z</time>
      </trkpt>
      <trkpt lat="39.62418" lon="2.74042">
        <ele>161.049726</ele>
        <time>2023-01-05T11:58:31.445Z</time>
      </trkpt>
      <trkpt lat="39.62424" lon="2.74027">
        <ele>161.077708</ele>
        <time>2023-01-05T11:58:34.448Z</time>
      </trkpt>
      <trkpt lat="39.62427" lon="2.74015">
        <ele>161.099553</ele>
        <time>2023-01-05T11:58:37.416Z</time>
      </trkpt>
      <trkpt lat="39.62424" lon="2.74004">
        <ele>161.119504</ele>
        <time>2023-01-05T11:58:44.432Z</time>
      </trkpt>
      <trkpt lat="39.62428" lon="2.73993">
        <ele>161.140099</ele>
        <time>2023-01-05T11:58:52.422Z</time>
      </trkpt>
      <trkpt lat="39.62431" lon="2.73978">
        <ele>161.167006</ele>
        <time>2023-01-05T11:58:56.442Z</time>
      </trkpt>
      <trkpt lat="39.62432" lon="2.73964">
        <ele>161.189555</ele>
        <time>2023-01-05T11:58:59.437Z</time>
      </trkpt>
      <trkpt lat="39.62433" lon="2.73951">
        <ele>161.212961</ele>
        <time>2023-01-05T11:59:02.428Z</time>
      </trkpt>
      <trkpt lat="39.62434" lon="2.73937">
        <ele>161.236013</ele>
        <time>2023-01-05T11:59:05.449Z</time>
      </trkpt>
      <trkpt lat="39.62434" lon="2.73923">
        <ele>161.259851</ele>
        <time>2023-01-05T11:59:08.431Z</time>
      </trkpt>
      <trkpt lat="39.62433" lon="2.73909">
        <ele>161.283561</ele>
        <time>2023-01-05T11:59:11.416Z</time>
      </trkpt>
      <trkpt lat="39.62432" lon="2.73895">
        <ele>161.306482</ele>
        <time>2023-01-05T11:59:14.419Z</time>
      </trkpt>
      <trkpt lat="39.6243" lon="2.73882">
        <ele>161.328844</ele>
        <time>2023-01-05T11:59:17.428Z</time>
      </trkpt>
      <trkpt lat="39.62427" lon="2.73869">
        <ele>161.351599</ele>
        <time>2023-01-05T11:59:20.414Z</time>
      </trkpt>
      <trkpt lat="39.62424" lon="2.73857">
        <ele>161.37331</ele>
        <time>2023-01-05T11:59:23.425Z</time>
      </trkpt>
      <trkpt lat="39.62421" lon="2.73845">
        <ele>161.367504</ele>
        <time>2023-01-05T11:59:26.431Z</time>
      </trkpt>
      <trkpt lat="39.62417" lon="2.73832">
        <ele>161.304723</ele>
        <time>2023-01-05T11:59:29.415Z</time>
      </trkpt>
      <trkpt lat="39.62413" lon="2.73819">
        <ele>161.239156</ele>
        <time>2023-01-05T11:59:32.432Z</time>
      </trkpt>
      <trkpt lat="39.62408" lon="2.73805">
        <ele>161.168794</ele>
        <time>2023-01-05T11:59:35.418Z</time>
      </trkpt>
      <trkpt lat="39.62403" lon="2.73792">
        <ele>161.100344</ele>
        <time>2023-01-05T11:59:38.423Z</time>
      </trkpt>
      <trkpt lat="39.62398" lon="2.73779">
        <ele>161.033763</ele>
        <time>2023-01-05T11:59:41.435Z</time>
      </trkpt>
      <trkpt lat="39.62393" lon="2.73763">
        <ele>160.95563</ele>
        <time>2023-01-05T11:59:44.434Z</time>
      </trkpt>
      <trkpt lat="39.62387" lon="2.73748">
        <ele>160.877758</ele>
        <time>2023-01-05T11:59:47.446Z</time>
      </trkpt>
      <trkpt lat="39.62383" lon="2.73738">
        <ele>160.823109</ele>
        <time>2023-01-05T11:59:49.432Z</time>
      </trkpt>
      <trkpt lat="39.62378" lon="2.73726">
        <ele>160.764626</ele>
        <time>2023-01-05T11:59:51.434Z</time>
      </trkpt>
      <trkpt lat="39.62373" lon="2.73714">
        <ele>160.702457</ele>
        <time>2023-01-05T11:59:53.423Z</time>
      </trkpt>
      <trkpt lat="39.62369" lon="2.73702">
        <ele>160.640224</ele>
        <time>2023-01-05T11:59:55.438Z</time>
      </trkpt>
      <trkpt lat="39.62364" lon="2.73689">
        <ele>160.573543</ele>
        <time>2023-01-05T11:59:57.442Z</time>
      </trkpt>
      <trkpt lat="39.62359" lon="2.73675">
        <ele>160.505038</ele>
        <time>2023-01-05T11:59:59.435Z</time>
      </trkpt>
      <trkpt lat="39.62355" lon="2.73662">
        <ele>160.434855</ele>
        <time>2023-01-05T12:00:01.436Z</time>
      </trkpt>
      <trkpt lat="39.6235" lon="2.73648">
        <ele>160.36392</ele>
        <time>2023-01-05T12:00:03.435Z</time>
      </trkpt>
      <trkpt lat="39.62345" lon="2.73635">
        <ele>160.167459</ele>
        <time>2023-01-05T12:00:05.445Z</time>
      </trkpt>
      <trkpt lat="39.62339" lon="2.7362">
        <ele>159.457537</ele>
        <time>2023-01-05T12:00:08.453Z</time>
      </trkpt>
      <trkpt lat="39.62331" lon="2.73612">
        <ele>158.866458</ele>
        <time>2023-01-05T12:00:12.424Z</time>
      </trkpt>
      <trkpt lat="39.62321" lon="2.73608">
        <ele>158.258808</ele>
        <time>2023-01-05T12:00:16.439Z</time>
      </trkpt>
      <trkpt lat="39.62313" lon="2.736">
        <ele>157.705948</ele>
        <time>2023-01-05T12:00:20.440Z</time>
      </trkpt>
      <trkpt lat="39.62306" lon="2.7359">
        <ele>157.12697</ele>
        <time>2023-01-05T12:00:26.417Z</time>
      </trkpt>
      <trkpt lat="39.623" lon="2.73582">
        <ele>156.617051</ele>
        <time>2023-01-05T12:00:35.439Z</time>
      </trkpt>
      <trkpt lat="39.62288" lon="2.73583">
        <ele>155.945253</ele>
        <time>2023-01-05T12:00:39.413Z</time>
      </trkpt>
      <trkpt lat="39.62277" lon="2.73584">
        <ele>155.264931</ele>
        <time>2023-01-05T12:00:43.439Z</time>
      </trkpt>
      <trkpt lat="39.62267" lon="2.73585">
        <ele>154.706714</ele>
        <time>2023-01-05T12:00:47.435Z</time>
      </trkpt>
      <trkpt lat="39.62257" lon="2.73588">
        <ele>154.162703</ele>
        <time>2023-01-05T12:00:52.443Z</time>
      </trkpt>
      <trkpt lat="39.62248" lon="2.73589">
        <ele>153.613625</ele>
        <time>2023-01-05T12:00:56.423Z</time>
      </trkpt>
      <trkpt lat="39.62238" lon="2.73585">
        <ele>153.041094</ele>
        <time>2023-01-05T12:01:00.449Z</time>
      </trkpt>
      <trkpt lat="39.62235" lon="2.7357">
        <ele>152.337804</ele>
        <time>2023-01-05T12:01:03.425Z</time>
      </trkpt>
      <trkpt lat="39.62235" lon="2.73555">
        <ele>151.711676</ele>
        <time>2023-01-05T12:01:05.421Z</time>
      </trkpt>
      <trkpt lat="39.62233" lon="2.73538">
        <ele>150.938319</ele>
        <time>2023-01-05T12:01:07.426Z</time>
      </trkpt>
      <trkpt lat="39.62232" lon="2.73518">
        <ele>150.057962</ele>
        <time>2023-01-05T12:01:09.440Z</time>
      </trkpt>
      <trkpt lat="39.6223" lon="2.73496">
        <ele>149.314588</ele>
        <time>2023-01-05T12:01:11.421Z</time>
      </trkpt>
      <trkpt lat="39.62228" lon="2.73472">
        <ele>148.525921</ele>
        <time>2023-01-05T12:01:13.437Z</time>
      </trkpt>
      <trkpt lat="39.62226" lon="2.73449">
        <ele>147.75445</ele>
        <time>2023-01-05T12:01:15.440Z</time>
      </trkpt>
      <trkpt lat="39.62224" lon="2.7343">
        <ele>147.080411</ele>
        <time>2023-01-05T12:01:17.431Z</time>
      </trkpt>
      <trkpt lat="39.62223" lon="2.73412">
        <ele>146.47087</ele>
        <time>2023-01-05T12:01:19.423Z</time>
      </trkpt>
      <trkpt lat="39.62222" lon="2.73395">
        <ele>145.92863</ele>
        <time>2023-01-05T12:01:21.421Z</time>
      </trkpt>
      <trkpt lat="39.62221" lon="2.73382">
        <ele>145.479492</ele>
        <time>2023-01-05T12:01:23.433Z</time>
      </trkpt>
      <trkpt lat="39.62217" lon="2.73368">
        <ele>144.977058</ele>
        <time>2023-01-05T12:01:26.428Z</time>
      </trkpt>
      <trkpt lat="39.62208" lon="2.73363">
        <ele>144.564137</ele>
        <time>2023-01-05T12:01:28.427Z</time>
      </trkpt>
      <trkpt lat="39.62199" lon="2.73359">
        <ele>144.146656</ele>
        <time>2023-01-05T12:01:30.438Z</time>
      </trkpt>
      <trkpt lat="39.6219" lon="2.73356">
        <ele>143.707343</ele>
        <time>2023-01-05T12:01:32.431Z</time>
      </trkpt>
      <trkpt lat="39.62181" lon="2.73352">
        <ele>143.291873</ele>
        <time>2023-01-05T12:01:34.434Z</time>
      </trkpt>
      <trkpt lat="39.62173" lon="2.73345">
        <ele>142.883406</ele>
        <time>2023-01-05T12:01:36.422Z</time>
      </trkpt>
      <trkpt lat="39.6217" lon="2.73334">
        <ele>142.473139</ele>
        <time>2023-01-05T12:01:38.429Z</time>
      </trkpt>
      <trkpt lat="39.62173" lon="2.73321">
        <ele>142.178447</ele>
        <time>2023-01-05T12:01:40.428Z</time>
      </trkpt>
      <trkpt lat="39.62181" lon="2.73313">
        <ele>142.041486</ele>
        <time>2023-01-05T12:01:42.433Z</time>
      </trkpt>
      <trkpt lat="39.62188" lon="2.73304">
        <ele>141.904458</ele>
        <time>2023-01-05T12:01:44.444Z</time>
      </trkpt>
      <trkpt lat="39.62194" lon="2.73292">
        <ele>141.762068</ele>
        <time>2023-01-05T12:01:46.430Z</time>
      </trkpt>
      <trkpt lat="39.62201" lon="2.73281">
        <ele>141.618484</ele>
        <time>2023-01-05T12:01:48.414Z</time>
      </trkpt>
      <trkpt lat="39.62207" lon="2.73269">
        <ele>141.475475</ele>
        <time>2023-01-05T12:01:50.425Z</time>
      </trkpt>
      <trkpt lat="39.62213" lon="2.73258">
        <ele>141.335135</ele>
        <time>2023-01-05T12:01:52.423Z</time>
      </trkpt>
      <trkpt lat="39.62217" lon="2.73247">
        <ele>141.199887</ele>
        <time>2023-01-05T12:01:54.431Z</time>
      </trkpt>
      <trkpt lat="39.62222" lon="2.73237">
        <ele>141.078116</ele>
        <time>2023-01-05T12:01:56.440Z</time>
      </trkpt>
      <trkpt lat="39.62224" lon="2.73225">
        <ele>140.947676</ele>
        <time>2023-01-05T12:01:58.445Z</time>
      </trkpt>
      <trkpt lat="39.62221" lon="2.73213">
        <ele>140.816031</ele>
        <time>2023-01-05T12:02:00.436Z</time>
      </trkpt>
      <trkpt lat="39.62213" lon="2.73204">
        <ele>140.678222</ele>
        <time>2023-01-05T12:02:02.428Z</time>
      </trkpt>
      <trkpt lat="39.62205" lon="2.73196">
        <ele>140.543022</ele>
        <time>2023-01-05T12:02:04.433Z</time>
      </trkpt>
      <trkpt lat="39.62198" lon="2.73186">
        <ele>140.401034</ele>
        <time>2023-01-05T12:02:06.444Z</time>
      </trkpt>
      <trkpt lat="39.62196" lon="2.73172">
        <ele>140.256455</ele>
        <time>2023-01-05T12:02:08.422Z</time>
      </trkpt>
      <trkpt lat="39.62201" lon="2.73159">
        <ele>140.101362</ele>
        <time>2023-01-05T12:02:10.443Z</time>
      </trkpt>
      <trkpt lat="39.62207" lon="2.73146">
        <ele>139.943227</ele>
        <time>2023-01-05T12:02:12.431Z</time>
      </trkpt>
      <trkpt lat="39.62213" lon="2.73133">
        <ele>139.809326</ele>
        <time>2023-01-05T12:02:14.446Z</time>
      </trkpt>
      <trkpt lat="39.62219" lon="2.7312">
        <ele>139.726485</ele>
        <time>2023-01-05T12:02:16.440Z</time>
      </trkpt>
      <trkpt lat="39.62225" lon="2.73107">
        <ele>139.641241</ele>
        <time>2023-01-05T12:02:18.436Z</time>
      </trkpt>
      <trkpt lat="39.62231" lon="2.73094">
        <ele>139.55781</ele>
        <time>2023-01-05T12:02:20.446Z</time>
      </trkpt>
      <trkpt lat="39.62237" lon="2.73082">
        <ele>139.47696</ele>
        <time>2023-01-05T12:02:22.437Z</time>
      </trkpt>
      <trkpt lat="39.62243" lon="2.73069">
        <ele>139.395092</ele>
        <time>2023-01-05T12:02:24.436Z</time>
      </trkpt>
      <trkpt lat="39.62248" lon="2.73057">
        <ele>139.315869</ele>
        <time>2023-01-05T12:02:26.433Z</time>
      </trkpt>
      <trkpt lat="39.62253" lon="2.73045">
        <ele>139.238852</ele>
        <time>2023-01-05T12:02:28.444Z</time>
      </trkpt>
      <trkpt lat="39.62258" lon="2.73034">
        <ele>139.165993</ele>
        <time>2023-01-05T12:02:30.429Z</time>
      </trkpt>
      <trkpt lat="39.62264" lon="2.73023">
        <ele>139.090664</ele>
        <time>2023-01-05T12:02:32.427Z</time>
      </trkpt>
      <trkpt lat="39.62271" lon="2.73012">
        <ele>139.016766</ele>
        <time>2023-01-05T12:02:34.436Z</time>
      </trkpt>
      <trkpt lat="39.62278" lon="2.73005">
        <ele>138.950955</ele>
        <time>2023-01-05T12:02:36.424Z</time>
      </trkpt>
      <trkpt lat="39.62281" lon="2.7299">
        <ele>138.863284</ele>
        <time>2023-01-05T12:02:39.423Z</time>
      </trkpt>
      <trkpt lat="39.62272" lon="2.72981">
        <ele>138.777583</ele>
        <time>2023-01-05T12:02:42.437Z</time>
      </trkpt>
      <trkpt lat="39.6226" lon="2.72972">
        <ele>138.681345</ele>
        <time>2023-01-05T12:02:45.428Z</time>
      </trkpt>
      <trkpt lat="39.62252" lon="2.72965">
        <ele>138.612309</ele>
        <time>2023-01-05T12:02:47.414Z</time>
      </trkpt>
      <trkpt lat="39.62244" lon="2.72958">
        <ele>138.54172</ele>
        <time>2023-01-05T12:02:49.429Z</time>
      </trkpt>
      <trkpt lat="39.62236" lon="2.72952">
        <ele>138.388342</ele>
        <time>2023-01-05T12:02:51.436Z</time>
      </trkpt>
      <trkpt lat="39.62229" lon="2.72945">
        <ele>138.222509</ele>
        <time>2023-01-05T12:02:53.423Z</time>
      </trkpt>
      <trkpt lat="39.62221" lon="2.72937">
        <ele>138.050544</ele>
        <time>2023-01-05T12:02:55.427Z</time>
      </trkpt>
      <trkpt lat="39.62213" lon="2.72931">
        <ele>137.87829</ele>
        <time>2023-01-05T12:02:57.433Z</time>
      </trkpt>
      <trkpt lat="39.62205" lon="2.72924">
        <ele>137.706005</ele>
        <time>2023-01-05T12:02:59.457Z</time>
      </trkpt>
      <trkpt lat="39.62197" lon="2.72916">
        <ele>137.537695</ele>
        <time>2023-01-05T12:03:01.448Z</time>
      </trkpt>
      <trkpt lat="39.62189" lon="2.72911">
        <ele>137.365659</ele>
        <time>2023-01-05T12:03:03.438Z</time>
      </trkpt>
      <trkpt lat="39.6218" lon="2.72903">
        <ele>137.182229</ele>
        <time>2023-01-05T12:03:05.439Z</time>
      </trkpt>
      <trkpt lat="39.62171" lon="2.72895">
        <ele>136.992688</ele>
        <time>2023-01-05T12:03:07.427Z</time>
      </trkpt>
      <trkpt lat="39.62163" lon="2.72886">
        <ele>136.794366</ele>
        <time>2023-01-05T12:03:09.431Z</time>
      </trkpt>
      <trkpt lat="39.62153" lon="2.72878">
        <ele>136.586222</ele>
        <time>2023-01-05T12:03:11.421Z</time>
      </trkpt>
      <trkpt lat="39.62143" lon="2.72869">
        <ele>136.375152</ele>
        <time>2023-01-05T12:03:13.413Z</time>
      </trkpt>
      <trkpt lat="39.62134" lon="2.7286">
        <ele>136.161581</ele>
        <time>2023-01-05T12:03:15.432Z</time>
      </trkpt>
      <trkpt lat="39.62124" lon="2.72851">
        <ele>135.951316</ele>
        <time>2023-01-05T12:03:17.421Z</time>
      </trkpt>
      <trkpt lat="39.62115" lon="2.72844">
        <ele>135.762647</ele>
        <time>2023-01-05T12:03:19.431Z</time>
      </trkpt>
      <trkpt lat="39.62108" lon="2.72835">
        <ele>135.591306</ele>
        <time>2023-01-05T12:03:21.430Z</time>
      </trkpt>
      <trkpt lat="39.621" lon="2.72826">
        <ele>135.411612</ele>
        <time>2023-01-05T12:03:23.428Z</time>
      </trkpt>
      <trkpt lat="39.62091" lon="2.7282">
        <ele>135.259233</ele>
        <time>2023-01-05T12:03:25.430Z</time>
      </trkpt>
      <trkpt lat="39.62082" lon="2.72813">
        <ele>135.123223</ele>
        <time>2023-01-05T12:03:27.417Z</time>
      </trkpt>
      <trkpt lat="39.62073" lon="2.72806">
        <ele>134.991937</ele>
        <time>2023-01-05T12:03:29.435Z</time>
      </trkpt>
      <trkpt lat="39.62064" lon="2.72799">
        <ele>134.850242</ele>
        <time>2023-01-05T12:03:31.444Z</time>
      </trkpt>
      <trkpt lat="39.62057" lon="2.7279">
        <ele>134.71671</ele>
        <time>2023-01-05T12:03:33.437Z</time>
      </trkpt>
      <trkpt lat="39.62049" lon="2.7278">
        <ele>134.585781</ele>
        <time>2023-01-05T12:03:35.424Z</time>
      </trkpt>
      <trkpt lat="39.6204" lon="2.72775">
        <ele>134.456619</ele>
        <time>2023-01-05T12:03:37.417Z</time>
      </trkpt>
      <trkpt lat="39.62033" lon="2.72766">
        <ele>134.32862</ele>
        <time>2023-01-05T12:03:39.445Z</time>
      </trkpt>
      <trkpt lat="39.62022" lon="2.72759">
        <ele>134.17166</ele>
        <time>2023-01-05T12:03:42.435Z</time>
      </trkpt>
      <trkpt lat="39.62014" lon="2.72752">
        <ele>134.048572</ele>
        <time>2023-01-05T12:03:44.423Z</time>
      </trkpt>
      <trkpt lat="39.62006" lon="2.72744">
        <ele>133.917751</ele>
        <time>2023-01-05T12:03:46.431Z</time>
      </trkpt>
      <trkpt lat="39.61998" lon="2.72736">
        <ele>133.791046</ele>
        <time>2023-01-05T12:03:48.444Z</time>
      </trkpt>
      <trkpt lat="39.6199" lon="2.72728">
        <ele>133.653921</ele>
        <time>2023-01-05T12:03:50.439Z</time>
      </trkpt>
      <trkpt lat="39.6198" lon="2.72722">
        <ele>133.518652</ele>
        <time>2023-01-05T12:03:52.439Z</time>
      </trkpt>
      <trkpt lat="39.61972" lon="2.72714">
        <ele>133.381527</ele>
        <time>2023-01-05T12:03:54.447Z</time>
      </trkpt>
      <trkpt lat="39.61963" lon="2.72707">
        <ele>133.250841</ele>
        <time>2023-01-05T12:03:56.451Z</time>
      </trkpt>
      <trkpt lat="39.61955" lon="2.727">
        <ele>133.123467</ele>
        <time>2023-01-05T12:03:58.447Z</time>
      </trkpt>
      <trkpt lat="39.61949" lon="2.7269">
        <ele>132.99002</ele>
        <time>2023-01-05T12:04:00.426Z</time>
      </trkpt>
      <trkpt lat="39.6194" lon="2.72684">
        <ele>132.779551</ele>
        <time>2023-01-05T12:04:02.452Z</time>
      </trkpt>
      <trkpt lat="39.61932" lon="2.72676">
        <ele>132.556265</ele>
        <time>2023-01-05T12:04:04.424Z</time>
      </trkpt>
      <trkpt lat="39.61924" lon="2.72668">
        <ele>132.345752</ele>
        <time>2023-01-05T12:04:06.448Z</time>
      </trkpt>
      <trkpt lat="39.61915" lon="2.7266">
        <ele>132.130206</ele>
        <time>2023-01-05T12:04:08.436Z</time>
      </trkpt>
      <trkpt lat="39.61907" lon="2.72651">
        <ele>131.901072</ele>
        <time>2023-01-05T12:04:10.460Z</time>
      </trkpt>
      <trkpt lat="39.61898" lon="2.72643">
        <ele>131.674207</ele>
        <time>2023-01-05T12:04:12.440Z</time>
      </trkpt>
      <trkpt lat="39.61889" lon="2.72635">
        <ele>131.450209</ele>
        <time>2023-01-05T12:04:14.439Z</time>
      </trkpt>
      <trkpt lat="39.6188" lon="2.72626">
        <ele>131.213518</ele>
        <time>2023-01-05T12:04:17.430Z</time>
      </trkpt>
      <trkpt lat="39.6187" lon="2.72618">
        <ele>130.963096</ele>
        <time>2023-01-05T12:04:20.451Z</time>
      </trkpt>
      <trkpt lat="39.61862" lon="2.72612">
        <ele>130.775124</ele>
        <time>2023-01-05T12:04:22.455Z</time>
      </trkpt>
      <trkpt lat="39.61854" lon="2.72605">
        <ele>130.572164</ele>
        <time>2023-01-05T12:04:24.458Z</time>
      </trkpt>
      <trkpt lat="39.61846" lon="2.72597">
        <ele>130.36565</ele>
        <time>2023-01-05T12:04:26.441Z</time>
      </trkpt>
      <trkpt lat="39.61837" lon="2.7259">
        <ele>130.140752</ele>
        <time>2023-01-05T12:04:28.434Z</time>
      </trkpt>
      <trkpt lat="39.61828" lon="2.72583">
        <ele>129.91509</ele>
        <time>2023-01-05T12:04:30.428Z</time>
      </trkpt>
      <trkpt lat="39.61819" lon="2.72574">
        <ele>129.681041</ele>
        <time>2023-01-05T12:04:32.433Z</time>
      </trkpt>
      <trkpt lat="39.61816" lon="2.72561">
        <ele>129.456249</ele>
        <time>2023-01-05T12:04:34.443Z</time>
      </trkpt>
      <trkpt lat="39.61819" lon="2.72547">
        <ele>129.200278</ele>
        <time>2023-01-05T12:04:36.428Z</time>
      </trkpt>
      <trkpt lat="39.61826" lon="2.72537">
        <ele>128.815489</ele>
        <time>2023-01-05T12:04:38.424Z</time>
      </trkpt>
      <trkpt lat="39.61836" lon="2.7253">
        <ele>128.404266</ele>
        <time>2023-01-05T12:04:40.423Z</time>
      </trkpt>
      <trkpt lat="39.61844" lon="2.72521">
        <ele>128.026259</ele>
        <time>2023-01-05T12:04:42.437Z</time>
      </trkpt>
      <trkpt lat="39.61852" lon="2.72512">
        <ele>127.662083</ele>
        <time>2023-01-05T12:04:44.425Z</time>
      </trkpt>
      <trkpt lat="39.61859" lon="2.72503">
        <ele>127.29942</ele>
        <time>2023-01-05T12:04:46.428Z</time>
      </trkpt>
      <trkpt lat="39.61865" lon="2.72493">
        <ele>126.941047</ele>
        <time>2023-01-05T12:04:48.436Z</time>
      </trkpt>
      <trkpt lat="39.61867" lon="2.7248">
        <ele>126.57515</ele>
        <time>2023-01-05T12:04:50.445Z</time>
      </trkpt>
      <trkpt lat="39.61862" lon="2.72468">
        <ele>126.194151</ele>
        <time>2023-01-05T12:04:52.435Z</time>
      </trkpt>
      <trkpt lat="39.61853" lon="2.72457">
        <ele>125.750158</ele>
        <time>2023-01-05T12:04:54.430Z</time>
      </trkpt>
      <trkpt lat="39.61844" lon="2.72447">
        <ele>125.324124</ele>
        <time>2023-01-05T12:04:56.433Z</time>
      </trkpt>
      <trkpt lat="39.61836" lon="2.72435">
        <ele>124.883981</ele>
        <time>2023-01-05T12:04:58.435Z</time>
      </trkpt>
      <trkpt lat="39.61828" lon="2.72423">
        <ele>124.425766</ele>
        <time>2023-01-05T12:05:00.440Z</time>
      </trkpt>
      <trkpt lat="39.61819" lon="2.72411">
        <ele>123.974045</ele>
        <time>2023-01-05T12:05:02.432Z</time>
      </trkpt>
      <trkpt lat="39.61811" lon="2.72402">
        <ele>123.595181</ele>
        <time>2023-01-05T12:05:04.439Z</time>
      </trkpt>
      <trkpt lat="39.61804" lon="2.72392">
        <ele>123.225883</ele>
        <time>2023-01-05T12:05:06.441Z</time>
      </trkpt>
      <trkpt lat="39.61805" lon="2.7238">
        <ele>122.887346</ele>
        <time>2023-01-05T12:05:08.434Z</time>
      </trkpt>
      <trkpt lat="39.61813" lon="2.72369">
        <ele>122.568804</ele>
        <time>2023-01-05T12:05:10.428Z</time>
      </trkpt>
      <trkpt lat="39.61823" lon="2.72355">
        <ele>122.228396</ele>
        <time>2023-01-05T12:05:12.427Z</time>
      </trkpt>
      <trkpt lat="39.61835" lon="2.72341">
        <ele>121.864816</ele>
        <time>2023-01-05T12:05:14.414Z</time>
      </trkpt>
      <trkpt lat="39.61847" lon="2.72328">
        <ele>121.501237</ele>
        <time>2023-01-05T12:05:16.431Z</time>
      </trkpt>
      <trkpt lat="39.61858" lon="2.72313">
        <ele>121.153828</ele>
        <time>2023-01-05T12:05:18.448Z</time>
      </trkpt>
      <trkpt lat="39.61868" lon="2.723">
        <ele>120.818841</ele>
        <time>2023-01-05T12:05:20.431Z</time>
      </trkpt>
      <trkpt lat="39.61878" lon="2.72287">
        <ele>120.497901</ele>
        <time>2023-01-05T12:05:22.438Z</time>
      </trkpt>
      <trkpt lat="39.61887" lon="2.72275">
        <ele>120.207771</ele>
        <time>2023-01-05T12:05:24.429Z</time>
      </trkpt>
      <trkpt lat="39.61895" lon="2.72264">
        <ele>119.939246</ele>
        <time>2023-01-05T12:05:26.437Z</time>
      </trkpt>
      <trkpt lat="39.61904" lon="2.72254">
        <ele>119.662747</ele>
        <time>2023-01-05T12:05:29.433Z</time>
      </trkpt>
      <trkpt lat="39.61906" lon="2.7224">
        <ele>119.421188</ele>
        <time>2023-01-05T12:05:33.426Z</time>
      </trkpt>
      <trkpt lat="39.61897" lon="2.72233">
        <ele>119.183583</ele>
        <time>2023-01-05T12:05:39.423Z</time>
      </trkpt>
      <trkpt lat="39.61901" lon="2.72222">
        <ele>118.974083</ele>
        <time>2023-01-05T12:05:51.434Z</time>
      </trkpt>
      <trkpt lat="39.61904" lon="2.7221">
        <ele>118.75143</ele>
        <time>2023-01-05T12:05:55.429Z</time>
      </trkpt>
      <trkpt lat="39.61895" lon="2.72201">
        <ele>118.574074</ele>
        <time>2023-01-05T12:05:58.433Z</time>
      </trkpt>
      <trkpt lat="39.61887" lon="2.72188">
        <ele>118.443304</ele>
        <time>2023-01-05T12:06:01.425Z</time>
      </trkpt>
      <trkpt lat="39.6188" lon="2.7218">
        <ele>118.341919</ele>
        <time>2023-01-05T12:06:03.423Z</time>
      </trkpt>
      <trkpt lat="39.61873" lon="2.7217">
        <ele>118.236919</ele>
        <time>2023-01-05T12:06:05.432Z</time>
      </trkpt>
      <trkpt lat="39.61867" lon="2.7216">
        <ele>118.132604</ele>
        <time>2023-01-05T12:06:07.424Z</time>
      </trkpt>
      <trkpt lat="39.61859" lon="2.72151">
        <ele>118.0191</ele>
        <time>2023-01-05T12:06:09.428Z</time>
      </trkpt>
      <trkpt lat="39.61851" lon="2.7214">
        <ele>117.898899</ele>
        <time>2023-01-05T12:06:11.422Z</time>
      </trkpt>
      <trkpt lat="39.61844" lon="2.7213">
        <ele>117.78995</ele>
        <time>2023-01-05T12:06:13.431Z</time>
      </trkpt>
      <trkpt lat="39.61836" lon="2.72121">
        <ele>117.674569</ele>
        <time>2023-01-05T12:06:15.428Z</time>
      </trkpt>
      <trkpt lat="39.61828" lon="2.7211">
        <ele>117.557296</ele>
        <time>2023-01-05T12:06:17.445Z</time>
      </trkpt>
      <trkpt lat="39.6182" lon="2.721">
        <ele>117.436387</ele>
        <time>2023-01-05T12:06:19.432Z</time>
      </trkpt>
      <trkpt lat="39.61812" lon="2.7209">
        <ele>117.316478</ele>
        <time>2023-01-05T12:06:21.434Z</time>
      </trkpt>
      <trkpt lat="39.61804" lon="2.7208">
        <ele>117.204618</ele>
        <time>2023-01-05T12:06:23.429Z</time>
      </trkpt>
      <trkpt lat="39.61797" lon="2.72071">
        <ele>117.096413</ele>
        <time>2023-01-05T12:06:25.453Z</time>
      </trkpt>
      <trkpt lat="39.6179" lon="2.72062">
        <ele>116.995384</ele>
        <time>2023-01-05T12:06:27.440Z</time>
      </trkpt>
      <trkpt lat="39.61783" lon="2.72054">
        <ele>116.89777</ele>
        <time>2023-01-05T12:06:29.435Z</time>
      </trkpt>
      <trkpt lat="39.61776" lon="2.72046">
        <ele>116.795455</ele>
        <time>2023-01-05T12:06:31.436Z</time>
      </trkpt>
      <trkpt lat="39.61764" lon="2.72036">
        <ele>116.653434</ele>
        <time>2023-01-05T12:06:34.429Z</time>
      </trkpt>
      <trkpt lat="39.61756" lon="2.72028">
        <ele>116.551566</ele>
        <time>2023-01-05T12:06:36.438Z</time>
      </trkpt>
      <trkpt lat="39.61749" lon="2.72019">
        <ele>116.446942</ele>
        <time>2023-01-05T12:06:38.433Z</time>
      </trkpt>
      <trkpt lat="39.61741" lon="2.7201">
        <ele>116.343841</ele>
        <time>2023-01-05T12:06:40.450Z</time>
      </trkpt>
      <trkpt lat="39.61733" lon="2.72001">
        <ele>116.233796</ele>
        <time>2023-01-05T12:06:42.442Z</time>
      </trkpt>
      <trkpt lat="39.61725" lon="2.71991">
        <ele>116.124371</ele>
        <time>2023-01-05T12:06:44.422Z</time>
      </trkpt>
      <trkpt lat="39.61718" lon="2.71981">
        <ele>116.015999</ele>
        <time>2023-01-05T12:06:46.413Z</time>
      </trkpt>
      <trkpt lat="39.6171" lon="2.71971">
        <ele>115.905474</ele>
        <time>2023-01-05T12:06:48.441Z</time>
      </trkpt>
      <trkpt lat="39.61702" lon="2.71961">
        <ele>115.791116</ele>
        <time>2023-01-05T12:06:50.428Z</time>
      </trkpt>
      <trkpt lat="39.61694" lon="2.71951">
        <ele>115.679133</ele>
        <time>2023-01-05T12:06:52.452Z</time>
      </trkpt>
      <trkpt lat="39.61687" lon="2.71942">
        <ele>115.572077</ele>
        <time>2023-01-05T12:06:54.455Z</time>
      </trkpt>
      <trkpt lat="39.61679" lon="2.71932">
        <ele>115.461918</ele>
        <time>2023-01-05T12:06:56.437Z</time>
      </trkpt>
      <trkpt lat="39.61672" lon="2.71923">
        <ele>115.359244</ele>
        <time>2023-01-05T12:06:58.443Z</time>
      </trkpt>
      <trkpt lat="39.61664" lon="2.71914">
        <ele>115.254547</ele>
        <time>2023-01-05T12:07:00.439Z</time>
      </trkpt>
      <trkpt lat="39.61657" lon="2.71905">
        <ele>115.156068</ele>
        <time>2023-01-05T12:07:02.441Z</time>
      </trkpt>
      <trkpt lat="39.61651" lon="2.71897">
        <ele>115.062126</ele>
        <time>2023-01-05T12:07:04.439Z</time>
      </trkpt>
      <trkpt lat="39.61645" lon="2.71887">
        <ele>114.968759</ele>
        <time>2023-01-05T12:07:08.452Z</time>
      </trkpt>
      <trkpt lat="39.61643" lon="2.71876">
        <ele>114.868825</ele>
        <time>2023-01-05T12:07:16.440Z</time>
      </trkpt>
      <trkpt lat="39.61638" lon="2.71863">
        <ele>114.753435</ele>
        <time>2023-01-05T12:07:19.435Z</time>
      </trkpt>
      <trkpt lat="39.61633" lon="2.71848">
        <ele>114.611678</ele>
        <time>2023-01-05T12:07:22.459Z</time>
      </trkpt>
      <trkpt lat="39.61627" lon="2.71834">
        <ele>114.474514</ele>
        <time>2023-01-05T12:07:25.428Z</time>
      </trkpt>
      <trkpt lat="39.61623" lon="2.7182">
        <ele>114.343736</ele>
        <time>2023-01-05T12:07:28.432Z</time>
      </trkpt>
      <trkpt lat="39.61619" lon="2.71803">
        <ele>114.197186</ele>
        <time>2023-01-05T12:07:31.430Z</time>
      </trkpt>
      <trkpt lat="39.61617" lon="2.71792">
        <ele>114.096202</ele>
        <time>2023-01-05T12:07:33.438Z</time>
      </trkpt>
      <trkpt lat="39.61613" lon="2.71775">
        <ele>113.949131</ele>
        <time>2023-01-05T12:07:36.450Z</time>
      </trkpt>
      <trkpt lat="39.61607" lon="2.71767">
        <ele>113.847146</ele>
        <time>2023-01-05T12:07:38.438Z</time>
      </trkpt>
      <trkpt lat="39.61598" lon="2.71755">
        <ele>113.704534</ele>
        <time>2023-01-05T12:07:41.456Z</time>
      </trkpt>
      <trkpt lat="39.61589" lon="2.71744">
        <ele>113.574191</ele>
        <time>2023-01-05T12:07:44.435Z</time>
      </trkpt>
      <trkpt lat="39.61582" lon="2.71736">
        <ele>113.470785</ele>
        <time>2023-01-05T12:07:47.436Z</time>
      </trkpt>
      <trkpt lat="39.61577" lon="2.71724">
        <ele>113.356109</ele>
        <time>2023-01-05T12:07:53.427Z</time>
      </trkpt>
      <trkpt lat="39.6157" lon="2.71715">
        <ele>113.245623</ele>
        <time>2023-01-05T12:07:58.438Z</time>
      </trkpt>
      <trkpt lat="39.61579" lon="2.71724">
        <ele>113.121639</ele>
        <time>2023-01-05T12:08:16.447Z</time>
      </trkpt>
      <trkpt lat="39.61585" lon="2.71734">
        <ele>113.013705</ele>
        <time>2023-01-05T12:08:22.436Z</time>
      </trkpt>
      <trkpt lat="39.61575" lon="2.7174">
        <ele>112.893981</ele>
        <time>2023-01-05T12:08:29.437Z</time>
      </trkpt>
      <trkpt lat="39.61566" lon="2.71748">
        <ele>112.786093</ele>
        <time>2023-01-05T12:08:32.422Z</time>
      </trkpt>
      <trkpt lat="39.61557" lon="2.71755">
        <ele>112.68072</ele>
        <time>2023-01-05T12:08:35.440Z</time>
      </trkpt>
      <trkpt lat="39.61547" lon="2.71761">
        <ele>112.566876</ele>
        <time>2023-01-05T12:08:38.456Z</time>
      </trkpt>
      <trkpt lat="39.61538" lon="2.71753">
        <ele>112.451696</ele>
        <time>2023-01-05T12:08:41.427Z</time>
      </trkpt>
      <trkpt lat="39.61528" lon="2.71742">
        <ele>112.32127</ele>
        <time>2023-01-05T12:08:44.427Z</time>
      </trkpt>
      <trkpt lat="39.61521" lon="2.71735">
        <ele>112.229275</ele>
        <time>2023-01-05T12:08:46.434Z</time>
      </trkpt>
      <trkpt lat="39.61514" lon="2.71726">
        <ele>112.133642</ele>
        <time>2023-01-05T12:08:48.438Z</time>
      </trkpt>
      <trkpt lat="39.61507" lon="2.71718">
        <ele>112.037127</ele>
        <time>2023-01-05T12:08:50.414Z</time>
      </trkpt>
      <trkpt lat="39.61501" lon="2.71709">
        <ele>111.940512</ele>
        <time>2023-01-05T12:08:52.422Z</time>
      </trkpt>
      <trkpt lat="39.61494" lon="2.71699">
        <ele>111.84285</ele>
        <time>2023-01-05T12:08:54.445Z</time>
      </trkpt>
      <trkpt lat="39.61487" lon="2.71689">
        <ele>111.735081</ele>
        <time>2023-01-05T12:08:56.456Z</time>
      </trkpt>
      <trkpt lat="39.6148" lon="2.71679">
        <ele>111.626837</ele>
        <time>2023-01-05T12:08:58.428Z</time>
      </trkpt>
      <trkpt lat="39.61472" lon="2.71669">
        <ele>111.516108</ele>
        <time>2023-01-05T12:09:00.444Z</time>
      </trkpt>
      <trkpt lat="39.61465" lon="2.71659">
        <ele>111.405808</ele>
        <time>2023-01-05T12:09:02.438Z</time>
      </trkpt>
      <trkpt lat="39.61457" lon="2.71649">
        <ele>111.295079</ele>
        <time>2023-01-05T12:09:04.454Z</time>
      </trkpt>
      <trkpt lat="39.61449" lon="2.71638">
        <ele>111.178864</ele>
        <time>2023-01-05T12:09:06.442Z</time>
      </trkpt>
      <trkpt lat="39.61441" lon="2.71627">
        <ele>111.042482</ele>
        <time>2023-01-05T12:09:08.461Z</time>
      </trkpt>
      <trkpt lat="39.61434" lon="2.71616">
        <ele>110.866447</ele>
        <time>2023-01-05T12:09:10.442Z</time>
      </trkpt>
      <trkpt lat="39.61426" lon="2.71606">
        <ele>110.696854</ele>
        <time>2023-01-05T12:09:12.438Z</time>
      </trkpt>
      <trkpt lat="39.61419" lon="2.71594">
        <ele>110.517396</ele>
        <time>2023-01-05T12:09:14.455Z</time>
      </trkpt>
      <trkpt lat="39.61411" lon="2.71583">
        <ele>110.338411</ele>
        <time>2023-01-05T12:09:16.453Z</time>
      </trkpt>
      <trkpt lat="39.61403" lon="2.71572">
        <ele>110.161497</ele>
        <time>2023-01-05T12:09:18.442Z</time>
      </trkpt>
      <trkpt lat="39.61395" lon="2.71561">
        <ele>109.981927</ele>
        <time>2023-01-05T12:09:20.447Z</time>
      </trkpt>
      <trkpt lat="39.61387" lon="2.7155">
        <ele>109.801481</ele>
        <time>2023-01-05T12:09:22.433Z</time>
      </trkpt>
      <trkpt lat="39.61379" lon="2.71538">
        <ele>109.616752</ele>
        <time>2023-01-05T12:09:24.450Z</time>
      </trkpt>
      <trkpt lat="39.61371" lon="2.71527">
        <ele>109.431156</ele>
        <time>2023-01-05T12:09:26.437Z</time>
      </trkpt>
      <trkpt lat="39.61363" lon="2.71515">
        <ele>109.24879</ele>
        <time>2023-01-05T12:09:28.439Z</time>
      </trkpt>
      <trkpt lat="39.61354" lon="2.71504">
        <ele>109.059312</ele>
        <time>2023-01-05T12:09:30.452Z</time>
      </trkpt>
      <trkpt lat="39.61347" lon="2.71493">
        <ele>108.882536</ele>
        <time>2023-01-05T12:09:32.451Z</time>
      </trkpt>
      <trkpt lat="39.61339" lon="2.71481">
        <ele>108.698542</ele>
        <time>2023-01-05T12:09:34.448Z</time>
      </trkpt>
      <trkpt lat="39.61331" lon="2.71469">
        <ele>108.513986</ele>
        <time>2023-01-05T12:09:36.442Z</time>
      </trkpt>
      <trkpt lat="39.61322" lon="2.71458">
        <ele>108.32821</ele>
        <time>2023-01-05T12:09:38.433Z</time>
      </trkpt>
      <trkpt lat="39.61314" lon="2.71446">
        <ele>108.170293</ele>
        <time>2023-01-05T12:09:40.428Z</time>
      </trkpt>
      <trkpt lat="39.61306" lon="2.71433">
        <ele>108.013546</ele>
        <time>2023-01-05T12:09:42.433Z</time>
      </trkpt>
      <trkpt lat="39.61299" lon="2.7142">
        <ele>107.857487</ele>
        <time>2023-01-05T12:09:44.414Z</time>
      </trkpt>
      <trkpt lat="39.61291" lon="2.71409">
        <ele>107.705108</ele>
        <time>2023-01-05T12:09:46.438Z</time>
      </trkpt>
      <trkpt lat="39.61283" lon="2.71397">
        <ele>107.553447</ele>
        <time>2023-01-05T12:09:48.435Z</time>
      </trkpt>
      <trkpt lat="39.61275" lon="2.71386">
        <ele>107.404102</ele>
        <time>2023-01-05T12:09:50.441Z</time>
      </trkpt>
      <trkpt lat="39.61267" lon="2.71374">
        <ele>107.253189</ele>
        <time>2023-01-05T12:09:52.438Z</time>
      </trkpt>
      <trkpt lat="39.61259" lon="2.71363">
        <ele>107.102882</ele>
        <time>2023-01-05T12:09:54.438Z</time>
      </trkpt>
      <trkpt lat="39.61251" lon="2.71351">
        <ele>106.948709</ele>
        <time>2023-01-05T12:09:56.439Z</time>
      </trkpt>
      <trkpt lat="39.61243" lon="2.7134">
        <ele>106.798402</ele>
        <time>2023-01-05T12:09:58.458Z</time>
      </trkpt>
      <trkpt lat="39.61235" lon="2.71328">
        <ele>106.65228</ele>
        <time>2023-01-05T12:10:00.440Z</time>
      </trkpt>
      <trkpt lat="39.61227" lon="2.71318">
        <ele>106.505538</ele>
        <time>2023-01-05T12:10:02.440Z</time>
      </trkpt>
      <trkpt lat="39.61219" lon="2.71307">
        <ele>106.360011</ele>
        <time>2023-01-05T12:10:04.444Z</time>
      </trkpt>
      <trkpt lat="39.61211" lon="2.71298">
        <ele>106.217763</ele>
        <time>2023-01-05T12:10:06.417Z</time>
      </trkpt>
      <trkpt lat="39.61204" lon="2.71287">
        <ele>106.079374</ele>
        <time>2023-01-05T12:10:08.439Z</time>
      </trkpt>
      <trkpt lat="39.61196" lon="2.71276">
        <ele>106.031697</ele>
        <time>2023-01-05T12:10:10.435Z</time>
      </trkpt>
      <trkpt lat="39.61188" lon="2.71265">
        <ele>105.995579</ele>
        <time>2023-01-05T12:10:12.441Z</time>
      </trkpt>
      <trkpt lat="39.61181" lon="2.71256">
        <ele>105.962393</ele>
        <time>2023-01-05T12:10:14.413Z</time>
      </trkpt>
      <trkpt lat="39.61175" lon="2.71246">
        <ele>105.932863</ele>
        <time>2023-01-05T12:10:16.437Z</time>
      </trkpt>
      <trkpt lat="39.61168" lon="2.71237">
        <ele>105.902341</ele>
        <time>2023-01-05T12:10:18.445Z</time>
      </trkpt>
      <trkpt lat="39.61162" lon="2.71228">
        <ele>105.872345</ele>
        <time>2023-01-05T12:10:20.444Z</time>
      </trkpt>
      <trkpt lat="39.61155" lon="2.71219">
        <ele>105.841203</ele>
        <time>2023-01-05T12:10:22.451Z</time>
      </trkpt>
      <trkpt lat="39.61152" lon="2.71207">
        <ele>105.811443</ele>
        <time>2023-01-05T12:10:24.435Z</time>
      </trkpt>
      <trkpt lat="39.61149" lon="2.71196">
        <ele>105.781523</ele>
        <time>2023-01-05T12:10:26.441Z</time>
      </trkpt>
      <trkpt lat="39.61143" lon="2.71185">
        <ele>105.749769</ele>
        <time>2023-01-05T12:10:28.436Z</time>
      </trkpt>
      <trkpt lat="39.61137" lon="2.71175">
        <ele>105.717842</ele>
        <time>2023-01-05T12:10:30.436Z</time>
      </trkpt>
      <trkpt lat="39.6113" lon="2.71166">
        <ele>105.686844</ele>
        <time>2023-01-05T12:10:32.423Z</time>
      </trkpt>
      <trkpt lat="39.61123" lon="2.71157">
        <ele>105.655426</ele>
        <time>2023-01-05T12:10:34.442Z</time>
      </trkpt>
      <trkpt lat="39.61116" lon="2.71147">
        <ele>105.622892</ele>
        <time>2023-01-05T12:10:36.434Z</time>
      </trkpt>
      <trkpt lat="39.61108" lon="2.71136">
        <ele>105.588248</ele>
        <time>2023-01-05T12:10:38.446Z</time>
      </trkpt>
      <trkpt lat="39.61101" lon="2.71127">
        <ele>105.556245</ele>
        <time>2023-01-05T12:10:40.438Z</time>
      </trkpt>
      <trkpt lat="39.61095" lon="2.71116">
        <ele>105.524039</ele>
        <time>2023-01-05T12:10:42.450Z</time>
      </trkpt>
      <trkpt lat="39.61087" lon="2.71106">
        <ele>105.467668</ele>
        <time>2023-01-05T12:10:44.440Z</time>
      </trkpt>
      <trkpt lat="39.6108" lon="2.71096">
        <ele>105.29321</ele>
        <time>2023-01-05T12:10:46.428Z</time>
      </trkpt>
      <trkpt lat="39.61072" lon="2.71086">
        <ele>105.120428</ele>
        <time>2023-01-05T12:10:48.445Z</time>
      </trkpt>
      <trkpt lat="39.61065" lon="2.71075">
        <ele>104.936889</ele>
        <time>2023-01-05T12:10:50.438Z</time>
      </trkpt>
      <trkpt lat="39.61057" lon="2.71065">
        <ele>104.761911</ele>
        <time>2023-01-05T12:10:52.442Z</time>
      </trkpt>
      <trkpt lat="39.61049" lon="2.71054">
        <ele>104.58609</ele>
        <time>2023-01-05T12:10:54.445Z</time>
      </trkpt>
      <trkpt lat="39.61042" lon="2.71044">
        <ele>104.420854</ele>
        <time>2023-01-05T12:10:56.431Z</time>
      </trkpt>
      <trkpt lat="39.61035" lon="2.71034">
        <ele>104.256854</ele>
        <time>2023-01-05T12:10:58.455Z</time>
      </trkpt>
      <trkpt lat="39.61029" lon="2.71024">
        <ele>104.094029</ele>
        <time>2023-01-05T12:11:00.437Z</time>
      </trkpt>
      <trkpt lat="39.6102" lon="2.71017">
        <ele>103.937661</ele>
        <time>2023-01-05T12:11:02.428Z</time>
      </trkpt>
      <trkpt lat="39.61013" lon="2.71008">
        <ele>103.777375</ele>
        <time>2023-01-05T12:11:04.440Z</time>
      </trkpt>
      <trkpt lat="39.61008" lon="2.70998">
        <ele>103.626934</ele>
        <time>2023-01-05T12:11:06.437Z</time>
      </trkpt>
      <trkpt lat="39.61002" lon="2.70988">
        <ele>103.479406</ele>
        <time>2023-01-05T12:11:08.418Z</time>
      </trkpt>
      <trkpt lat="39.60995" lon="2.70978">
        <ele>103.318811</ele>
        <time>2023-01-05T12:11:10.446Z</time>
      </trkpt>
      <trkpt lat="39.60989" lon="2.70969">
        <ele>103.159309</ele>
        <time>2023-01-05T12:11:12.435Z</time>
      </trkpt>
      <trkpt lat="39.60981" lon="2.70959">
        <ele>102.988571</ele>
        <time>2023-01-05T12:11:14.439Z</time>
      </trkpt>
      <trkpt lat="39.60974" lon="2.70949">
        <ele>102.821802</ele>
        <time>2023-01-05T12:11:16.441Z</time>
      </trkpt>
      <trkpt lat="39.60966" lon="2.70939">
        <ele>102.653695</ele>
        <time>2023-01-05T12:11:18.458Z</time>
      </trkpt>
      <trkpt lat="39.60959" lon="2.70929">
        <ele>102.551988</ele>
        <time>2023-01-05T12:11:20.445Z</time>
      </trkpt>
      <trkpt lat="39.60952" lon="2.70918">
        <ele>102.450601</ele>
        <time>2023-01-05T12:11:22.439Z</time>
      </trkpt>
      <trkpt lat="39.60944" lon="2.70907">
        <ele>102.349817</ele>
        <time>2023-01-05T12:11:24.441Z</time>
      </trkpt>
      <trkpt lat="39.60937" lon="2.70897">
        <ele>102.248021</ele>
        <time>2023-01-05T12:11:26.436Z</time>
      </trkpt>
      <trkpt lat="39.60929" lon="2.70887">
        <ele>102.148429</ele>
        <time>2023-01-05T12:11:28.444Z</time>
      </trkpt>
      <trkpt lat="39.60922" lon="2.70876">
        <ele>102.050285</ele>
        <time>2023-01-05T12:11:30.442Z</time>
      </trkpt>
      <trkpt lat="39.60914" lon="2.70865">
        <ele>101.946849</ele>
        <time>2023-01-05T12:11:32.428Z</time>
      </trkpt>
      <trkpt lat="39.60907" lon="2.70854">
        <ele>101.845934</ele>
        <time>2023-01-05T12:11:34.445Z</time>
      </trkpt>
      <trkpt lat="39.60899" lon="2.70844">
        <ele>101.744857</ele>
        <time>2023-01-05T12:11:36.440Z</time>
      </trkpt>
      <trkpt lat="39.60892" lon="2.70833">
        <ele>101.643868</ele>
        <time>2023-01-05T12:11:38.439Z</time>
      </trkpt>
      <trkpt lat="39.60884" lon="2.70822">
        <ele>101.54248</ele>
        <time>2023-01-05T12:11:40.458Z</time>
      </trkpt>
      <trkpt lat="39.60876" lon="2.70812">
        <ele>101.441264</ele>
        <time>2023-01-05T12:11:42.453Z</time>
      </trkpt>
      <trkpt lat="39.60869" lon="2.70802">
        <ele>101.342475</ele>
        <time>2023-01-05T12:11:44.452Z</time>
      </trkpt>
      <trkpt lat="39.60862" lon="2.70791">
        <ele>101.246095</ele>
        <time>2023-01-05T12:11:46.440Z</time>
      </trkpt>
      <trkpt lat="39.60854" lon="2.70781">
        <ele>101.145812</ele>
        <time>2023-01-05T12:11:48.437Z</time>
      </trkpt>
      <trkpt lat="39.60847" lon="2.7077">
        <ele>101.048719</ele>
        <time>2023-01-05T12:11:50.434Z</time>
      </trkpt>
      <trkpt lat="39.6084" lon="2.7076">
        <ele>100.950188</ele>
        <time>2023-01-05T12:11:52.441Z</time>
      </trkpt>
      <trkpt lat="39.60833" lon="2.7075">
        <ele>100.845925</ele>
        <time>2023-01-05T12:11:54.460Z</time>
      </trkpt>
      <trkpt lat="39.60825" lon="2.70739">
        <ele>100.739253</ele>
        <time>2023-01-05T12:11:56.434Z</time>
      </trkpt>
      <trkpt lat="39.60818" lon="2.70729">
        <ele>100.635202</ele>
        <time>2023-01-05T12:11:58.444Z</time>
      </trkpt>
      <trkpt lat="39.60811" lon="2.7072">
        <ele>100.536225</ele>
        <time>2023-01-05T12:12:00.445Z</time>
      </trkpt>
      <trkpt lat="39.60804" lon="2.7071">
        <ele>100.436656</ele>
        <time>2023-01-05T12:12:02.434Z</time>
      </trkpt>
      <trkpt lat="39.60797" lon="2.707">
        <ele>100.34035</ele>
        <time>2023-01-05T12:12:04.451Z</time>
      </trkpt>
      <trkpt lat="39.6079" lon="2.70691">
        <ele>100.243061</ele>
        <time>2023-01-05T12:12:06.442Z</time>
      </trkpt>
      <trkpt lat="39.60784" lon="2.70682">
        <ele>100.15222</ele>
        <time>2023-01-05T12:12:08.443Z</time>
      </trkpt>
      <trkpt lat="39.60778" lon="2.70672">
        <ele>100.057745</ele>
        <time>2023-01-05T12:12:10.439Z</time>
      </trkpt>
      <trkpt lat="39.6077" lon="2.70663">
        <ele>99.959281</ele>
        <time>2023-01-05T12:12:12.440Z</time>
      </trkpt>
      <trkpt lat="39.60764" lon="2.70654">
        <ele>99.868785</ele>
        <time>2023-01-05T12:12:14.455Z</time>
      </trkpt>
      <trkpt lat="39.60757" lon="2.70645">
        <ele>99.776982</ele>
        <time>2023-01-05T12:12:16.459Z</time>
      </trkpt>
      <trkpt lat="39.60752" lon="2.70636">
        <ele>99.688486</ele>
        <time>2023-01-05T12:12:18.433Z</time>
      </trkpt>
      <trkpt lat="39.60745" lon="2.70626">
        <ele>99.592254</ele>
        <time>2023-01-05T12:12:20.436Z</time>
      </trkpt>
      <trkpt lat="39.60738" lon="2.70617">
        <ele>99.493971</ele>
        <time>2023-01-05T12:12:22.437Z</time>
      </trkpt>
      <trkpt lat="39.60731" lon="2.70607">
        <ele>99.397576</ele>
        <time>2023-01-05T12:12:24.432Z</time>
      </trkpt>
      <trkpt lat="39.60724" lon="2.70597">
        <ele>99.29439</ele>
        <time>2023-01-05T12:12:26.446Z</time>
      </trkpt>
      <trkpt lat="39.60716" lon="2.70587">
        <ele>99.220551</ele>
        <time>2023-01-05T12:12:28.442Z</time>
      </trkpt>
      <trkpt lat="39.60708" lon="2.70578">
        <ele>99.1541</ele>
        <time>2023-01-05T12:12:30.441Z</time>
      </trkpt>
      <trkpt lat="39.60701" lon="2.70568">
        <ele>99.090717</ele>
        <time>2023-01-05T12:12:32.438Z</time>
      </trkpt>
      <trkpt lat="39.60693" lon="2.70558">
        <ele>99.022963</ele>
        <time>2023-01-05T12:12:34.480Z</time>
      </trkpt>
      <trkpt lat="39.60686" lon="2.70548">
        <ele>98.958108</ele>
        <time>2023-01-05T12:12:36.450Z</time>
      </trkpt>
      <trkpt lat="39.60679" lon="2.70537">
        <ele>98.893093</ele>
        <time>2023-01-05T12:12:38.441Z</time>
      </trkpt>
      <trkpt lat="39.60672" lon="2.70527">
        <ele>98.828079</ele>
        <time>2023-01-05T12:12:40.438Z</time>
      </trkpt>
      <trkpt lat="39.60665" lon="2.70517">
        <ele>98.765397</ele>
        <time>2023-01-05T12:12:42.452Z</time>
      </trkpt>
      <trkpt lat="39.60658" lon="2.70508">
        <ele>98.702214</ele>
        <time>2023-01-05T12:12:44.456Z</time>
      </trkpt>
      <trkpt lat="39.60651" lon="2.70498">
        <ele>98.640748</ele>
        <time>2023-01-05T12:12:46.447Z</time>
      </trkpt>
      <trkpt lat="39.60644" lon="2.70488">
        <ele>98.578357</ele>
        <time>2023-01-05T12:12:48.434Z</time>
      </trkpt>
      <trkpt lat="39.60637" lon="2.70479">
        <ele>98.514757</ele>
        <time>2023-01-05T12:12:50.444Z</time>
      </trkpt>
      <trkpt lat="39.60629" lon="2.7047">
        <ele>98.451123</ele>
        <time>2023-01-05T12:12:52.441Z</time>
      </trkpt>
      <trkpt lat="39.60622" lon="2.7046">
        <ele>98.390075</ele>
        <time>2023-01-05T12:12:54.434Z</time>
      </trkpt>
      <trkpt lat="39.60615" lon="2.70452">
        <ele>98.332268</ele>
        <time>2023-01-05T12:12:56.449Z</time>
      </trkpt>
      <trkpt lat="39.60608" lon="2.70442">
        <ele>98.267996</ele>
        <time>2023-01-05T12:12:58.437Z</time>
      </trkpt>
      <trkpt lat="39.606" lon="2.70435">
        <ele>98.207967</ele>
        <time>2023-01-05T12:13:00.442Z</time>
      </trkpt>
      <trkpt lat="39.60592" lon="2.70428">
        <ele>98.119156</ele>
        <time>2023-01-05T12:13:02.433Z</time>
      </trkpt>
      <trkpt lat="39.60581" lon="2.70417">
        <ele>97.932613</ele>
        <time>2023-01-05T12:13:05.434Z</time>
      </trkpt>
      <trkpt lat="39.60577" lon="2.70405">
        <ele>97.794636</ele>
        <time>2023-01-05T12:13:07.441Z</time>
      </trkpt>
      <trkpt lat="39.6057" lon="2.70395">
        <ele>97.648455</ele>
        <time>2023-01-05T12:13:09.452Z</time>
      </trkpt>
      <trkpt lat="39.60562" lon="2.70386">
        <ele>97.503775</ele>
        <time>2023-01-05T12:13:11.422Z</time>
      </trkpt>
      <trkpt lat="39.60555" lon="2.70376">
        <ele>97.366946</ele>
        <time>2023-01-05T12:13:13.418Z</time>
      </trkpt>
      <trkpt lat="39.60548" lon="2.70367">
        <ele>97.224998</ele>
        <time>2023-01-05T12:13:15.436Z</time>
      </trkpt>
      <trkpt lat="39.60541" lon="2.70359">
        <ele>97.092416</ele>
        <time>2023-01-05T12:13:17.435Z</time>
      </trkpt>
      <trkpt lat="39.60531" lon="2.70354">
        <ele>96.948458</ele>
        <time>2023-01-05T12:13:20.420Z</time>
      </trkpt>
      <trkpt lat="39.60522" lon="2.70347">
        <ele>96.808303</ele>
        <time>2023-01-05T12:13:23.429Z</time>
      </trkpt>
      <trkpt lat="39.60515" lon="2.70339">
        <ele>96.677939</ele>
        <time>2023-01-05T12:13:26.442Z</time>
      </trkpt>
      <trkpt lat="39.60507" lon="2.70328">
        <ele>96.516254</ele>
        <time>2023-01-05T12:13:30.447Z</time>
      </trkpt>
      <trkpt lat="39.60501" lon="2.70319">
        <ele>96.386888</ele>
        <time>2023-01-05T12:13:35.447Z</time>
      </trkpt>
      <trkpt lat="39.605" lon="2.70319">
        <ele>96.382683</ele>
        <time>2023-01-05T12:13:37.671Z</time>
      </trkpt>
      <trkpt lat="39.60492" lon="2.70312">
        <ele>96.252874</ele>
        <time>2023-01-05T12:16:37.431Z</time>
      </trkpt>
      <trkpt lat="39.60485" lon="2.70301">
        <ele>96.096578</ele>
        <time>2023-01-05T12:16:40.436Z</time>
      </trkpt>
      <trkpt lat="39.60476" lon="2.7029">
        <ele>95.930249</ele>
        <time>2023-01-05T12:16:43.428Z</time>
      </trkpt>
      <trkpt lat="39.60469" lon="2.70282">
        <ele>95.803687</ele>
        <time>2023-01-05T12:16:45.440Z</time>
      </trkpt>
      <trkpt lat="39.6046" lon="2.7027">
        <ele>95.620579</ele>
        <time>2023-01-05T12:16:48.435Z</time>
      </trkpt>
      <trkpt lat="39.60453" lon="2.70261">
        <ele>95.492312</ele>
        <time>2023-01-05T12:16:50.436Z</time>
      </trkpt>
      <trkpt lat="39.60446" lon="2.70253">
        <ele>95.365019</ele>
        <time>2023-01-05T12:16:52.439Z</time>
      </trkpt>
      <trkpt lat="39.60439" lon="2.70244">
        <ele>95.232684</ele>
        <time>2023-01-05T12:16:54.430Z</time>
      </trkpt>
      <trkpt lat="39.60431" lon="2.70235">
        <ele>95.095306</ele>
        <time>2023-01-05T12:16:56.441Z</time>
      </trkpt>
      <trkpt lat="39.60424" lon="2.70226">
        <ele>94.95596</ele>
        <time>2023-01-05T12:16:58.438Z</time>
      </trkpt>
      <trkpt lat="39.60417" lon="2.70215">
        <ele>94.816293</ele>
        <time>2023-01-05T12:17:00.435Z</time>
      </trkpt>
      <trkpt lat="39.6041" lon="2.70205">
        <ele>94.675579</ele>
        <time>2023-01-05T12:17:02.413Z</time>
      </trkpt>
      <trkpt lat="39.60405" lon="2.70193">
        <ele>94.531822</ele>
        <time>2023-01-05T12:17:04.430Z</time>
      </trkpt>
      <trkpt lat="39.60399" lon="2.70181">
        <ele>94.388327</ele>
        <time>2023-01-05T12:17:06.413Z</time>
      </trkpt>
      <trkpt lat="39.60394" lon="2.70169">
        <ele>94.247906</ele>
        <time>2023-01-05T12:17:08.432Z</time>
      </trkpt>
      <trkpt lat="39.60386" lon="2.70159">
        <ele>94.097536</ele>
        <time>2023-01-05T12:17:10.430Z</time>
      </trkpt>
      <trkpt lat="39.60378" lon="2.70149">
        <ele>93.951455</ele>
        <time>2023-01-05T12:17:12.439Z</time>
      </trkpt>
      <trkpt lat="39.6037" lon="2.70139">
        <ele>93.803295</ele>
        <time>2023-01-05T12:17:14.429Z</time>
      </trkpt>
      <trkpt lat="39.60362" lon="2.70128">
        <ele>93.652728</ele>
        <time>2023-01-05T12:17:16.439Z</time>
      </trkpt>
      <trkpt lat="39.60355" lon="2.70119">
        <ele>93.510102</ele>
        <time>2023-01-05T12:17:18.438Z</time>
      </trkpt>
      <trkpt lat="39.60347" lon="2.70112">
        <ele>93.380421</ele>
        <time>2023-01-05T12:17:20.420Z</time>
      </trkpt>
      <trkpt lat="39.60339" lon="2.70104">
        <ele>93.250649</ele>
        <time>2023-01-05T12:17:22.446Z</time>
      </trkpt>
      <trkpt lat="39.60331" lon="2.70095">
        <ele>93.126842</ele>
        <time>2023-01-05T12:17:24.433Z</time>
      </trkpt>
      <trkpt lat="39.60324" lon="2.70086">
        <ele>92.999028</ele>
        <time>2023-01-05T12:17:26.437Z</time>
      </trkpt>
      <trkpt lat="39.60316" lon="2.70077">
        <ele>92.864766</ele>
        <time>2023-01-05T12:17:28.434Z</time>
      </trkpt>
      <trkpt lat="39.60308" lon="2.70066">
        <ele>92.721849</ele>
        <time>2023-01-05T12:17:30.452Z</time>
      </trkpt>
      <trkpt lat="39.603" lon="2.70056">
        <ele>92.581659</ele>
        <time>2023-01-05T12:17:32.441Z</time>
      </trkpt>
      <trkpt lat="39.60292" lon="2.70046">
        <ele>92.439428</ele>
        <time>2023-01-05T12:17:34.436Z</time>
      </trkpt>
      <trkpt lat="39.60284" lon="2.70036">
        <ele>92.301224</ele>
        <time>2023-01-05T12:17:36.434Z</time>
      </trkpt>
      <trkpt lat="39.60276" lon="2.70025">
        <ele>92.153955</ele>
        <time>2023-01-05T12:17:38.422Z</time>
      </trkpt>
      <trkpt lat="39.60268" lon="2.70015">
        <ele>92.017127</ele>
        <time>2023-01-05T12:17:40.441Z</time>
      </trkpt>
      <trkpt lat="39.6026" lon="2.70005">
        <ele>91.877609</ele>
        <time>2023-01-05T12:17:42.432Z</time>
      </trkpt>
      <trkpt lat="39.60252" lon="2.69995">
        <ele>91.73443</ele>
        <time>2023-01-05T12:17:44.421Z</time>
      </trkpt>
      <trkpt lat="39.60243" lon="2.69986">
        <ele>91.597324</ele>
        <time>2023-01-05T12:17:46.434Z</time>
      </trkpt>
      <trkpt lat="39.60236" lon="2.69976">
        <ele>91.45703</ele>
        <time>2023-01-05T12:17:48.440Z</time>
      </trkpt>
      <trkpt lat="39.60227" lon="2.69966">
        <ele>91.314543</ele>
        <time>2023-01-05T12:17:50.420Z</time>
      </trkpt>
      <trkpt lat="39.60219" lon="2.69957">
        <ele>91.177682</ele>
        <time>2023-01-05T12:17:52.434Z</time>
      </trkpt>
      <trkpt lat="39.60211" lon="2.69946">
        <ele>91.03524</ele>
        <time>2023-01-05T12:17:54.428Z</time>
      </trkpt>
      <trkpt lat="39.60203" lon="2.69936">
        <ele>90.931873</ele>
        <time>2023-01-05T12:17:56.425Z</time>
      </trkpt>
      <trkpt lat="39.60195" lon="2.69925">
        <ele>90.824542</ele>
        <time>2023-01-05T12:17:58.429Z</time>
      </trkpt>
      <trkpt lat="39.60187" lon="2.69913">
        <ele>90.721096</ele>
        <time>2023-01-05T12:18:00.453Z</time>
      </trkpt>
      <trkpt lat="39.6018" lon="2.69902">
        <ele>90.616724</ele>
        <time>2023-01-05T12:18:02.485Z</time>
      </trkpt>
      <trkpt lat="39.60172" lon="2.6989">
        <ele>90.509456</ele>
        <time>2023-01-05T12:18:04.427Z</time>
      </trkpt>
      <trkpt lat="39.60165" lon="2.69879">
        <ele>90.409896</ele>
        <time>2023-01-05T12:18:06.441Z</time>
      </trkpt>
      <trkpt lat="39.60158" lon="2.69868">
        <ele>90.30793</ele>
        <time>2023-01-05T12:18:08.424Z</time>
      </trkpt>
      <trkpt lat="39.60151" lon="2.69858">
        <ele>90.211774</ele>
        <time>2023-01-05T12:18:10.407Z</time>
      </trkpt>
      <trkpt lat="39.60144" lon="2.69846">
        <ele>90.10906</ele>
        <time>2023-01-05T12:18:12.421Z</time>
      </trkpt>
      <trkpt lat="39.60136" lon="2.69835">
        <ele>90.005018</ele>
        <time>2023-01-05T12:18:14.433Z</time>
      </trkpt>
      <trkpt lat="39.60129" lon="2.69824">
        <ele>89.907787</ele>
        <time>2023-01-05T12:18:16.424Z</time>
      </trkpt>
      <trkpt lat="39.60122" lon="2.69812">
        <ele>89.802799</ele>
        <time>2023-01-05T12:18:18.424Z</time>
      </trkpt>
      <trkpt lat="39.60115" lon="2.69802">
        <ele>89.705847</ele>
        <time>2023-01-05T12:18:20.427Z</time>
      </trkpt>
      <trkpt lat="39.60108" lon="2.69791">
        <ele>89.608041</ele>
        <time>2023-01-05T12:18:22.437Z</time>
      </trkpt>
      <trkpt lat="39.60101" lon="2.6978">
        <ele>89.509157</ele>
        <time>2023-01-05T12:18:24.426Z</time>
      </trkpt>
      <trkpt lat="39.60094" lon="2.6977">
        <ele>89.411687</ele>
        <time>2023-01-05T12:18:26.443Z</time>
      </trkpt>
      <trkpt lat="39.60087" lon="2.6976">
        <ele>89.266745</ele>
        <time>2023-01-05T12:18:28.428Z</time>
      </trkpt>
      <trkpt lat="39.6008" lon="2.6975">
        <ele>89.122123</ele>
        <time>2023-01-05T12:18:30.455Z</time>
      </trkpt>
      <trkpt lat="39.60072" lon="2.69737">
        <ele>88.940411</ele>
        <time>2023-01-05T12:18:33.437Z</time>
      </trkpt>
      <trkpt lat="39.60065" lon="2.69724">
        <ele>88.769995</ele>
        <time>2023-01-05T12:18:36.425Z</time>
      </trkpt>
      <trkpt lat="39.60055" lon="2.69713">
        <ele>88.583362</ele>
        <time>2023-01-05T12:18:39.416Z</time>
      </trkpt>
      <trkpt lat="39.60048" lon="2.69704">
        <ele>88.449195</ele>
        <time>2023-01-05T12:18:41.424Z</time>
      </trkpt>
      <trkpt lat="39.60042" lon="2.69694">
        <ele>88.304023</ele>
        <time>2023-01-05T12:18:43.439Z</time>
      </trkpt>
      <trkpt lat="39.60035" lon="2.69684">
        <ele>88.158948</ele>
        <time>2023-01-05T12:18:45.416Z</time>
      </trkpt>
      <trkpt lat="39.60028" lon="2.69674">
        <ele>88.01972</ele>
        <time>2023-01-05T12:18:47.436Z</time>
      </trkpt>
      <trkpt lat="39.60022" lon="2.69665">
        <ele>87.88262</ele>
        <time>2023-01-05T12:18:49.425Z</time>
      </trkpt>
      <trkpt lat="39.60015" lon="2.69656">
        <ele>87.751769</ele>
        <time>2023-01-05T12:18:51.445Z</time>
      </trkpt>
      <trkpt lat="39.60009" lon="2.69648">
        <ele>87.62268</ele>
        <time>2023-01-05T12:18:53.431Z</time>
      </trkpt>
      <trkpt lat="39.60002" lon="2.69639">
        <ele>87.48747</ele>
        <time>2023-01-05T12:18:55.428Z</time>
      </trkpt>
      <trkpt lat="39.59997" lon="2.69628">
        <ele>87.351483</ele>
        <time>2023-01-05T12:18:57.415Z</time>
      </trkpt>
      <trkpt lat="39.5999" lon="2.69619">
        <ele>87.211032</ele>
        <time>2023-01-05T12:18:59.431Z</time>
      </trkpt>
      <trkpt lat="39.59984" lon="2.69608">
        <ele>87.066727</ele>
        <time>2023-01-05T12:19:01.433Z</time>
      </trkpt>
      <trkpt lat="39.59977" lon="2.69597">
        <ele>86.916405</ele>
        <time>2023-01-05T12:19:03.422Z</time>
      </trkpt>
      <trkpt lat="39.5997" lon="2.69588">
        <ele>86.836609</ele>
        <time>2023-01-05T12:19:05.416Z</time>
      </trkpt>
      <trkpt lat="39.59963" lon="2.69579">
        <ele>86.784577</ele>
        <time>2023-01-05T12:19:07.431Z</time>
      </trkpt>
      <trkpt lat="39.59956" lon="2.69571">
        <ele>86.735959</ele>
        <time>2023-01-05T12:19:09.425Z</time>
      </trkpt>
      <trkpt lat="39.59947" lon="2.69569">
        <ele>86.687331</ele>
        <time>2023-01-05T12:19:11.434Z</time>
      </trkpt>
      <trkpt lat="39.59936" lon="2.69577">
        <ele>86.617522</ele>
        <time>2023-01-05T12:19:14.437Z</time>
      </trkpt>
      <trkpt lat="39.59924" lon="2.69587">
        <ele>86.545131</ele>
        <time>2023-01-05T12:19:17.421Z</time>
      </trkpt>
      <trkpt lat="39.59916" lon="2.69594">
        <ele>86.492573</ele>
        <time>2023-01-05T12:19:19.442Z</time>
      </trkpt>
      <trkpt lat="39.59905" lon="2.69604">
        <ele>86.421263</ele>
        <time>2023-01-05T12:19:22.437Z</time>
      </trkpt>
      <trkpt lat="39.59894" lon="2.69614">
        <ele>86.352591</ele>
        <time>2023-01-05T12:19:25.426Z</time>
      </trkpt>
      <trkpt lat="39.59885" lon="2.69624">
        <ele>86.290002</ele>
        <time>2023-01-05T12:19:28.434Z</time>
      </trkpt>
      <trkpt lat="39.59876" lon="2.69615">
        <ele>86.231434</ele>
        <time>2023-01-05T12:19:31.429Z</time>
      </trkpt>
      <trkpt lat="39.59869" lon="2.69601">
        <ele>86.160729</ele>
        <time>2023-01-05T12:19:34.433Z</time>
      </trkpt>
      <trkpt lat="39.59864" lon="2.69591">
        <ele>86.111666</ele>
        <time>2023-01-05T12:19:36.425Z</time>
      </trkpt>
      <trkpt lat="39.59858" lon="2.6958">
        <ele>86.059784</ele>
        <time>2023-01-05T12:19:38.444Z</time>
      </trkpt>
      <trkpt lat="39.59853" lon="2.6957">
        <ele>86.009693</ele>
        <time>2023-01-05T12:19:40.424Z</time>
      </trkpt>
      <trkpt lat="39.59848" lon="2.6956">
        <ele>85.95954</ele>
        <time>2023-01-05T12:19:42.443Z</time>
      </trkpt>
      <trkpt lat="39.59842" lon="2.6955">
        <ele>85.874254</ele>
        <time>2023-01-05T12:19:44.434Z</time>
      </trkpt>
      <trkpt lat="39.59837" lon="2.69539">
        <ele>85.690555</ele>
        <time>2023-01-05T12:19:46.444Z</time>
      </trkpt>
      <trkpt lat="39.59829" lon="2.69525">
        <ele>85.430923</ele>
        <time>2023-01-05T12:19:49.425Z</time>
      </trkpt>
      <trkpt lat="39.59822" lon="2.69512">
        <ele>85.192043</ele>
        <time>2023-01-05T12:19:52.429Z</time>
      </trkpt>
      <trkpt lat="39.59814" lon="2.69498">
        <ele>84.941909</ele>
        <time>2023-01-05T12:19:55.419Z</time>
      </trkpt>
      <trkpt lat="39.59809" lon="2.69489">
        <ele>84.769851</ele>
        <time>2023-01-05T12:19:57.435Z</time>
      </trkpt>
      <trkpt lat="39.59804" lon="2.69479">
        <ele>84.593952</ele>
        <time>2023-01-05T12:19:59.419Z</time>
      </trkpt>
      <trkpt lat="39.59796" lon="2.69465">
        <ele>84.350762</ele>
        <time>2023-01-05T12:20:02.425Z</time>
      </trkpt>
      <trkpt lat="39.59789" lon="2.69453">
        <ele>84.120259</ele>
        <time>2023-01-05T12:20:05.422Z</time>
      </trkpt>
      <trkpt lat="39.59782" lon="2.69441">
        <ele>83.89466</ele>
        <time>2023-01-05T12:20:09.433Z</time>
      </trkpt>
      <trkpt lat="39.59777" lon="2.69427">
        <ele>83.672833</ele>
        <time>2023-01-05T12:20:12.431Z</time>
      </trkpt>
      <trkpt lat="39.5977" lon="2.69413">
        <ele>83.433286</ele>
        <time>2023-01-05T12:20:15.430Z</time>
      </trkpt>
      <trkpt lat="39.59762" lon="2.69399">
        <ele>83.177236</ele>
        <time>2023-01-05T12:20:18.431Z</time>
      </trkpt>
      <trkpt lat="39.59755" lon="2.69385">
        <ele>82.922893</ele>
        <time>2023-01-05T12:20:21.419Z</time>
      </trkpt>
      <trkpt lat="39.59748" lon="2.6937">
        <ele>82.665201</ele>
        <time>2023-01-05T12:20:24.450Z</time>
      </trkpt>
      <trkpt lat="39.59739" lon="2.69357">
        <ele>82.426025</ele>
        <time>2023-01-05T12:20:27.434Z</time>
      </trkpt>
      <trkpt lat="39.59732" lon="2.69344">
        <ele>82.225292</ele>
        <time>2023-01-05T12:20:30.430Z</time>
      </trkpt>
      <trkpt lat="39.59725" lon="2.69332">
        <ele>82.031585</ele>
        <time>2023-01-05T12:20:33.434Z</time>
      </trkpt>
      <trkpt lat="39.59716" lon="2.69324">
        <ele>81.868871</ele>
        <time>2023-01-05T12:20:36.429Z</time>
      </trkpt>
      <trkpt lat="39.59707" lon="2.6932">
        <ele>81.710704</ele>
        <time>2023-01-05T12:20:39.432Z</time>
      </trkpt>
      <trkpt lat="39.59702" lon="2.69311">
        <ele>81.566581</ele>
        <time>2023-01-05T12:20:41.422Z</time>
      </trkpt>
      <trkpt lat="39.59696" lon="2.693">
        <ele>81.400954</ele>
        <time>2023-01-05T12:20:43.430Z</time>
      </trkpt>
      <trkpt lat="39.59691" lon="2.69288">
        <ele>81.236937</ele>
        <time>2023-01-05T12:20:45.431Z</time>
      </trkpt>
      <trkpt lat="39.59685" lon="2.69277">
        <ele>81.073333</ele>
        <time>2023-01-05T12:20:47.444Z</time>
      </trkpt>
      <trkpt lat="39.59679" lon="2.69265">
        <ele>80.899768</ele>
        <time>2023-01-05T12:20:49.436Z</time>
      </trkpt>
      <trkpt lat="39.59673" lon="2.69255">
        <ele>80.733466</ele>
        <time>2023-01-05T12:20:51.441Z</time>
      </trkpt>
      <trkpt lat="39.59667" lon="2.69244">
        <ele>80.56618</ele>
        <time>2023-01-05T12:20:53.415Z</time>
      </trkpt>
      <trkpt lat="39.59661" lon="2.69233">
        <ele>80.404517</ele>
        <time>2023-01-05T12:20:55.431Z</time>
      </trkpt>
      <trkpt lat="39.59656" lon="2.69222">
        <ele>80.248672</ele>
        <time>2023-01-05T12:20:57.428Z</time>
      </trkpt>
      <trkpt lat="39.5965" lon="2.69212">
        <ele>80.094064</ele>
        <time>2023-01-05T12:20:59.427Z</time>
      </trkpt>
      <trkpt lat="39.59643" lon="2.69198">
        <ele>79.883104</ele>
        <time>2023-01-05T12:21:02.431Z</time>
      </trkpt>
      <trkpt lat="39.59637" lon="2.69182">
        <ele>79.666256</ele>
        <time>2023-01-05T12:21:05.429Z</time>
      </trkpt>
      <trkpt lat="39.59632" lon="2.69172">
        <ele>79.591847</ele>
        <time>2023-01-05T12:21:07.433Z</time>
      </trkpt>
      <trkpt lat="39.59627" lon="2.69161">
        <ele>79.587108</ele>
        <time>2023-01-05T12:21:09.423Z</time>
      </trkpt>
      <trkpt lat="39.59622" lon="2.69149">
        <ele>79.582273</ele>
        <time>2023-01-05T12:21:11.419Z</time>
      </trkpt>
      <trkpt lat="39.59619" lon="2.69137">
        <ele>79.577401</ele>
        <time>2023-01-05T12:21:13.432Z</time>
      </trkpt>
      <trkpt lat="39.59613" lon="2.69126">
        <ele>79.572266</ele>
        <time>2023-01-05T12:21:15.441Z</time>
      </trkpt>
      <trkpt lat="39.59607" lon="2.69114">
        <ele>79.56715</ele>
        <time>2023-01-05T12:21:17.430Z</time>
      </trkpt>
      <trkpt lat="39.59601" lon="2.69103">
        <ele>79.562028</ele>
        <time>2023-01-05T12:21:19.421Z</time>
      </trkpt>
      <trkpt lat="39.59595" lon="2.69093">
        <ele>79.557207</ele>
        <time>2023-01-05T12:21:21.425Z</time>
      </trkpt>
      <trkpt lat="39.59589" lon="2.69083">
        <ele>79.552448</ele>
        <time>2023-01-05T12:21:23.438Z</time>
      </trkpt>
      <trkpt lat="39.59588" lon="2.69067">
        <ele>79.546649</ele>
        <time>2023-01-05T12:21:26.428Z</time>
      </trkpt>
      <trkpt lat="39.59598" lon="2.69061">
        <ele>79.54105</ele>
        <time>2023-01-05T12:21:29.423Z</time>
      </trkpt>
      <trkpt lat="39.59607" lon="2.69057">
        <ele>79.536552</ele>
        <time>2023-01-05T12:21:32.447Z</time>
      </trkpt>
      <trkpt lat="39.59616" lon="2.69052">
        <ele>79.531524</ele>
        <time>2023-01-05T12:21:37.431Z</time>
      </trkpt>
      <trkpt lat="39.59632" lon="2.69038">
        <ele>79.522341</ele>
        <time>2023-01-05T12:22:08.415Z</time>
      </trkpt>
      <trkpt lat="39.59627" lon="2.69023">
        <ele>79.516218</ele>
        <time>2023-01-05T12:22:12.425Z</time>
      </trkpt>
      <trkpt lat="39.59621" lon="2.69011">
        <ele>79.510827</ele>
        <time>2023-01-05T12:22:15.434Z</time>
      </trkpt>
      <trkpt lat="39.59615" lon="2.68998">
        <ele>79.523956</ele>
        <time>2023-01-05T12:22:18.450Z</time>
      </trkpt>
      <trkpt lat="39.5961" lon="2.68983">
        <ele>79.58521</ele>
        <time>2023-01-05T12:22:21.413Z</time>
      </trkpt>
      <trkpt lat="39.59606" lon="2.68972">
        <ele>79.63174</ele>
        <time>2023-01-05T12:22:23.422Z</time>
      </trkpt>
      <trkpt lat="39.59602" lon="2.68956">
        <ele>79.699896</ele>
        <time>2023-01-05T12:22:26.430Z</time>
      </trkpt>
      <trkpt lat="39.59599" lon="2.68939">
        <ele>79.766678</ele>
        <time>2023-01-05T12:22:29.418Z</time>
      </trkpt>
      <trkpt lat="39.59596" lon="2.68925">
        <ele>79.826613</ele>
        <time>2023-01-05T12:22:32.435Z</time>
      </trkpt>
      <trkpt lat="39.59593" lon="2.68911">
        <ele>79.882408</ele>
        <time>2023-01-05T12:22:35.437Z</time>
      </trkpt>
      <trkpt lat="39.5959" lon="2.68896">
        <ele>79.944015</ele>
        <time>2023-01-05T12:22:38.425Z</time>
      </trkpt>
      <trkpt lat="39.59587" lon="2.68881">
        <ele>80.0031</ele>
        <time>2023-01-05T12:22:41.433Z</time>
      </trkpt>
      <trkpt lat="39.59583" lon="2.68865">
        <ele>80.067815</ele>
        <time>2023-01-05T12:22:44.450Z</time>
      </trkpt>
      <trkpt lat="39.59577" lon="2.6885">
        <ele>80.133557</ele>
        <time>2023-01-05T12:22:47.433Z</time>
      </trkpt>
      <trkpt lat="39.59572" lon="2.68834">
        <ele>80.200216</ele>
        <time>2023-01-05T12:22:50.441Z</time>
      </trkpt>
      <trkpt lat="39.59566" lon="2.6882">
        <ele>80.265135</ele>
        <time>2023-01-05T12:22:53.443Z</time>
      </trkpt>
      <trkpt lat="39.59561" lon="2.68804">
        <ele>80.33321</ele>
        <time>2023-01-05T12:22:56.437Z</time>
      </trkpt>
      <trkpt lat="39.59556" lon="2.68793">
        <ele>80.380095</ele>
        <time>2023-01-05T12:22:58.440Z</time>
      </trkpt>
      <trkpt lat="39.59552" lon="2.68783">
        <ele>80.42216</ele>
        <time>2023-01-05T12:23:00.427Z</time>
      </trkpt>
      <trkpt lat="39.59547" lon="2.68768">
        <ele>80.448469</ele>
        <time>2023-01-05T12:23:03.431Z</time>
      </trkpt>
      <trkpt lat="39.59541" lon="2.68753">
        <ele>80.475304</ele>
        <time>2023-01-05T12:23:06.429Z</time>
      </trkpt>
      <trkpt lat="39.59536" lon="2.68743">
        <ele>80.494789</ele>
        <time>2023-01-05T12:23:08.424Z</time>
      </trkpt>
      <trkpt lat="39.59529" lon="2.68728">
        <ele>80.522993</ele>
        <time>2023-01-05T12:23:11.428Z</time>
      </trkpt>
      <trkpt lat="39.59525" lon="2.68717">
        <ele>80.542262</ele>
        <time>2023-01-05T12:23:13.426Z</time>
      </trkpt>
      <trkpt lat="39.5952" lon="2.68706">
        <ele>80.562129</ele>
        <time>2023-01-05T12:23:15.433Z</time>
      </trkpt>
      <trkpt lat="39.59515" lon="2.68696">
        <ele>80.581094</ele>
        <time>2023-01-05T12:23:17.417Z</time>
      </trkpt>
      <trkpt lat="39.5951" lon="2.6868">
        <ele>80.609061</ele>
        <time>2023-01-05T12:23:20.426Z</time>
      </trkpt>
      <trkpt lat="39.59508" lon="2.68668">
        <ele>80.628993</ele>
        <time>2023-01-05T12:23:22.427Z</time>
      </trkpt>
      <trkpt lat="39.59505" lon="2.68656">
        <ele>80.649209</ele>
        <time>2023-01-05T12:23:24.444Z</time>
      </trkpt>
      <trkpt lat="39.59501" lon="2.68645">
        <ele>80.668348</ele>
        <time>2023-01-05T12:23:26.430Z</time>
      </trkpt>
      <trkpt lat="39.59494" lon="2.68631">
        <ele>80.69586</ele>
        <time>2023-01-05T12:23:29.451Z</time>
      </trkpt>
      <trkpt lat="39.59489" lon="2.6862">
        <ele>80.714825</ele>
        <time>2023-01-05T12:23:31.436Z</time>
      </trkpt>
      <trkpt lat="39.59485" lon="2.68605">
        <ele>80.741029</ele>
        <time>2023-01-05T12:23:34.423Z</time>
      </trkpt>
      <trkpt lat="39.59481" lon="2.68593">
        <ele>80.762557</ele>
        <time>2023-01-05T12:23:37.438Z</time>
      </trkpt>
      <trkpt lat="39.59475" lon="2.68581">
        <ele>80.784976</ele>
        <time>2023-01-05T12:23:40.419Z</time>
      </trkpt>
      <trkpt lat="39.59468" lon="2.6857">
        <ele>80.855084</ele>
        <time>2023-01-05T12:23:43.421Z</time>
      </trkpt>
      <trkpt lat="39.59461" lon="2.68557">
        <ele>80.962165</ele>
        <time>2023-01-05T12:23:46.446Z</time>
      </trkpt>
      <trkpt lat="39.59454" lon="2.68546">
        <ele>81.05527</ele>
        <time>2023-01-05T12:23:49.418Z</time>
      </trkpt>
      <trkpt lat="39.59448" lon="2.68535">
        <ele>81.148251</ele>
        <time>2023-01-05T12:23:53.422Z</time>
      </trkpt>
      <trkpt lat="39.59442" lon="2.68526">
        <ele>81.229509</ele>
        <time>2023-01-05T12:23:56.428Z</time>
      </trkpt>
      <trkpt lat="39.59434" lon="2.68514">
        <ele>81.334227</ele>
        <time>2023-01-05T12:24:00.439Z</time>
      </trkpt>
      <trkpt lat="39.59428" lon="2.68503">
        <ele>81.426103</ele>
        <time>2023-01-05T12:24:03.428Z</time>
      </trkpt>
      <trkpt lat="39.59421" lon="2.68492">
        <ele>81.523316</ele>
        <time>2023-01-05T12:24:06.440Z</time>
      </trkpt>
      <trkpt lat="39.59415" lon="2.68481">
        <ele>81.611923</ele>
        <time>2023-01-05T12:24:09.433Z</time>
      </trkpt>
      <trkpt lat="39.59409" lon="2.68469">
        <ele>81.710722</ele>
        <time>2023-01-05T12:24:13.429Z</time>
      </trkpt>
      <trkpt lat="39.594" lon="2.68461">
        <ele>81.805929</ele>
        <time>2023-01-05T12:24:16.428Z</time>
      </trkpt>
      <trkpt lat="39.59393" lon="2.6845">
        <ele>81.902645</ele>
        <time>2023-01-05T12:24:19.419Z</time>
      </trkpt>
      <trkpt lat="39.59386" lon="2.68437">
        <ele>82.018152</ele>
        <time>2023-01-05T12:24:22.439Z</time>
      </trkpt>
      <trkpt lat="39.59376" lon="2.68425">
        <ele>82.134018</ele>
        <time>2023-01-05T12:24:25.424Z</time>
      </trkpt>
      <trkpt lat="39.59367" lon="2.68414">
        <ele>82.240882</ele>
        <time>2023-01-05T12:24:28.417Z</time>
      </trkpt>
      <trkpt lat="39.59357" lon="2.68404">
        <ele>82.356681</ele>
        <time>2023-01-05T12:24:31.446Z</time>
      </trkpt>
      <trkpt lat="39.59349" lon="2.6839">
        <ele>82.287762</ele>
        <time>2023-01-05T12:24:34.441Z</time>
      </trkpt>
      <trkpt lat="39.59341" lon="2.68376">
        <ele>82.17696</ele>
        <time>2023-01-05T12:24:37.421Z</time>
      </trkpt>
      <trkpt lat="39.59336" lon="2.68367">
        <ele>82.098882</ele>
        <time>2023-01-05T12:24:39.422Z</time>
      </trkpt>
      <trkpt lat="39.5933" lon="2.68358">
        <ele>82.022808</ele>
        <time>2023-01-05T12:24:41.427Z</time>
      </trkpt>
      <trkpt lat="39.59324" lon="2.68348">
        <ele>81.944737</ele>
        <time>2023-01-05T12:24:43.434Z</time>
      </trkpt>
      <trkpt lat="39.59319" lon="2.68339">
        <ele>81.869218</ele>
        <time>2023-01-05T12:24:45.437Z</time>
      </trkpt>
      <trkpt lat="39.59311" lon="2.68325">
        <ele>81.760503</ele>
        <time>2023-01-05T12:24:48.433Z</time>
      </trkpt>
      <trkpt lat="39.59305" lon="2.68314">
        <ele>81.670967</ele>
        <time>2023-01-05T12:24:51.429Z</time>
      </trkpt>
      <trkpt lat="39.59299" lon="2.68304">
        <ele>81.590854</ele>
        <time>2023-01-05T12:24:54.435Z</time>
      </trkpt>
      <trkpt lat="39.59293" lon="2.68294">
        <ele>81.508701</ele>
        <time>2023-01-05T12:24:57.435Z</time>
      </trkpt>
      <trkpt lat="39.59286" lon="2.68282">
        <ele>81.411722</ele>
        <time>2023-01-05T12:25:00.451Z</time>
      </trkpt>
      <trkpt lat="39.5928" lon="2.68268">
        <ele>81.309236</ele>
        <time>2023-01-05T12:25:03.428Z</time>
      </trkpt>
      <trkpt lat="39.59276" lon="2.68254">
        <ele>81.210574</ele>
        <time>2023-01-05T12:25:06.447Z</time>
      </trkpt>
      <trkpt lat="39.5927" lon="2.6824">
        <ele>81.107529</ele>
        <time>2023-01-05T12:25:09.418Z</time>
      </trkpt>
      <trkpt lat="39.59263" lon="2.68227">
        <ele>81.007906</ele>
        <time>2023-01-05T12:25:12.419Z</time>
      </trkpt>
      <trkpt lat="39.59259" lon="2.68214">
        <ele>80.919134</ele>
        <time>2023-01-05T12:25:15.439Z</time>
      </trkpt>
      <trkpt lat="39.59254" lon="2.68203">
        <ele>80.790939</ele>
        <time>2023-01-05T12:25:20.434Z</time>
      </trkpt>
      <trkpt lat="39.59254" lon="2.68201">
        <ele>80.762609</ele>
        <time>2023-01-05T12:25:33.256Z</time>
      </trkpt>
      <trkpt lat="39.59261" lon="2.68193">
        <ele>80.59311</ele>
        <time>2023-01-05T13:17:57.459Z</time>
      </trkpt>
      <trkpt lat="39.59251" lon="2.68192">
        <ele>80.408996</ele>
        <time>2023-01-05T13:18:04.435Z</time>
      </trkpt>
      <trkpt lat="39.59241" lon="2.6819">
        <ele>80.222516</ele>
        <time>2023-01-05T13:18:10.433Z</time>
      </trkpt>
      <trkpt lat="39.59234" lon="2.68179">
        <ele>80.028777</ele>
        <time>2023-01-05T13:18:15.431Z</time>
      </trkpt>
      <trkpt lat="39.59227" lon="2.68168">
        <ele>79.830701</ele>
        <time>2023-01-05T13:18:27.439Z</time>
      </trkpt>
      <trkpt lat="39.59218" lon="2.6816">
        <ele>79.638023</ele>
        <time>2023-01-05T13:18:33.415Z</time>
      </trkpt>
      <trkpt lat="39.59209" lon="2.6815">
        <ele>79.419747</ele>
        <time>2023-01-05T13:18:37.417Z</time>
      </trkpt>
      <trkpt lat="39.59202" lon="2.68141">
        <ele>79.242408</ele>
        <time>2023-01-05T13:18:40.433Z</time>
      </trkpt>
      <trkpt lat="39.59196" lon="2.6813">
        <ele>79.051834</ele>
        <time>2023-01-05T13:18:43.419Z</time>
      </trkpt>
      <trkpt lat="39.59189" lon="2.68117">
        <ele>78.822568</ele>
        <time>2023-01-05T13:18:46.441Z</time>
      </trkpt>
      <trkpt lat="39.59181" lon="2.68105">
        <ele>78.601094</ele>
        <time>2023-01-05T13:18:49.434Z</time>
      </trkpt>
      <trkpt lat="39.59175" lon="2.68091">
        <ele>78.370555</ele>
        <time>2023-01-05T13:18:52.405Z</time>
      </trkpt>
      <trkpt lat="39.59167" lon="2.68077">
        <ele>78.131226</ele>
        <time>2023-01-05T13:18:55.435Z</time>
      </trkpt>
      <trkpt lat="39.5916" lon="2.68062">
        <ele>77.890387</ele>
        <time>2023-01-05T13:18:58.428Z</time>
      </trkpt>
      <trkpt lat="39.59153" lon="2.68049">
        <ele>77.659954</ele>
        <time>2023-01-05T13:19:01.430Z</time>
      </trkpt>
      <trkpt lat="39.59145" lon="2.68035">
        <ele>77.614576</ele>
        <time>2023-01-05T13:19:04.455Z</time>
      </trkpt>
      <trkpt lat="39.59137" lon="2.68021">
        <ele>77.643828</ele>
        <time>2023-01-05T13:19:07.422Z</time>
      </trkpt>
      <trkpt lat="39.59131" lon="2.68012">
        <ele>77.663648</ele>
        <time>2023-01-05T13:19:09.433Z</time>
      </trkpt>
      <trkpt lat="39.59125" lon="2.68002">
        <ele>77.683718</ele>
        <time>2023-01-05T13:19:11.422Z</time>
      </trkpt>
      <trkpt lat="39.59119" lon="2.67992">
        <ele>77.704311</ele>
        <time>2023-01-05T13:19:13.425Z</time>
      </trkpt>
      <trkpt lat="39.59112" lon="2.67979">
        <ele>77.731736</ele>
        <time>2023-01-05T13:19:16.434Z</time>
      </trkpt>
      <trkpt lat="39.59108" lon="2.67965">
        <ele>77.756008</ele>
        <time>2023-01-05T13:19:19.432Z</time>
      </trkpt>
      <trkpt lat="39.59105" lon="2.6795">
        <ele>77.783116</ele>
        <time>2023-01-05T13:19:22.420Z</time>
      </trkpt>
      <trkpt lat="39.59097" lon="2.67936">
        <ele>77.810924</ele>
        <time>2023-01-05T13:19:25.420Z</time>
      </trkpt>
      <trkpt lat="39.59091" lon="2.67927">
        <ele>77.830744</ele>
        <time>2023-01-05T13:19:27.409Z</time>
      </trkpt>
      <trkpt lat="39.59084" lon="2.67913">
        <ele>77.858523</ele>
        <time>2023-01-05T13:19:30.422Z</time>
      </trkpt>
      <trkpt lat="39.59076" lon="2.679">
        <ele>77.886098</ele>
        <time>2023-01-05T13:19:33.420Z</time>
      </trkpt>
      <trkpt lat="39.59066" lon="2.67892">
        <ele>77.911425</ele>
        <time>2023-01-05T13:19:36.426Z</time>
      </trkpt>
      <trkpt lat="39.59055" lon="2.6788">
        <ele>77.941328</ele>
        <time>2023-01-05T13:19:39.419Z</time>
      </trkpt>
      <trkpt lat="39.59048" lon="2.67871">
        <ele>77.962706</ele>
        <time>2023-01-05T13:19:41.429Z</time>
      </trkpt>
      <trkpt lat="39.59042" lon="2.67861">
        <ele>77.978149</ele>
        <time>2023-01-05T13:19:43.421Z</time>
      </trkpt>
      <trkpt lat="39.59035" lon="2.67851">
        <ele>77.963743</ele>
        <time>2023-01-05T13:19:45.445Z</time>
      </trkpt>
      <trkpt lat="39.59028" lon="2.67841">
        <ele>77.949753</ele>
        <time>2023-01-05T13:19:47.422Z</time>
      </trkpt>
      <trkpt lat="39.59021" lon="2.6783">
        <ele>77.935346</ele>
        <time>2023-01-05T13:19:49.455Z</time>
      </trkpt>
      <trkpt lat="39.59014" lon="2.6782">
        <ele>77.921198</ele>
        <time>2023-01-05T13:19:51.435Z</time>
      </trkpt>
      <trkpt lat="39.59007" lon="2.6781">
        <ele>77.907012</ele>
        <time>2023-01-05T13:19:53.408Z</time>
      </trkpt>
      <trkpt lat="39.59" lon="2.67801">
        <ele>77.893013</ele>
        <time>2023-01-05T13:19:55.440Z</time>
      </trkpt>
      <trkpt lat="39.58993" lon="2.67791">
        <ele>77.878854</ele>
        <time>2023-01-05T13:19:57.422Z</time>
      </trkpt>
      <trkpt lat="39.58987" lon="2.67781">
        <ele>77.865786</ele>
        <time>2023-01-05T13:19:59.436Z</time>
      </trkpt>
      <trkpt lat="39.5898" lon="2.67772">
        <ele>77.852354</ele>
        <time>2023-01-05T13:20:01.424Z</time>
      </trkpt>
      <trkpt lat="39.58973" lon="2.67763">
        <ele>77.838999</ele>
        <time>2023-01-05T13:20:03.419Z</time>
      </trkpt>
      <trkpt lat="39.58967" lon="2.67753">
        <ele>77.825762</ele>
        <time>2023-01-05T13:20:05.432Z</time>
      </trkpt>
      <trkpt lat="39.5896" lon="2.67744">
        <ele>77.812591</ele>
        <time>2023-01-05T13:20:07.433Z</time>
      </trkpt>
      <trkpt lat="39.58954" lon="2.67735">
        <ele>77.79988</ele>
        <time>2023-01-05T13:20:09.441Z</time>
      </trkpt>
      <trkpt lat="39.58947" lon="2.67726">
        <ele>77.787148</ele>
        <time>2023-01-05T13:20:11.411Z</time>
      </trkpt>
      <trkpt lat="39.58939" lon="2.67714">
        <ele>77.769648</ele>
        <time>2023-01-05T13:20:14.424Z</time>
      </trkpt>
      <trkpt lat="39.58931" lon="2.67702">
        <ele>77.75269</ele>
        <time>2023-01-05T13:20:17.426Z</time>
      </trkpt>
      <trkpt lat="39.58924" lon="2.67692">
        <ele>77.738789</ele>
        <time>2023-01-05T13:20:21.427Z</time>
      </trkpt>
      <trkpt lat="39.58916" lon="2.67682">
        <ele>77.720866</ele>
        <time>2023-01-05T13:20:25.427Z</time>
      </trkpt>
      <trkpt lat="39.58908" lon="2.67674">
        <ele>77.703012</ele>
        <time>2023-01-05T13:20:28.407Z</time>
      </trkpt>
      <trkpt lat="39.589" lon="2.67663">
        <ele>77.682759</ele>
        <time>2023-01-05T13:20:31.425Z</time>
      </trkpt>
      <trkpt lat="39.58892" lon="2.67652">
        <ele>77.661166</ele>
        <time>2023-01-05T13:20:34.410Z</time>
      </trkpt>
      <trkpt lat="39.58884" lon="2.6764">
        <ele>77.639776</ele>
        <time>2023-01-05T13:20:37.433Z</time>
      </trkpt>
      <trkpt lat="39.58875" lon="2.67629">
        <ele>77.619035</ele>
        <time>2023-01-05T13:20:40.427Z</time>
      </trkpt>
      <trkpt lat="39.58867" lon="2.67616">
        <ele>77.596688</ele>
        <time>2023-01-05T13:20:43.411Z</time>
      </trkpt>
      <trkpt lat="39.58858" lon="2.67603">
        <ele>77.573091</ele>
        <time>2023-01-05T13:20:46.433Z</time>
      </trkpt>
      <trkpt lat="39.58852" lon="2.67589">
        <ele>77.550939</ele>
        <time>2023-01-05T13:20:49.416Z</time>
      </trkpt>
      <trkpt lat="39.58843" lon="2.67579">
        <ele>77.529628</ele>
        <time>2023-01-05T13:20:52.432Z</time>
      </trkpt>
      <trkpt lat="39.58833" lon="2.67566">
        <ele>77.506134</ele>
        <time>2023-01-05T13:20:55.424Z</time>
      </trkpt>
      <trkpt lat="39.58828" lon="2.67556">
        <ele>77.489619</ele>
        <time>2023-01-05T13:20:57.442Z</time>
      </trkpt>
      <trkpt lat="39.5882" lon="2.6755">
        <ele>77.473114</ele>
        <time>2023-01-05T13:20:59.408Z</time>
      </trkpt>
      <trkpt lat="39.58813" lon="2.67542">
        <ele>77.456898</ele>
        <time>2023-01-05T13:21:01.424Z</time>
      </trkpt>
      <trkpt lat="39.58805" lon="2.67534">
        <ele>77.439672</ele>
        <time>2023-01-05T13:21:03.424Z</time>
      </trkpt>
      <trkpt lat="39.58798" lon="2.67527">
        <ele>77.423667</ele>
        <time>2023-01-05T13:21:05.421Z</time>
      </trkpt>
      <trkpt lat="39.58791" lon="2.67519">
        <ele>77.340925</ele>
        <time>2023-01-05T13:21:07.435Z</time>
      </trkpt>
      <trkpt lat="39.58782" lon="2.67506">
        <ele>77.193134</ele>
        <time>2023-01-05T13:21:10.433Z</time>
      </trkpt>
      <trkpt lat="39.58775" lon="2.67498">
        <ele>77.092658</ele>
        <time>2023-01-05T13:21:12.433Z</time>
      </trkpt>
      <trkpt lat="39.58767" lon="2.67492">
        <ele>76.986512</ele>
        <time>2023-01-05T13:21:14.428Z</time>
      </trkpt>
      <trkpt lat="39.58757" lon="2.67484">
        <ele>76.853073</ele>
        <time>2023-01-05T13:21:17.422Z</time>
      </trkpt>
      <trkpt lat="39.5875" lon="2.67476">
        <ele>76.751084</ele>
        <time>2023-01-05T13:21:19.430Z</time>
      </trkpt>
      <trkpt lat="39.5874" lon="2.67465">
        <ele>76.610219</ele>
        <time>2023-01-05T13:21:22.439Z</time>
      </trkpt>
      <trkpt lat="39.58733" lon="2.67457">
        <ele>76.507397</ele>
        <time>2023-01-05T13:21:24.428Z</time>
      </trkpt>
      <trkpt lat="39.58725" lon="2.67449">
        <ele>76.395804</ele>
        <time>2023-01-05T13:21:26.428Z</time>
      </trkpt>
      <trkpt lat="39.58717" lon="2.67441">
        <ele>76.286295</ele>
        <time>2023-01-05T13:21:28.432Z</time>
      </trkpt>
      <trkpt lat="39.5871" lon="2.67432">
        <ele>76.179228</ele>
        <time>2023-01-05T13:21:30.445Z</time>
      </trkpt>
      <trkpt lat="39.58703" lon="2.67425">
        <ele>76.076715</ele>
        <time>2023-01-05T13:21:32.445Z</time>
      </trkpt>
      <trkpt lat="39.58696" lon="2.67418">
        <ele>75.971585</ele>
        <time>2023-01-05T13:21:34.430Z</time>
      </trkpt>
      <trkpt lat="39.58688" lon="2.6741">
        <ele>75.868915</ele>
        <time>2023-01-05T13:21:36.430Z</time>
      </trkpt>
      <trkpt lat="39.58681" lon="2.67402">
        <ele>75.761309</ele>
        <time>2023-01-05T13:21:38.437Z</time>
      </trkpt>
      <trkpt lat="39.58673" lon="2.67395">
        <ele>75.656711</ele>
        <time>2023-01-05T13:21:40.432Z</time>
      </trkpt>
      <trkpt lat="39.58666" lon="2.67386">
        <ele>75.546308</ele>
        <time>2023-01-05T13:21:42.439Z</time>
      </trkpt>
      <trkpt lat="39.58658" lon="2.67379">
        <ele>75.439439</ele>
        <time>2023-01-05T13:21:44.437Z</time>
      </trkpt>
      <trkpt lat="39.58651" lon="2.67371">
        <ele>75.517118</ele>
        <time>2023-01-05T13:21:46.431Z</time>
      </trkpt>
      <trkpt lat="39.58643" lon="2.67363">
        <ele>75.621368</ele>
        <time>2023-01-05T13:21:48.431Z</time>
      </trkpt>
      <trkpt lat="39.58633" lon="2.67352">
        <ele>75.768398</ele>
        <time>2023-01-05T13:21:51.426Z</time>
      </trkpt>
      <trkpt lat="39.58623" lon="2.67343">
        <ele>75.902384</ele>
        <time>2023-01-05T13:21:54.433Z</time>
      </trkpt>
      <trkpt lat="39.58615" lon="2.67334">
        <ele>76.019159</ele>
        <time>2023-01-05T13:21:57.425Z</time>
      </trkpt>
      <trkpt lat="39.58608" lon="2.67326">
        <ele>76.122316</ele>
        <time>2023-01-05T13:22:00.412Z</time>
      </trkpt>
      <trkpt lat="39.586" lon="2.67317">
        <ele>76.238496</ele>
        <time>2023-01-05T13:22:03.410Z</time>
      </trkpt>
      <trkpt lat="39.58592" lon="2.67309">
        <ele>76.351101</ele>
        <time>2023-01-05T13:22:06.447Z</time>
      </trkpt>
      <trkpt lat="39.58586" lon="2.673">
        <ele>76.45422</ele>
        <time>2023-01-05T13:22:09.432Z</time>
      </trkpt>
      <trkpt lat="39.58578" lon="2.67291">
        <ele>76.56484</ele>
        <time>2023-01-05T13:22:12.443Z</time>
      </trkpt>
      <trkpt lat="39.58568" lon="2.67283">
        <ele>76.695372</ele>
        <time>2023-01-05T13:22:16.424Z</time>
      </trkpt>
      <trkpt lat="39.58561" lon="2.67275">
        <ele>76.807673</ele>
        <time>2023-01-05T13:22:19.423Z</time>
      </trkpt>
      <trkpt lat="39.58553" lon="2.67266">
        <ele>76.915565</ele>
        <time>2023-01-05T13:22:22.428Z</time>
      </trkpt>
      <trkpt lat="39.58547" lon="2.67257">
        <ele>77.020988</ele>
        <time>2023-01-05T13:22:25.426Z</time>
      </trkpt>
      <trkpt lat="39.5854" lon="2.67247">
        <ele>77.133502</ele>
        <time>2023-01-05T13:22:29.454Z</time>
      </trkpt>
      <trkpt lat="39.58535" lon="2.67237">
        <ele>77.2358</ele>
        <time>2023-01-05T13:22:34.428Z</time>
      </trkpt>
      <trkpt lat="39.58526" lon="2.67226">
        <ele>77.367981</ele>
        <time>2023-01-05T13:22:38.427Z</time>
      </trkpt>
      <trkpt lat="39.5852" lon="2.67217">
        <ele>77.346216</ele>
        <time>2023-01-05T13:22:41.422Z</time>
      </trkpt>
      <trkpt lat="39.58512" lon="2.67207">
        <ele>77.240632</ele>
        <time>2023-01-05T13:22:44.423Z</time>
      </trkpt>
      <trkpt lat="39.58504" lon="2.67196">
        <ele>77.128683</ele>
        <time>2023-01-05T13:22:47.441Z</time>
      </trkpt>
      <trkpt lat="39.58497" lon="2.67186">
        <ele>77.018244</ele>
        <time>2023-01-05T13:22:50.426Z</time>
      </trkpt>
      <trkpt lat="39.58489" lon="2.67175">
        <ele>76.906046</ele>
        <time>2023-01-05T13:22:53.421Z</time>
      </trkpt>
      <trkpt lat="39.58482" lon="2.67166">
        <ele>76.802273</ele>
        <time>2023-01-05T13:22:56.425Z</time>
      </trkpt>
      <trkpt lat="39.58476" lon="2.67154">
        <ele>76.689556</ele>
        <time>2023-01-05T13:22:59.433Z</time>
      </trkpt>
      <trkpt lat="39.58468" lon="2.67145">
        <ele>76.587907</ele>
        <time>2023-01-05T13:23:02.426Z</time>
      </trkpt>
      <trkpt lat="39.58461" lon="2.67135">
        <ele>76.479267</ele>
        <time>2023-01-05T13:23:05.436Z</time>
      </trkpt>
      <trkpt lat="39.58453" lon="2.67124">
        <ele>76.365373</ele>
        <time>2023-01-05T13:23:08.442Z</time>
      </trkpt>
      <trkpt lat="39.58446" lon="2.6711">
        <ele>76.236244</ele>
        <time>2023-01-05T13:23:11.418Z</time>
      </trkpt>
      <trkpt lat="39.5844" lon="2.671">
        <ele>76.141417</ele>
        <time>2023-01-05T13:23:15.424Z</time>
      </trkpt>
      <trkpt lat="39.58433" lon="2.6709">
        <ele>76.037744</ele>
        <time>2023-01-05T13:23:32.431Z</time>
      </trkpt>
      <trkpt lat="39.58424" lon="2.67076">
        <ele>75.897603</ele>
        <time>2023-01-05T13:24:15.420Z</time>
      </trkpt>
      <trkpt lat="39.5842" lon="2.67063">
        <ele>75.787529</ele>
        <time>2023-01-05T13:24:20.424Z</time>
      </trkpt>
      <trkpt lat="39.58414" lon="2.67053">
        <ele>75.685966</ele>
        <time>2023-01-05T13:24:24.429Z</time>
      </trkpt>
      <trkpt lat="39.58407" lon="2.67041">
        <ele>75.648375</ele>
        <time>2023-01-05T13:24:28.422Z</time>
      </trkpt>
      <trkpt lat="39.584" lon="2.67029">
        <ele>75.800669</ele>
        <time>2023-01-05T13:24:32.427Z</time>
      </trkpt>
      <trkpt lat="39.58391" lon="2.67021">
        <ele>75.943747</ele>
        <time>2023-01-05T13:24:35.430Z</time>
      </trkpt>
      <trkpt lat="39.58382" lon="2.6701">
        <ele>76.101066</ele>
        <time>2023-01-05T13:24:38.437Z</time>
      </trkpt>
      <trkpt lat="39.58375" lon="2.67002">
        <ele>76.226496</ele>
        <time>2023-01-05T13:24:41.428Z</time>
      </trkpt>
      <trkpt lat="39.58371" lon="2.6699">
        <ele>76.364389</ele>
        <time>2023-01-05T13:24:44.416Z</time>
      </trkpt>
      <trkpt lat="39.58375" lon="2.66977">
        <ele>76.499215</ele>
        <time>2023-01-05T13:24:47.419Z</time>
      </trkpt>
      <trkpt lat="39.58379" lon="2.66962">
        <ele>76.660221</ele>
        <time>2023-01-05T13:24:50.431Z</time>
      </trkpt>
      <trkpt lat="39.58382" lon="2.66948">
        <ele>76.808355</ele>
        <time>2023-01-05T13:24:53.432Z</time>
      </trkpt>
      <trkpt lat="39.58385" lon="2.66933">
        <ele>76.963004</ele>
        <time>2023-01-05T13:24:56.423Z</time>
      </trkpt>
      <trkpt lat="39.58388" lon="2.66918">
        <ele>77.120236</ele>
        <time>2023-01-05T13:24:59.427Z</time>
      </trkpt>
      <trkpt lat="39.58391" lon="2.66903">
        <ele>77.275899</ele>
        <time>2023-01-05T13:25:02.443Z</time>
      </trkpt>
      <trkpt lat="39.58394" lon="2.66888">
        <ele>77.436684</ele>
        <time>2023-01-05T13:25:05.431Z</time>
      </trkpt>
      <trkpt lat="39.58396" lon="2.66872">
        <ele>77.597</ele>
        <time>2023-01-05T13:25:08.425Z</time>
      </trkpt>
      <trkpt lat="39.58398" lon="2.66855">
        <ele>77.77121</ele>
        <time>2023-01-05T13:25:11.413Z</time>
      </trkpt>
      <trkpt lat="39.58398" lon="2.66839">
        <ele>77.9342</ele>
        <time>2023-01-05T13:25:14.423Z</time>
      </trkpt>
      <trkpt lat="39.584" lon="2.66823">
        <ele>77.799031</ele>
        <time>2023-01-05T13:25:17.431Z</time>
      </trkpt>
      <trkpt lat="39.584" lon="2.66811">
        <ele>77.668538</ele>
        <time>2023-01-05T13:25:19.423Z</time>
      </trkpt>
      <trkpt lat="39.58401" lon="2.66798">
        <ele>77.526126</ele>
        <time>2023-01-05T13:25:21.446Z</time>
      </trkpt>
      <trkpt lat="39.584" lon="2.66785">
        <ele>77.384816</ele>
        <time>2023-01-05T13:25:23.421Z</time>
      </trkpt>
      <trkpt lat="39.584" lon="2.66774">
        <ele>77.256613</ele>
        <time>2023-01-05T13:25:25.414Z</time>
      </trkpt>
      <trkpt lat="39.58399" lon="2.66761">
        <ele>77.122717</ele>
        <time>2023-01-05T13:25:27.438Z</time>
      </trkpt>
      <trkpt lat="39.584" lon="2.66746">
        <ele>76.949324</ele>
        <time>2023-01-05T13:25:30.427Z</time>
      </trkpt>
      <trkpt lat="39.58398" lon="2.6673">
        <ele>76.776355</ele>
        <time>2023-01-05T13:25:33.431Z</time>
      </trkpt>
      <trkpt lat="39.58396" lon="2.66714">
        <ele>76.591577</ele>
        <time>2023-01-05T13:25:36.413Z</time>
      </trkpt>
      <trkpt lat="39.58394" lon="2.66698">
        <ele>76.415334</ele>
        <time>2023-01-05T13:25:39.422Z</time>
      </trkpt>
      <trkpt lat="39.5839" lon="2.66683">
        <ele>76.248088</ele>
        <time>2023-01-05T13:25:42.442Z</time>
      </trkpt>
      <trkpt lat="39.58389" lon="2.66667">
        <ele>76.068501</ele>
        <time>2023-01-05T13:25:45.424Z</time>
      </trkpt>
      <trkpt lat="39.58386" lon="2.66652">
        <ele>75.893183</ele>
        <time>2023-01-05T13:25:48.416Z</time>
      </trkpt>
      <trkpt lat="39.58383" lon="2.66638">
        <ele>75.738211</ele>
        <time>2023-01-05T13:25:51.427Z</time>
      </trkpt>
      <trkpt lat="39.58387" lon="2.66625">
        <ele>75.575008</ele>
        <time>2023-01-05T13:25:54.407Z</time>
      </trkpt>
      <trkpt lat="39.58395" lon="2.66614">
        <ele>75.412865</ele>
        <time>2023-01-05T13:25:57.415Z</time>
      </trkpt>
      <trkpt lat="39.58401" lon="2.66602">
        <ele>75.424599</ele>
        <time>2023-01-05T13:26:00.439Z</time>
      </trkpt>
      <trkpt lat="39.584" lon="2.66589">
        <ele>75.48084</ele>
        <time>2023-01-05T13:26:03.409Z</time>
      </trkpt>
      <trkpt lat="39.58396" lon="2.66575">
        <ele>75.541225</ele>
        <time>2023-01-05T13:26:06.420Z</time>
      </trkpt>
      <trkpt lat="39.58388" lon="2.66563">
        <ele>75.606059</ele>
        <time>2023-01-05T13:26:09.416Z</time>
      </trkpt>
      <trkpt lat="39.58383" lon="2.66553">
        <ele>75.654409</ele>
        <time>2023-01-05T13:26:11.414Z</time>
      </trkpt>
      <trkpt lat="39.58376" lon="2.66539">
        <ele>75.724091</ele>
        <time>2023-01-05T13:26:14.427Z</time>
      </trkpt>
      <trkpt lat="39.5837" lon="2.66524">
        <ele>75.79489</ele>
        <time>2023-01-05T13:26:17.430Z</time>
      </trkpt>
      <trkpt lat="39.58365" lon="2.66514">
        <ele>75.843943</ele>
        <time>2023-01-05T13:26:19.424Z</time>
      </trkpt>
      <trkpt lat="39.58356" lon="2.66501">
        <ele>75.915395</ele>
        <time>2023-01-05T13:26:22.437Z</time>
      </trkpt>
      <trkpt lat="39.58347" lon="2.6649">
        <ele>75.984411</ele>
        <time>2023-01-05T13:26:25.410Z</time>
      </trkpt>
      <trkpt lat="39.58338" lon="2.66477">
        <ele>76.054156</ele>
        <time>2023-01-05T13:26:28.420Z</time>
      </trkpt>
      <trkpt lat="39.58329" lon="2.66466">
        <ele>76.123351</ele>
        <time>2023-01-05T13:26:31.440Z</time>
      </trkpt>
      <trkpt lat="39.5832" lon="2.66452">
        <ele>76.195466</ele>
        <time>2023-01-05T13:26:34.432Z</time>
      </trkpt>
      <trkpt lat="39.58314" lon="2.66443">
        <ele>76.246548</ele>
        <time>2023-01-05T13:26:36.421Z</time>
      </trkpt>
      <trkpt lat="39.58308" lon="2.66434">
        <ele>76.295533</ele>
        <time>2023-01-05T13:26:38.429Z</time>
      </trkpt>
      <trkpt lat="39.58302" lon="2.66425">
        <ele>76.343763</ele>
        <time>2023-01-05T13:26:40.422Z</time>
      </trkpt>
      <trkpt lat="39.58293" lon="2.66413">
        <ele>76.30268</ele>
        <time>2023-01-05T13:26:43.412Z</time>
      </trkpt>
      <trkpt lat="39.58284" lon="2.66401">
        <ele>76.262416</ele>
        <time>2023-01-05T13:26:46.428Z</time>
      </trkpt>
      <trkpt lat="39.58276" lon="2.66387">
        <ele>76.221358</ele>
        <time>2023-01-05T13:26:49.425Z</time>
      </trkpt>
      <trkpt lat="39.5827" lon="2.66378">
        <ele>76.192387</ele>
        <time>2023-01-05T13:26:51.416Z</time>
      </trkpt>
      <trkpt lat="39.58264" lon="2.66369">
        <ele>76.16321</ele>
        <time>2023-01-05T13:26:53.428Z</time>
      </trkpt>
      <trkpt lat="39.58256" lon="2.66355">
        <ele>76.121954</ele>
        <time>2023-01-05T13:26:56.425Z</time>
      </trkpt>
      <trkpt lat="39.58247" lon="2.66343">
        <ele>76.081301</ele>
        <time>2023-01-05T13:26:59.444Z</time>
      </trkpt>
      <trkpt lat="39.58241" lon="2.66334">
        <ele>76.051101</ele>
        <time>2023-01-05T13:27:01.438Z</time>
      </trkpt>
      <trkpt lat="39.58234" lon="2.66324">
        <ele>76.020148</ele>
        <time>2023-01-05T13:27:03.415Z</time>
      </trkpt>
      <trkpt lat="39.58228" lon="2.66315">
        <ele>75.990179</ele>
        <time>2023-01-05T13:27:05.450Z</time>
      </trkpt>
      <trkpt lat="39.58222" lon="2.66305">
        <ele>75.959198</ele>
        <time>2023-01-05T13:27:07.451Z</time>
      </trkpt>
      <trkpt lat="39.58214" lon="2.66296">
        <ele>75.927944</ele>
        <time>2023-01-05T13:27:09.442Z</time>
      </trkpt>
      <trkpt lat="39.58207" lon="2.66287">
        <ele>75.894776</ele>
        <time>2023-01-05T13:27:11.421Z</time>
      </trkpt>
      <trkpt lat="39.582" lon="2.66277">
        <ele>75.862722</ele>
        <time>2023-01-05T13:27:13.416Z</time>
      </trkpt>
      <trkpt lat="39.58193" lon="2.66268">
        <ele>75.830569</ele>
        <time>2023-01-05T13:27:15.425Z</time>
      </trkpt>
      <trkpt lat="39.58186" lon="2.66258">
        <ele>75.799269</ele>
        <time>2023-01-05T13:27:17.434Z</time>
      </trkpt>
      <trkpt lat="39.5818" lon="2.66248">
        <ele>75.775366</ele>
        <time>2023-01-05T13:27:19.433Z</time>
      </trkpt>
      <trkpt lat="39.58173" lon="2.66238">
        <ele>75.765009</ele>
        <time>2023-01-05T13:27:21.447Z</time>
      </trkpt>
      <trkpt lat="39.58167" lon="2.66229">
        <ele>75.754865</ele>
        <time>2023-01-05T13:27:23.423Z</time>
      </trkpt>
      <trkpt lat="39.5816" lon="2.66219">
        <ele>75.744664</ele>
        <time>2023-01-05T13:27:25.421Z</time>
      </trkpt>
      <trkpt lat="39.58151" lon="2.66206">
        <ele>75.73074</ele>
        <time>2023-01-05T13:27:28.434Z</time>
      </trkpt>
      <trkpt lat="39.58145" lon="2.66198">
        <ele>75.721215</ele>
        <time>2023-01-05T13:27:30.426Z</time>
      </trkpt>
      <trkpt lat="39.58138" lon="2.66189">
        <ele>75.711656</ele>
        <time>2023-01-05T13:27:32.423Z</time>
      </trkpt>
      <trkpt lat="39.5813" lon="2.66176">
        <ele>75.697757</ele>
        <time>2023-01-05T13:27:35.419Z</time>
      </trkpt>
      <trkpt lat="39.5812" lon="2.66163">
        <ele>75.683741</ele>
        <time>2023-01-05T13:27:38.421Z</time>
      </trkpt>
      <trkpt lat="39.58114" lon="2.66154">
        <ele>75.674299</ele>
        <time>2023-01-05T13:27:40.434Z</time>
      </trkpt>
      <trkpt lat="39.58108" lon="2.66144">
        <ele>75.664451</ele>
        <time>2023-01-05T13:27:42.445Z</time>
      </trkpt>
      <trkpt lat="39.58102" lon="2.66135">
        <ele>75.65421</ele>
        <time>2023-01-05T13:27:44.439Z</time>
      </trkpt>
      <trkpt lat="39.58093" lon="2.66122">
        <ele>75.64038</ele>
        <time>2023-01-05T13:27:47.420Z</time>
      </trkpt>
      <trkpt lat="39.58084" lon="2.66109">
        <ele>75.626868</ele>
        <time>2023-01-05T13:27:50.424Z</time>
      </trkpt>
      <trkpt lat="39.58074" lon="2.66098">
        <ele>75.613599</ele>
        <time>2023-01-05T13:27:53.413Z</time>
      </trkpt>
      <trkpt lat="39.58064" lon="2.66086">
        <ele>75.599517</ele>
        <time>2023-01-05T13:27:56.425Z</time>
      </trkpt>
      <trkpt lat="39.58056" lon="2.66073">
        <ele>75.63797</ele>
        <time>2023-01-05T13:27:59.407Z</time>
      </trkpt>
      <trkpt lat="39.5805" lon="2.66064">
        <ele>75.698279</ele>
        <time>2023-01-05T13:28:01.429Z</time>
      </trkpt>
      <trkpt lat="39.58044" lon="2.66056">
        <ele>75.759585</ele>
        <time>2023-01-05T13:28:03.438Z</time>
      </trkpt>
      <trkpt lat="39.58037" lon="2.66047">
        <ele>75.822536</ele>
        <time>2023-01-05T13:28:05.425Z</time>
      </trkpt>
      <trkpt lat="39.58031" lon="2.66038">
        <ele>75.883709</ele>
        <time>2023-01-05T13:28:07.434Z</time>
      </trkpt>
      <trkpt lat="39.58022" lon="2.66024">
        <ele>75.976475</ele>
        <time>2023-01-05T13:28:10.431Z</time>
      </trkpt>
      <trkpt lat="39.58016" lon="2.66016">
        <ele>76.03649</ele>
        <time>2023-01-05T13:28:12.448Z</time>
      </trkpt>
      <trkpt lat="39.58007" lon="2.66004">
        <ele>76.122198</ele>
        <time>2023-01-05T13:28:15.423Z</time>
      </trkpt>
      <trkpt lat="39.57999" lon="2.65992">
        <ele>76.20448</ele>
        <time>2023-01-05T13:28:18.427Z</time>
      </trkpt>
      <trkpt lat="39.57991" lon="2.65983">
        <ele>76.269617</ele>
        <time>2023-01-05T13:28:25.421Z</time>
      </trkpt>
      <trkpt lat="39.57984" lon="2.65973">
        <ele>76.344349</ele>
        <time>2023-01-05T13:29:16.416Z</time>
      </trkpt>
      <trkpt lat="39.57975" lon="2.65962">
        <ele>76.421925</ele>
        <time>2023-01-05T13:29:20.434Z</time>
      </trkpt>
      <trkpt lat="39.57969" lon="2.65952">
        <ele>76.490742</ele>
        <time>2023-01-05T13:29:23.404Z</time>
      </trkpt>
      <trkpt lat="39.57962" lon="2.65941">
        <ele>76.563651</ele>
        <time>2023-01-05T13:29:26.408Z</time>
      </trkpt>
      <trkpt lat="39.57956" lon="2.6593">
        <ele>76.636538</ele>
        <time>2023-01-05T13:29:29.424Z</time>
      </trkpt>
      <trkpt lat="39.57948" lon="2.65917">
        <ele>76.717973</ele>
        <time>2023-01-05T13:29:32.411Z</time>
      </trkpt>
      <trkpt lat="39.5794" lon="2.65906">
        <ele>76.783851</ele>
        <time>2023-01-05T13:29:35.424Z</time>
      </trkpt>
      <trkpt lat="39.57931" lon="2.65894">
        <ele>76.667511</ele>
        <time>2023-01-05T13:29:38.428Z</time>
      </trkpt>
      <trkpt lat="39.57922" lon="2.65883">
        <ele>76.550219</ele>
        <time>2023-01-05T13:29:41.427Z</time>
      </trkpt>
      <trkpt lat="39.57914" lon="2.65873">
        <ele>76.44498</ele>
        <time>2023-01-05T13:29:44.427Z</time>
      </trkpt>
      <trkpt lat="39.57906" lon="2.65862">
        <ele>76.332058</ele>
        <time>2023-01-05T13:29:47.437Z</time>
      </trkpt>
      <trkpt lat="39.57899" lon="2.65851">
        <ele>76.224824</ele>
        <time>2023-01-05T13:29:50.426Z</time>
      </trkpt>
      <trkpt lat="39.57892" lon="2.65841">
        <ele>76.12886</ele>
        <time>2023-01-05T13:29:53.429Z</time>
      </trkpt>
      <trkpt lat="39.57884" lon="2.6583">
        <ele>76.017555</ele>
        <time>2023-01-05T13:29:57.426Z</time>
      </trkpt>
      <trkpt lat="39.57873" lon="2.65834">
        <ele>75.913463</ele>
        <time>2023-01-05T13:30:01.406Z</time>
      </trkpt>
      <trkpt lat="39.57866" lon="2.65844">
        <ele>75.814675</ele>
        <time>2023-01-05T13:30:04.421Z</time>
      </trkpt>
      <trkpt lat="39.57858" lon="2.65851">
        <ele>75.721244</ele>
        <time>2023-01-05T13:30:07.411Z</time>
      </trkpt>
      <trkpt lat="39.5785" lon="2.65844">
        <ele>75.633291</ele>
        <time>2023-01-05T13:30:10.429Z</time>
      </trkpt>
      <trkpt lat="39.57841" lon="2.6584">
        <ele>75.541601</ele>
        <time>2023-01-05T13:30:13.424Z</time>
      </trkpt>
      <trkpt lat="39.57833" lon="2.65832">
        <ele>75.448425</ele>
        <time>2023-01-05T13:30:16.438Z</time>
      </trkpt>
      <trkpt lat="39.57826" lon="2.65821">
        <ele>75.341882</ele>
        <time>2023-01-05T13:30:19.418Z</time>
      </trkpt>
      <trkpt lat="39.57817" lon="2.65809">
        <ele>75.222516</ele>
        <time>2023-01-05T13:30:22.431Z</time>
      </trkpt>
      <trkpt lat="39.57809" lon="2.65796">
        <ele>75.099888</ele>
        <time>2023-01-05T13:30:25.414Z</time>
      </trkpt>
      <trkpt lat="39.578" lon="2.65783">
        <ele>74.978674</ele>
        <time>2023-01-05T13:30:28.428Z</time>
      </trkpt>
      <trkpt lat="39.57794" lon="2.65775">
        <ele>74.893485</ele>
        <time>2023-01-05T13:30:30.428Z</time>
      </trkpt>
      <trkpt lat="39.57786" lon="2.65762">
        <ele>74.772351</ele>
        <time>2023-01-05T13:30:33.417Z</time>
      </trkpt>
      <trkpt lat="39.57778" lon="2.65751">
        <ele>74.660513</ele>
        <time>2023-01-05T13:30:36.424Z</time>
      </trkpt>
      <trkpt lat="39.5777" lon="2.65739">
        <ele>74.555277</ele>
        <time>2023-01-05T13:30:39.423Z</time>
      </trkpt>
      <trkpt lat="39.57765" lon="2.65727">
        <ele>74.453726</ele>
        <time>2023-01-05T13:30:42.417Z</time>
      </trkpt>
      <trkpt lat="39.57759" lon="2.65713">
        <ele>74.339436</ele>
        <time>2023-01-05T13:30:45.436Z</time>
      </trkpt>
      <trkpt lat="39.57749" lon="2.65704">
        <ele>74.223351</ele>
        <time>2023-01-05T13:30:48.421Z</time>
      </trkpt>
      <trkpt lat="39.57742" lon="2.65696">
        <ele>74.139011</ele>
        <time>2023-01-05T13:30:50.420Z</time>
      </trkpt>
      <trkpt lat="39.57735" lon="2.65688">
        <ele>74.054052</ele>
        <time>2023-01-05T13:30:52.423Z</time>
      </trkpt>
      <trkpt lat="39.57728" lon="2.6568">
        <ele>73.96645</ele>
        <time>2023-01-05T13:30:54.435Z</time>
      </trkpt>
      <trkpt lat="39.57721" lon="2.65668">
        <ele>73.857223</ele>
        <time>2023-01-05T13:30:57.417Z</time>
      </trkpt>
      <trkpt lat="39.57713" lon="2.65655">
        <ele>73.742915</ele>
        <time>2023-01-05T13:31:00.421Z</time>
      </trkpt>
      <trkpt lat="39.57704" lon="2.65645">
        <ele>73.628989</ele>
        <time>2023-01-05T13:31:03.421Z</time>
      </trkpt>
      <trkpt lat="39.57696" lon="2.65638">
        <ele>73.540273</ele>
        <time>2023-01-05T13:31:05.411Z</time>
      </trkpt>
      <trkpt lat="39.57685" lon="2.6563">
        <ele>73.421371</ele>
        <time>2023-01-05T13:31:08.406Z</time>
      </trkpt>
      <trkpt lat="39.57675" lon="2.6562">
        <ele>73.40416</ele>
        <time>2023-01-05T13:31:11.405Z</time>
      </trkpt>
      <trkpt lat="39.57667" lon="2.65607">
        <ele>73.394726</ele>
        <time>2023-01-05T13:31:14.423Z</time>
      </trkpt>
      <trkpt lat="39.57658" lon="2.65596">
        <ele>73.385131</ele>
        <time>2023-01-05T13:31:17.414Z</time>
      </trkpt>
      <trkpt lat="39.5765" lon="2.65584">
        <ele>73.375696</ele>
        <time>2023-01-05T13:31:20.423Z</time>
      </trkpt>
      <trkpt lat="39.57644" lon="2.6557">
        <ele>73.366092</ele>
        <time>2023-01-05T13:31:23.419Z</time>
      </trkpt>
      <trkpt lat="39.57637" lon="2.65556">
        <ele>73.356274</ele>
        <time>2023-01-05T13:31:26.429Z</time>
      </trkpt>
      <trkpt lat="39.57629" lon="2.65542">
        <ele>73.34614</ele>
        <time>2023-01-05T13:31:29.444Z</time>
      </trkpt>
      <trkpt lat="39.57623" lon="2.65533">
        <ele>73.339216</ele>
        <time>2023-01-05T13:31:31.420Z</time>
      </trkpt>
      <trkpt lat="39.57613" lon="2.65526">
        <ele>73.330694</ele>
        <time>2023-01-05T13:31:34.414Z</time>
      </trkpt>
      <trkpt lat="39.57604" lon="2.65523">
        <ele>73.32317</ele>
        <time>2023-01-05T13:31:37.421Z</time>
      </trkpt>
      <trkpt lat="39.57594" lon="2.65516">
        <ele>73.314992</ele>
        <time>2023-01-05T13:31:40.411Z</time>
      </trkpt>
      <trkpt lat="39.57588" lon="2.65505">
        <ele>73.30696</ele>
        <time>2023-01-05T13:31:43.419Z</time>
      </trkpt>
      <trkpt lat="39.57582" lon="2.65494">
        <ele>73.299299</ele>
        <time>2023-01-05T13:31:46.424Z</time>
      </trkpt>
      <trkpt lat="39.57575" lon="2.65483">
        <ele>73.290939</ele>
        <time>2023-01-05T13:31:49.411Z</time>
      </trkpt>
      <trkpt lat="39.57567" lon="2.65473">
        <ele>73.282504</ele>
        <time>2023-01-05T13:31:52.433Z</time>
      </trkpt>
      <trkpt lat="39.57563" lon="2.65462">
        <ele>73.262881</ele>
        <time>2023-01-05T13:31:56.406Z</time>
      </trkpt>
      <trkpt lat="39.5757" lon="2.65454">
        <ele>73.143837</ele>
        <time>2023-01-05T13:32:00.430Z</time>
      </trkpt>
      <trkpt lat="39.57569" lon="2.65441">
        <ele>73.021033</ele>
        <time>2023-01-05T13:32:05.407Z</time>
      </trkpt>
      <trkpt lat="39.57563" lon="2.6543">
        <ele>72.895163</ele>
        <time>2023-01-05T13:32:09.439Z</time>
      </trkpt>
      <trkpt lat="39.57554" lon="2.65421">
        <ele>72.757452</ele>
        <time>2023-01-05T13:32:13.426Z</time>
      </trkpt>
      <trkpt lat="39.57547" lon="2.65413">
        <ele>72.647609</ele>
        <time>2023-01-05T13:32:16.439Z</time>
      </trkpt>
      <trkpt lat="39.57538" lon="2.65418">
        <ele>72.52929</ele>
        <time>2023-01-05T13:32:20.420Z</time>
      </trkpt>
      <trkpt lat="39.57528" lon="2.65424">
        <ele>72.399</ele>
        <time>2023-01-05T13:32:24.437Z</time>
      </trkpt>
      <trkpt lat="39.5752" lon="2.65414">
        <ele>72.263747</ele>
        <time>2023-01-05T13:32:28.432Z</time>
      </trkpt>
      <trkpt lat="39.57513" lon="2.65407">
        <ele>72.152666</ele>
        <time>2023-01-05T13:32:31.423Z</time>
      </trkpt>
      <trkpt lat="39.57506" lon="2.65398">
        <ele>72.035841</ele>
        <time>2023-01-05T13:32:34.421Z</time>
      </trkpt>
      <trkpt lat="39.57499" lon="2.65389">
        <ele>71.921499</ele>
        <time>2023-01-05T13:32:37.420Z</time>
      </trkpt>
      <trkpt lat="39.575" lon="2.65377">
        <ele>71.810235</ele>
        <time>2023-01-05T13:32:40.412Z</time>
      </trkpt>
      <trkpt lat="39.57507" lon="2.65368">
        <ele>71.684518</ele>
        <time>2023-01-05T13:32:43.408Z</time>
      </trkpt>
      <trkpt lat="39.57514" lon="2.65359">
        <ele>71.567818</ele>
        <time>2023-01-05T13:32:46.445Z</time>
      </trkpt>
      <trkpt lat="39.57524" lon="2.65352">
        <ele>71.437915</ele>
        <time>2023-01-05T13:32:49.417Z</time>
      </trkpt>
      <trkpt lat="39.57532" lon="2.65344">
        <ele>71.317135</ele>
        <time>2023-01-05T13:32:52.414Z</time>
      </trkpt>
      <trkpt lat="39.5754" lon="2.65336">
        <ele>71.194843</ele>
        <time>2023-01-05T13:32:55.421Z</time>
      </trkpt>
      <trkpt lat="39.57547" lon="2.65326">
        <ele>71.187841</ele>
        <time>2023-01-05T13:32:58.433Z</time>
      </trkpt>
      <trkpt lat="39.57555" lon="2.65318">
        <ele>71.359425</ele>
        <time>2023-01-05T13:33:01.424Z</time>
      </trkpt>
      <trkpt lat="39.57564" lon="2.6531">
        <ele>71.527995</ele>
        <time>2023-01-05T13:33:04.430Z</time>
      </trkpt>
      <trkpt lat="39.57571" lon="2.653">
        <ele>71.691702</ele>
        <time>2023-01-05T13:33:07.418Z</time>
      </trkpt>
      <trkpt lat="39.5758" lon="2.6529">
        <ele>71.869395</ele>
        <time>2023-01-05T13:33:10.439Z</time>
      </trkpt>
      <trkpt lat="39.57586" lon="2.65279">
        <ele>72.029351</ele>
        <time>2023-01-05T13:33:13.414Z</time>
      </trkpt>
      <trkpt lat="39.57593" lon="2.6527">
        <ele>72.187896</ele>
        <time>2023-01-05T13:33:16.420Z</time>
      </trkpt>
      <trkpt lat="39.57601" lon="2.65259">
        <ele>72.370047</ele>
        <time>2023-01-05T13:33:20.421Z</time>
      </trkpt>
      <trkpt lat="39.57608" lon="2.65252">
        <ele>72.511417</ele>
        <time>2023-01-05T13:33:23.415Z</time>
      </trkpt>
      <trkpt lat="39.57616" lon="2.65245">
        <ele>72.662296</ele>
        <time>2023-01-05T13:33:27.423Z</time>
      </trkpt>
      <trkpt lat="39.57627" lon="2.65239">
        <ele>72.847114</ele>
        <time>2023-01-05T13:33:31.403Z</time>
      </trkpt>
      <trkpt lat="39.57637" lon="2.65238">
        <ele>72.999764</ele>
        <time>2023-01-05T13:33:35.428Z</time>
      </trkpt>
      <trkpt lat="39.57637" lon="2.65226">
        <ele>73.149774</ele>
        <time>2023-01-05T13:33:49.411Z</time>
      </trkpt>
      <trkpt lat="39.57635" lon="2.65214">
        <ele>73.292852</ele>
        <time>2023-01-05T13:33:52.417Z</time>
      </trkpt>
      <trkpt lat="39.57634" lon="2.652">
        <ele>73.461518</ele>
        <time>2023-01-05T13:33:55.423Z</time>
      </trkpt>
      <trkpt lat="39.57632" lon="2.65183">
        <ele>73.674013</ele>
        <time>2023-01-05T13:33:58.421Z</time>
      </trkpt>
      <trkpt lat="39.57631" lon="2.65168">
        <ele>73.856363</ele>
        <time>2023-01-05T13:34:00.413Z</time>
      </trkpt>
      <trkpt lat="39.57631" lon="2.65155">
        <ele>73.878176</ele>
        <time>2023-01-05T13:34:02.446Z</time>
      </trkpt>
      <trkpt lat="39.57631" lon="2.65142">
        <ele>73.711654</ele>
        <time>2023-01-05T13:34:04.404Z</time>
      </trkpt>
      <trkpt lat="39.57629" lon="2.6513">
        <ele>73.555264</ele>
        <time>2023-01-05T13:34:06.416Z</time>
      </trkpt>
      <trkpt lat="39.57627" lon="2.65118">
        <ele>73.400473</ele>
        <time>2023-01-05T13:34:08.404Z</time>
      </trkpt>
      <trkpt lat="39.57627" lon="2.65102">
        <ele>73.188206</ele>
        <time>2023-01-05T13:34:11.400Z</time>
      </trkpt>
      <trkpt lat="39.57624" lon="2.65085">
        <ele>72.977302</ele>
        <time>2023-01-05T13:34:14.420Z</time>
      </trkpt>
      <trkpt lat="39.57622" lon="2.65073">
        <ele>72.822614</ele>
        <time>2023-01-05T13:34:16.414Z</time>
      </trkpt>
      <trkpt lat="39.57618" lon="2.65057">
        <ele>72.602456</ele>
        <time>2023-01-05T13:34:19.401Z</time>
      </trkpt>
      <trkpt lat="39.57615" lon="2.65046">
        <ele>72.44882</ele>
        <time>2023-01-05T13:34:21.421Z</time>
      </trkpt>
      <trkpt lat="39.57616" lon="2.65033">
        <ele>72.285136</ele>
        <time>2023-01-05T13:34:23.426Z</time>
      </trkpt>
      <trkpt lat="39.57616" lon="2.65021">
        <ele>72.128814</ele>
        <time>2023-01-05T13:34:25.402Z</time>
      </trkpt>
      <trkpt lat="39.57614" lon="2.65004">
        <ele>71.918283</ele>
        <time>2023-01-05T13:34:28.415Z</time>
      </trkpt>
      <trkpt lat="39.57612" lon="2.64991">
        <ele>71.747622</ele>
        <time>2023-01-05T13:34:31.417Z</time>
      </trkpt>
      <trkpt lat="39.57608" lon="2.64978">
        <ele>71.571331</ele>
        <time>2023-01-05T13:34:34.428Z</time>
      </trkpt>
      <trkpt lat="39.57614" lon="2.64967">
        <ele>71.401102</ele>
        <time>2023-01-05T13:34:39.410Z</time>
      </trkpt>
      <trkpt lat="39.57624" lon="2.64963">
        <ele>71.230506</ele>
        <time>2023-01-05T13:34:43.427Z</time>
      </trkpt>
      <trkpt lat="39.57627" lon="2.64948">
        <ele>71.028137</ele>
        <time>2023-01-05T13:34:47.417Z</time>
      </trkpt>
      <trkpt lat="39.57624" lon="2.64934">
        <ele>70.682298</ele>
        <time>2023-01-05T13:34:50.452Z</time>
      </trkpt>
      <trkpt lat="39.57622" lon="2.64923">
        <ele>70.35313</ele>
        <time>2023-01-05T13:34:52.421Z</time>
      </trkpt>
      <trkpt lat="39.57619" lon="2.64911">
        <ele>70.014639</ele>
        <time>2023-01-05T13:34:54.416Z</time>
      </trkpt>
      <trkpt lat="39.57615" lon="2.64894">
        <ele>69.520214</ele>
        <time>2023-01-05T13:34:57.414Z</time>
      </trkpt>
      <trkpt lat="39.57612" lon="2.64882">
        <ele>69.17269</ele>
        <time>2023-01-05T13:34:59.419Z</time>
      </trkpt>
      <trkpt lat="39.57609" lon="2.6487">
        <ele>68.815666</ele>
        <time>2023-01-05T13:35:01.411Z</time>
      </trkpt>
      <trkpt lat="39.57607" lon="2.64857">
        <ele>68.45707</ele>
        <time>2023-01-05T13:35:03.435Z</time>
      </trkpt>
      <trkpt lat="39.57604" lon="2.64844">
        <ele>68.075632</ele>
        <time>2023-01-05T13:35:06.437Z</time>
      </trkpt>
      <trkpt lat="39.57602" lon="2.6483">
        <ele>67.69133</ele>
        <time>2023-01-05T13:35:09.435Z</time>
      </trkpt>
      <trkpt lat="39.57598" lon="2.64817">
        <ele>67.298613</ele>
        <time>2023-01-05T13:35:12.403Z</time>
      </trkpt>
      <trkpt lat="39.57595" lon="2.64805">
        <ele>66.937872</ele>
        <time>2023-01-05T13:35:16.427Z</time>
      </trkpt>
      <trkpt lat="39.57593" lon="2.64793">
        <ele>66.600869</ele>
        <time>2023-01-05T13:35:23.419Z</time>
      </trkpt>
      <trkpt lat="39.5759" lon="2.64778">
        <ele>66.17421</ele>
        <time>2023-01-05T13:35:40.429Z</time>
      </trkpt>
      <trkpt lat="39.57586" lon="2.64765">
        <ele>65.795417</ele>
        <time>2023-01-05T13:35:43.399Z</time>
      </trkpt>
      <trkpt lat="39.57584" lon="2.64751">
        <ele>65.40545</ele>
        <time>2023-01-05T13:35:46.407Z</time>
      </trkpt>
      <trkpt lat="39.57581" lon="2.64738">
        <ele>65.017627</ele>
        <time>2023-01-05T13:35:49.424Z</time>
      </trkpt>
      <trkpt lat="39.57585" lon="2.64725">
        <ele>64.630317</ele>
        <time>2023-01-05T13:35:53.425Z</time>
      </trkpt>
      <trkpt lat="39.57584" lon="2.647">
        <ele>64.618643</ele>
        <time>2023-01-05T13:36:36.414Z</time>
      </trkpt>
      <trkpt lat="39.57581" lon="2.64689">
        <ele>64.688947</ele>
        <time>2023-01-05T13:36:39.426Z</time>
      </trkpt>
      <trkpt lat="39.57579" lon="2.64676">
        <ele>64.762784</ele>
        <time>2023-01-05T13:36:42.416Z</time>
      </trkpt>
      <trkpt lat="39.57575" lon="2.64663">
        <ele>64.844555</ele>
        <time>2023-01-05T13:36:45.419Z</time>
      </trkpt>
      <trkpt lat="39.57572" lon="2.6465">
        <ele>64.922837</ele>
        <time>2023-01-05T13:36:48.414Z</time>
      </trkpt>
      <trkpt lat="39.57569" lon="2.64638">
        <ele>64.993778</ele>
        <time>2023-01-05T13:36:51.427Z</time>
      </trkpt>
      <trkpt lat="39.57567" lon="2.64623">
        <ele>65.079819</ele>
        <time>2023-01-05T13:36:55.417Z</time>
      </trkpt>
      <trkpt lat="39.57563" lon="2.64609">
        <ele>65.168126</ele>
        <time>2023-01-05T13:36:59.418Z</time>
      </trkpt>
      <trkpt lat="39.57561" lon="2.64594">
        <ele>65.252216</ele>
        <time>2023-01-05T13:37:03.394Z</time>
      </trkpt>
      <trkpt lat="39.5756" lon="2.64578">
        <ele>65.344514</ele>
        <time>2023-01-05T13:37:07.426Z</time>
      </trkpt>
      <trkpt lat="39.57559" lon="2.64564">
        <ele>65.427418</ele>
        <time>2023-01-05T13:37:10.418Z</time>
      </trkpt>
      <trkpt lat="39.57557" lon="2.64552">
        <ele>65.501259</ele>
        <time>2023-01-05T13:37:13.420Z</time>
      </trkpt>
      <trkpt lat="39.57555" lon="2.64539">
        <ele>65.575491</ele>
        <time>2023-01-05T13:37:16.424Z</time>
      </trkpt>
      <trkpt lat="39.57554" lon="2.64524">
        <ele>65.662256</ele>
        <time>2023-01-05T13:37:20.413Z</time>
      </trkpt>
      <trkpt lat="39.57561" lon="2.64512">
        <ele>65.749229</ele>
        <time>2023-01-05T13:37:24.412Z</time>
      </trkpt>
      <trkpt lat="39.5757" lon="2.64501">
        <ele>65.837936</ele>
        <time>2023-01-05T13:37:28.431Z</time>
      </trkpt>
      <trkpt lat="39.57577" lon="2.64492">
        <ele>66.231343</ele>
        <time>2023-01-05T13:37:33.427Z</time>
      </trkpt>
      <trkpt lat="39.57576" lon="2.6448">
        <ele>66.630816</ele>
        <time>2023-01-05T13:37:39.426Z</time>
      </trkpt>
      <trkpt lat="39.57574" lon="2.64467">
        <ele>67.072859</ele>
        <time>2023-01-05T13:37:45.420Z</time>
      </trkpt>
      <trkpt lat="39.57565" lon="2.64461">
        <ele>67.48806</ele>
        <time>2023-01-05T13:37:49.429Z</time>
      </trkpt>
      <trkpt lat="39.57556" lon="2.64459">
        <ele>67.895166</ele>
        <time>2023-01-05T13:37:52.416Z</time>
      </trkpt>
      <trkpt lat="39.57545" lon="2.64454">
        <ele>68.391014</ele>
        <time>2023-01-05T13:37:55.428Z</time>
      </trkpt>
      <trkpt lat="39.57534" lon="2.64452">
        <ele>68.859908</ele>
        <time>2023-01-05T13:37:58.405Z</time>
      </trkpt>
      <trkpt lat="39.57523" lon="2.64448">
        <ele>69.36856</ele>
        <time>2023-01-05T13:38:01.426Z</time>
      </trkpt>
      <trkpt lat="39.57511" lon="2.64446">
        <ele>69.872367</ele>
        <time>2023-01-05T13:38:04.443Z</time>
      </trkpt>
      <trkpt lat="39.57499" lon="2.64443">
        <ele>70.40734</ele>
        <time>2023-01-05T13:38:07.418Z</time>
      </trkpt>
      <trkpt lat="39.5749" lon="2.6444">
        <ele>70.800025</ele>
        <time>2023-01-05T13:38:09.435Z</time>
      </trkpt>
      <trkpt lat="39.57478" lon="2.64435">
        <ele>71.329675</ele>
        <time>2023-01-05T13:38:12.442Z</time>
      </trkpt>
      <trkpt lat="39.57466" lon="2.64429">
        <ele>71.897522</ele>
        <time>2023-01-05T13:38:15.423Z</time>
      </trkpt>
      <trkpt lat="39.57453" lon="2.64424">
        <ele>72.447171</ele>
        <time>2023-01-05T13:38:18.399Z</time>
      </trkpt>
      <trkpt lat="39.57441" lon="2.6442">
        <ele>73.006418</ele>
        <time>2023-01-05T13:38:21.431Z</time>
      </trkpt>
      <trkpt lat="39.57432" lon="2.64418">
        <ele>73.402537</ele>
        <time>2023-01-05T13:38:23.432Z</time>
      </trkpt>
      <trkpt lat="39.57423" lon="2.64414">
        <ele>73.413957</ele>
        <time>2023-01-05T13:38:25.415Z</time>
      </trkpt>
      <trkpt lat="39.57414" lon="2.64411">
        <ele>73.224752</ele>
        <time>2023-01-05T13:38:27.424Z</time>
      </trkpt>
      <trkpt lat="39.57406" lon="2.64406">
        <ele>73.037175</ele>
        <time>2023-01-05T13:38:32.433Z</time>
      </trkpt>
      <trkpt lat="39.57397" lon="2.64401">
        <ele>72.839423</ele>
        <time>2023-01-05T13:38:37.417Z</time>
      </trkpt>
      <trkpt lat="39.5739" lon="2.64392">
        <ele>72.638607</ele>
        <time>2023-01-05T13:38:40.427Z</time>
      </trkpt>
      <trkpt lat="39.57383" lon="2.64381">
        <ele>72.404727</ele>
        <time>2023-01-05T13:38:43.413Z</time>
      </trkpt>
      <trkpt lat="39.57375" lon="2.64368">
        <ele>72.150628</ele>
        <time>2023-01-05T13:38:46.417Z</time>
      </trkpt>
      <trkpt lat="39.57369" lon="2.64359">
        <ele>71.957097</ele>
        <time>2023-01-05T13:38:48.421Z</time>
      </trkpt>
      <trkpt lat="39.57364" lon="2.6435">
        <ele>71.76998</ele>
        <time>2023-01-05T13:38:50.424Z</time>
      </trkpt>
      <trkpt lat="39.57355" lon="2.64337">
        <ele>71.494174</ele>
        <time>2023-01-05T13:38:53.417Z</time>
      </trkpt>
      <trkpt lat="39.57349" lon="2.64327">
        <ele>71.289417</ele>
        <time>2023-01-05T13:38:55.422Z</time>
      </trkpt>
      <trkpt lat="39.57344" lon="2.64316">
        <ele>71.0835</ele>
        <time>2023-01-05T13:38:57.429Z</time>
      </trkpt>
      <trkpt lat="39.57338" lon="2.64306">
        <ele>70.890053</ele>
        <time>2023-01-05T13:38:59.430Z</time>
      </trkpt>
      <trkpt lat="39.57333" lon="2.64296">
        <ele>70.702912</ele>
        <time>2023-01-05T13:39:01.437Z</time>
      </trkpt>
      <trkpt lat="39.57325" lon="2.64282">
        <ele>70.430845</ele>
        <time>2023-01-05T13:39:04.444Z</time>
      </trkpt>
      <trkpt lat="39.57319" lon="2.64274">
        <ele>70.23919</ele>
        <time>2023-01-05T13:39:06.405Z</time>
      </trkpt>
      <trkpt lat="39.57313" lon="2.64264">
        <ele>70.036646</ele>
        <time>2023-01-05T13:39:08.423Z</time>
      </trkpt>
      <trkpt lat="39.57308" lon="2.64254">
        <ele>69.846435</ele>
        <time>2023-01-05T13:39:10.418Z</time>
      </trkpt>
      <trkpt lat="39.57298" lon="2.64242">
        <ele>69.545978</ele>
        <time>2023-01-05T13:39:13.408Z</time>
      </trkpt>
      <trkpt lat="39.57287" lon="2.64237">
        <ele>69.280607</ele>
        <time>2023-01-05T13:39:16.414Z</time>
      </trkpt>
      <trkpt lat="39.57276" lon="2.64236">
        <ele>69.023778</ele>
        <time>2023-01-05T13:39:19.412Z</time>
      </trkpt>
      <trkpt lat="39.57258" lon="2.6423">
        <ele>68.59648</ele>
        <time>2023-01-05T13:40:42.426Z</time>
      </trkpt>
      <trkpt lat="39.57246" lon="2.64226">
        <ele>68.321101</ele>
        <time>2023-01-05T13:40:46.407Z</time>
      </trkpt>
      <trkpt lat="39.57236" lon="2.64224">
        <ele>68.082413</ele>
        <time>2023-01-05T13:40:49.417Z</time>
      </trkpt>
      <trkpt lat="39.57225" lon="2.64224">
        <ele>67.837692</ele>
        <time>2023-01-05T13:40:52.414Z</time>
      </trkpt>
      <trkpt lat="39.57213" lon="2.64219">
        <ele>67.550824</ele>
        <time>2023-01-05T13:40:55.412Z</time>
      </trkpt>
      <trkpt lat="39.57204" lon="2.64217">
        <ele>67.327601</ele>
        <time>2023-01-05T13:40:57.416Z</time>
      </trkpt>
      <trkpt lat="39.5719" lon="2.64215">
        <ele>67.020559</ele>
        <time>2023-01-05T13:41:00.413Z</time>
      </trkpt>
      <trkpt lat="39.57178" lon="2.6421">
        <ele>66.729556</ele>
        <time>2023-01-05T13:41:03.428Z</time>
      </trkpt>
      <trkpt lat="39.57169" lon="2.64208">
        <ele>66.510729</ele>
        <time>2023-01-05T13:41:05.425Z</time>
      </trkpt>
      <trkpt lat="39.5716" lon="2.64208">
        <ele>66.302531</ele>
        <time>2023-01-05T13:41:07.409Z</time>
      </trkpt>
      <trkpt lat="39.5715" lon="2.64207">
        <ele>66.082673</ele>
        <time>2023-01-05T13:41:09.427Z</time>
      </trkpt>
      <trkpt lat="39.57138" lon="2.64204">
        <ele>65.802897</ele>
        <time>2023-01-05T13:41:12.417Z</time>
      </trkpt>
      <trkpt lat="39.57134" lon="2.64193">
        <ele>65.539811</ele>
        <time>2023-01-05T13:41:14.423Z</time>
      </trkpt>
      <trkpt lat="39.57137" lon="2.6418">
        <ele>65.197749</ele>
        <time>2023-01-05T13:41:17.419Z</time>
      </trkpt>
      <trkpt lat="39.57141" lon="2.64169">
        <ele>64.897618</ele>
        <time>2023-01-05T13:41:20.411Z</time>
      </trkpt>
      <trkpt lat="39.57144" lon="2.64154">
        <ele>64.523388</ele>
        <time>2023-01-05T13:41:24.469Z</time>
      </trkpt>
      <trkpt lat="39.57139" lon="2.64142">
        <ele>64.201491</ele>
        <time>2023-01-05T13:41:28.415Z</time>
      </trkpt>
      <trkpt lat="39.57129" lon="2.64133">
        <ele>63.810303</ele>
        <time>2023-01-05T13:41:31.402Z</time>
      </trkpt>
      <trkpt lat="39.57119" lon="2.64123">
        <ele>63.41516</ele>
        <time>2023-01-05T13:41:34.442Z</time>
      </trkpt>
      <trkpt lat="39.57109" lon="2.64113">
        <ele>62.997622</ele>
        <time>2023-01-05T13:41:37.436Z</time>
      </trkpt>
      <trkpt lat="39.57101" lon="2.64105">
        <ele>62.680547</ele>
        <time>2023-01-05T13:41:39.436Z</time>
      </trkpt>
      <trkpt lat="39.57092" lon="2.64097">
        <ele>62.352574</ele>
        <time>2023-01-05T13:41:41.435Z</time>
      </trkpt>
      <trkpt lat="39.57084" lon="2.64088">
        <ele>62.010301</ele>
        <time>2023-01-05T13:41:43.412Z</time>
      </trkpt>
      <trkpt lat="39.57076" lon="2.6408">
        <ele>61.667373</ele>
        <time>2023-01-05T13:41:45.419Z</time>
      </trkpt>
      <trkpt lat="39.57066" lon="2.64071">
        <ele>61.289462</ele>
        <time>2023-01-05T13:41:47.396Z</time>
      </trkpt>
      <trkpt lat="39.57056" lon="2.64062">
        <ele>60.903557</ele>
        <time>2023-01-05T13:41:49.423Z</time>
      </trkpt>
      <trkpt lat="39.57045" lon="2.64052">
        <ele>60.497573</ele>
        <time>2023-01-05T13:41:51.437Z</time>
      </trkpt>
      <trkpt lat="39.57034" lon="2.64041">
        <ele>60.055268</ele>
        <time>2023-01-05T13:41:53.427Z</time>
      </trkpt>
      <trkpt lat="39.57024" lon="2.64031">
        <ele>59.457468</ele>
        <time>2023-01-05T13:41:55.420Z</time>
      </trkpt>
      <trkpt lat="39.57014" lon="2.64022">
        <ele>58.891117</ele>
        <time>2023-01-05T13:41:57.427Z</time>
      </trkpt>
      <trkpt lat="39.57004" lon="2.64012">
        <ele>58.341994</ele>
        <time>2023-01-05T13:41:59.418Z</time>
      </trkpt>
      <trkpt lat="39.56996" lon="2.64004">
        <ele>57.837841</ele>
        <time>2023-01-05T13:42:01.420Z</time>
      </trkpt>
      <trkpt lat="39.56988" lon="2.63997">
        <ele>57.389935</ele>
        <time>2023-01-05T13:42:03.428Z</time>
      </trkpt>
      <trkpt lat="39.56981" lon="2.6399">
        <ele>56.957694</ele>
        <time>2023-01-05T13:42:05.428Z</time>
      </trkpt>
      <trkpt lat="39.56972" lon="2.63984">
        <ele>56.520429</ele>
        <time>2023-01-05T13:42:07.418Z</time>
      </trkpt>
      <trkpt lat="39.56963" lon="2.63976">
        <ele>55.9862</ele>
        <time>2023-01-05T13:42:10.425Z</time>
      </trkpt>
      <trkpt lat="39.56955" lon="2.63965">
        <ele>55.442386</ele>
        <time>2023-01-05T13:42:13.433Z</time>
      </trkpt>
      <trkpt lat="39.56947" lon="2.63958">
        <ele>54.978895</ele>
        <time>2023-01-05T13:42:16.412Z</time>
      </trkpt>
      <trkpt lat="39.56927" lon="2.63961">
        <ele>54.075791</ele>
        <time>2023-01-05T13:42:43.417Z</time>
      </trkpt>
      <trkpt lat="39.56926" lon="2.63949">
        <ele>53.631908</ele>
        <time>2023-01-05T13:42:48.416Z</time>
      </trkpt>
      <trkpt lat="39.56917" lon="2.63939">
        <ele>53.067645</ele>
        <time>2023-01-05T13:42:52.409Z</time>
      </trkpt>
      <trkpt lat="39.56908" lon="2.63929">
        <ele>52.512735</ele>
        <time>2023-01-05T13:42:55.419Z</time>
      </trkpt>
      <trkpt lat="39.569" lon="2.63918">
        <ele>51.981809</ele>
        <time>2023-01-05T13:42:58.443Z</time>
      </trkpt>
      <trkpt lat="39.56895" lon="2.63905">
        <ele>51.552075</ele>
        <time>2023-01-05T13:43:01.432Z</time>
      </trkpt>
      <trkpt lat="39.56895" lon="2.6389">
        <ele>51.435044</ele>
        <time>2023-01-05T13:43:04.424Z</time>
      </trkpt>
      <trkpt lat="39.56893" lon="2.63874">
        <ele>51.320345</ele>
        <time>2023-01-05T13:43:07.418Z</time>
      </trkpt>
      <trkpt lat="39.56892" lon="2.63858">
        <ele>51.198783</ele>
        <time>2023-01-05T13:43:10.413Z</time>
      </trkpt>
      <trkpt lat="39.56892" lon="2.63845">
        <ele>51.098852</ele>
        <time>2023-01-05T13:43:12.425Z</time>
      </trkpt>
      <trkpt lat="39.56892" lon="2.63831">
        <ele>50.995943</ele>
        <time>2023-01-05T13:43:14.428Z</time>
      </trkpt>
      <trkpt lat="39.56892" lon="2.63818">
        <ele>50.896828</ele>
        <time>2023-01-05T13:43:16.412Z</time>
      </trkpt>
      <trkpt lat="39.56892" lon="2.63804">
        <ele>50.797713</ele>
        <time>2023-01-05T13:43:18.419Z</time>
      </trkpt>
      <trkpt lat="39.56892" lon="2.63791">
        <ele>50.694836</ele>
        <time>2023-01-05T13:43:20.412Z</time>
      </trkpt>
      <trkpt lat="39.56892" lon="2.63778">
        <ele>50.598702</ele>
        <time>2023-01-05T13:43:22.419Z</time>
      </trkpt>
      <trkpt lat="39.56892" lon="2.63764">
        <ele>50.497337</ele>
        <time>2023-01-05T13:43:24.419Z</time>
      </trkpt>
      <trkpt lat="39.56892" lon="2.63751">
        <ele>50.400458</ele>
        <time>2023-01-05T13:43:26.414Z</time>
      </trkpt>
      <trkpt lat="39.56892" lon="2.63738">
        <ele>50.302819</ele>
        <time>2023-01-05T13:43:28.419Z</time>
      </trkpt>
      <trkpt lat="39.56891" lon="2.63726">
        <ele>50.210835</ele>
        <time>2023-01-05T13:43:30.424Z</time>
      </trkpt>
      <trkpt lat="39.5689" lon="2.63713">
        <ele>50.119737</ele>
        <time>2023-01-05T13:43:32.409Z</time>
      </trkpt>
      <trkpt lat="39.5689" lon="2.63701">
        <ele>50.024782</ele>
        <time>2023-01-05T13:43:34.429Z</time>
      </trkpt>
      <trkpt lat="39.56889" lon="2.63688">
        <ele>49.929085</ele>
        <time>2023-01-05T13:43:36.415Z</time>
      </trkpt>
      <trkpt lat="39.56888" lon="2.63676">
        <ele>49.837654</ele>
        <time>2023-01-05T13:43:38.411Z</time>
      </trkpt>
      <trkpt lat="39.56886" lon="2.63663">
        <ele>49.816026</ele>
        <time>2023-01-05T13:43:40.422Z</time>
      </trkpt>
      <trkpt lat="39.56886" lon="2.63651">
        <ele>49.794056</ele>
        <time>2023-01-05T13:43:42.445Z</time>
      </trkpt>
      <trkpt lat="39.56885" lon="2.63638">
        <ele>49.772255</ele>
        <time>2023-01-05T13:43:44.428Z</time>
      </trkpt>
      <trkpt lat="39.56884" lon="2.63626">
        <ele>49.751446</ele>
        <time>2023-01-05T13:43:46.429Z</time>
      </trkpt>
      <trkpt lat="39.56883" lon="2.63614">
        <ele>49.730418</ele>
        <time>2023-01-05T13:43:48.426Z</time>
      </trkpt>
      <trkpt lat="39.56881" lon="2.63602">
        <ele>49.709308</ele>
        <time>2023-01-05T13:43:50.424Z</time>
      </trkpt>
      <trkpt lat="39.56879" lon="2.63587">
        <ele>49.681404</ele>
        <time>2023-01-05T13:43:53.413Z</time>
      </trkpt>
      <trkpt lat="39.56874" lon="2.63571">
        <ele>49.652875</ele>
        <time>2023-01-05T13:43:56.421Z</time>
      </trkpt>
      <trkpt lat="39.56869" lon="2.63555">
        <ele>49.622558</ele>
        <time>2023-01-05T13:43:59.424Z</time>
      </trkpt>
      <trkpt lat="39.56864" lon="2.6354">
        <ele>49.592858</ele>
        <time>2023-01-05T13:44:02.446Z</time>
      </trkpt>
      <trkpt lat="39.5686" lon="2.63525">
        <ele>49.565383</ele>
        <time>2023-01-05T13:44:05.422Z</time>
      </trkpt>
      <trkpt lat="39.56862" lon="2.63512">
        <ele>49.542042</ele>
        <time>2023-01-05T13:44:08.426Z</time>
      </trkpt>
      <trkpt lat="39.56867" lon="2.635">
        <ele>49.517908</ele>
        <time>2023-01-05T13:44:11.414Z</time>
      </trkpt>
      <trkpt lat="39.56866" lon="2.63484">
        <ele>49.489595</ele>
        <time>2023-01-05T13:44:14.427Z</time>
      </trkpt>
      <trkpt lat="39.56865" lon="2.63467">
        <ele>49.460157</ele>
        <time>2023-01-05T13:44:17.411Z</time>
      </trkpt>
      <trkpt lat="39.56864" lon="2.63449">
        <ele>49.431724</ele>
        <time>2023-01-05T13:44:20.432Z</time>
      </trkpt>
      <trkpt lat="39.56863" lon="2.63434">
        <ele>49.431724</ele>
        <time>2023-01-05T13:44:22.426Z</time>
      </trkpt>
      <trkpt lat="39.56862" lon="2.63416">
        <ele>49.431724</ele>
        <time>2023-01-05T13:44:25.426Z</time>
      </trkpt>
      <trkpt lat="39.56864" lon="2.63399">
        <ele>49.431724</ele>
        <time>2023-01-05T13:44:28.418Z</time>
      </trkpt>
      <trkpt lat="39.56862" lon="2.63383">
        <ele>49.431724</ele>
        <time>2023-01-05T13:44:31.422Z</time>
      </trkpt>
      <trkpt lat="39.56861" lon="2.63367">
        <ele>49.431724</ele>
        <time>2023-01-05T13:44:34.433Z</time>
      </trkpt>
      <trkpt lat="39.5686" lon="2.6335">
        <ele>49.431724</ele>
        <time>2023-01-05T13:44:37.421Z</time>
      </trkpt>
      <trkpt lat="39.56858" lon="2.63333">
        <ele>49.431724</ele>
        <time>2023-01-05T13:44:40.419Z</time>
      </trkpt>
      <trkpt lat="39.56858" lon="2.63317">
        <ele>49.431724</ele>
        <time>2023-01-05T13:44:43.413Z</time>
      </trkpt>
      <trkpt lat="39.56857" lon="2.63301">
        <ele>49.431724</ele>
        <time>2023-01-05T13:44:46.421Z</time>
      </trkpt>
      <trkpt lat="39.56854" lon="2.63285">
        <ele>49.431724</ele>
        <time>2023-01-05T13:44:49.418Z</time>
      </trkpt>
      <trkpt lat="39.5685" lon="2.63269">
        <ele>49.431724</ele>
        <time>2023-01-05T13:44:52.426Z</time>
      </trkpt>
      <trkpt lat="39.56845" lon="2.63254">
        <ele>49.431724</ele>
        <time>2023-01-05T13:44:55.437Z</time>
      </trkpt>
      <trkpt lat="39.56841" lon="2.63239">
        <ele>49.431724</ele>
        <time>2023-01-05T13:44:58.444Z</time>
      </trkpt>
      <trkpt lat="39.56837" lon="2.63225">
        <ele>49.431724</ele>
        <time>2023-01-05T13:45:01.411Z</time>
      </trkpt>
      <trkpt lat="39.56833" lon="2.63213">
        <ele>49.431724</ele>
        <time>2023-01-05T13:45:04.425Z</time>
      </trkpt>
      <trkpt lat="39.56829" lon="2.632">
        <ele>49.431724</ele>
        <time>2023-01-05T13:45:07.430Z</time>
      </trkpt>
      <trkpt lat="39.56824" lon="2.63187">
        <ele>49.431724</ele>
        <time>2023-01-05T13:45:11.423Z</time>
      </trkpt>
      <trkpt lat="39.56819" lon="2.63176">
        <ele>49.431724</ele>
        <time>2023-01-05T13:45:15.433Z</time>
      </trkpt>
      <trkpt lat="39.5682" lon="2.63162">
        <ele>49.431724</ele>
        <time>2023-01-05T13:45:20.412Z</time>
      </trkpt>
      <trkpt lat="39.5682" lon="2.63157">
        <ele>49.431724</ele>
        <time>2023-01-05T13:45:26.725Z</time>
      </trkpt>
    </trkseg>
  </trk>
</gpx>